<?xml version="1.0" encoding="UTF-8"?>
<gpx version="1.1" creator="https://www.youtrack.es" xsi:schemaLocation="http://www.topografix.com/GPX/1/1 http://www.topografix.com/GPX/1/1/gpx.xsd http://www.garmin.com/xmlschemas/GpxExtensions/v3 http://www.garmin.com/xmlschemas/GpxExtensionsv3.xsd http://www.garmin.com/xmlschemas/TrackPointExtension/v1 http://www.garmin.com/xmlschemas/TrackPointExtensionv1.xsd" xmlns:gpxtpx="http://www.garmin.com/xmlschemas/TrackPointExtension/v1" xmlns:gpxx="http://www.garmin.com/xmlschemas/GpxExtensions/v3" xmlns:xsi="http://www.w3.org/2001/XMLSchema-instance">
  <metadata>
    <author>
      <name>angel portilla silva</name>
      <email id="portillasilvaangel" domain="gmail.com"/>
    </author>
    <link href="https://www.youtrack.es">
      <text>YouTrack.es</text>
    </link>
    <time>2026-05-08T21:25:39Z</time>
  </metadata>
  <trk>
    <src>https://www.youtrack.es</src>
    <link href="https://www.youtrack.es/ruta/24938-marruecos-ciudades-impiriales">
      <text>YouTrack.es</text>
    </link>
    <trkseg>
      <trkpt lat="35.779607" lon="-5.810973">
        <ele>116.421</ele>
        <time>2019-10-06T16:14:38Z</time>
      </trkpt>
      <trkpt lat="35.779108" lon="-5.809859">
        <ele>111.941</ele>
        <time>2019-10-06T16:15:59Z</time>
      </trkpt>
      <trkpt lat="35.779251" lon="-5.808823">
        <ele>105.505</ele>
        <time>2019-10-06T16:16:43Z</time>
      </trkpt>
      <trkpt lat="35.779434" lon="-5.808443">
        <ele>111.308</ele>
        <time>2019-10-06T16:17:19Z</time>
      </trkpt>
      <trkpt lat="35.778632" lon="-5.807722">
        <ele>111.746</ele>
        <time>2019-10-06T16:17:52Z</time>
      </trkpt>
      <trkpt lat="35.777561" lon="-5.806081">
        <ele>109.474</ele>
        <time>2019-10-06T16:18:37Z</time>
      </trkpt>
      <trkpt lat="35.777055" lon="-5.804414">
        <ele>98.553</ele>
        <time>2019-10-06T16:19:02Z</time>
      </trkpt>
      <trkpt lat="35.776477" lon="-5.803404">
        <ele>81.255</ele>
        <time>2019-10-06T16:19:18Z</time>
      </trkpt>
      <trkpt lat="35.776146" lon="-5.802379">
        <ele>77.081</ele>
        <time>2019-10-06T16:20:02Z</time>
      </trkpt>
      <trkpt lat="35.772170" lon="-5.802163">
        <ele>62.699</ele>
        <time>2019-10-06T16:21:13Z</time>
      </trkpt>
      <trkpt lat="35.770506" lon="-5.803165">
        <ele>55.690</ele>
        <time>2019-10-06T16:21:58Z</time>
      </trkpt>
      <trkpt lat="35.770105" lon="-5.803859">
        <ele>50.945</ele>
        <time>2019-10-06T16:22:15Z</time>
      </trkpt>
      <trkpt lat="35.769619" lon="-5.804081">
        <ele>51.612</ele>
        <time>2019-10-06T16:22:34Z</time>
      </trkpt>
      <trkpt lat="35.767986" lon="-5.806400">
        <ele>51.632</ele>
        <time>2019-10-06T16:23:24Z</time>
      </trkpt>
      <trkpt lat="35.765116" lon="-5.811446">
        <ele>49.405</ele>
        <time>2019-10-06T16:25:07Z</time>
      </trkpt>
      <trkpt lat="35.764035" lon="-5.815829">
        <ele>57.308</ele>
        <time>2019-10-06T16:27:13Z</time>
      </trkpt>
      <trkpt lat="35.763628" lon="-5.816742">
        <ele>56.535</ele>
        <time>2019-10-06T16:27:29Z</time>
      </trkpt>
      <trkpt lat="35.760718" lon="-5.819738">
        <ele>61.993</ele>
        <time>2019-10-06T16:28:45Z</time>
      </trkpt>
      <trkpt lat="35.759759" lon="-5.821118">
        <ele>66.472</ele>
        <time>2019-10-06T16:29:17Z</time>
      </trkpt>
      <trkpt lat="35.759193" lon="-5.823213">
        <ele>68.274</ele>
        <time>2019-10-06T16:29:55Z</time>
      </trkpt>
      <trkpt lat="35.759327" lon="-5.827222">
        <ele>75.910</ele>
        <time>2019-10-06T16:30:59Z</time>
      </trkpt>
      <trkpt lat="35.758858" lon="-5.829037">
        <ele>74.268</ele>
        <time>2019-10-06T16:31:26Z</time>
      </trkpt>
      <trkpt lat="35.754961" lon="-5.832189">
        <ele>83.949</ele>
        <time>2019-10-06T16:33:09Z</time>
      </trkpt>
      <trkpt lat="35.751201" lon="-5.834332">
        <ele>96.974</ele>
        <time>2019-10-06T16:34:55Z</time>
      </trkpt>
      <trkpt lat="35.750402" lon="-5.835549">
        <ele>98.326</ele>
        <time>2019-10-06T16:35:25Z</time>
      </trkpt>
      <trkpt lat="35.749828" lon="-5.838816">
        <ele>99.547</ele>
        <time>2019-10-06T16:36:14Z</time>
      </trkpt>
      <trkpt lat="35.749069" lon="-5.840296">
        <ele>96.711</ele>
        <time>2019-10-06T16:36:39Z</time>
      </trkpt>
      <trkpt lat="35.747747" lon="-5.841598">
        <ele>97.808</ele>
        <time>2019-10-06T16:37:11Z</time>
      </trkpt>
      <trkpt lat="35.747364" lon="-5.841736">
        <ele>96.626</ele>
        <time>2019-10-06T16:37:18Z</time>
      </trkpt>
      <trkpt lat="35.745440" lon="-5.843172">
        <ele>94.464</ele>
        <time>2019-10-06T16:37:57Z</time>
      </trkpt>
      <trkpt lat="35.740796" lon="-5.846890">
        <ele>102.133</ele>
        <time>2019-10-06T16:39:43Z</time>
      </trkpt>
      <trkpt lat="35.739735" lon="-5.848402">
        <ele>107.925</ele>
        <time>2019-10-06T16:40:16Z</time>
      </trkpt>
      <trkpt lat="35.739371" lon="-5.849410">
        <ele>105.591</ele>
        <time>2019-10-06T16:40:32Z</time>
      </trkpt>
      <trkpt lat="35.737941" lon="-5.855079">
        <ele>110.229</ele>
        <time>2019-10-06T16:42:03Z</time>
      </trkpt>
      <trkpt lat="35.737846" lon="-5.855601">
        <ele>110.450</ele>
        <time>2019-10-06T16:42:17Z</time>
      </trkpt>
      <trkpt lat="35.737938" lon="-5.855950">
        <ele>112.895</ele>
        <time>2019-10-06T16:42:43Z</time>
      </trkpt>
      <trkpt lat="35.737659" lon="-5.857263">
        <ele>108.323</ele>
        <time>2019-10-06T16:44:31Z</time>
      </trkpt>
      <trkpt lat="35.737336" lon="-5.857495">
        <ele>105.783</ele>
        <time>2019-10-06T16:44:58Z</time>
      </trkpt>
      <trkpt lat="35.736530" lon="-5.860109">
        <ele>101.111</ele>
        <time>2019-10-06T16:47:43Z</time>
      </trkpt>
      <trkpt lat="35.733160" lon="-5.868434">
        <ele>91.308</ele>
        <time>2019-10-06T16:49:37Z</time>
      </trkpt>
      <trkpt lat="35.731614" lon="-5.873431">
        <ele>80.156</ele>
        <time>2019-10-06T16:50:39Z</time>
      </trkpt>
      <trkpt lat="35.731643" lon="-5.873623">
        <ele>79.864</ele>
        <time>2019-10-06T16:50:43Z</time>
      </trkpt>
      <trkpt lat="35.732189" lon="-5.873984">
        <ele>81.113</ele>
        <time>2019-10-06T16:51:11Z</time>
      </trkpt>
      <trkpt lat="35.731612" lon="-5.873956">
        <ele>80.915</ele>
        <time>2019-10-06T16:52:47Z</time>
      </trkpt>
      <trkpt lat="35.731307" lon="-5.874211">
        <ele>81.031</ele>
        <time>2019-10-06T16:52:54Z</time>
      </trkpt>
      <trkpt lat="35.724889" lon="-5.894691">
        <ele>63.439</ele>
        <time>2019-10-06T16:57:23Z</time>
      </trkpt>
      <trkpt lat="35.723777" lon="-5.897473">
        <ele>61.670</ele>
        <time>2019-10-06T16:58:00Z</time>
      </trkpt>
      <trkpt lat="35.720193" lon="-5.902609">
        <ele>59.785</ele>
        <time>2019-10-06T16:59:24Z</time>
      </trkpt>
      <trkpt lat="35.719207" lon="-5.903640">
        <ele>60.387</ele>
        <time>2019-10-06T16:59:46Z</time>
      </trkpt>
      <trkpt lat="35.717864" lon="-5.904241">
        <ele>61.442</ele>
        <time>2019-10-06T17:00:12Z</time>
      </trkpt>
      <trkpt lat="35.717232" lon="-5.904297">
        <ele>61.626</ele>
        <time>2019-10-06T17:00:23Z</time>
      </trkpt>
      <trkpt lat="35.715559" lon="-5.904045">
        <ele>66.908</ele>
        <time>2019-10-06T17:01:01Z</time>
      </trkpt>
      <trkpt lat="35.713522" lon="-5.903499">
        <ele>69.432</ele>
        <time>2019-10-06T17:01:42Z</time>
      </trkpt>
      <trkpt lat="35.712769" lon="-5.903627">
        <ele>68.650</ele>
        <time>2019-10-06T17:01:59Z</time>
      </trkpt>
      <trkpt lat="35.712172" lon="-5.903916">
        <ele>70.799</ele>
        <time>2019-10-06T17:02:13Z</time>
      </trkpt>
      <trkpt lat="35.707359" lon="-5.908295">
        <ele>68.721</ele>
        <time>2019-10-06T17:03:57Z</time>
      </trkpt>
      <trkpt lat="35.699968" lon="-5.915439">
        <ele>66.177</ele>
        <time>2019-10-06T17:06:27Z</time>
      </trkpt>
      <trkpt lat="35.698999" lon="-5.916174">
        <ele>66.065</ele>
        <time>2019-10-06T17:06:44Z</time>
      </trkpt>
      <trkpt lat="35.698182" lon="-5.916405">
        <ele>64.956</ele>
        <time>2019-10-06T17:06:56Z</time>
      </trkpt>
      <trkpt lat="35.696525" lon="-5.916543">
        <ele>66.551</ele>
        <time>2019-10-06T17:07:20Z</time>
      </trkpt>
      <trkpt lat="35.690443" lon="-5.916703">
        <ele>64.978</ele>
        <time>2019-10-06T17:08:49Z</time>
      </trkpt>
      <trkpt lat="35.688289" lon="-5.917111">
        <ele>65.233</ele>
        <time>2019-10-06T17:09:23Z</time>
      </trkpt>
      <trkpt lat="35.686701" lon="-5.917737">
        <ele>64.326</ele>
        <time>2019-10-06T17:09:47Z</time>
      </trkpt>
      <trkpt lat="35.685423" lon="-5.918450">
        <ele>62.608</ele>
        <time>2019-10-06T17:10:08Z</time>
      </trkpt>
      <trkpt lat="35.684091" lon="-5.919371">
        <ele>63.151</ele>
        <time>2019-10-06T17:10:32Z</time>
      </trkpt>
      <trkpt lat="35.682121" lon="-5.921059">
        <ele>66.059</ele>
        <time>2019-10-06T17:11:13Z</time>
      </trkpt>
      <trkpt lat="35.681895" lon="-5.921684">
        <ele>68.368</ele>
        <time>2019-10-06T17:11:49Z</time>
      </trkpt>
      <trkpt lat="35.682178" lon="-5.922753">
        <ele>69.350</ele>
        <time>2019-10-06T17:12:07Z</time>
      </trkpt>
      <trkpt lat="35.682002" lon="-5.923663">
        <ele>69.096</ele>
        <time>2019-10-06T17:12:19Z</time>
      </trkpt>
      <trkpt lat="35.681765" lon="-5.924051">
        <ele>68.884</ele>
        <time>2019-10-06T17:12:25Z</time>
      </trkpt>
      <trkpt lat="35.680705" lon="-5.924963">
        <ele>63.865</ele>
        <time>2019-10-06T17:12:45Z</time>
      </trkpt>
      <trkpt lat="35.680060" lon="-5.925752">
        <ele>61.080</ele>
        <time>2019-10-06T17:12:58Z</time>
      </trkpt>
      <trkpt lat="35.676564" lon="-5.931725">
        <ele>61.313</ele>
        <time>2019-10-06T17:14:37Z</time>
      </trkpt>
      <trkpt lat="35.676156" lon="-5.932647">
        <ele>63.143</ele>
        <time>2019-10-06T17:14:51Z</time>
      </trkpt>
      <trkpt lat="35.675336" lon="-5.935595">
        <ele>64.007</ele>
        <time>2019-10-06T17:15:29Z</time>
      </trkpt>
      <trkpt lat="35.674731" lon="-5.936797">
        <ele>66.308</ele>
        <time>2019-10-06T17:15:47Z</time>
      </trkpt>
      <trkpt lat="35.674132" lon="-5.937470">
        <ele>65.825</ele>
        <time>2019-10-06T17:16:00Z</time>
      </trkpt>
      <trkpt lat="35.673464" lon="-5.937916">
        <ele>67.263</ele>
        <time>2019-10-06T17:16:13Z</time>
      </trkpt>
      <trkpt lat="35.670884" lon="-5.938553">
        <ele>75.022</ele>
        <time>2019-10-06T17:16:57Z</time>
      </trkpt>
      <trkpt lat="35.669585" lon="-5.939261">
        <ele>73.434</ele>
        <time>2019-10-06T17:17:21Z</time>
      </trkpt>
      <trkpt lat="35.666925" lon="-5.942299">
        <ele>71.040</ele>
        <time>2019-10-06T17:18:20Z</time>
      </trkpt>
      <trkpt lat="35.665020" lon="-5.945082">
        <ele>68.228</ele>
        <time>2019-10-06T17:19:05Z</time>
      </trkpt>
      <trkpt lat="35.663670" lon="-5.947531">
        <ele>64.919</ele>
        <time>2019-10-06T17:19:41Z</time>
      </trkpt>
      <trkpt lat="35.662603" lon="-5.949873">
        <ele>61.124</ele>
        <time>2019-10-06T17:20:13Z</time>
      </trkpt>
      <trkpt lat="35.656747" lon="-5.965514">
        <ele>50.946</ele>
        <time>2019-10-06T17:23:49Z</time>
      </trkpt>
      <trkpt lat="35.655991" lon="-5.966916">
        <ele>49.588</ele>
        <time>2019-10-06T17:24:10Z</time>
      </trkpt>
      <trkpt lat="35.654899" lon="-5.968342">
        <ele>52.316</ele>
        <time>2019-10-06T17:24:36Z</time>
      </trkpt>
      <trkpt lat="35.653119" lon="-5.969896">
        <ele>57.808</ele>
        <time>2019-10-06T17:25:13Z</time>
      </trkpt>
      <trkpt lat="35.651842" lon="-5.970611">
        <ele>59.168</ele>
        <time>2019-10-06T17:25:34Z</time>
      </trkpt>
      <trkpt lat="35.650304" lon="-5.971058">
        <ele>57.186</ele>
        <time>2019-10-06T17:25:59Z</time>
      </trkpt>
      <trkpt lat="35.645489" lon="-5.971366">
        <ele>56.045</ele>
        <time>2019-10-06T17:28:22Z</time>
      </trkpt>
      <trkpt lat="35.645520" lon="-5.971678">
        <ele>52.637</ele>
        <time>2019-10-06T17:30:17Z</time>
      </trkpt>
      <trkpt lat="35.645680" lon="-5.971754">
        <ele>51.933</ele>
        <time>2019-10-06T17:32:14Z</time>
      </trkpt>
      <trkpt lat="35.645479" lon="-5.971354">
        <ele>54.981</ele>
        <time>2019-10-06T17:34:38Z</time>
      </trkpt>
      <trkpt lat="35.637990" lon="-5.971916">
        <ele>62.852</ele>
        <time>2019-10-06T17:39:17Z</time>
      </trkpt>
      <trkpt lat="35.633351" lon="-5.972708">
        <ele>59.217</ele>
        <time>2019-10-06T17:40:33Z</time>
      </trkpt>
      <trkpt lat="35.628777" lon="-5.973873">
        <ele>57.776</ele>
        <time>2019-10-06T17:41:44Z</time>
      </trkpt>
      <trkpt lat="35.622156" lon="-5.976246">
        <ele>56.590</ele>
        <time>2019-10-06T17:43:33Z</time>
      </trkpt>
      <trkpt lat="35.610905" lon="-5.981561">
        <ele>56.219</ele>
        <time>2019-10-06T17:46:34Z</time>
      </trkpt>
      <trkpt lat="35.603925" lon="-5.984474">
        <ele>57.308</ele>
        <time>2019-10-06T17:48:29Z</time>
      </trkpt>
      <trkpt lat="35.597358" lon="-5.986875">
        <ele>53.571</ele>
        <time>2019-10-06T17:50:19Z</time>
      </trkpt>
      <trkpt lat="35.589053" lon="-5.989457">
        <ele>53.479</ele>
        <time>2019-10-06T17:52:37Z</time>
      </trkpt>
      <trkpt lat="35.587388" lon="-5.989593">
        <ele>52.858</ele>
        <time>2019-10-06T17:53:02Z</time>
      </trkpt>
      <trkpt lat="35.585578" lon="-5.989237">
        <ele>51.940</ele>
        <time>2019-10-06T17:54:30Z</time>
      </trkpt>
      <trkpt lat="35.584098" lon="-5.988386">
        <ele>51.676</ele>
        <time>2019-10-06T17:56:00Z</time>
      </trkpt>
      <trkpt lat="35.580421" lon="-5.985482">
        <ele>54.574</ele>
        <time>2019-10-06T17:58:10Z</time>
      </trkpt>
      <trkpt lat="35.579739" lon="-5.985240">
        <ele>53.155</ele>
        <time>2019-10-06T17:58:21Z</time>
      </trkpt>
      <trkpt lat="35.579029" lon="-5.985236">
        <ele>52.190</ele>
        <time>2019-10-06T17:58:32Z</time>
      </trkpt>
      <trkpt lat="35.578109" lon="-5.985572">
        <ele>52.944</ele>
        <time>2019-10-06T17:58:47Z</time>
      </trkpt>
      <trkpt lat="35.570825" lon="-5.990447">
        <ele>55.705</ele>
        <time>2019-10-06T18:02:37Z</time>
      </trkpt>
      <trkpt lat="35.568111" lon="-5.992038">
        <ele>54.415</ele>
        <time>2019-10-06T18:03:59Z</time>
      </trkpt>
      <trkpt lat="35.568123" lon="-5.991737">
        <ele>57.408</ele>
        <time>2019-10-06T18:05:09Z</time>
      </trkpt>
      <trkpt lat="35.568011" lon="-5.992122">
        <ele>56.948</ele>
        <time>2019-10-06T18:08:56Z</time>
      </trkpt>
      <trkpt lat="35.564647" lon="-5.993471">
        <ele>62.086</ele>
        <time>2019-10-06T18:10:33Z</time>
      </trkpt>
      <trkpt lat="35.562047" lon="-5.994141">
        <ele>58.635</ele>
        <time>2019-10-06T18:11:14Z</time>
      </trkpt>
      <trkpt lat="35.554109" lon="-5.995584">
        <ele>62.677</ele>
        <time>2019-10-06T18:13:35Z</time>
      </trkpt>
      <trkpt lat="35.552093" lon="-5.995765">
        <ele>66.053</ele>
        <time>2019-10-06T18:14:21Z</time>
      </trkpt>
      <trkpt lat="35.549893" lon="-5.995610">
        <ele>79.851</ele>
        <time>2019-10-06T18:15:21Z</time>
      </trkpt>
      <trkpt lat="35.545310" lon="-5.994675">
        <ele>86.022</ele>
        <time>2019-10-06T18:17:07Z</time>
      </trkpt>
      <trkpt lat="35.543950" lon="-5.994567">
        <ele>83.667</ele>
        <time>2019-10-06T18:17:30Z</time>
      </trkpt>
      <trkpt lat="35.542783" lon="-5.994660">
        <ele>84.463</ele>
        <time>2019-10-06T18:17:49Z</time>
      </trkpt>
      <trkpt lat="35.540911" lon="-5.995236">
        <ele>91.344</ele>
        <time>2019-10-06T18:18:26Z</time>
      </trkpt>
      <trkpt lat="35.539224" lon="-5.996077">
        <ele>94.618</ele>
        <time>2019-10-06T18:20:39Z</time>
      </trkpt>
      <trkpt lat="35.539089" lon="-5.996302">
        <ele>93.808</ele>
        <time>2019-10-06T18:21:15Z</time>
      </trkpt>
      <trkpt lat="35.537308" lon="-5.997377">
        <ele>95.850</ele>
        <time>2019-10-06T18:21:49Z</time>
      </trkpt>
      <trkpt lat="35.535805" lon="-5.998093">
        <ele>96.038</ele>
        <time>2019-10-06T18:22:17Z</time>
      </trkpt>
      <trkpt lat="35.533357" lon="-5.998900">
        <ele>100.397</ele>
        <time>2019-10-06T18:22:54Z</time>
      </trkpt>
      <trkpt lat="35.531413" lon="-5.999202">
        <ele>99.979</ele>
        <time>2019-10-06T18:23:22Z</time>
      </trkpt>
      <trkpt lat="35.529700" lon="-5.999198">
        <ele>94.385</ele>
        <time>2019-10-06T18:23:47Z</time>
      </trkpt>
      <trkpt lat="35.527665" lon="-5.998756">
        <ele>87.783</ele>
        <time>2019-10-06T18:24:19Z</time>
      </trkpt>
      <trkpt lat="35.526573" lon="-5.998335">
        <ele>85.624</ele>
        <time>2019-10-06T18:24:36Z</time>
      </trkpt>
      <trkpt lat="35.523907" lon="-5.996921">
        <ele>88.779</ele>
        <time>2019-10-06T18:25:16Z</time>
      </trkpt>
      <trkpt lat="35.522864" lon="-5.996651">
        <ele>86.053</ele>
        <time>2019-10-06T18:25:29Z</time>
      </trkpt>
      <trkpt lat="35.521851" lon="-5.996812">
        <ele>79.704</ele>
        <time>2019-10-06T18:25:40Z</time>
      </trkpt>
      <trkpt lat="35.519600" lon="-5.997948">
        <ele>66.914</ele>
        <time>2019-10-06T18:26:04Z</time>
      </trkpt>
      <trkpt lat="35.518019" lon="-5.998385">
        <ele>61.708</ele>
        <time>2019-10-06T18:26:22Z</time>
      </trkpt>
      <trkpt lat="35.516652" lon="-5.998439">
        <ele>60.769</ele>
        <time>2019-10-06T18:27:15Z</time>
      </trkpt>
      <trkpt lat="35.513894" lon="-5.998015">
        <ele>58.167</ele>
        <time>2019-10-06T18:27:57Z</time>
      </trkpt>
      <trkpt lat="35.512065" lon="-5.998316">
        <ele>54.066</ele>
        <time>2019-10-06T18:28:23Z</time>
      </trkpt>
      <trkpt lat="35.510886" lon="-5.998855">
        <ele>54.118</ele>
        <time>2019-10-06T18:28:41Z</time>
      </trkpt>
      <trkpt lat="35.507986" lon="-6.000778">
        <ele>56.754</ele>
        <time>2019-10-06T18:29:33Z</time>
      </trkpt>
      <trkpt lat="35.505207" lon="-6.003057">
        <ele>56.762</ele>
        <time>2019-10-06T18:30:28Z</time>
      </trkpt>
      <trkpt lat="35.503873" lon="-6.004562">
        <ele>54.383</ele>
        <time>2019-10-06T18:30:58Z</time>
      </trkpt>
      <trkpt lat="35.495163" lon="-6.016326">
        <ele>64.368</ele>
        <time>2019-10-06T18:34:43Z</time>
      </trkpt>
      <trkpt lat="35.492950" lon="-6.018719">
        <ele>58.029</ele>
        <time>2019-10-06T18:35:28Z</time>
      </trkpt>
      <trkpt lat="35.491705" lon="-6.019740">
        <ele>64.100</ele>
        <time>2019-10-06T18:35:51Z</time>
      </trkpt>
      <trkpt lat="35.489780" lon="-6.020976">
        <ele>59.520</ele>
        <time>2019-10-06T18:36:26Z</time>
      </trkpt>
      <trkpt lat="35.488443" lon="-6.021649">
        <ele>56.108</ele>
        <time>2019-10-06T18:36:49Z</time>
      </trkpt>
      <trkpt lat="35.478886" lon="-6.025539">
        <ele>59.676</ele>
        <time>2019-10-06T18:39:36Z</time>
      </trkpt>
      <trkpt lat="35.476891" lon="-6.026111">
        <ele>53.634</ele>
        <time>2019-10-06T18:40:16Z</time>
      </trkpt>
      <trkpt lat="35.474373" lon="-6.026471">
        <ele>58.013</ele>
        <time>2019-10-06T18:41:06Z</time>
      </trkpt>
      <trkpt lat="35.474169" lon="-6.026868">
        <ele>55.135</ele>
        <time>2019-10-06T18:41:16Z</time>
      </trkpt>
      <trkpt lat="35.473709" lon="-6.026808">
        <ele>56.391</ele>
        <time>2019-10-06T18:45:06Z</time>
      </trkpt>
      <trkpt lat="35.473227" lon="-6.027023">
        <ele>55.379</ele>
        <time>2019-10-06T18:45:19Z</time>
      </trkpt>
      <trkpt lat="35.471878" lon="-6.028262">
        <ele>58.950</ele>
        <time>2019-10-06T18:50:05Z</time>
      </trkpt>
      <trkpt lat="35.472175" lon="-6.027990">
        <ele>56.775</ele>
        <time>2019-10-06T18:50:26Z</time>
      </trkpt>
      <trkpt lat="35.472733" lon="-6.028328">
        <ele>57.491</ele>
        <time>2019-10-06T18:53:25Z</time>
      </trkpt>
      <trkpt lat="35.472846" lon="-6.028197">
        <ele>55.981</ele>
        <time>2019-10-06T18:53:40Z</time>
      </trkpt>
      <trkpt lat="35.472654" lon="-6.027960">
        <ele>55.019</ele>
        <time>2019-10-06T18:54:21Z</time>
      </trkpt>
      <trkpt lat="35.472701" lon="-6.028288">
        <ele>55.008</ele>
        <time>2019-10-06T18:54:55Z</time>
      </trkpt>
      <trkpt lat="35.472830" lon="-6.028264">
        <ele>56.923</ele>
        <time>2019-10-06T18:55:04Z</time>
      </trkpt>
      <trkpt lat="35.472494" lon="-6.028183">
        <ele>55.281</ele>
        <time>2019-10-06T18:55:54Z</time>
      </trkpt>
      <trkpt lat="35.472468" lon="-6.027966">
        <ele>7.085</ele>
        <time>2019-10-07T10:16:00Z</time>
      </trkpt>
      <trkpt lat="35.472372" lon="-6.028255">
        <ele>7.089</ele>
        <time>2019-10-07T10:18:12Z</time>
      </trkpt>
      <trkpt lat="35.472164" lon="-6.028003">
        <ele>7.017</ele>
        <time>2019-10-07T10:20:25Z</time>
      </trkpt>
      <trkpt lat="35.471978" lon="-6.028046">
        <ele>7.308</ele>
        <time>2019-10-07T10:20:41Z</time>
      </trkpt>
      <trkpt lat="35.470553" lon="-6.029289">
        <ele>6.122</ele>
        <time>2019-10-07T10:24:18Z</time>
      </trkpt>
      <trkpt lat="35.470638" lon="-6.029355">
        <ele>28.350</ele>
        <time>2019-10-07T10:53:20Z</time>
      </trkpt>
      <trkpt lat="35.469342" lon="-6.030347">
        <ele>49.019</ele>
        <time>2019-10-07T10:54:51Z</time>
      </trkpt>
      <trkpt lat="35.466681" lon="-6.033081">
        <ele>50.935</ele>
        <time>2019-10-07T10:56:44Z</time>
      </trkpt>
      <trkpt lat="35.466496" lon="-6.033491">
        <ele>52.861</ele>
        <time>2019-10-07T10:56:54Z</time>
      </trkpt>
      <trkpt lat="35.466335" lon="-6.035779">
        <ele>50.056</ele>
        <time>2019-10-07T10:57:37Z</time>
      </trkpt>
      <trkpt lat="35.466650" lon="-6.036010">
        <ele>49.855</ele>
        <time>2019-10-07T10:57:46Z</time>
      </trkpt>
      <trkpt lat="35.466745" lon="-6.036319">
        <ele>48.123</ele>
        <time>2019-10-07T10:57:52Z</time>
      </trkpt>
      <trkpt lat="35.465961" lon="-6.037731">
        <ele>43.776</ele>
        <time>2019-10-07T10:59:47Z</time>
      </trkpt>
      <trkpt lat="35.466007" lon="-6.037651">
        <ele>47.490</ele>
        <time>2019-10-07T11:00:27Z</time>
      </trkpt>
      <trkpt lat="35.465726" lon="-6.037530">
        <ele>51.919</ele>
        <time>2019-10-07T11:00:49Z</time>
      </trkpt>
      <trkpt lat="35.465096" lon="-6.037982">
        <ele>54.308</ele>
        <time>2019-10-07T11:02:06Z</time>
      </trkpt>
      <trkpt lat="35.464753" lon="-6.037809">
        <ele>56.791</ele>
        <time>2019-10-07T11:03:06Z</time>
      </trkpt>
      <trkpt lat="35.464752" lon="-6.037959">
        <ele>56.879</ele>
        <time>2019-10-07T11:03:17Z</time>
      </trkpt>
      <trkpt lat="35.464850" lon="-6.037857">
        <ele>57.098</ele>
        <time>2019-10-07T11:04:29Z</time>
      </trkpt>
      <trkpt lat="35.465241" lon="-6.037927">
        <ele>58.384</ele>
        <time>2019-10-07T11:06:11Z</time>
      </trkpt>
      <trkpt lat="35.465671" lon="-6.037510">
        <ele>51.840</ele>
        <time>2019-10-07T11:06:33Z</time>
      </trkpt>
      <trkpt lat="35.466017" lon="-6.037596">
        <ele>50.495</ele>
        <time>2019-10-07T11:06:48Z</time>
      </trkpt>
      <trkpt lat="35.466569" lon="-6.036719">
        <ele>47.444</ele>
        <time>2019-10-07T11:07:13Z</time>
      </trkpt>
      <trkpt lat="35.466718" lon="-6.036181">
        <ele>45.242</ele>
        <time>2019-10-07T11:07:55Z</time>
      </trkpt>
      <trkpt lat="35.466310" lon="-6.035653">
        <ele>49.097</ele>
        <time>2019-10-07T11:08:14Z</time>
      </trkpt>
      <trkpt lat="35.466497" lon="-6.033402">
        <ele>46.623</ele>
        <time>2019-10-07T11:08:59Z</time>
      </trkpt>
      <trkpt lat="35.466662" lon="-6.033014">
        <ele>48.125</ele>
        <time>2019-10-07T11:09:09Z</time>
      </trkpt>
      <trkpt lat="35.465953" lon="-6.031607">
        <ele>53.508</ele>
        <time>2019-10-07T11:10:19Z</time>
      </trkpt>
      <trkpt lat="35.465388" lon="-6.031992">
        <ele>55.853</ele>
        <time>2019-10-07T11:10:47Z</time>
      </trkpt>
      <trkpt lat="35.464732" lon="-6.030939">
        <ele>58.751</ele>
        <time>2019-10-07T11:11:17Z</time>
      </trkpt>
      <trkpt lat="35.463767" lon="-6.030717">
        <ele>70.810</ele>
        <time>2019-10-07T11:11:49Z</time>
      </trkpt>
      <trkpt lat="35.462785" lon="-6.030816">
        <ele>75.816</ele>
        <time>2019-10-07T11:12:23Z</time>
      </trkpt>
      <trkpt lat="35.459409" lon="-6.031571">
        <ele>82.942</ele>
        <time>2019-10-07T11:14:08Z</time>
      </trkpt>
      <trkpt lat="35.456769" lon="-6.032802">
        <ele>89.757</ele>
        <time>2019-10-07T11:15:21Z</time>
      </trkpt>
      <trkpt lat="35.450252" lon="-6.034834">
        <ele>97.556</ele>
        <time>2019-10-07T11:17:38Z</time>
      </trkpt>
      <trkpt lat="35.442741" lon="-6.039514">
        <ele>110.744</ele>
        <time>2019-10-07T11:20:39Z</time>
      </trkpt>
      <trkpt lat="35.441131" lon="-6.040035">
        <ele>113.638</ele>
        <time>2019-10-07T11:21:15Z</time>
      </trkpt>
      <trkpt lat="35.439722" lon="-6.040130">
        <ele>116.270</ele>
        <time>2019-10-07T11:21:46Z</time>
      </trkpt>
      <trkpt lat="35.438901" lon="-6.040033">
        <ele>117.517</ele>
        <time>2019-10-07T11:22:04Z</time>
      </trkpt>
      <trkpt lat="35.437675" lon="-6.039613">
        <ele>122.708</ele>
        <time>2019-10-07T11:22:31Z</time>
      </trkpt>
      <trkpt lat="35.430540" lon="-6.036337">
        <ele>124.087</ele>
        <time>2019-10-07T11:25:01Z</time>
      </trkpt>
      <trkpt lat="35.426831" lon="-6.035105">
        <ele>117.615</ele>
        <time>2019-10-07T11:25:52Z</time>
      </trkpt>
      <trkpt lat="35.425814" lon="-6.034529">
        <ele>111.844</ele>
        <time>2019-10-07T11:26:02Z</time>
      </trkpt>
      <trkpt lat="35.424650" lon="-6.033223">
        <ele>102.270</ele>
        <time>2019-10-07T11:26:15Z</time>
      </trkpt>
      <trkpt lat="35.422573" lon="-6.029117">
        <ele>79.416</ele>
        <time>2019-10-07T11:26:51Z</time>
      </trkpt>
      <trkpt lat="35.419568" lon="-6.024385">
        <ele>71.871</ele>
        <time>2019-10-07T11:28:06Z</time>
      </trkpt>
      <trkpt lat="35.418625" lon="-6.023522">
        <ele>78.280</ele>
        <time>2019-10-07T11:28:31Z</time>
      </trkpt>
      <trkpt lat="35.417469" lon="-6.022957">
        <ele>84.758</ele>
        <time>2019-10-07T11:29:00Z</time>
      </trkpt>
      <trkpt lat="35.407567" lon="-6.020329">
        <ele>91.065</ele>
        <time>2019-10-07T11:32:15Z</time>
      </trkpt>
      <trkpt lat="35.401272" lon="-6.019859">
        <ele>94.068</ele>
        <time>2019-10-07T11:34:15Z</time>
      </trkpt>
      <trkpt lat="35.395777" lon="-6.020309">
        <ele>98.614</ele>
        <time>2019-10-07T11:35:53Z</time>
      </trkpt>
      <trkpt lat="35.394496" lon="-6.020622">
        <ele>98.108</ele>
        <time>2019-10-07T11:36:18Z</time>
      </trkpt>
      <trkpt lat="35.391047" lon="-6.022059">
        <ele>103.730</ele>
        <time>2019-10-07T11:37:33Z</time>
      </trkpt>
      <trkpt lat="35.389447" lon="-6.022404">
        <ele>107.428</ele>
        <time>2019-10-07T11:38:06Z</time>
      </trkpt>
      <trkpt lat="35.387427" lon="-6.022447">
        <ele>105.197</ele>
        <time>2019-10-07T11:38:46Z</time>
      </trkpt>
      <trkpt lat="35.386244" lon="-6.022303">
        <ele>105.133</ele>
        <time>2019-10-07T11:39:08Z</time>
      </trkpt>
      <trkpt lat="35.384106" lon="-6.021621">
        <ele>109.569</ele>
        <time>2019-10-07T11:40:01Z</time>
      </trkpt>
      <trkpt lat="35.382582" lon="-6.020773">
        <ele>116.964</ele>
        <time>2019-10-07T11:40:55Z</time>
      </trkpt>
      <trkpt lat="35.380647" lon="-6.019205">
        <ele>127.673</ele>
        <time>2019-10-07T11:42:07Z</time>
      </trkpt>
      <trkpt lat="35.377863" lon="-6.016224">
        <ele>133.841</ele>
        <time>2019-10-07T11:43:39Z</time>
      </trkpt>
      <trkpt lat="35.376711" lon="-6.015423">
        <ele>140.029</ele>
        <time>2019-10-07T11:44:15Z</time>
      </trkpt>
      <trkpt lat="35.375513" lon="-6.014834">
        <ele>141.500</ele>
        <time>2019-10-07T11:44:45Z</time>
      </trkpt>
      <trkpt lat="35.373733" lon="-6.014425">
        <ele>139.820</ele>
        <time>2019-10-07T11:45:21Z</time>
      </trkpt>
      <trkpt lat="35.371888" lon="-6.014438">
        <ele>141.708</ele>
        <time>2019-10-07T11:46:00Z</time>
      </trkpt>
      <trkpt lat="35.370415" lon="-6.014792">
        <ele>146.666</ele>
        <time>2019-10-07T11:46:36Z</time>
      </trkpt>
      <trkpt lat="35.367139" lon="-6.016171">
        <ele>145.954</ele>
        <time>2019-10-07T11:47:50Z</time>
      </trkpt>
      <trkpt lat="35.365968" lon="-6.016296">
        <ele>143.863</ele>
        <time>2019-10-07T11:48:11Z</time>
      </trkpt>
      <trkpt lat="35.364899" lon="-6.016219">
        <ele>143.969</ele>
        <time>2019-10-07T11:48:29Z</time>
      </trkpt>
      <trkpt lat="35.363779" lon="-6.015883">
        <ele>141.875</ele>
        <time>2019-10-07T11:48:49Z</time>
      </trkpt>
      <trkpt lat="35.362746" lon="-6.015372">
        <ele>140.420</ele>
        <time>2019-10-07T11:49:08Z</time>
      </trkpt>
      <trkpt lat="35.358090" lon="-6.012109">
        <ele>140.859</ele>
        <time>2019-10-07T11:50:44Z</time>
      </trkpt>
      <trkpt lat="35.356746" lon="-6.011510">
        <ele>139.247</ele>
        <time>2019-10-07T11:51:10Z</time>
      </trkpt>
      <trkpt lat="35.355367" lon="-6.011164">
        <ele>139.353</ele>
        <time>2019-10-07T11:51:34Z</time>
      </trkpt>
      <trkpt lat="35.353495" lon="-6.011137">
        <ele>136.704</ele>
        <time>2019-10-07T11:52:07Z</time>
      </trkpt>
      <trkpt lat="35.349070" lon="-6.011567">
        <ele>129.814</ele>
        <time>2019-10-07T11:53:18Z</time>
      </trkpt>
      <trkpt lat="35.347230" lon="-6.011260">
        <ele>126.208</ele>
        <time>2019-10-07T11:53:51Z</time>
      </trkpt>
      <trkpt lat="35.347962" lon="-6.011473">
        <ele>129.069</ele>
        <time>2019-10-07T11:55:06Z</time>
      </trkpt>
      <trkpt lat="35.347759" lon="-6.011692">
        <ele>129.527</ele>
        <time>2019-10-07T11:55:20Z</time>
      </trkpt>
      <trkpt lat="35.347235" lon="-6.011520">
        <ele>127.826</ele>
        <time>2019-10-07T11:56:36Z</time>
      </trkpt>
      <trkpt lat="35.345852" lon="-6.011478">
        <ele>122.662</ele>
        <time>2019-10-07T11:57:39Z</time>
      </trkpt>
      <trkpt lat="35.345641" lon="-6.011700">
        <ele>120.368</ele>
        <time>2019-10-07T11:58:18Z</time>
      </trkpt>
      <trkpt lat="35.345642" lon="-6.011573">
        <ele>119.453</ele>
        <time>2019-10-07T11:58:32Z</time>
      </trkpt>
      <trkpt lat="35.345762" lon="-6.011988">
        <ele>118.062</ele>
        <time>2019-10-07T11:58:41Z</time>
      </trkpt>
      <trkpt lat="35.345535" lon="-6.012365">
        <ele>121.330</ele>
        <time>2019-10-07T11:59:29Z</time>
      </trkpt>
      <trkpt lat="35.343524" lon="-6.013407">
        <ele>92.212</ele>
        <time>2019-10-07T12:14:44Z</time>
      </trkpt>
      <trkpt lat="35.341643" lon="-6.013056">
        <ele>95.932</ele>
        <time>2019-10-07T12:15:34Z</time>
      </trkpt>
      <trkpt lat="35.341219" lon="-6.012390">
        <ele>96.505</ele>
        <time>2019-10-07T12:15:50Z</time>
      </trkpt>
      <trkpt lat="35.338970" lon="-6.012661">
        <ele>98.108</ele>
        <time>2019-10-07T12:16:40Z</time>
      </trkpt>
      <trkpt lat="35.337749" lon="-6.012525">
        <ele>100.935</ele>
        <time>2019-10-07T12:17:07Z</time>
      </trkpt>
      <trkpt lat="35.336809" lon="-6.012135">
        <ele>101.283</ele>
        <time>2019-10-07T12:17:26Z</time>
      </trkpt>
      <trkpt lat="35.334491" lon="-6.010621">
        <ele>98.442</ele>
        <time>2019-10-07T12:18:12Z</time>
      </trkpt>
      <trkpt lat="35.333378" lon="-6.010390">
        <ele>99.948</ele>
        <time>2019-10-07T12:18:36Z</time>
      </trkpt>
      <trkpt lat="35.332222" lon="-6.010348">
        <ele>102.814</ele>
        <time>2019-10-07T12:19:01Z</time>
      </trkpt>
      <trkpt lat="35.331671" lon="-6.010620">
        <ele>104.479</ele>
        <time>2019-10-07T12:21:52Z</time>
      </trkpt>
      <trkpt lat="35.331388" lon="-6.011738">
        <ele>105.468</ele>
        <time>2019-10-07T12:22:38Z</time>
      </trkpt>
      <trkpt lat="35.330877" lon="-6.012706">
        <ele>103.246</ele>
        <time>2019-10-07T12:22:57Z</time>
      </trkpt>
      <trkpt lat="35.330105" lon="-6.013458">
        <ele>105.611</ele>
        <time>2019-10-07T12:23:17Z</time>
      </trkpt>
      <trkpt lat="35.329381" lon="-6.013837">
        <ele>110.421</ele>
        <time>2019-10-07T12:23:37Z</time>
      </trkpt>
      <trkpt lat="35.325660" lon="-6.015034">
        <ele>122.903</ele>
        <time>2019-10-07T12:25:25Z</time>
      </trkpt>
      <trkpt lat="35.324373" lon="-6.015829">
        <ele>125.308</ele>
        <time>2019-10-07T12:26:01Z</time>
      </trkpt>
      <trkpt lat="35.322603" lon="-6.016461">
        <ele>129.425</ele>
        <time>2019-10-07T12:26:49Z</time>
      </trkpt>
      <trkpt lat="35.321273" lon="-6.017153">
        <ele>137.383</ele>
        <time>2019-10-07T12:27:32Z</time>
      </trkpt>
      <trkpt lat="35.319358" lon="-6.017480">
        <ele>142.722</ele>
        <time>2019-10-07T12:28:22Z</time>
      </trkpt>
      <trkpt lat="35.316695" lon="-6.018229">
        <ele>136.768</ele>
        <time>2019-10-07T12:29:07Z</time>
      </trkpt>
      <trkpt lat="35.314919" lon="-6.018910">
        <ele>131.324</ele>
        <time>2019-10-07T12:29:33Z</time>
      </trkpt>
      <trkpt lat="35.310116" lon="-6.019915">
        <ele>115.449</ele>
        <time>2019-10-07T12:30:38Z</time>
      </trkpt>
      <trkpt lat="35.307999" lon="-6.020949">
        <ele>121.818</ele>
        <time>2019-10-07T12:31:31Z</time>
      </trkpt>
      <trkpt lat="35.306954" lon="-6.021955">
        <ele>132.016</ele>
        <time>2019-10-07T12:32:19Z</time>
      </trkpt>
      <trkpt lat="35.305887" lon="-6.023800">
        <ele>141.654</ele>
        <time>2019-10-07T12:33:31Z</time>
      </trkpt>
      <trkpt lat="35.304993" lon="-6.027377">
        <ele>158.556</ele>
        <time>2019-10-07T12:36:24Z</time>
      </trkpt>
      <trkpt lat="35.304462" lon="-6.028158">
        <ele>163.011</ele>
        <time>2019-10-07T12:36:54Z</time>
      </trkpt>
      <trkpt lat="35.299608" lon="-6.029798">
        <ele>180.508</ele>
        <time>2019-10-07T12:39:41Z</time>
      </trkpt>
      <trkpt lat="35.297418" lon="-6.030154">
        <ele>191.229</ele>
        <time>2019-10-07T12:40:59Z</time>
      </trkpt>
      <trkpt lat="35.295680" lon="-6.031265">
        <ele>198.697</ele>
        <time>2019-10-07T12:42:06Z</time>
      </trkpt>
      <trkpt lat="35.295283" lon="-6.031834">
        <ele>200.296</ele>
        <time>2019-10-07T12:42:22Z</time>
      </trkpt>
      <trkpt lat="35.294438" lon="-6.033843">
        <ele>200.732</ele>
        <time>2019-10-07T12:43:01Z</time>
      </trkpt>
      <trkpt lat="35.294002" lon="-6.036551">
        <ele>194.768</ele>
        <time>2019-10-07T12:43:40Z</time>
      </trkpt>
      <trkpt lat="35.293688" lon="-6.037277">
        <ele>193.353</ele>
        <time>2019-10-07T12:43:52Z</time>
      </trkpt>
      <trkpt lat="35.290344" lon="-6.039426">
        <ele>198.742</ele>
        <time>2019-10-07T12:45:13Z</time>
      </trkpt>
      <trkpt lat="35.288113" lon="-6.041641">
        <ele>201.720</ele>
        <time>2019-10-07T12:46:54Z</time>
      </trkpt>
      <trkpt lat="35.287431" lon="-6.042533">
        <ele>199.931</ele>
        <time>2019-10-07T12:47:14Z</time>
      </trkpt>
      <trkpt lat="35.285990" lon="-6.045993">
        <ele>195.461</ele>
        <time>2019-10-07T12:48:03Z</time>
      </trkpt>
      <trkpt lat="35.285798" lon="-6.046808">
        <ele>193.407</ele>
        <time>2019-10-07T12:48:13Z</time>
      </trkpt>
      <trkpt lat="35.286438" lon="-6.054646">
        <ele>200.108</ele>
        <time>2019-10-07T12:50:21Z</time>
      </trkpt>
      <trkpt lat="35.286397" lon="-6.055480">
        <ele>203.577</ele>
        <time>2019-10-07T12:50:40Z</time>
      </trkpt>
      <trkpt lat="35.284708" lon="-6.059528">
        <ele>209.465</ele>
        <time>2019-10-07T12:52:01Z</time>
      </trkpt>
      <trkpt lat="35.283365" lon="-6.062300">
        <ele>204.294</ele>
        <time>2019-10-07T12:52:47Z</time>
      </trkpt>
      <trkpt lat="35.282873" lon="-6.063006">
        <ele>202.790</ele>
        <time>2019-10-07T12:53:00Z</time>
      </trkpt>
      <trkpt lat="35.280363" lon="-6.065281">
        <ele>196.356</ele>
        <time>2019-10-07T12:53:52Z</time>
      </trkpt>
      <trkpt lat="35.277785" lon="-6.068691">
        <ele>189.081</ele>
        <time>2019-10-07T12:54:49Z</time>
      </trkpt>
      <trkpt lat="35.277171" lon="-6.069168">
        <ele>187.960</ele>
        <time>2019-10-07T12:55:01Z</time>
      </trkpt>
      <trkpt lat="35.274290" lon="-6.069756">
        <ele>191.718</ele>
        <time>2019-10-07T12:55:55Z</time>
      </trkpt>
      <trkpt lat="35.271519" lon="-6.068952">
        <ele>194.579</ele>
        <time>2019-10-07T12:57:40Z</time>
      </trkpt>
      <trkpt lat="35.270720" lon="-6.068972">
        <ele>193.105</ele>
        <time>2019-10-07T12:57:54Z</time>
      </trkpt>
      <trkpt lat="35.268823" lon="-6.069860">
        <ele>191.625</ele>
        <time>2019-10-07T12:58:30Z</time>
      </trkpt>
      <trkpt lat="35.268441" lon="-6.070784">
        <ele>191.508</ele>
        <time>2019-10-07T12:59:39Z</time>
      </trkpt>
      <trkpt lat="35.268109" lon="-6.070434">
        <ele>191.011</ele>
        <time>2019-10-07T13:00:15Z</time>
      </trkpt>
      <trkpt lat="35.267602" lon="-6.070461">
        <ele>191.499</ele>
        <time>2019-10-07T13:00:28Z</time>
      </trkpt>
      <trkpt lat="35.266605" lon="-6.070961">
        <ele>190.548</ele>
        <time>2019-10-07T13:00:50Z</time>
      </trkpt>
      <trkpt lat="35.266710" lon="-6.071342">
        <ele>189.264</ele>
        <time>2019-10-07T13:03:22Z</time>
      </trkpt>
      <trkpt lat="35.266589" lon="-6.071027">
        <ele>193.460</ele>
        <time>2019-10-07T13:05:38Z</time>
      </trkpt>
      <trkpt lat="35.266234" lon="-6.071147">
        <ele>191.715</ele>
        <time>2019-10-07T13:06:39Z</time>
      </trkpt>
      <trkpt lat="35.261561" lon="-6.073467">
        <ele>183.184</ele>
        <time>2019-10-07T13:08:09Z</time>
      </trkpt>
      <trkpt lat="35.256915" lon="-6.078504">
        <ele>181.642</ele>
        <time>2019-10-07T13:10:10Z</time>
      </trkpt>
      <trkpt lat="35.254387" lon="-6.080273">
        <ele>185.675</ele>
        <time>2019-10-07T13:11:09Z</time>
      </trkpt>
      <trkpt lat="35.254372" lon="-6.080495">
        <ele>186.528</ele>
        <time>2019-10-07T13:12:05Z</time>
      </trkpt>
      <trkpt lat="35.254227" lon="-6.080440">
        <ele>188.320</ele>
        <time>2019-10-07T13:12:18Z</time>
      </trkpt>
      <trkpt lat="35.253596" lon="-6.080992">
        <ele>188.008</ele>
        <time>2019-10-07T13:12:35Z</time>
      </trkpt>
      <trkpt lat="35.251868" lon="-6.083638">
        <ele>188.571</ele>
        <time>2019-10-07T13:13:41Z</time>
      </trkpt>
      <trkpt lat="35.251240" lon="-6.087065">
        <ele>184.179</ele>
        <time>2019-10-07T13:14:42Z</time>
      </trkpt>
      <trkpt lat="35.250977" lon="-6.087530">
        <ele>185.218</ele>
        <time>2019-10-07T13:14:53Z</time>
      </trkpt>
      <trkpt lat="35.250578" lon="-6.087814">
        <ele>187.574</ele>
        <time>2019-10-07T13:15:05Z</time>
      </trkpt>
      <trkpt lat="35.247392" lon="-6.088992">
        <ele>190.190</ele>
        <time>2019-10-07T13:16:09Z</time>
      </trkpt>
      <trkpt lat="35.246449" lon="-6.089528">
        <ele>183.665</ele>
        <time>2019-10-07T13:16:21Z</time>
      </trkpt>
      <trkpt lat="35.244884" lon="-6.092462">
        <ele>170.514</ele>
        <time>2019-10-07T13:16:51Z</time>
      </trkpt>
      <trkpt lat="35.244746" lon="-6.093021">
        <ele>168.032</ele>
        <time>2019-10-07T13:16:56Z</time>
      </trkpt>
      <trkpt lat="35.244717" lon="-6.094573">
        <ele>158.137</ele>
        <time>2019-10-07T13:17:10Z</time>
      </trkpt>
      <trkpt lat="35.244244" lon="-6.095238">
        <ele>153.649</ele>
        <time>2019-10-07T13:17:18Z</time>
      </trkpt>
      <trkpt lat="35.242134" lon="-6.095775">
        <ele>142.613</ele>
        <time>2019-10-07T13:17:45Z</time>
      </trkpt>
      <trkpt lat="35.237250" lon="-6.098623">
        <ele>147.308</ele>
        <time>2019-10-07T13:19:21Z</time>
      </trkpt>
      <trkpt lat="35.232119" lon="-6.099755">
        <ele>128.077</ele>
        <time>2019-10-07T13:20:31Z</time>
      </trkpt>
      <trkpt lat="35.231053" lon="-6.099815">
        <ele>127.575</ele>
        <time>2019-10-07T13:20:47Z</time>
      </trkpt>
      <trkpt lat="35.229332" lon="-6.099270">
        <ele>120.284</ele>
        <time>2019-10-07T13:21:12Z</time>
      </trkpt>
      <trkpt lat="35.227325" lon="-6.097691">
        <ele>111.450</ele>
        <time>2019-10-07T13:21:35Z</time>
      </trkpt>
      <trkpt lat="35.225119" lon="-6.096909">
        <ele>96.626</ele>
        <time>2019-10-07T13:21:54Z</time>
      </trkpt>
      <trkpt lat="35.222725" lon="-6.095684">
        <ele>81.431</ele>
        <time>2019-10-07T13:22:17Z</time>
      </trkpt>
      <trkpt lat="35.221003" lon="-6.094030">
        <ele>75.810</ele>
        <time>2019-10-07T13:22:50Z</time>
      </trkpt>
      <trkpt lat="35.220359" lon="-6.093705">
        <ele>72.028</ele>
        <time>2019-10-07T13:23:00Z</time>
      </trkpt>
      <trkpt lat="35.219959" lon="-6.092448">
        <ele>66.761</ele>
        <time>2019-10-07T13:23:15Z</time>
      </trkpt>
      <trkpt lat="35.219471" lon="-6.091727">
        <ele>63.021</ele>
        <time>2019-10-07T13:23:24Z</time>
      </trkpt>
      <trkpt lat="35.218790" lon="-6.090976">
        <ele>59.013</ele>
        <time>2019-10-07T13:23:34Z</time>
      </trkpt>
      <trkpt lat="35.218166" lon="-6.090632">
        <ele>56.408</ele>
        <time>2019-10-07T13:23:41Z</time>
      </trkpt>
      <trkpt lat="35.216578" lon="-6.090258">
        <ele>49.010</ele>
        <time>2019-10-07T13:23:57Z</time>
      </trkpt>
      <trkpt lat="35.213194" lon="-6.088958">
        <ele>33.158</ele>
        <time>2019-10-07T13:24:31Z</time>
      </trkpt>
      <trkpt lat="35.208646" lon="-6.089116">
        <ele>21.677</ele>
        <time>2019-10-07T13:25:29Z</time>
      </trkpt>
      <trkpt lat="35.206294" lon="-6.089791">
        <ele>20.013</ele>
        <time>2019-10-07T13:26:04Z</time>
      </trkpt>
      <trkpt lat="35.205142" lon="-6.090703">
        <ele>20.269</ele>
        <time>2019-10-07T13:26:23Z</time>
      </trkpt>
      <trkpt lat="35.202292" lon="-6.095813">
        <ele>11.214</ele>
        <time>2019-10-07T13:28:35Z</time>
      </trkpt>
      <trkpt lat="35.202002" lon="-6.097196">
        <ele>11.263</ele>
        <time>2019-10-07T13:29:00Z</time>
      </trkpt>
      <trkpt lat="35.201685" lon="-6.097721">
        <ele>11.821</ele>
        <time>2019-10-07T13:29:11Z</time>
      </trkpt>
      <trkpt lat="35.200760" lon="-6.100829">
        <ele>9.514</ele>
        <time>2019-10-07T13:29:59Z</time>
      </trkpt>
      <trkpt lat="35.200325" lon="-6.103169">
        <ele>6.754</ele>
        <time>2019-10-07T13:30:33Z</time>
      </trkpt>
      <trkpt lat="35.197221" lon="-6.108277">
        <ele>9.109</ele>
        <time>2019-10-07T13:32:06Z</time>
      </trkpt>
      <trkpt lat="35.196947" lon="-6.108936">
        <ele>8.208</ele>
        <time>2019-10-07T13:32:17Z</time>
      </trkpt>
      <trkpt lat="35.196502" lon="-6.115068">
        <ele>2.615</ele>
        <time>2019-10-07T13:34:51Z</time>
      </trkpt>
      <trkpt lat="35.196669" lon="-6.114493">
        <ele>5.253</ele>
        <time>2019-10-07T13:36:02Z</time>
      </trkpt>
      <trkpt lat="35.196448" lon="-6.115095">
        <ele>6.842</ele>
        <time>2019-10-07T13:38:06Z</time>
      </trkpt>
      <trkpt lat="35.195999" lon="-6.121682">
        <ele>6.418</ele>
        <time>2019-10-07T13:40:06Z</time>
      </trkpt>
      <trkpt lat="35.191025" lon="-6.141406">
        <ele>3.884</ele>
        <time>2019-10-07T13:46:55Z</time>
      </trkpt>
      <trkpt lat="35.191074" lon="-6.142269">
        <ele>2.989</ele>
        <time>2019-10-07T13:47:09Z</time>
      </trkpt>
      <trkpt lat="35.191279" lon="-6.142763">
        <ele>2.118</ele>
        <time>2019-10-07T13:47:18Z</time>
      </trkpt>
      <trkpt lat="35.192412" lon="-6.143791">
        <ele>2.156</ele>
        <time>2019-10-07T13:47:46Z</time>
      </trkpt>
      <trkpt lat="35.193320" lon="-6.144253">
        <ele>5.755</ele>
        <time>2019-10-07T13:48:55Z</time>
      </trkpt>
      <trkpt lat="35.196517" lon="-6.145003">
        <ele>6.007</ele>
        <time>2019-10-07T13:50:07Z</time>
      </trkpt>
      <trkpt lat="35.196790" lon="-6.145221">
        <ele>6.117</ele>
        <time>2019-10-07T13:50:14Z</time>
      </trkpt>
      <trkpt lat="35.198635" lon="-6.148409">
        <ele>9.508</ele>
        <time>2019-10-07T13:51:36Z</time>
      </trkpt>
      <trkpt lat="35.198749" lon="-6.148855">
        <ele>11.279</ele>
        <time>2019-10-07T13:51:54Z</time>
      </trkpt>
      <trkpt lat="35.198459" lon="-6.149364">
        <ele>6.677</ele>
        <time>2019-10-07T13:53:16Z</time>
      </trkpt>
      <trkpt lat="35.198936" lon="-6.149372">
        <ele>6.246</ele>
        <time>2019-10-07T13:55:40Z</time>
      </trkpt>
      <trkpt lat="35.199359" lon="-6.150368">
        <ele>9.932</ele>
        <time>2019-10-07T13:57:02Z</time>
      </trkpt>
      <trkpt lat="35.199470" lon="-6.151456">
        <ele>10.958</ele>
        <time>2019-10-07T13:57:27Z</time>
      </trkpt>
      <trkpt lat="35.200121" lon="-6.152716">
        <ele>9.463</ele>
        <time>2019-10-07T13:58:57Z</time>
      </trkpt>
      <trkpt lat="35.199913" lon="-6.153143">
        <ele>10.272</ele>
        <time>2019-10-07T13:59:09Z</time>
      </trkpt>
      <trkpt lat="35.199362" lon="-6.153498">
        <ele>12.980</ele>
        <time>2019-10-07T13:59:29Z</time>
      </trkpt>
      <trkpt lat="35.199009" lon="-6.153554">
        <ele>14.316</ele>
        <time>2019-10-07T13:59:41Z</time>
      </trkpt>
      <trkpt lat="35.198246" lon="-6.153363">
        <ele>20.876</ele>
        <time>2019-10-07T14:00:13Z</time>
      </trkpt>
      <trkpt lat="35.197584" lon="-6.153981">
        <ele>28.813</ele>
        <time>2019-10-07T14:01:05Z</time>
      </trkpt>
      <trkpt lat="35.196852" lon="-6.154051">
        <ele>29.408</ele>
        <time>2019-10-07T14:02:03Z</time>
      </trkpt>
      <trkpt lat="35.196620" lon="-6.154294">
        <ele>28.565</ele>
        <time>2019-10-07T14:02:14Z</time>
      </trkpt>
      <trkpt lat="35.195915" lon="-6.155420">
        <ele>26.263</ele>
        <time>2019-10-07T14:02:56Z</time>
      </trkpt>
      <trkpt lat="35.195144" lon="-6.158342">
        <ele>32.882</ele>
        <time>2019-10-07T14:04:46Z</time>
      </trkpt>
      <trkpt lat="35.193473" lon="-6.161316">
        <ele>26.938</ele>
        <time>2019-10-07T14:08:43Z</time>
      </trkpt>
      <trkpt lat="35.192663" lon="-6.161751">
        <ele>29.644</ele>
        <time>2019-10-07T14:09:11Z</time>
      </trkpt>
      <trkpt lat="35.190156" lon="-6.162040">
        <ele>42.869</ele>
        <time>2019-10-07T14:14:29Z</time>
      </trkpt>
      <trkpt lat="35.188620" lon="-6.158808">
        <ele>41.748</ele>
        <time>2019-10-07T14:15:59Z</time>
      </trkpt>
      <trkpt lat="35.188481" lon="-6.159012">
        <ele>43.436</ele>
        <time>2019-10-07T14:16:30Z</time>
      </trkpt>
      <trkpt lat="35.188555" lon="-6.158724">
        <ele>45.795</ele>
        <time>2019-10-07T14:49:06Z</time>
      </trkpt>
      <trkpt lat="35.188389" lon="-6.158300">
        <ele>43.549</ele>
        <time>2019-10-07T14:49:20Z</time>
      </trkpt>
      <trkpt lat="35.187127" lon="-6.155744">
        <ele>51.223</ele>
        <time>2019-10-07T14:50:30Z</time>
      </trkpt>
      <trkpt lat="35.178613" lon="-6.158362">
        <ele>44.908</ele>
        <time>2019-10-07T14:53:25Z</time>
      </trkpt>
      <trkpt lat="35.174160" lon="-6.156882">
        <ele>40.153</ele>
        <time>2019-10-07T14:55:01Z</time>
      </trkpt>
      <trkpt lat="35.172288" lon="-6.148231">
        <ele>34.051</ele>
        <time>2019-10-07T14:57:24Z</time>
      </trkpt>
      <trkpt lat="35.171852" lon="-6.144820">
        <ele>48.850</ele>
        <time>2019-10-07T14:58:42Z</time>
      </trkpt>
      <trkpt lat="35.171661" lon="-6.144598">
        <ele>49.666</ele>
        <time>2019-10-07T14:58:49Z</time>
      </trkpt>
      <trkpt lat="35.163941" lon="-6.143942">
        <ele>31.572</ele>
        <time>2019-10-07T15:00:53Z</time>
      </trkpt>
      <trkpt lat="35.163417" lon="-6.143776">
        <ele>31.057</ele>
        <time>2019-10-07T15:01:01Z</time>
      </trkpt>
      <trkpt lat="35.140348" lon="-6.141562">
        <ele>28.926</ele>
        <time>2019-10-07T15:06:55Z</time>
      </trkpt>
      <trkpt lat="35.139733" lon="-6.141601">
        <ele>28.484</ele>
        <time>2019-10-07T15:07:06Z</time>
      </trkpt>
      <trkpt lat="35.139383" lon="-6.141796">
        <ele>27.312</ele>
        <time>2019-10-07T15:07:13Z</time>
      </trkpt>
      <trkpt lat="35.138995" lon="-6.141464">
        <ele>25.632</ele>
        <time>2019-10-07T15:07:22Z</time>
      </trkpt>
      <trkpt lat="35.138518" lon="-6.141342">
        <ele>25.805</ele>
        <time>2019-10-07T15:07:30Z</time>
      </trkpt>
      <trkpt lat="35.131438" lon="-6.140805">
        <ele>29.008</ele>
        <time>2019-10-07T15:09:24Z</time>
      </trkpt>
      <trkpt lat="35.131039" lon="-6.141762">
        <ele>27.975</ele>
        <time>2019-10-07T15:09:41Z</time>
      </trkpt>
      <trkpt lat="35.128480" lon="-6.146330">
        <ele>30.723</ele>
        <time>2019-10-07T15:11:08Z</time>
      </trkpt>
      <trkpt lat="35.103449" lon="-6.190569">
        <ele>34.082</ele>
        <time>2019-10-07T15:27:36Z</time>
      </trkpt>
      <trkpt lat="35.102734" lon="-6.191768">
        <ele>38.038</ele>
        <time>2019-10-07T15:28:05Z</time>
      </trkpt>
      <trkpt lat="35.102552" lon="-6.191821">
        <ele>36.764</ele>
        <time>2019-10-07T15:28:10Z</time>
      </trkpt>
      <trkpt lat="35.102284" lon="-6.191602">
        <ele>35.229</ele>
        <time>2019-10-07T15:28:17Z</time>
      </trkpt>
      <trkpt lat="35.102592" lon="-6.191856">
        <ele>37.628</ele>
        <time>2019-10-07T15:28:59Z</time>
      </trkpt>
      <trkpt lat="35.102584" lon="-6.192093">
        <ele>38.796</ele>
        <time>2019-10-07T15:29:05Z</time>
      </trkpt>
      <trkpt lat="35.095555" lon="-6.204540">
        <ele>43.843</ele>
        <time>2019-10-07T15:33:53Z</time>
      </trkpt>
      <trkpt lat="35.095264" lon="-6.204974">
        <ele>42.764</ele>
        <time>2019-10-07T15:34:03Z</time>
      </trkpt>
      <trkpt lat="35.095021" lon="-6.205062">
        <ele>42.210</ele>
        <time>2019-10-07T15:34:09Z</time>
      </trkpt>
      <trkpt lat="35.093266" lon="-6.203737">
        <ele>54.908</ele>
        <time>2019-10-07T15:35:18Z</time>
      </trkpt>
      <trkpt lat="35.048698" lon="-6.166336">
        <ele>73.898</ele>
        <time>2019-10-07T15:52:58Z</time>
      </trkpt>
      <trkpt lat="35.029363" lon="-6.150197">
        <ele>96.636</ele>
        <time>2019-10-07T16:00:21Z</time>
      </trkpt>
      <trkpt lat="35.028736" lon="-6.149803">
        <ele>100.595</ele>
        <time>2019-10-07T16:00:51Z</time>
      </trkpt>
      <trkpt lat="35.007153" lon="-6.187818">
        <ele>56.621</ele>
        <time>2019-10-07T16:22:58Z</time>
      </trkpt>
      <trkpt lat="35.006566" lon="-6.189113">
        <ele>57.067</ele>
        <time>2019-10-07T16:23:25Z</time>
      </trkpt>
      <trkpt lat="35.006396" lon="-6.190306">
        <ele>63.332</ele>
        <time>2019-10-07T16:24:20Z</time>
      </trkpt>
      <trkpt lat="35.006103" lon="-6.190601">
        <ele>61.631</ele>
        <time>2019-10-07T16:24:28Z</time>
      </trkpt>
      <trkpt lat="35.005443" lon="-6.190883">
        <ele>58.549</ele>
        <time>2019-10-07T16:24:39Z</time>
      </trkpt>
      <trkpt lat="35.004673" lon="-6.191921">
        <ele>53.065</ele>
        <time>2019-10-07T16:24:58Z</time>
      </trkpt>
      <trkpt lat="35.003798" lon="-6.193826">
        <ele>59.168</ele>
        <time>2019-10-07T16:25:47Z</time>
      </trkpt>
      <trkpt lat="34.997441" lon="-6.204903">
        <ele>49.914</ele>
        <time>2019-10-07T16:29:09Z</time>
      </trkpt>
      <trkpt lat="34.997040" lon="-6.204861">
        <ele>49.708</ele>
        <time>2019-10-07T16:29:16Z</time>
      </trkpt>
      <trkpt lat="34.994829" lon="-6.203587">
        <ele>49.480</ele>
        <time>2019-10-07T16:29:58Z</time>
      </trkpt>
      <trkpt lat="34.993784" lon="-6.205191">
        <ele>41.888</ele>
        <time>2019-10-07T16:30:18Z</time>
      </trkpt>
      <trkpt lat="34.992761" lon="-6.206016">
        <ele>38.637</ele>
        <time>2019-10-07T16:30:41Z</time>
      </trkpt>
      <trkpt lat="34.992096" lon="-6.206097">
        <ele>43.043</ele>
        <time>2019-10-07T16:31:00Z</time>
      </trkpt>
      <trkpt lat="34.991684" lon="-6.205927">
        <ele>44.599</ele>
        <time>2019-10-07T16:31:10Z</time>
      </trkpt>
      <trkpt lat="34.991347" lon="-6.205539">
        <ele>43.714</ele>
        <time>2019-10-07T16:31:20Z</time>
      </trkpt>
      <trkpt lat="34.990811" lon="-6.203824">
        <ele>48.053</ele>
        <time>2019-10-07T16:31:53Z</time>
      </trkpt>
      <trkpt lat="34.990639" lon="-6.203723">
        <ele>49.271</ele>
        <time>2019-10-07T16:31:59Z</time>
      </trkpt>
      <trkpt lat="34.927854" lon="-6.231026">
        <ele>44.867</ele>
        <time>2019-10-07T16:53:50Z</time>
      </trkpt>
      <trkpt lat="34.926904" lon="-6.231305">
        <ele>40.681</ele>
        <time>2019-10-07T16:54:00Z</time>
      </trkpt>
      <trkpt lat="34.864130" lon="-6.230700">
        <ele>11.119</ele>
        <time>2019-10-07T17:11:07Z</time>
      </trkpt>
      <trkpt lat="34.862838" lon="-6.230798">
        <ele>9.008</ele>
        <time>2019-10-07T17:11:28Z</time>
      </trkpt>
      <trkpt lat="34.862773" lon="-6.231040">
        <ele>8.480</ele>
        <time>2019-10-07T17:11:32Z</time>
      </trkpt>
      <trkpt lat="34.863830" lon="-6.232910">
        <ele>10.298</ele>
        <time>2019-10-07T17:12:07Z</time>
      </trkpt>
      <trkpt lat="34.865483" lon="-6.235113">
        <ele>9.617</ele>
        <time>2019-10-07T17:12:52Z</time>
      </trkpt>
      <trkpt lat="34.872432" lon="-6.247005">
        <ele>7.983</ele>
        <time>2019-10-07T17:16:53Z</time>
      </trkpt>
      <trkpt lat="34.873184" lon="-6.247722">
        <ele>9.179</ele>
        <time>2019-10-07T17:17:13Z</time>
      </trkpt>
      <trkpt lat="34.881395" lon="-6.253785">
        <ele>21.964</ele>
        <time>2019-10-07T17:20:41Z</time>
      </trkpt>
      <trkpt lat="34.884702" lon="-6.255909">
        <ele>11.243</ele>
        <time>2019-10-07T17:21:57Z</time>
      </trkpt>
      <trkpt lat="34.885649" lon="-6.257014">
        <ele>5.051</ele>
        <time>2019-10-07T17:22:22Z</time>
      </trkpt>
      <trkpt lat="34.886154" lon="-6.258415">
        <ele>5.163</ele>
        <time>2019-10-07T17:22:54Z</time>
      </trkpt>
      <trkpt lat="34.886629" lon="-6.258408">
        <ele>4.844</ele>
        <time>2019-10-07T17:23:12Z</time>
      </trkpt>
      <trkpt lat="34.886844" lon="-6.258803">
        <ele>5.318</ele>
        <time>2019-10-07T17:23:30Z</time>
      </trkpt>
      <trkpt lat="34.886844" lon="-6.258896">
        <ele>30.708</ele>
        <time>2019-10-07T17:47:27Z</time>
      </trkpt>
      <trkpt lat="34.886579" lon="-6.258417">
        <ele>46.540</ele>
        <time>2019-10-07T17:49:34Z</time>
      </trkpt>
      <trkpt lat="34.886204" lon="-6.258728">
        <ele>46.348</ele>
        <time>2019-10-07T17:50:25Z</time>
      </trkpt>
      <trkpt lat="34.886133" lon="-6.259986">
        <ele>45.547</ele>
        <time>2019-10-07T17:53:40Z</time>
      </trkpt>
      <trkpt lat="34.885612" lon="-6.261329">
        <ele>47.863</ele>
        <time>2019-10-07T17:54:30Z</time>
      </trkpt>
      <trkpt lat="34.884917" lon="-6.262327">
        <ele>51.359</ele>
        <time>2019-10-07T17:55:03Z</time>
      </trkpt>
      <trkpt lat="34.882234" lon="-6.265448">
        <ele>46.444</ele>
        <time>2019-10-07T17:56:18Z</time>
      </trkpt>
      <trkpt lat="34.881695" lon="-6.266480">
        <ele>50.783</ele>
        <time>2019-10-07T17:56:52Z</time>
      </trkpt>
      <trkpt lat="34.879373" lon="-6.273400">
        <ele>69.951</ele>
        <time>2019-10-07T18:02:38Z</time>
      </trkpt>
      <trkpt lat="34.878433" lon="-6.283420">
        <ele>55.559</ele>
        <time>2019-10-07T18:05:20Z</time>
      </trkpt>
      <trkpt lat="34.877989" lon="-6.286077">
        <ele>61.503</ele>
        <time>2019-10-07T18:06:48Z</time>
      </trkpt>
      <trkpt lat="34.877853" lon="-6.286130">
        <ele>60.823</ele>
        <time>2019-10-07T18:06:56Z</time>
      </trkpt>
      <trkpt lat="34.877383" lon="-6.285796">
        <ele>62.608</ele>
        <time>2019-10-07T18:07:12Z</time>
      </trkpt>
      <trkpt lat="34.877008" lon="-6.285942">
        <ele>62.339</ele>
        <time>2019-10-07T18:07:18Z</time>
      </trkpt>
      <trkpt lat="34.876218" lon="-6.288451">
        <ele>48.217</ele>
        <time>2019-10-07T18:07:54Z</time>
      </trkpt>
      <trkpt lat="34.875978" lon="-6.288383">
        <ele>43.496</ele>
        <time>2019-10-07T18:08:23Z</time>
      </trkpt>
      <trkpt lat="34.876006" lon="-6.288506">
        <ele>44.492</ele>
        <time>2019-10-07T18:09:12Z</time>
      </trkpt>
      <trkpt lat="34.875403" lon="-6.288104">
        <ele>8.316</ele>
        <time>2019-10-08T11:35:45Z</time>
      </trkpt>
      <trkpt lat="34.875455" lon="-6.287999">
        <ele>8.376</ele>
        <time>2019-10-08T11:37:00Z</time>
      </trkpt>
      <trkpt lat="34.875824" lon="-6.288280">
        <ele>8.313</ele>
        <time>2019-10-08T11:37:17Z</time>
      </trkpt>
      <trkpt lat="34.876034" lon="-6.288696">
        <ele>8.108</ele>
        <time>2019-10-08T11:40:01Z</time>
      </trkpt>
      <trkpt lat="34.875972" lon="-6.288493">
        <ele>9.255</ele>
        <time>2019-10-08T11:40:23Z</time>
      </trkpt>
      <trkpt lat="34.876041" lon="-6.288561">
        <ele>9.263</ele>
        <time>2019-10-08T11:40:56Z</time>
      </trkpt>
      <trkpt lat="34.876225" lon="-6.288348">
        <ele>10.533</ele>
        <time>2019-10-08T11:41:23Z</time>
      </trkpt>
      <trkpt lat="34.876862" lon="-6.285947">
        <ele>15.861</ele>
        <time>2019-10-08T11:44:05Z</time>
      </trkpt>
      <trkpt lat="34.877188" lon="-6.285805">
        <ele>20.147</ele>
        <time>2019-10-08T11:44:36Z</time>
      </trkpt>
      <trkpt lat="34.877861" lon="-6.286098">
        <ele>22.669</ele>
        <time>2019-10-08T11:45:58Z</time>
      </trkpt>
      <trkpt lat="34.878485" lon="-6.282037">
        <ele>13.410</ele>
        <time>2019-10-08T11:47:32Z</time>
      </trkpt>
      <trkpt lat="34.879363" lon="-6.273002">
        <ele>27.825</ele>
        <time>2019-10-08T11:51:36Z</time>
      </trkpt>
      <trkpt lat="34.881895" lon="-6.265940">
        <ele>7.775</ele>
        <time>2019-10-08T11:53:28Z</time>
      </trkpt>
      <trkpt lat="34.885579" lon="-6.261343">
        <ele>14.228</ele>
        <time>2019-10-08T11:55:23Z</time>
      </trkpt>
      <trkpt lat="34.886042" lon="-6.260039">
        <ele>10.020</ele>
        <time>2019-10-08T11:55:48Z</time>
      </trkpt>
      <trkpt lat="34.886075" lon="-6.258718">
        <ele>6.708</ele>
        <time>2019-10-08T11:58:53Z</time>
      </trkpt>
      <trkpt lat="34.886217" lon="-6.258610">
        <ele>8.691</ele>
        <time>2019-10-08T12:01:42Z</time>
      </trkpt>
      <trkpt lat="34.885985" lon="-6.258342">
        <ele>9.759</ele>
        <time>2019-10-08T12:03:07Z</time>
      </trkpt>
      <trkpt lat="34.885486" lon="-6.256993">
        <ele>8.749</ele>
        <time>2019-10-08T12:03:30Z</time>
      </trkpt>
      <trkpt lat="34.884746" lon="-6.256120">
        <ele>9.217</ele>
        <time>2019-10-08T12:03:48Z</time>
      </trkpt>
      <trkpt lat="34.883011" lon="-6.255090">
        <ele>11.243</ele>
        <time>2019-10-08T12:04:24Z</time>
      </trkpt>
      <trkpt lat="34.879232" lon="-6.252396">
        <ele>18.135</ele>
        <time>2019-10-08T12:05:39Z</time>
      </trkpt>
      <trkpt lat="34.874029" lon="-6.248637">
        <ele>12.656</ele>
        <time>2019-10-08T12:07:19Z</time>
      </trkpt>
      <trkpt lat="34.873918" lon="-6.248415">
        <ele>12.441</ele>
        <time>2019-10-08T12:21:04Z</time>
      </trkpt>
      <trkpt lat="34.872463" lon="-6.247284">
        <ele>14.053</ele>
        <time>2019-10-08T12:21:44Z</time>
      </trkpt>
      <trkpt lat="34.871373" lon="-6.245633">
        <ele>12.904</ele>
        <time>2019-10-08T12:22:12Z</time>
      </trkpt>
      <trkpt lat="34.865358" lon="-6.235219">
        <ele>10.214</ele>
        <time>2019-10-08T12:24:54Z</time>
      </trkpt>
      <trkpt lat="34.863765" lon="-6.233119">
        <ele>8.208</ele>
        <time>2019-10-08T12:25:31Z</time>
      </trkpt>
      <trkpt lat="34.862638" lon="-6.231092">
        <ele>7.959</ele>
        <time>2019-10-08T12:26:03Z</time>
      </trkpt>
      <trkpt lat="34.859723" lon="-6.226737">
        <ele>7.867</ele>
        <time>2019-10-08T12:27:14Z</time>
      </trkpt>
      <trkpt lat="34.858903" lon="-6.226044">
        <ele>6.897</ele>
        <time>2019-10-08T12:27:29Z</time>
      </trkpt>
      <trkpt lat="34.855347" lon="-6.223853">
        <ele>6.135</ele>
        <time>2019-10-08T12:28:30Z</time>
      </trkpt>
      <trkpt lat="34.854621" lon="-6.223148">
        <ele>5.651</ele>
        <time>2019-10-08T12:28:44Z</time>
      </trkpt>
      <trkpt lat="34.854115" lon="-6.221981">
        <ele>6.023</ele>
        <time>2019-10-08T12:29:00Z</time>
      </trkpt>
      <trkpt lat="34.853544" lon="-6.219345">
        <ele>11.184</ele>
        <time>2019-10-08T12:29:39Z</time>
      </trkpt>
      <trkpt lat="34.853106" lon="-6.218473">
        <ele>9.619</ele>
        <time>2019-10-08T12:29:52Z</time>
      </trkpt>
      <trkpt lat="34.852572" lon="-6.217793">
        <ele>11.385</ele>
        <time>2019-10-08T12:30:05Z</time>
      </trkpt>
      <trkpt lat="34.852008" lon="-6.217377">
        <ele>13.289</ele>
        <time>2019-10-08T12:30:17Z</time>
      </trkpt>
      <trkpt lat="34.851183" lon="-6.217099">
        <ele>12.617</ele>
        <time>2019-10-08T12:30:32Z</time>
      </trkpt>
      <trkpt lat="34.845190" lon="-6.216461">
        <ele>18.708</ele>
        <time>2019-10-08T12:35:56Z</time>
      </trkpt>
      <trkpt lat="34.845046" lon="-6.216748">
        <ele>19.132</ele>
        <time>2019-10-08T12:36:02Z</time>
      </trkpt>
      <trkpt lat="34.844894" lon="-6.219445">
        <ele>25.710</ele>
        <time>2019-10-08T12:36:46Z</time>
      </trkpt>
      <trkpt lat="34.844555" lon="-6.220548">
        <ele>24.960</ele>
        <time>2019-10-08T12:37:05Z</time>
      </trkpt>
      <trkpt lat="34.840768" lon="-6.225628">
        <ele>21.448</ele>
        <time>2019-10-08T12:38:54Z</time>
      </trkpt>
      <trkpt lat="34.840380" lon="-6.225881">
        <ele>21.244</ele>
        <time>2019-10-08T12:39:02Z</time>
      </trkpt>
      <trkpt lat="34.839122" lon="-6.226207">
        <ele>20.416</ele>
        <time>2019-10-08T12:39:26Z</time>
      </trkpt>
      <trkpt lat="34.838835" lon="-6.226434">
        <ele>20.497</ele>
        <time>2019-10-08T12:39:32Z</time>
      </trkpt>
      <trkpt lat="34.838416" lon="-6.228031">
        <ele>21.452</ele>
        <time>2019-10-08T12:39:58Z</time>
      </trkpt>
      <trkpt lat="34.838397" lon="-6.228712">
        <ele>21.014</ele>
        <time>2019-10-08T12:40:07Z</time>
      </trkpt>
      <trkpt lat="34.838167" lon="-6.229132">
        <ele>19.554</ele>
        <time>2019-10-08T12:40:15Z</time>
      </trkpt>
      <trkpt lat="34.827453" lon="-6.239389">
        <ele>11.209</ele>
        <time>2019-10-08T12:44:51Z</time>
      </trkpt>
      <trkpt lat="34.824710" lon="-6.242663">
        <ele>10.508</ele>
        <time>2019-10-08T12:45:58Z</time>
      </trkpt>
      <trkpt lat="34.824166" lon="-6.243090">
        <ele>9.735</ele>
        <time>2019-10-08T12:46:11Z</time>
      </trkpt>
      <trkpt lat="34.823179" lon="-6.243359">
        <ele>10.283</ele>
        <time>2019-10-08T12:46:32Z</time>
      </trkpt>
      <trkpt lat="34.821191" lon="-6.243340">
        <ele>9.983</ele>
        <time>2019-10-08T12:47:14Z</time>
      </trkpt>
      <trkpt lat="34.819381" lon="-6.242768">
        <ele>10.381</ele>
        <time>2019-10-08T12:47:52Z</time>
      </trkpt>
      <trkpt lat="34.818841" lon="-6.242796">
        <ele>10.677</ele>
        <time>2019-10-08T12:48:02Z</time>
      </trkpt>
      <trkpt lat="34.818108" lon="-6.243082">
        <ele>12.219</ele>
        <time>2019-10-08T12:48:19Z</time>
      </trkpt>
      <trkpt lat="34.818031" lon="-6.242973">
        <ele>15.090</ele>
        <time>2019-10-08T12:48:59Z</time>
      </trkpt>
      <trkpt lat="34.817822" lon="-6.243204">
        <ele>19.315</ele>
        <time>2019-10-08T12:49:20Z</time>
      </trkpt>
      <trkpt lat="34.813515" lon="-6.245588">
        <ele>14.268</ele>
        <time>2019-10-08T12:50:49Z</time>
      </trkpt>
      <trkpt lat="34.812721" lon="-6.246478">
        <ele>13.142</ele>
        <time>2019-10-08T12:51:07Z</time>
      </trkpt>
      <trkpt lat="34.812331" lon="-6.247470">
        <ele>13.626</ele>
        <time>2019-10-08T12:51:21Z</time>
      </trkpt>
      <trkpt lat="34.811451" lon="-6.251240">
        <ele>23.608</ele>
        <time>2019-10-08T12:53:08Z</time>
      </trkpt>
      <trkpt lat="34.810950" lon="-6.252521">
        <ele>21.650</ele>
        <time>2019-10-08T12:53:29Z</time>
      </trkpt>
      <trkpt lat="34.803757" lon="-6.265341">
        <ele>7.958</ele>
        <time>2019-10-08T12:57:00Z</time>
      </trkpt>
      <trkpt lat="34.803293" lon="-6.266378">
        <ele>12.538</ele>
        <time>2019-10-08T12:57:21Z</time>
      </trkpt>
      <trkpt lat="34.801140" lon="-6.276186">
        <ele>11.756</ele>
        <time>2019-10-08T13:00:10Z</time>
      </trkpt>
      <trkpt lat="34.800708" lon="-6.277405">
        <ele>12.332</ele>
        <time>2019-10-08T13:00:32Z</time>
      </trkpt>
      <trkpt lat="34.798694" lon="-6.281542">
        <ele>16.984</ele>
        <time>2019-10-08T13:02:02Z</time>
      </trkpt>
      <trkpt lat="34.798235" lon="-6.282750">
        <ele>16.395</ele>
        <time>2019-10-08T13:02:23Z</time>
      </trkpt>
      <trkpt lat="34.793805" lon="-6.298837">
        <ele>29.250</ele>
        <time>2019-10-08T13:07:04Z</time>
      </trkpt>
      <trkpt lat="34.793128" lon="-6.300906">
        <ele>29.679</ele>
        <time>2019-10-08T13:07:40Z</time>
      </trkpt>
      <trkpt lat="34.792429" lon="-6.301982">
        <ele>26.505</ele>
        <time>2019-10-08T13:08:03Z</time>
      </trkpt>
      <trkpt lat="34.788303" lon="-6.306832">
        <ele>17.225</ele>
        <time>2019-10-08T13:09:36Z</time>
      </trkpt>
      <trkpt lat="34.787673" lon="-6.307924">
        <ele>19.008</ele>
        <time>2019-10-08T13:09:55Z</time>
      </trkpt>
      <trkpt lat="34.787449" lon="-6.309030">
        <ele>14.651</ele>
        <time>2019-10-08T13:10:11Z</time>
      </trkpt>
      <trkpt lat="34.787482" lon="-6.309738">
        <ele>12.069</ele>
        <time>2019-10-08T13:10:58Z</time>
      </trkpt>
      <trkpt lat="34.788147" lon="-6.314842">
        <ele>12.679</ele>
        <time>2019-10-08T13:12:20Z</time>
      </trkpt>
      <trkpt lat="34.787865" lon="-6.315727">
        <ele>12.967</ele>
        <time>2019-10-08T13:12:37Z</time>
      </trkpt>
      <trkpt lat="34.787519" lon="-6.315978">
        <ele>15.263</ele>
        <time>2019-10-08T13:12:47Z</time>
      </trkpt>
      <trkpt lat="34.786818" lon="-6.316092">
        <ele>16.835</ele>
        <time>2019-10-08T13:13:00Z</time>
      </trkpt>
      <trkpt lat="34.782654" lon="-6.316344">
        <ele>19.036</ele>
        <time>2019-10-08T13:14:18Z</time>
      </trkpt>
      <trkpt lat="34.779997" lon="-6.317391">
        <ele>20.721</ele>
        <time>2019-10-08T13:15:12Z</time>
      </trkpt>
      <trkpt lat="34.776345" lon="-6.319640">
        <ele>17.912</ele>
        <time>2019-10-08T13:16:12Z</time>
      </trkpt>
      <trkpt lat="34.775715" lon="-6.320302">
        <ele>16.432</ele>
        <time>2019-10-08T13:16:22Z</time>
      </trkpt>
      <trkpt lat="34.775394" lon="-6.320911">
        <ele>16.605</ele>
        <time>2019-10-08T13:16:31Z</time>
      </trkpt>
      <trkpt lat="34.773078" lon="-6.327070">
        <ele>20.608</ele>
        <time>2019-10-08T13:18:15Z</time>
      </trkpt>
      <trkpt lat="34.772171" lon="-6.328183">
        <ele>22.695</ele>
        <time>2019-10-08T13:18:39Z</time>
      </trkpt>
      <trkpt lat="34.771328" lon="-6.328681">
        <ele>20.953</ele>
        <time>2019-10-08T13:18:53Z</time>
      </trkpt>
      <trkpt lat="34.766542" lon="-6.329336">
        <ele>20.383</ele>
        <time>2019-10-08T13:20:27Z</time>
      </trkpt>
      <trkpt lat="34.765106" lon="-6.329827">
        <ele>21.981</ele>
        <time>2019-10-08T13:20:53Z</time>
      </trkpt>
      <trkpt lat="34.763920" lon="-6.329930">
        <ele>19.697</ele>
        <time>2019-10-08T13:21:12Z</time>
      </trkpt>
      <trkpt lat="34.763656" lon="-6.330303">
        <ele>17.469</ele>
        <time>2019-10-08T13:21:20Z</time>
      </trkpt>
      <trkpt lat="34.763294" lon="-6.331716">
        <ele>17.720</ele>
        <time>2019-10-08T13:21:46Z</time>
      </trkpt>
      <trkpt lat="34.762913" lon="-6.332486">
        <ele>20.395</ele>
        <time>2019-10-08T13:22:01Z</time>
      </trkpt>
      <trkpt lat="34.757962" lon="-6.338097">
        <ele>15.275</ele>
        <time>2019-10-08T13:23:59Z</time>
      </trkpt>
      <trkpt lat="34.755917" lon="-6.340193">
        <ele>11.028</ele>
        <time>2019-10-08T13:24:44Z</time>
      </trkpt>
      <trkpt lat="34.755186" lon="-6.341470">
        <ele>7.720</ele>
        <time>2019-10-08T13:25:13Z</time>
      </trkpt>
      <trkpt lat="34.754599" lon="-6.341750">
        <ele>6.208</ele>
        <time>2019-10-08T13:25:27Z</time>
      </trkpt>
      <trkpt lat="34.753745" lon="-6.341426">
        <ele>5.891</ele>
        <time>2019-10-08T13:25:42Z</time>
      </trkpt>
      <trkpt lat="34.753377" lon="-6.341472">
        <ele>6.119</ele>
        <time>2019-10-08T13:25:47Z</time>
      </trkpt>
      <trkpt lat="34.752395" lon="-6.342919">
        <ele>7.959</ele>
        <time>2019-10-08T13:26:14Z</time>
      </trkpt>
      <trkpt lat="34.748935" lon="-6.345719">
        <ele>14.887</ele>
        <time>2019-10-08T13:27:40Z</time>
      </trkpt>
      <trkpt lat="34.744187" lon="-6.348591">
        <ele>16.973</ele>
        <time>2019-10-08T13:29:24Z</time>
      </trkpt>
      <trkpt lat="34.740877" lon="-6.351586">
        <ele>15.025</ele>
        <time>2019-10-08T13:30:38Z</time>
      </trkpt>
      <trkpt lat="34.737340" lon="-6.354171">
        <ele>15.166</ele>
        <time>2019-10-08T13:31:54Z</time>
      </trkpt>
      <trkpt lat="34.732407" lon="-6.356259">
        <ele>15.351</ele>
        <time>2019-10-08T13:33:33Z</time>
      </trkpt>
      <trkpt lat="34.729357" lon="-6.358059">
        <ele>15.984</ele>
        <time>2019-10-08T13:34:39Z</time>
      </trkpt>
      <trkpt lat="34.722900" lon="-6.361541">
        <ele>10.907</ele>
        <time>2019-10-08T13:36:40Z</time>
      </trkpt>
      <trkpt lat="34.717143" lon="-6.364051">
        <ele>13.917</ele>
        <time>2019-10-08T13:38:31Z</time>
      </trkpt>
      <trkpt lat="34.712327" lon="-6.366925">
        <ele>11.908</ele>
        <time>2019-10-08T13:40:09Z</time>
      </trkpt>
      <trkpt lat="34.707547" lon="-6.368697">
        <ele>15.122</ele>
        <time>2019-10-08T13:41:40Z</time>
      </trkpt>
      <trkpt lat="34.699972" lon="-6.371999">
        <ele>16.990</ele>
        <time>2019-10-08T13:44:01Z</time>
      </trkpt>
      <trkpt lat="34.686207" lon="-6.380137">
        <ele>7.820</ele>
        <time>2019-10-08T13:48:24Z</time>
      </trkpt>
      <trkpt lat="34.682528" lon="-6.382001">
        <ele>7.578</ele>
        <time>2019-10-08T13:49:32Z</time>
      </trkpt>
      <trkpt lat="34.681704" lon="-6.382394">
        <ele>8.434</ele>
        <time>2019-10-08T13:49:50Z</time>
      </trkpt>
      <trkpt lat="34.681709" lon="-6.382006">
        <ele>10.786</ele>
        <time>2019-10-08T13:53:29Z</time>
      </trkpt>
      <trkpt lat="34.681700" lon="-6.382378">
        <ele>12.567</ele>
        <time>2019-10-08T13:53:48Z</time>
      </trkpt>
      <trkpt lat="34.680802" lon="-6.382827">
        <ele>10.552</ele>
        <time>2019-10-08T13:54:09Z</time>
      </trkpt>
      <trkpt lat="34.674553" lon="-6.384929">
        <ele>7.255</ele>
        <time>2019-10-08T13:56:10Z</time>
      </trkpt>
      <trkpt lat="34.668855" lon="-6.387708">
        <ele>9.207</ele>
        <time>2019-10-08T13:58:18Z</time>
      </trkpt>
      <trkpt lat="34.665224" lon="-6.389280">
        <ele>14.317</ele>
        <time>2019-10-08T13:59:36Z</time>
      </trkpt>
      <trkpt lat="34.661372" lon="-6.391390">
        <ele>12.308</ele>
        <time>2019-10-08T14:00:53Z</time>
      </trkpt>
      <trkpt lat="34.657292" lon="-6.394014">
        <ele>7.539</ele>
        <time>2019-10-08T14:02:09Z</time>
      </trkpt>
      <trkpt lat="34.641050" lon="-6.406206">
        <ele>7.437</ele>
        <time>2019-10-08T14:07:36Z</time>
      </trkpt>
      <trkpt lat="34.637682" lon="-6.407432">
        <ele>5.257</ele>
        <time>2019-10-08T14:09:01Z</time>
      </trkpt>
      <trkpt lat="34.635149" lon="-6.409022">
        <ele>7.185</ele>
        <time>2019-10-08T14:11:02Z</time>
      </trkpt>
      <trkpt lat="34.632209" lon="-6.411469">
        <ele>9.831</ele>
        <time>2019-10-08T14:12:20Z</time>
      </trkpt>
      <trkpt lat="34.628430" lon="-6.414899">
        <ele>10.853</ele>
        <time>2019-10-08T14:15:49Z</time>
      </trkpt>
      <trkpt lat="34.625946" lon="-6.417577">
        <ele>6.634</ele>
        <time>2019-10-08T14:16:55Z</time>
      </trkpt>
      <trkpt lat="34.625133" lon="-6.418147">
        <ele>4.169</ele>
        <time>2019-10-08T14:17:14Z</time>
      </trkpt>
      <trkpt lat="34.621708" lon="-6.419892">
        <ele>10.765</ele>
        <time>2019-10-08T14:18:32Z</time>
      </trkpt>
      <trkpt lat="34.619243" lon="-6.421356">
        <ele>13.868</ele>
        <time>2019-10-08T14:19:30Z</time>
      </trkpt>
      <trkpt lat="34.614885" lon="-6.425242">
        <ele>12.414</ele>
        <time>2019-10-08T14:21:10Z</time>
      </trkpt>
      <trkpt lat="34.610525" lon="-6.428325">
        <ele>10.808</ele>
        <time>2019-10-08T14:22:47Z</time>
      </trkpt>
      <trkpt lat="34.606335" lon="-6.430990">
        <ele>18.580</ele>
        <time>2019-10-08T14:24:47Z</time>
      </trkpt>
      <trkpt lat="34.599242" lon="-6.436015">
        <ele>20.958</ele>
        <time>2019-10-08T14:27:28Z</time>
      </trkpt>
      <trkpt lat="34.594183" lon="-6.439029">
        <ele>13.628</ele>
        <time>2019-10-08T14:29:23Z</time>
      </trkpt>
      <trkpt lat="34.587684" lon="-6.442538">
        <ele>15.066</ele>
        <time>2019-10-08T14:31:41Z</time>
      </trkpt>
      <trkpt lat="34.577784" lon="-6.446569">
        <ele>20.882</ele>
        <time>2019-10-08T14:35:08Z</time>
      </trkpt>
      <trkpt lat="34.569311" lon="-6.450941">
        <ele>6.894</ele>
        <time>2019-10-08T14:37:31Z</time>
      </trkpt>
      <trkpt lat="34.566755" lon="-6.452138">
        <ele>11.555</ele>
        <time>2019-10-08T14:38:27Z</time>
      </trkpt>
      <trkpt lat="34.566361" lon="-6.452175">
        <ele>13.430</ele>
        <time>2019-10-08T14:43:31Z</time>
      </trkpt>
      <trkpt lat="34.566347" lon="-6.452337">
        <ele>13.511</ele>
        <time>2019-10-08T14:43:50Z</time>
      </trkpt>
      <trkpt lat="34.565855" lon="-6.452590">
        <ele>15.721</ele>
        <time>2019-10-08T14:44:07Z</time>
      </trkpt>
      <trkpt lat="34.562392" lon="-6.453833">
        <ele>14.803</ele>
        <time>2019-10-08T14:45:29Z</time>
      </trkpt>
      <trkpt lat="34.560047" lon="-6.454986">
        <ele>13.808</ele>
        <time>2019-10-08T14:46:15Z</time>
      </trkpt>
      <trkpt lat="34.552713" lon="-6.456893">
        <ele>9.055</ele>
        <time>2019-10-08T14:48:31Z</time>
      </trkpt>
      <trkpt lat="34.544170" lon="-6.458637">
        <ele>19.293</ele>
        <time>2019-10-08T14:51:09Z</time>
      </trkpt>
      <trkpt lat="34.541123" lon="-6.459918">
        <ele>21.213</ele>
        <time>2019-10-08T14:52:22Z</time>
      </trkpt>
      <trkpt lat="34.540918" lon="-6.459816">
        <ele>19.491</ele>
        <time>2019-10-08T14:52:28Z</time>
      </trkpt>
      <trkpt lat="34.540703" lon="-6.459362">
        <ele>20.087</ele>
        <time>2019-10-08T14:53:06Z</time>
      </trkpt>
      <trkpt lat="34.540973" lon="-6.459828">
        <ele>38.669</ele>
        <time>2019-10-08T15:37:07Z</time>
      </trkpt>
      <trkpt lat="34.540894" lon="-6.460000">
        <ele>42.830</ele>
        <time>2019-10-08T15:37:15Z</time>
      </trkpt>
      <trkpt lat="34.533673" lon="-6.463253">
        <ele>29.565</ele>
        <time>2019-10-08T15:40:06Z</time>
      </trkpt>
      <trkpt lat="34.531989" lon="-6.464714">
        <ele>24.565</ele>
        <time>2019-10-08T15:40:55Z</time>
      </trkpt>
      <trkpt lat="34.528865" lon="-6.466400">
        <ele>21.368</ele>
        <time>2019-10-08T15:42:12Z</time>
      </trkpt>
      <trkpt lat="34.528206" lon="-6.466552">
        <ele>19.114</ele>
        <time>2019-10-08T15:42:29Z</time>
      </trkpt>
      <trkpt lat="34.527129" lon="-6.466489">
        <ele>19.108</ele>
        <time>2019-10-08T15:42:50Z</time>
      </trkpt>
      <trkpt lat="34.523317" lon="-6.466758">
        <ele>22.630</ele>
        <time>2019-10-08T15:44:06Z</time>
      </trkpt>
      <trkpt lat="34.514601" lon="-6.469543">
        <ele>20.398</ele>
        <time>2019-10-08T15:46:51Z</time>
      </trkpt>
      <trkpt lat="34.505778" lon="-6.473946">
        <ele>22.178</ele>
        <time>2019-10-08T15:51:28Z</time>
      </trkpt>
      <trkpt lat="34.502933" lon="-6.476697">
        <ele>19.226</ele>
        <time>2019-10-08T15:52:39Z</time>
      </trkpt>
      <trkpt lat="34.502018" lon="-6.477324">
        <ele>17.092</ele>
        <time>2019-10-08T15:52:59Z</time>
      </trkpt>
      <trkpt lat="34.501021" lon="-6.477685">
        <ele>17.484</ele>
        <time>2019-10-08T15:53:19Z</time>
      </trkpt>
      <trkpt lat="34.491117" lon="-6.480095">
        <ele>26.245</ele>
        <time>2019-10-08T15:56:35Z</time>
      </trkpt>
      <trkpt lat="34.490183" lon="-6.480614">
        <ele>24.180</ele>
        <time>2019-10-08T15:56:52Z</time>
      </trkpt>
      <trkpt lat="34.488159" lon="-6.482346">
        <ele>19.946</ele>
        <time>2019-10-08T15:57:34Z</time>
      </trkpt>
      <trkpt lat="34.483884" lon="-6.483772">
        <ele>21.088</ele>
        <time>2019-10-08T15:58:51Z</time>
      </trkpt>
      <trkpt lat="34.475383" lon="-6.490227">
        <ele>24.116</ele>
        <time>2019-10-08T16:01:48Z</time>
      </trkpt>
      <trkpt lat="34.472524" lon="-6.492034">
        <ele>20.808</ele>
        <time>2019-10-08T16:02:41Z</time>
      </trkpt>
      <trkpt lat="34.468716" lon="-6.493841">
        <ele>20.438</ele>
        <time>2019-10-08T16:03:45Z</time>
      </trkpt>
      <trkpt lat="34.461271" lon="-6.495437">
        <ele>21.556</ele>
        <time>2019-10-08T16:05:52Z</time>
      </trkpt>
      <trkpt lat="34.453426" lon="-6.497820">
        <ele>21.236</ele>
        <time>2019-10-08T16:08:04Z</time>
      </trkpt>
      <trkpt lat="34.452113" lon="-6.497984">
        <ele>20.354</ele>
        <time>2019-10-08T16:08:26Z</time>
      </trkpt>
      <trkpt lat="34.451096" lon="-6.497651">
        <ele>17.610</ele>
        <time>2019-10-08T16:08:45Z</time>
      </trkpt>
      <trkpt lat="34.450761" lon="-6.499132">
        <ele>15.322</ele>
        <time>2019-10-08T16:09:11Z</time>
      </trkpt>
      <trkpt lat="34.450480" lon="-6.499649">
        <ele>14.873</ele>
        <time>2019-10-08T16:09:20Z</time>
      </trkpt>
      <trkpt lat="34.449224" lon="-6.500326">
        <ele>11.818</ele>
        <time>2019-10-08T16:09:43Z</time>
      </trkpt>
      <trkpt lat="34.445432" lon="-6.504399">
        <ele>20.269</ele>
        <time>2019-10-08T16:11:13Z</time>
      </trkpt>
      <trkpt lat="34.444552" lon="-6.505162">
        <ele>18.104</ele>
        <time>2019-10-08T16:11:34Z</time>
      </trkpt>
      <trkpt lat="34.440341" lon="-6.507339">
        <ele>28.724</ele>
        <time>2019-10-08T16:14:05Z</time>
      </trkpt>
      <trkpt lat="34.435298" lon="-6.510265">
        <ele>28.508</ele>
        <time>2019-10-08T16:15:50Z</time>
      </trkpt>
      <trkpt lat="34.432094" lon="-6.512582">
        <ele>24.770</ele>
        <time>2019-10-08T16:16:48Z</time>
      </trkpt>
      <trkpt lat="34.428785" lon="-6.514716">
        <ele>22.038</ele>
        <time>2019-10-08T16:17:45Z</time>
      </trkpt>
      <trkpt lat="34.422853" lon="-6.517750">
        <ele>30.178</ele>
        <time>2019-10-08T16:19:52Z</time>
      </trkpt>
      <trkpt lat="34.418335" lon="-6.521126">
        <ele>22.936</ele>
        <time>2019-10-08T16:21:20Z</time>
      </trkpt>
      <trkpt lat="34.416289" lon="-6.521598">
        <ele>16.912</ele>
        <time>2019-10-08T16:21:50Z</time>
      </trkpt>
      <trkpt lat="34.415885" lon="-6.522094">
        <ele>16.624</ele>
        <time>2019-10-08T16:21:59Z</time>
      </trkpt>
      <trkpt lat="34.415596" lon="-6.523891">
        <ele>14.575</ele>
        <time>2019-10-08T16:22:27Z</time>
      </trkpt>
      <trkpt lat="34.415197" lon="-6.524497">
        <ele>18.470</ele>
        <time>2019-10-08T16:22:42Z</time>
      </trkpt>
      <trkpt lat="34.414810" lon="-6.524630">
        <ele>21.285</ele>
        <time>2019-10-08T16:22:50Z</time>
      </trkpt>
      <trkpt lat="34.413807" lon="-6.524599">
        <ele>21.689</ele>
        <time>2019-10-08T16:23:07Z</time>
      </trkpt>
      <trkpt lat="34.413432" lon="-6.524761">
        <ele>20.717</ele>
        <time>2019-10-08T16:23:13Z</time>
      </trkpt>
      <trkpt lat="34.407898" lon="-6.528582">
        <ele>23.308</ele>
        <time>2019-10-08T16:25:06Z</time>
      </trkpt>
      <trkpt lat="34.403030" lon="-6.531719">
        <ele>17.882</ele>
        <time>2019-10-08T16:26:39Z</time>
      </trkpt>
      <trkpt lat="34.401838" lon="-6.532205">
        <ele>19.230</ele>
        <time>2019-10-08T16:27:00Z</time>
      </trkpt>
      <trkpt lat="34.398533" lon="-6.533141">
        <ele>22.930</ele>
        <time>2019-10-08T16:27:58Z</time>
      </trkpt>
      <trkpt lat="34.397280" lon="-6.533740">
        <ele>22.518</ele>
        <time>2019-10-08T16:28:21Z</time>
      </trkpt>
      <trkpt lat="34.387694" lon="-6.540837">
        <ele>22.494</ele>
        <time>2019-10-08T16:31:38Z</time>
      </trkpt>
      <trkpt lat="34.386225" lon="-6.541221">
        <ele>16.216</ele>
        <time>2019-10-08T16:32:02Z</time>
      </trkpt>
      <trkpt lat="34.385485" lon="-6.541191">
        <ele>16.297</ele>
        <time>2019-10-08T16:32:15Z</time>
      </trkpt>
      <trkpt lat="34.384516" lon="-6.540920">
        <ele>18.012</ele>
        <time>2019-10-08T16:32:30Z</time>
      </trkpt>
      <trkpt lat="34.383552" lon="-6.540356">
        <ele>20.363</ele>
        <time>2019-10-08T16:32:45Z</time>
      </trkpt>
      <trkpt lat="34.381956" lon="-6.538864">
        <ele>19.644</ele>
        <time>2019-10-08T16:33:12Z</time>
      </trkpt>
      <trkpt lat="34.380545" lon="-6.537877">
        <ele>18.918</ele>
        <time>2019-10-08T16:33:33Z</time>
      </trkpt>
      <trkpt lat="34.378230" lon="-6.537026">
        <ele>21.308</ele>
        <time>2019-10-08T16:34:11Z</time>
      </trkpt>
      <trkpt lat="34.377496" lon="-6.536893">
        <ele>22.370</ele>
        <time>2019-10-08T16:34:23Z</time>
      </trkpt>
      <trkpt lat="34.376796" lon="-6.536977">
        <ele>23.698</ele>
        <time>2019-10-08T16:34:34Z</time>
      </trkpt>
      <trkpt lat="34.375852" lon="-6.537554">
        <ele>22.768</ele>
        <time>2019-10-08T16:34:51Z</time>
      </trkpt>
      <trkpt lat="34.372620" lon="-6.540730">
        <ele>18.946</ele>
        <time>2019-10-08T16:36:03Z</time>
      </trkpt>
      <trkpt lat="34.369172" lon="-6.542475">
        <ele>19.752</ele>
        <time>2019-10-08T16:37:04Z</time>
      </trkpt>
      <trkpt lat="34.366652" lon="-6.543999">
        <ele>16.394</ele>
        <time>2019-10-08T16:37:49Z</time>
      </trkpt>
      <trkpt lat="34.365947" lon="-6.544667">
        <ele>17.115</ele>
        <time>2019-10-08T16:38:04Z</time>
      </trkpt>
      <trkpt lat="34.364017" lon="-6.547211">
        <ele>19.040</ele>
        <time>2019-10-08T16:38:59Z</time>
      </trkpt>
      <trkpt lat="34.360315" lon="-6.549937">
        <ele>20.383</ele>
        <time>2019-10-08T16:40:28Z</time>
      </trkpt>
      <trkpt lat="34.359248" lon="-6.550112">
        <ele>20.425</ele>
        <time>2019-10-08T16:40:46Z</time>
      </trkpt>
      <trkpt lat="34.355484" lon="-6.549769">
        <ele>24.917</ele>
        <time>2019-10-08T16:41:57Z</time>
      </trkpt>
      <trkpt lat="34.354044" lon="-6.549880">
        <ele>34.508</ele>
        <time>2019-10-08T16:42:32Z</time>
      </trkpt>
      <trkpt lat="34.352608" lon="-6.550305">
        <ele>33.292</ele>
        <time>2019-10-08T16:43:05Z</time>
      </trkpt>
      <trkpt lat="34.349333" lon="-6.551788">
        <ele>22.310</ele>
        <time>2019-10-08T16:44:02Z</time>
      </trkpt>
      <trkpt lat="34.348266" lon="-6.552117">
        <ele>21.760</ele>
        <time>2019-10-08T16:44:21Z</time>
      </trkpt>
      <trkpt lat="34.341543" lon="-6.553002">
        <ele>18.918</ele>
        <time>2019-10-08T16:46:22Z</time>
      </trkpt>
      <trkpt lat="34.334787" lon="-6.555973">
        <ele>18.244</ele>
        <time>2019-10-08T16:48:25Z</time>
      </trkpt>
      <trkpt lat="34.318185" lon="-6.561863">
        <ele>14.676</ele>
        <time>2019-10-08T16:53:22Z</time>
      </trkpt>
      <trkpt lat="34.309604" lon="-6.565302">
        <ele>16.037</ele>
        <time>2019-10-08T16:56:01Z</time>
      </trkpt>
      <trkpt lat="34.301888" lon="-6.567273">
        <ele>19.342</ele>
        <time>2019-10-08T16:58:13Z</time>
      </trkpt>
      <trkpt lat="34.294129" lon="-6.570162">
        <ele>16.574</ele>
        <time>2019-10-08T17:00:46Z</time>
      </trkpt>
      <trkpt lat="34.292210" lon="-6.570746">
        <ele>17.356</ele>
        <time>2019-10-08T17:01:20Z</time>
      </trkpt>
      <trkpt lat="34.290048" lon="-6.570989">
        <ele>18.521</ele>
        <time>2019-10-08T17:01:58Z</time>
      </trkpt>
      <trkpt lat="34.283902" lon="-6.569839">
        <ele>15.408</ele>
        <time>2019-10-08T17:03:46Z</time>
      </trkpt>
      <trkpt lat="34.278628" lon="-6.569563">
        <ele>23.321</ele>
        <time>2019-10-08T17:05:20Z</time>
      </trkpt>
      <trkpt lat="34.276875" lon="-6.569791">
        <ele>21.849</ele>
        <time>2019-10-08T17:05:50Z</time>
      </trkpt>
      <trkpt lat="34.276133" lon="-6.569676">
        <ele>22.079</ele>
        <time>2019-10-08T17:06:38Z</time>
      </trkpt>
      <trkpt lat="34.276156" lon="-6.564630">
        <ele>18.537</ele>
        <time>2019-10-08T17:08:20Z</time>
      </trkpt>
      <trkpt lat="34.275805" lon="-6.564271">
        <ele>19.073</ele>
        <time>2019-10-08T17:08:30Z</time>
      </trkpt>
      <trkpt lat="34.275946" lon="-6.564012">
        <ele>18.425</ele>
        <time>2019-10-08T17:08:36Z</time>
      </trkpt>
      <trkpt lat="34.275724" lon="-6.564103">
        <ele>19.866</ele>
        <time>2019-10-08T17:09:21Z</time>
      </trkpt>
      <trkpt lat="34.275001" lon="-6.563516">
        <ele>17.781</ele>
        <time>2019-10-08T17:09:38Z</time>
      </trkpt>
      <trkpt lat="34.273900" lon="-6.563467">
        <ele>18.127</ele>
        <time>2019-10-08T17:09:59Z</time>
      </trkpt>
      <trkpt lat="34.273552" lon="-6.563597">
        <ele>19.268</ele>
        <time>2019-10-08T17:10:09Z</time>
      </trkpt>
      <trkpt lat="34.272360" lon="-6.565022">
        <ele>20.714</ele>
        <time>2019-10-08T17:10:49Z</time>
      </trkpt>
      <trkpt lat="34.269980" lon="-6.566885">
        <ele>23.608</ele>
        <time>2019-10-08T17:13:37Z</time>
      </trkpt>
      <trkpt lat="34.268415" lon="-6.569122">
        <ele>25.126</ele>
        <time>2019-10-08T17:14:35Z</time>
      </trkpt>
      <trkpt lat="34.267972" lon="-6.570173">
        <ele>25.414</ele>
        <time>2019-10-08T17:15:00Z</time>
      </trkpt>
      <trkpt lat="34.267230" lon="-6.570338">
        <ele>26.714</ele>
        <time>2019-10-08T17:15:23Z</time>
      </trkpt>
      <trkpt lat="34.267055" lon="-6.570951">
        <ele>30.612</ele>
        <time>2019-10-08T17:15:37Z</time>
      </trkpt>
      <trkpt lat="34.266252" lon="-6.572132">
        <ele>28.498</ele>
        <time>2019-10-08T17:17:28Z</time>
      </trkpt>
      <trkpt lat="34.266344" lon="-6.571555">
        <ele>24.270</ele>
        <time>2019-10-08T17:18:54Z</time>
      </trkpt>
      <trkpt lat="34.265514" lon="-6.570870">
        <ele>29.521</ele>
        <time>2019-10-08T17:19:32Z</time>
      </trkpt>
      <trkpt lat="34.264706" lon="-6.570630">
        <ele>31.076</ele>
        <time>2019-10-08T17:19:51Z</time>
      </trkpt>
      <trkpt lat="34.263382" lon="-6.570700">
        <ele>37.668</ele>
        <time>2019-10-08T17:21:13Z</time>
      </trkpt>
      <trkpt lat="34.263452" lon="-6.568885">
        <ele>45.342</ele>
        <time>2019-10-08T17:22:14Z</time>
      </trkpt>
      <trkpt lat="34.262300" lon="-6.568790">
        <ele>43.926</ele>
        <time>2019-10-08T17:22:48Z</time>
      </trkpt>
      <trkpt lat="34.260112" lon="-6.567147">
        <ele>40.608</ele>
        <time>2019-10-08T17:24:00Z</time>
      </trkpt>
      <trkpt lat="34.259254" lon="-6.567020">
        <ele>43.980</ele>
        <time>2019-10-08T17:24:31Z</time>
      </trkpt>
      <trkpt lat="34.257962" lon="-6.567107">
        <ele>36.788</ele>
        <time>2019-10-08T17:25:13Z</time>
      </trkpt>
      <trkpt lat="34.256967" lon="-6.567865">
        <ele>39.258</ele>
        <time>2019-10-08T17:25:49Z</time>
      </trkpt>
      <trkpt lat="34.256633" lon="-6.567375">
        <ele>36.516</ele>
        <time>2019-10-08T17:26:21Z</time>
      </trkpt>
      <trkpt lat="34.256794" lon="-6.567512">
        <ele>35.812</ele>
        <time>2019-10-08T17:26:33Z</time>
      </trkpt>
      <trkpt lat="34.256644" lon="-6.566731">
        <ele>29.599</ele>
        <time>2019-10-09T09:50:23Z</time>
      </trkpt>
      <trkpt lat="34.256893" lon="-6.566981">
        <ele>29.507</ele>
        <time>2019-10-09T09:50:43Z</time>
      </trkpt>
      <trkpt lat="34.256791" lon="-6.568129">
        <ele>33.727</ele>
        <time>2019-10-09T10:03:18Z</time>
      </trkpt>
      <trkpt lat="34.254459" lon="-6.570173">
        <ele>25.108</ele>
        <time>2019-10-09T10:04:30Z</time>
      </trkpt>
      <trkpt lat="34.253096" lon="-6.573568">
        <ele>33.433</ele>
        <time>2019-10-09T10:05:35Z</time>
      </trkpt>
      <trkpt lat="34.253253" lon="-6.573787">
        <ele>31.971</ele>
        <time>2019-10-09T10:05:59Z</time>
      </trkpt>
      <trkpt lat="34.254037" lon="-6.573891">
        <ele>26.721</ele>
        <time>2019-10-09T10:06:10Z</time>
      </trkpt>
      <trkpt lat="34.254850" lon="-6.574335">
        <ele>22.573</ele>
        <time>2019-10-09T10:06:19Z</time>
      </trkpt>
      <trkpt lat="34.255677" lon="-6.575028">
        <ele>16.474</ele>
        <time>2019-10-09T10:06:54Z</time>
      </trkpt>
      <trkpt lat="34.255698" lon="-6.575331">
        <ele>16.987</ele>
        <time>2019-10-09T10:06:59Z</time>
      </trkpt>
      <trkpt lat="34.255050" lon="-6.576987">
        <ele>19.573</ele>
        <time>2019-10-09T10:07:38Z</time>
      </trkpt>
      <trkpt lat="34.254728" lon="-6.577115">
        <ele>24.143</ele>
        <time>2019-10-09T10:37:05Z</time>
      </trkpt>
      <trkpt lat="34.254357" lon="-6.578726">
        <ele>25.018</ele>
        <time>2019-10-09T10:37:54Z</time>
      </trkpt>
      <trkpt lat="34.253610" lon="-6.580065">
        <ele>30.898</ele>
        <time>2019-10-09T10:38:28Z</time>
      </trkpt>
      <trkpt lat="34.252619" lon="-6.583308">
        <ele>24.217</ele>
        <time>2019-10-09T10:39:52Z</time>
      </trkpt>
      <trkpt lat="34.250988" lon="-6.587352">
        <ele>23.108</ele>
        <time>2019-10-09T10:41:06Z</time>
      </trkpt>
      <trkpt lat="34.249389" lon="-6.589777">
        <ele>21.915</ele>
        <time>2019-10-09T10:41:57Z</time>
      </trkpt>
      <trkpt lat="34.247901" lon="-6.593330">
        <ele>24.923</ele>
        <time>2019-10-09T10:43:30Z</time>
      </trkpt>
      <trkpt lat="34.248410" lon="-6.598388">
        <ele>13.733</ele>
        <time>2019-10-09T10:44:41Z</time>
      </trkpt>
      <trkpt lat="34.248663" lon="-6.599555">
        <ele>13.835</ele>
        <time>2019-10-09T10:47:43Z</time>
      </trkpt>
      <trkpt lat="34.248596" lon="-6.599480">
        <ele>13.516</ele>
        <time>2019-10-09T10:48:01Z</time>
      </trkpt>
      <trkpt lat="34.249135" lon="-6.604769">
        <ele>14.979</ele>
        <time>2019-10-09T10:53:27Z</time>
      </trkpt>
      <trkpt lat="34.249251" lon="-6.605159">
        <ele>15.275</ele>
        <time>2019-10-09T10:53:34Z</time>
      </trkpt>
      <trkpt lat="34.249571" lon="-6.605481">
        <ele>14.645</ele>
        <time>2019-10-09T10:53:47Z</time>
      </trkpt>
      <trkpt lat="34.249207" lon="-6.607348">
        <ele>15.684</ele>
        <time>2019-10-09T10:54:17Z</time>
      </trkpt>
      <trkpt lat="34.249173" lon="-6.608066">
        <ele>14.907</ele>
        <time>2019-10-09T10:54:31Z</time>
      </trkpt>
      <trkpt lat="34.249304" lon="-6.608482">
        <ele>12.517</ele>
        <time>2019-10-09T10:54:43Z</time>
      </trkpt>
      <trkpt lat="34.249113" lon="-6.608894">
        <ele>10.108</ele>
        <time>2019-10-09T10:54:54Z</time>
      </trkpt>
      <trkpt lat="34.248978" lon="-6.610088">
        <ele>9.282</ele>
        <time>2019-10-09T10:55:14Z</time>
      </trkpt>
      <trkpt lat="34.248679" lon="-6.614989">
        <ele>11.420</ele>
        <time>2019-10-09T10:56:33Z</time>
      </trkpt>
      <trkpt lat="34.247952" lon="-6.617470">
        <ele>20.550</ele>
        <time>2019-10-09T10:57:45Z</time>
      </trkpt>
      <trkpt lat="34.247091" lon="-6.619257">
        <ele>32.222</ele>
        <time>2019-10-09T10:58:47Z</time>
      </trkpt>
      <trkpt lat="34.245958" lon="-6.620872">
        <ele>33.863</ele>
        <time>2019-10-09T10:59:31Z</time>
      </trkpt>
      <trkpt lat="34.238537" lon="-6.628353">
        <ele>39.316</ele>
        <time>2019-10-09T11:02:40Z</time>
      </trkpt>
      <trkpt lat="34.237371" lon="-6.629365">
        <ele>38.062</ele>
        <time>2019-10-09T11:03:11Z</time>
      </trkpt>
      <trkpt lat="34.236036" lon="-6.630969">
        <ele>40.262</ele>
        <time>2019-10-09T11:03:57Z</time>
      </trkpt>
      <trkpt lat="34.230598" lon="-6.644357">
        <ele>52.584</ele>
        <time>2019-10-09T11:07:52Z</time>
      </trkpt>
      <trkpt lat="34.227287" lon="-6.650774">
        <ele>34.807</ele>
        <time>2019-10-09T11:09:29Z</time>
      </trkpt>
      <trkpt lat="34.227045" lon="-6.651513">
        <ele>32.917</ele>
        <time>2019-10-09T11:09:40Z</time>
      </trkpt>
      <trkpt lat="34.226720" lon="-6.651861">
        <ele>31.408</ele>
        <time>2019-10-09T11:09:47Z</time>
      </trkpt>
      <trkpt lat="34.222362" lon="-6.660139">
        <ele>20.212</ele>
        <time>2019-10-09T11:11:53Z</time>
      </trkpt>
      <trkpt lat="34.221164" lon="-6.661844">
        <ele>19.590</ele>
        <time>2019-10-09T11:12:24Z</time>
      </trkpt>
      <trkpt lat="34.219520" lon="-6.663787">
        <ele>19.370</ele>
        <time>2019-10-09T11:13:02Z</time>
      </trkpt>
      <trkpt lat="34.217093" lon="-6.665865">
        <ele>17.442</ele>
        <time>2019-10-09T11:13:48Z</time>
      </trkpt>
      <trkpt lat="34.203758" lon="-6.676007">
        <ele>12.343</ele>
        <time>2019-10-09T11:18:03Z</time>
      </trkpt>
      <trkpt lat="34.203378" lon="-6.676438">
        <ele>13.516</ele>
        <time>2019-10-09T11:18:17Z</time>
      </trkpt>
      <trkpt lat="34.202977" lon="-6.676573">
        <ele>14.012</ele>
        <time>2019-10-09T11:18:25Z</time>
      </trkpt>
      <trkpt lat="34.200911" lon="-6.678148">
        <ele>13.142</ele>
        <time>2019-10-09T11:19:06Z</time>
      </trkpt>
      <trkpt lat="34.192037" lon="-6.683761">
        <ele>8.093</ele>
        <time>2019-10-09T11:22:46Z</time>
      </trkpt>
      <trkpt lat="34.191432" lon="-6.684327">
        <ele>8.865</ele>
        <time>2019-10-09T11:29:29Z</time>
      </trkpt>
      <trkpt lat="34.190441" lon="-6.684746">
        <ele>9.421</ele>
        <time>2019-10-09T11:29:49Z</time>
      </trkpt>
      <trkpt lat="34.182624" lon="-6.689754">
        <ele>4.008</ele>
        <time>2019-10-09T11:32:38Z</time>
      </trkpt>
      <trkpt lat="34.182214" lon="-6.690152">
        <ele>5.043</ele>
        <time>2019-10-09T11:32:49Z</time>
      </trkpt>
      <trkpt lat="34.181817" lon="-6.690256">
        <ele>6.321</ele>
        <time>2019-10-09T11:32:57Z</time>
      </trkpt>
      <trkpt lat="34.177246" lon="-6.693238">
        <ele>11.911</ele>
        <time>2019-10-09T11:34:33Z</time>
      </trkpt>
      <trkpt lat="34.173102" lon="-6.697184">
        <ele>8.183</ele>
        <time>2019-10-09T11:36:11Z</time>
      </trkpt>
      <trkpt lat="34.170144" lon="-6.699426">
        <ele>10.454</ele>
        <time>2019-10-09T11:37:23Z</time>
      </trkpt>
      <trkpt lat="34.169805" lon="-6.699880">
        <ele>10.097</ele>
        <time>2019-10-09T11:37:34Z</time>
      </trkpt>
      <trkpt lat="34.169355" lon="-6.699990">
        <ele>8.743</ele>
        <time>2019-10-09T11:37:44Z</time>
      </trkpt>
      <trkpt lat="34.166632" lon="-6.701975">
        <ele>13.323</ele>
        <time>2019-10-09T11:38:48Z</time>
      </trkpt>
      <trkpt lat="34.162139" lon="-6.707603">
        <ele>13.274</ele>
        <time>2019-10-09T11:40:39Z</time>
      </trkpt>
      <trkpt lat="34.156700" lon="-6.711981">
        <ele>12.656</ele>
        <time>2019-10-09T11:42:49Z</time>
      </trkpt>
      <trkpt lat="34.153312" lon="-6.714897">
        <ele>14.421</ele>
        <time>2019-10-09T11:44:22Z</time>
      </trkpt>
      <trkpt lat="34.152946" lon="-6.715374">
        <ele>15.908</ele>
        <time>2019-10-09T11:44:34Z</time>
      </trkpt>
      <trkpt lat="34.152529" lon="-6.715537">
        <ele>15.491</ele>
        <time>2019-10-09T11:44:43Z</time>
      </trkpt>
      <trkpt lat="34.148236" lon="-6.719545">
        <ele>17.519</ele>
        <time>2019-10-09T11:46:32Z</time>
      </trkpt>
      <trkpt lat="34.140892" lon="-6.725004">
        <ele>17.599</ele>
        <time>2019-10-09T11:49:27Z</time>
      </trkpt>
      <trkpt lat="34.140357" lon="-6.725550">
        <ele>18.291</ele>
        <time>2019-10-09T11:49:42Z</time>
      </trkpt>
      <trkpt lat="34.140031" lon="-6.725626">
        <ele>19.762</ele>
        <time>2019-10-09T11:49:48Z</time>
      </trkpt>
      <trkpt lat="34.136032" lon="-6.728618">
        <ele>28.335</ele>
        <time>2019-10-09T11:51:24Z</time>
      </trkpt>
      <trkpt lat="34.130662" lon="-6.733001">
        <ele>22.361</ele>
        <time>2019-10-09T11:53:26Z</time>
      </trkpt>
      <trkpt lat="34.130391" lon="-6.733503">
        <ele>20.331</ele>
        <time>2019-10-09T11:53:35Z</time>
      </trkpt>
      <trkpt lat="34.129761" lon="-6.733707">
        <ele>19.321</ele>
        <time>2019-10-09T11:53:47Z</time>
      </trkpt>
      <trkpt lat="34.120322" lon="-6.741445">
        <ele>17.341</ele>
        <time>2019-10-09T11:57:22Z</time>
      </trkpt>
      <trkpt lat="34.116182" lon="-6.744895">
        <ele>20.905</ele>
        <time>2019-10-09T11:59:04Z</time>
      </trkpt>
      <trkpt lat="34.115103" lon="-6.746030">
        <ele>18.908</ele>
        <time>2019-10-09T11:59:32Z</time>
      </trkpt>
      <trkpt lat="34.114768" lon="-6.746168">
        <ele>18.736</ele>
        <time>2019-10-09T11:59:39Z</time>
      </trkpt>
      <trkpt lat="34.111005" lon="-6.749727">
        <ele>21.094</ele>
        <time>2019-10-09T12:01:11Z</time>
      </trkpt>
      <trkpt lat="34.106395" lon="-6.754990">
        <ele>14.794</ele>
        <time>2019-10-09T12:03:01Z</time>
      </trkpt>
      <trkpt lat="34.096089" lon="-6.762596">
        <ele>27.546</ele>
        <time>2019-10-09T12:06:55Z</time>
      </trkpt>
      <trkpt lat="34.082200" lon="-6.775721">
        <ele>30.517</ele>
        <time>2019-10-09T12:12:24Z</time>
      </trkpt>
      <trkpt lat="34.079242" lon="-6.778800">
        <ele>33.470</ele>
        <time>2019-10-09T12:13:46Z</time>
      </trkpt>
      <trkpt lat="34.076102" lon="-6.782431">
        <ele>26.426</ele>
        <time>2019-10-09T12:15:13Z</time>
      </trkpt>
      <trkpt lat="34.069172" lon="-6.791106">
        <ele>30.296</ele>
        <time>2019-10-09T12:18:25Z</time>
      </trkpt>
      <trkpt lat="34.068390" lon="-6.792367">
        <ele>28.649</ele>
        <time>2019-10-09T12:19:24Z</time>
      </trkpt>
      <trkpt lat="34.068344" lon="-6.792105">
        <ele>24.902</ele>
        <time>2019-10-09T12:20:13Z</time>
      </trkpt>
      <trkpt lat="34.068322" lon="-6.792240">
        <ele>28.922</ele>
        <time>2019-10-09T12:20:28Z</time>
      </trkpt>
      <trkpt lat="34.068473" lon="-6.792254">
        <ele>29.408</ele>
        <time>2019-10-09T12:20:40Z</time>
      </trkpt>
      <trkpt lat="34.068264" lon="-6.792032">
        <ele>42.048</ele>
        <time>2019-10-09T12:25:38Z</time>
      </trkpt>
      <trkpt lat="34.068233" lon="-6.791619">
        <ele>44.936</ele>
        <time>2019-10-09T12:41:54Z</time>
      </trkpt>
      <trkpt lat="34.068392" lon="-6.792011">
        <ele>43.446</ele>
        <time>2019-10-09T12:42:22Z</time>
      </trkpt>
      <trkpt lat="34.067132" lon="-6.793716">
        <ele>32.348</ele>
        <time>2019-10-09T12:43:07Z</time>
      </trkpt>
      <trkpt lat="34.053431" lon="-6.810859">
        <ele>23.519</ele>
        <time>2019-10-09T12:50:34Z</time>
      </trkpt>
      <trkpt lat="34.049005" lon="-6.815279">
        <ele>21.872</ele>
        <time>2019-10-09T12:52:34Z</time>
      </trkpt>
      <trkpt lat="34.046436" lon="-6.817549">
        <ele>23.558</ele>
        <time>2019-10-09T12:55:12Z</time>
      </trkpt>
      <trkpt lat="34.045538" lon="-6.818106">
        <ele>24.068</ele>
        <time>2019-10-09T12:55:34Z</time>
      </trkpt>
      <trkpt lat="34.044279" lon="-6.817906">
        <ele>24.843</ele>
        <time>2019-10-09T12:56:04Z</time>
      </trkpt>
      <trkpt lat="34.040164" lon="-6.816092">
        <ele>17.064</ele>
        <time>2019-10-09T12:57:37Z</time>
      </trkpt>
      <trkpt lat="34.039306" lon="-6.815995">
        <ele>19.310</ele>
        <time>2019-10-09T12:57:55Z</time>
      </trkpt>
      <trkpt lat="34.038299" lon="-6.816304">
        <ele>22.608</ele>
        <time>2019-10-09T12:58:15Z</time>
      </trkpt>
      <trkpt lat="34.036239" lon="-6.817873">
        <ele>22.998</ele>
        <time>2019-10-09T13:02:46Z</time>
      </trkpt>
      <trkpt lat="34.036485" lon="-6.817741">
        <ele>22.396</ele>
        <time>2019-10-09T13:03:13Z</time>
      </trkpt>
      <trkpt lat="34.036346" lon="-6.817869">
        <ele>22.246</ele>
        <time>2019-10-09T13:04:28Z</time>
      </trkpt>
      <trkpt lat="34.035274" lon="-6.817630">
        <ele>18.538</ele>
        <time>2019-10-09T13:05:58Z</time>
      </trkpt>
      <trkpt lat="34.034629" lon="-6.817696">
        <ele>15.689</ele>
        <time>2019-10-09T13:06:11Z</time>
      </trkpt>
      <trkpt lat="34.034438" lon="-6.817480">
        <ele>14.382</ele>
        <time>2019-10-09T13:06:19Z</time>
      </trkpt>
      <trkpt lat="34.034610" lon="-6.818304">
        <ele>13.788</ele>
        <time>2019-10-09T13:07:14Z</time>
      </trkpt>
      <trkpt lat="34.034505" lon="-6.819131">
        <ele>11.658</ele>
        <time>2019-10-09T13:07:53Z</time>
      </trkpt>
      <trkpt lat="34.034473" lon="-6.818710">
        <ele>11.642</ele>
        <time>2019-10-09T13:08:11Z</time>
      </trkpt>
      <trkpt lat="34.033106" lon="-6.819229">
        <ele>7.122</ele>
        <time>2019-10-09T13:08:50Z</time>
      </trkpt>
      <trkpt lat="34.033101" lon="-6.819764">
        <ele>7.014</ele>
        <time>2019-10-09T13:09:27Z</time>
      </trkpt>
      <trkpt lat="34.032268" lon="-6.820159">
        <ele>6.708</ele>
        <time>2019-10-09T13:17:14Z</time>
      </trkpt>
      <trkpt lat="34.032104" lon="-6.820132">
        <ele>6.818</ele>
        <time>2019-10-09T13:17:19Z</time>
      </trkpt>
      <trkpt lat="34.031839" lon="-6.819715">
        <ele>7.586</ele>
        <time>2019-10-09T13:17:41Z</time>
      </trkpt>
      <trkpt lat="34.030498" lon="-6.820042">
        <ele>8.156</ele>
        <time>2019-10-09T13:19:06Z</time>
      </trkpt>
      <trkpt lat="34.028885" lon="-6.819476">
        <ele>16.198</ele>
        <time>2019-10-09T13:20:00Z</time>
      </trkpt>
      <trkpt lat="34.027180" lon="-6.819746">
        <ele>18.159</ele>
        <time>2019-10-09T13:22:05Z</time>
      </trkpt>
      <trkpt lat="34.027142" lon="-6.819648">
        <ele>17.552</ele>
        <time>2019-10-09T13:23:39Z</time>
      </trkpt>
      <trkpt lat="34.026188" lon="-6.819740">
        <ele>17.588</ele>
        <time>2019-10-09T13:24:03Z</time>
      </trkpt>
      <trkpt lat="34.025373" lon="-6.820140">
        <ele>16.688</ele>
        <time>2019-10-09T13:24:50Z</time>
      </trkpt>
      <trkpt lat="34.025115" lon="-6.820636">
        <ele>16.016</ele>
        <time>2019-10-09T13:25:01Z</time>
      </trkpt>
      <trkpt lat="34.025122" lon="-6.821337">
        <ele>15.076</ele>
        <time>2019-10-09T13:25:15Z</time>
      </trkpt>
      <trkpt lat="34.026247" lon="-6.824970">
        <ele>16.413</ele>
        <time>2019-10-09T13:27:25Z</time>
      </trkpt>
      <trkpt lat="34.026506" lon="-6.825219">
        <ele>16.508</ele>
        <time>2019-10-09T13:32:14Z</time>
      </trkpt>
      <trkpt lat="34.027094" lon="-6.827268">
        <ele>11.135</ele>
        <time>2019-10-09T13:37:47Z</time>
      </trkpt>
      <trkpt lat="34.027240" lon="-6.827217">
        <ele>12.883</ele>
        <time>2019-10-09T13:38:18Z</time>
      </trkpt>
      <trkpt lat="34.027470" lon="-6.828384">
        <ele>10.063</ele>
        <time>2019-10-09T13:38:49Z</time>
      </trkpt>
      <trkpt lat="34.027413" lon="-6.829626">
        <ele>8.225</ele>
        <time>2019-10-09T13:39:17Z</time>
      </trkpt>
      <trkpt lat="34.027596" lon="-6.830620">
        <ele>11.296</ele>
        <time>2019-10-09T13:39:38Z</time>
      </trkpt>
      <trkpt lat="34.028236" lon="-6.832164">
        <ele>46.649</ele>
        <time>2019-10-09T13:41:41Z</time>
      </trkpt>
      <trkpt lat="34.029375" lon="-6.833562">
        <ele>47.075</ele>
        <time>2019-10-09T13:42:33Z</time>
      </trkpt>
      <trkpt lat="34.029614" lon="-6.833690">
        <ele>46.755</ele>
        <time>2019-10-09T13:42:45Z</time>
      </trkpt>
      <trkpt lat="34.029458" lon="-6.833343">
        <ele>45.229</ele>
        <time>2019-10-09T13:43:59Z</time>
      </trkpt>
      <trkpt lat="34.029614" lon="-6.833651">
        <ele>45.600</ele>
        <time>2019-10-09T13:44:45Z</time>
      </trkpt>
      <trkpt lat="34.029577" lon="-6.833388">
        <ele>43.420</ele>
        <time>2019-10-09T13:46:12Z</time>
      </trkpt>
      <trkpt lat="34.029439" lon="-6.833203">
        <ele>42.808</ele>
        <time>2019-10-09T13:47:22Z</time>
      </trkpt>
      <trkpt lat="34.029627" lon="-6.834021">
        <ele>45.876</ele>
        <time>2019-10-09T13:50:00Z</time>
      </trkpt>
      <trkpt lat="34.028287" lon="-6.832235">
        <ele>46.894</ele>
        <time>2019-10-09T13:53:47Z</time>
      </trkpt>
      <trkpt lat="34.027691" lon="-6.830960">
        <ele>48.974</ele>
        <time>2019-10-09T13:55:14Z</time>
      </trkpt>
      <trkpt lat="34.027356" lon="-6.829767">
        <ele>51.076</ele>
        <time>2019-10-09T13:55:37Z</time>
      </trkpt>
      <trkpt lat="34.027445" lon="-6.828577">
        <ele>47.277</ele>
        <time>2019-10-09T13:55:58Z</time>
      </trkpt>
      <trkpt lat="34.027223" lon="-6.827179">
        <ele>45.860</ele>
        <time>2019-10-09T13:56:26Z</time>
      </trkpt>
      <trkpt lat="34.027003" lon="-6.827170">
        <ele>46.096</ele>
        <time>2019-10-09T13:57:37Z</time>
      </trkpt>
      <trkpt lat="34.026576" lon="-6.825716">
        <ele>54.496</ele>
        <time>2019-10-09T13:58:44Z</time>
      </trkpt>
      <trkpt lat="34.026434" lon="-6.825710">
        <ele>54.867</ele>
        <time>2019-10-09T13:58:57Z</time>
      </trkpt>
      <trkpt lat="34.026361" lon="-6.826438">
        <ele>57.481</ele>
        <time>2019-10-09T13:59:27Z</time>
      </trkpt>
      <trkpt lat="34.025523" lon="-6.829112">
        <ele>50.419</ele>
        <time>2019-10-09T14:02:49Z</time>
      </trkpt>
      <trkpt lat="34.024038" lon="-6.833053">
        <ele>51.308</ele>
        <time>2019-10-09T14:07:03Z</time>
      </trkpt>
      <trkpt lat="34.025347" lon="-6.833513">
        <ele>48.340</ele>
        <time>2019-10-09T14:09:54Z</time>
      </trkpt>
      <trkpt lat="34.025841" lon="-6.833978">
        <ele>53.628</ele>
        <time>2019-10-09T14:11:16Z</time>
      </trkpt>
      <trkpt lat="34.025225" lon="-6.833447">
        <ele>53.858</ele>
        <time>2019-10-09T14:15:18Z</time>
      </trkpt>
      <trkpt lat="34.024065" lon="-6.833204">
        <ele>59.290</ele>
        <time>2019-10-09T14:16:25Z</time>
      </trkpt>
      <trkpt lat="34.022331" lon="-6.838040">
        <ele>56.961</ele>
        <time>2019-10-09T14:23:08Z</time>
      </trkpt>
      <trkpt lat="34.022995" lon="-6.838453">
        <ele>58.344</ele>
        <time>2019-10-09T14:24:45Z</time>
      </trkpt>
      <trkpt lat="34.022859" lon="-6.838407">
        <ele>58.330</ele>
        <time>2019-10-09T14:26:30Z</time>
      </trkpt>
      <trkpt lat="34.022730" lon="-6.838655">
        <ele>57.630</ele>
        <time>2019-10-09T14:27:01Z</time>
      </trkpt>
      <trkpt lat="34.022248" lon="-6.840143">
        <ele>58.194</ele>
        <time>2019-10-09T14:28:09Z</time>
      </trkpt>
      <trkpt lat="34.022089" lon="-6.840242">
        <ele>58.657</ele>
        <time>2019-10-09T14:28:18Z</time>
      </trkpt>
      <trkpt lat="34.021985" lon="-6.840011">
        <ele>51.922</ele>
        <time>2019-10-09T15:15:08Z</time>
      </trkpt>
      <trkpt lat="34.022557" lon="-6.839227">
        <ele>65.208</ele>
        <time>2019-10-09T15:18:17Z</time>
      </trkpt>
      <trkpt lat="34.022868" lon="-6.838384">
        <ele>64.583</ele>
        <time>2019-10-09T15:18:50Z</time>
      </trkpt>
      <trkpt lat="34.022174" lon="-6.838064">
        <ele>68.411</ele>
        <time>2019-10-09T15:20:20Z</time>
      </trkpt>
      <trkpt lat="34.021813" lon="-6.838560">
        <ele>67.671</ele>
        <time>2019-10-09T15:20:37Z</time>
      </trkpt>
      <trkpt lat="34.021351" lon="-6.839677">
        <ele>65.743</ele>
        <time>2019-10-09T15:21:09Z</time>
      </trkpt>
      <trkpt lat="34.021269" lon="-6.840591">
        <ele>64.124</ele>
        <time>2019-10-09T15:22:41Z</time>
      </trkpt>
      <trkpt lat="34.020856" lon="-6.841865">
        <ele>64.977</ele>
        <time>2019-10-09T15:23:31Z</time>
      </trkpt>
      <trkpt lat="34.018669" lon="-6.844099">
        <ele>82.883</ele>
        <time>2019-10-09T15:25:05Z</time>
      </trkpt>
      <trkpt lat="34.017870" lon="-6.844601">
        <ele>75.183</ele>
        <time>2019-10-09T15:25:32Z</time>
      </trkpt>
      <trkpt lat="34.017676" lon="-6.845082">
        <ele>76.292</ele>
        <time>2019-10-09T15:25:42Z</time>
      </trkpt>
      <trkpt lat="34.016122" lon="-6.846168">
        <ele>79.773</ele>
        <time>2019-10-09T15:26:10Z</time>
      </trkpt>
      <trkpt lat="34.013484" lon="-6.848361">
        <ele>67.920</ele>
        <time>2019-10-09T15:27:29Z</time>
      </trkpt>
      <trkpt lat="34.013028" lon="-6.848968">
        <ele>65.608</ele>
        <time>2019-10-09T15:27:41Z</time>
      </trkpt>
      <trkpt lat="34.011897" lon="-6.851510">
        <ele>68.473</ele>
        <time>2019-10-09T15:29:02Z</time>
      </trkpt>
      <trkpt lat="34.011411" lon="-6.851763">
        <ele>70.431</ele>
        <time>2019-10-09T15:29:13Z</time>
      </trkpt>
      <trkpt lat="34.009184" lon="-6.853773">
        <ele>69.421</ele>
        <time>2019-10-09T15:30:02Z</time>
      </trkpt>
      <trkpt lat="34.008765" lon="-6.854569">
        <ele>67.563</ele>
        <time>2019-10-09T15:30:18Z</time>
      </trkpt>
      <trkpt lat="34.008182" lon="-6.854767">
        <ele>67.054</ele>
        <time>2019-10-09T15:30:33Z</time>
      </trkpt>
      <trkpt lat="34.003557" lon="-6.858907">
        <ele>67.067</ele>
        <time>2019-10-09T15:33:17Z</time>
      </trkpt>
      <trkpt lat="33.995551" lon="-6.862903">
        <ele>96.523</ele>
        <time>2019-10-09T15:36:30Z</time>
      </trkpt>
      <trkpt lat="33.992376" lon="-6.865321">
        <ele>79.313</ele>
        <time>2019-10-09T15:37:48Z</time>
      </trkpt>
      <trkpt lat="33.991255" lon="-6.866423">
        <ele>82.245</ele>
        <time>2019-10-09T15:38:15Z</time>
      </trkpt>
      <trkpt lat="33.989838" lon="-6.867153">
        <ele>83.147</ele>
        <time>2019-10-09T15:38:42Z</time>
      </trkpt>
      <trkpt lat="33.978878" lon="-6.875278">
        <ele>79.411</ele>
        <time>2019-10-09T15:42:33Z</time>
      </trkpt>
      <trkpt lat="33.971229" lon="-6.881514">
        <ele>77.508</ele>
        <time>2019-10-09T15:46:11Z</time>
      </trkpt>
      <trkpt lat="33.968853" lon="-6.883663">
        <ele>78.498</ele>
        <time>2019-10-09T15:47:01Z</time>
      </trkpt>
      <trkpt lat="33.968302" lon="-6.884411">
        <ele>78.166</ele>
        <time>2019-10-09T15:47:12Z</time>
      </trkpt>
      <trkpt lat="33.967576" lon="-6.885809">
        <ele>78.536</ele>
        <time>2019-10-09T15:47:34Z</time>
      </trkpt>
      <trkpt lat="33.966815" lon="-6.888264">
        <ele>75.228</ele>
        <time>2019-10-09T15:48:42Z</time>
      </trkpt>
      <trkpt lat="33.966556" lon="-6.888249">
        <ele>77.399</ele>
        <time>2019-10-09T15:48:48Z</time>
      </trkpt>
      <trkpt lat="33.965826" lon="-6.887550">
        <ele>77.452</ele>
        <time>2019-10-09T15:49:50Z</time>
      </trkpt>
      <trkpt lat="33.964233" lon="-6.885204">
        <ele>86.418</ele>
        <time>2019-10-09T15:50:41Z</time>
      </trkpt>
      <trkpt lat="33.963256" lon="-6.884692">
        <ele>92.548</ele>
        <time>2019-10-09T15:51:06Z</time>
      </trkpt>
      <trkpt lat="33.959187" lon="-6.886870">
        <ele>90.217</ele>
        <time>2019-10-09T15:52:32Z</time>
      </trkpt>
      <trkpt lat="33.958332" lon="-6.887503">
        <ele>90.887</ele>
        <time>2019-10-09T15:52:50Z</time>
      </trkpt>
      <trkpt lat="33.946146" lon="-6.897809">
        <ele>96.215</ele>
        <time>2019-10-09T15:57:14Z</time>
      </trkpt>
      <trkpt lat="33.944329" lon="-6.900177">
        <ele>101.608</ele>
        <time>2019-10-09T15:58:07Z</time>
      </trkpt>
      <trkpt lat="33.943783" lon="-6.900435">
        <ele>102.825</ele>
        <time>2019-10-09T15:58:19Z</time>
      </trkpt>
      <trkpt lat="33.942771" lon="-6.900453">
        <ele>103.643</ele>
        <time>2019-10-09T15:58:39Z</time>
      </trkpt>
      <trkpt lat="33.942251" lon="-6.900667">
        <ele>102.883</ele>
        <time>2019-10-09T15:58:48Z</time>
      </trkpt>
      <trkpt lat="33.940568" lon="-6.903362">
        <ele>99.165</ele>
        <time>2019-10-09T15:59:35Z</time>
      </trkpt>
      <trkpt lat="33.936418" lon="-6.908605">
        <ele>95.636</ele>
        <time>2019-10-09T16:01:13Z</time>
      </trkpt>
      <trkpt lat="33.928254" lon="-6.916052">
        <ele>104.079</ele>
        <time>2019-10-09T16:04:19Z</time>
      </trkpt>
      <trkpt lat="33.926105" lon="-6.917238">
        <ele>108.875</ele>
        <time>2019-10-09T16:05:11Z</time>
      </trkpt>
      <trkpt lat="33.925792" lon="-6.917532">
        <ele>109.925</ele>
        <time>2019-10-09T16:05:19Z</time>
      </trkpt>
      <trkpt lat="33.924631" lon="-6.918007">
        <ele>115.745</ele>
        <time>2019-10-09T16:05:45Z</time>
      </trkpt>
      <trkpt lat="33.923734" lon="-6.918799">
        <ele>113.847</ele>
        <time>2019-10-09T16:06:07Z</time>
      </trkpt>
      <trkpt lat="33.900992" lon="-6.943226">
        <ele>106.811</ele>
        <time>2019-10-09T16:14:50Z</time>
      </trkpt>
      <trkpt lat="33.895511" lon="-6.956631">
        <ele>88.708</ele>
        <time>2019-10-09T16:18:01Z</time>
      </trkpt>
      <trkpt lat="33.888623" lon="-6.967621">
        <ele>88.888</ele>
        <time>2019-10-09T16:21:32Z</time>
      </trkpt>
      <trkpt lat="33.888408" lon="-6.968920">
        <ele>87.596</ele>
        <time>2019-10-09T16:21:50Z</time>
      </trkpt>
      <trkpt lat="33.888977" lon="-6.971274">
        <ele>88.136</ele>
        <time>2019-10-09T16:22:24Z</time>
      </trkpt>
      <trkpt lat="33.888828" lon="-6.972819">
        <ele>83.358</ele>
        <time>2019-10-09T16:22:43Z</time>
      </trkpt>
      <trkpt lat="33.888580" lon="-6.973611">
        <ele>83.219</ele>
        <time>2019-10-09T16:22:53Z</time>
      </trkpt>
      <trkpt lat="33.886196" lon="-6.976651">
        <ele>79.042</ele>
        <time>2019-10-09T16:23:48Z</time>
      </trkpt>
      <trkpt lat="33.876869" lon="-6.986131">
        <ele>88.968</ele>
        <time>2019-10-09T16:27:35Z</time>
      </trkpt>
      <trkpt lat="33.875409" lon="-6.988044">
        <ele>85.998</ele>
        <time>2019-10-09T16:28:11Z</time>
      </trkpt>
      <trkpt lat="33.874312" lon="-6.990683">
        <ele>86.184</ele>
        <time>2019-10-09T16:28:54Z</time>
      </trkpt>
      <trkpt lat="33.873611" lon="-6.996634">
        <ele>80.607</ele>
        <time>2019-10-09T16:30:25Z</time>
      </trkpt>
      <trkpt lat="33.873382" lon="-6.997424">
        <ele>82.417</ele>
        <time>2019-10-09T16:30:45Z</time>
      </trkpt>
      <trkpt lat="33.872821" lon="-6.998111">
        <ele>88.608</ele>
        <time>2019-10-09T16:31:09Z</time>
      </trkpt>
      <trkpt lat="33.868915" lon="-7.001183">
        <ele>93.632</ele>
        <time>2019-10-09T16:32:54Z</time>
      </trkpt>
      <trkpt lat="33.866195" lon="-7.005058">
        <ele>94.380</ele>
        <time>2019-10-09T16:34:18Z</time>
      </trkpt>
      <trkpt lat="33.865147" lon="-7.007842">
        <ele>93.880</ele>
        <time>2019-10-09T16:35:02Z</time>
      </trkpt>
      <trkpt lat="33.864503" lon="-7.010898">
        <ele>94.532</ele>
        <time>2019-10-09T16:35:49Z</time>
      </trkpt>
      <trkpt lat="33.858314" lon="-7.026996">
        <ele>90.133</ele>
        <time>2019-10-09T16:40:10Z</time>
      </trkpt>
      <trkpt lat="33.853085" lon="-7.037095">
        <ele>91.966</ele>
        <time>2019-10-09T16:43:42Z</time>
      </trkpt>
      <trkpt lat="33.850011" lon="-7.040700">
        <ele>93.792</ele>
        <time>2019-10-09T16:45:12Z</time>
      </trkpt>
      <trkpt lat="33.850538" lon="-7.041464">
        <ele>95.132</ele>
        <time>2019-10-09T16:46:05Z</time>
      </trkpt>
      <trkpt lat="33.852546" lon="-7.043048">
        <ele>93.693</ele>
        <time>2019-10-09T16:47:00Z</time>
      </trkpt>
      <trkpt lat="33.853867" lon="-7.044710">
        <ele>81.865</ele>
        <time>2019-10-09T16:47:31Z</time>
      </trkpt>
      <trkpt lat="33.863276" lon="-7.054074">
        <ele>55.221</ele>
        <time>2019-10-09T16:50:48Z</time>
      </trkpt>
      <trkpt lat="33.863149" lon="-7.054395">
        <ele>57.408</ele>
        <time>2019-10-09T16:53:03Z</time>
      </trkpt>
      <trkpt lat="33.863703" lon="-7.055524">
        <ele>49.883</ele>
        <time>2019-10-09T17:19:22Z</time>
      </trkpt>
      <trkpt lat="33.862767" lon="-7.059807">
        <ele>15.661</ele>
        <time>2019-10-09T17:21:03Z</time>
      </trkpt>
      <trkpt lat="33.861955" lon="-7.061998">
        <ele>17.021</ele>
        <time>2019-10-09T17:21:50Z</time>
      </trkpt>
      <trkpt lat="33.851984" lon="-7.078577">
        <ele>16.613</ele>
        <time>2019-10-09T17:27:11Z</time>
      </trkpt>
      <trkpt lat="33.848126" lon="-7.084344">
        <ele>18.214</ele>
        <time>2019-10-09T17:29:12Z</time>
      </trkpt>
      <trkpt lat="33.847073" lon="-7.086768">
        <ele>16.847</ele>
        <time>2019-10-09T17:29:57Z</time>
      </trkpt>
      <trkpt lat="33.846160" lon="-7.090466">
        <ele>19.443</ele>
        <time>2019-10-09T17:31:01Z</time>
      </trkpt>
      <trkpt lat="33.845222" lon="-7.092694">
        <ele>15.913</ele>
        <time>2019-10-09T17:31:39Z</time>
      </trkpt>
      <trkpt lat="33.839134" lon="-7.102217">
        <ele>14.196</ele>
        <time>2019-10-09T17:34:47Z</time>
      </trkpt>
      <trkpt lat="33.837762" lon="-7.103679">
        <ele>14.531</ele>
        <time>2019-10-09T17:35:23Z</time>
      </trkpt>
      <trkpt lat="33.836652" lon="-7.104543">
        <ele>16.524</ele>
        <time>2019-10-09T17:35:52Z</time>
      </trkpt>
      <trkpt lat="33.825023" lon="-7.111398">
        <ele>20.508</ele>
        <time>2019-10-09T17:40:12Z</time>
      </trkpt>
      <trkpt lat="33.823758" lon="-7.112632">
        <ele>19.553</ele>
        <time>2019-10-09T17:40:42Z</time>
      </trkpt>
      <trkpt lat="33.822717" lon="-7.114238">
        <ele>16.821</ele>
        <time>2019-10-09T17:41:10Z</time>
      </trkpt>
      <trkpt lat="33.821383" lon="-7.118199">
        <ele>12.951</ele>
        <time>2019-10-09T17:42:19Z</time>
      </trkpt>
      <trkpt lat="33.821568" lon="-7.126276">
        <ele>14.943</ele>
        <time>2019-10-09T17:45:11Z</time>
      </trkpt>
      <trkpt lat="33.820566" lon="-7.132888">
        <ele>13.414</ele>
        <time>2019-10-09T17:46:46Z</time>
      </trkpt>
      <trkpt lat="33.815804" lon="-7.144799">
        <ele>16.467</ele>
        <time>2019-10-09T17:50:08Z</time>
      </trkpt>
      <trkpt lat="33.814950" lon="-7.146035">
        <ele>14.383</ele>
        <time>2019-10-09T17:50:33Z</time>
      </trkpt>
      <trkpt lat="33.812945" lon="-7.148061">
        <ele>11.763</ele>
        <time>2019-10-09T17:51:18Z</time>
      </trkpt>
      <trkpt lat="33.811853" lon="-7.150329">
        <ele>15.282</ele>
        <time>2019-10-09T17:51:56Z</time>
      </trkpt>
      <trkpt lat="33.810481" lon="-7.155440">
        <ele>16.343</ele>
        <time>2019-10-09T17:53:34Z</time>
      </trkpt>
      <trkpt lat="33.809021" lon="-7.158424">
        <ele>21.017</ele>
        <time>2019-10-09T17:54:34Z</time>
      </trkpt>
      <trkpt lat="33.808726" lon="-7.159165">
        <ele>20.508</ele>
        <time>2019-10-09T17:54:48Z</time>
      </trkpt>
      <trkpt lat="33.808734" lon="-7.159662">
        <ele>16.692</ele>
        <time>2019-10-09T17:54:57Z</time>
      </trkpt>
      <trkpt lat="33.808477" lon="-7.159934">
        <ele>15.030</ele>
        <time>2019-10-09T17:55:04Z</time>
      </trkpt>
      <trkpt lat="33.807715" lon="-7.165984">
        <ele>6.340</ele>
        <time>2019-10-09T17:56:41Z</time>
      </trkpt>
      <trkpt lat="33.807096" lon="-7.167817">
        <ele>7.562</ele>
        <time>2019-10-09T17:57:16Z</time>
      </trkpt>
      <trkpt lat="33.805505" lon="-7.171518">
        <ele>12.723</ele>
        <time>2019-10-09T17:58:32Z</time>
      </trkpt>
      <trkpt lat="33.804286" lon="-7.173557">
        <ele>16.146</ele>
        <time>2019-10-09T17:59:17Z</time>
      </trkpt>
      <trkpt lat="33.803054" lon="-7.174405">
        <ele>14.352</ele>
        <time>2019-10-09T17:59:46Z</time>
      </trkpt>
      <trkpt lat="33.801224" lon="-7.174816">
        <ele>13.752</ele>
        <time>2019-10-09T18:00:28Z</time>
      </trkpt>
      <trkpt lat="33.800446" lon="-7.174717">
        <ele>16.559</ele>
        <time>2019-10-09T18:00:45Z</time>
      </trkpt>
      <trkpt lat="33.799520" lon="-7.175075">
        <ele>17.503</ele>
        <time>2019-10-09T18:01:05Z</time>
      </trkpt>
      <trkpt lat="33.798592" lon="-7.175915">
        <ele>20.523</ele>
        <time>2019-10-09T18:01:28Z</time>
      </trkpt>
      <trkpt lat="33.797978" lon="-7.177147">
        <ele>19.908</ele>
        <time>2019-10-09T18:01:52Z</time>
      </trkpt>
      <trkpt lat="33.796473" lon="-7.184558">
        <ele>13.169</ele>
        <time>2019-10-09T18:03:47Z</time>
      </trkpt>
      <trkpt lat="33.791899" lon="-7.199496">
        <ele>21.267</ele>
        <time>2019-10-09T18:08:03Z</time>
      </trkpt>
      <trkpt lat="33.791424" lon="-7.201401">
        <ele>23.077</ele>
        <time>2019-10-09T18:08:36Z</time>
      </trkpt>
      <trkpt lat="33.791384" lon="-7.202156">
        <ele>23.239</ele>
        <time>2019-10-09T18:08:50Z</time>
      </trkpt>
      <trkpt lat="33.791099" lon="-7.202510">
        <ele>22.980</ele>
        <time>2019-10-09T18:08:58Z</time>
      </trkpt>
      <trkpt lat="33.790419" lon="-7.204364">
        <ele>20.283</ele>
        <time>2019-10-09T18:09:31Z</time>
      </trkpt>
      <trkpt lat="33.786081" lon="-7.218676">
        <ele>28.689</ele>
        <time>2019-10-09T18:13:40Z</time>
      </trkpt>
      <trkpt lat="33.786073" lon="-7.220204">
        <ele>27.489</ele>
        <time>2019-10-09T18:14:04Z</time>
      </trkpt>
      <trkpt lat="33.786467" lon="-7.221607">
        <ele>23.733</ele>
        <time>2019-10-09T18:14:27Z</time>
      </trkpt>
      <trkpt lat="33.787270" lon="-7.222766">
        <ele>22.723</ele>
        <time>2019-10-09T18:14:50Z</time>
      </trkpt>
      <trkpt lat="33.787906" lon="-7.223275">
        <ele>22.215</ele>
        <time>2019-10-09T18:15:02Z</time>
      </trkpt>
      <trkpt lat="33.788495" lon="-7.223424">
        <ele>21.208</ele>
        <time>2019-10-09T18:15:12Z</time>
      </trkpt>
      <trkpt lat="33.788553" lon="-7.223753">
        <ele>20.727</ele>
        <time>2019-10-09T18:15:17Z</time>
      </trkpt>
      <trkpt lat="33.788159" lon="-7.224227">
        <ele>20.725</ele>
        <time>2019-10-09T18:15:26Z</time>
      </trkpt>
      <trkpt lat="33.786301" lon="-7.228064">
        <ele>25.135</ele>
        <time>2019-10-09T18:16:40Z</time>
      </trkpt>
      <trkpt lat="33.781001" lon="-7.237113">
        <ele>31.027</ele>
        <time>2019-10-09T18:19:32Z</time>
      </trkpt>
      <trkpt lat="33.778535" lon="-7.240314">
        <ele>34.198</ele>
        <time>2019-10-09T18:20:38Z</time>
      </trkpt>
      <trkpt lat="33.776833" lon="-7.242849">
        <ele>29.191</ele>
        <time>2019-10-09T18:21:25Z</time>
      </trkpt>
      <trkpt lat="33.772714" lon="-7.248092">
        <ele>35.137</ele>
        <time>2019-10-09T18:23:16Z</time>
      </trkpt>
      <trkpt lat="33.768868" lon="-7.255934">
        <ele>33.937</ele>
        <time>2019-10-09T18:25:47Z</time>
      </trkpt>
      <trkpt lat="33.767663" lon="-7.258099">
        <ele>33.724</ele>
        <time>2019-10-09T18:26:28Z</time>
      </trkpt>
      <trkpt lat="33.763090" lon="-7.264809">
        <ele>35.404</ele>
        <time>2019-10-09T18:28:41Z</time>
      </trkpt>
      <trkpt lat="33.762644" lon="-7.266123">
        <ele>33.714</ele>
        <time>2019-10-09T18:29:01Z</time>
      </trkpt>
      <trkpt lat="33.762671" lon="-7.268640">
        <ele>27.108</ele>
        <time>2019-10-09T18:29:40Z</time>
      </trkpt>
      <trkpt lat="33.762508" lon="-7.269521">
        <ele>26.276</ele>
        <time>2019-10-09T18:29:53Z</time>
      </trkpt>
      <trkpt lat="33.760923" lon="-7.272439">
        <ele>27.364</ele>
        <time>2019-10-09T18:30:46Z</time>
      </trkpt>
      <trkpt lat="33.759859" lon="-7.275286">
        <ele>25.074</ele>
        <time>2019-10-09T18:32:13Z</time>
      </trkpt>
      <trkpt lat="33.759060" lon="-7.276936">
        <ele>23.676</ele>
        <time>2019-10-09T18:32:41Z</time>
      </trkpt>
      <trkpt lat="33.756460" lon="-7.281843">
        <ele>21.517</ele>
        <time>2019-10-09T18:34:03Z</time>
      </trkpt>
      <trkpt lat="33.754767" lon="-7.284476">
        <ele>21.930</ele>
        <time>2019-10-09T18:36:15Z</time>
      </trkpt>
      <trkpt lat="33.752967" lon="-7.287930">
        <ele>20.826</ele>
        <time>2019-10-09T18:37:17Z</time>
      </trkpt>
      <trkpt lat="33.752159" lon="-7.293560">
        <ele>16.556</ele>
        <time>2019-10-09T18:38:36Z</time>
      </trkpt>
      <trkpt lat="33.749989" lon="-7.298577">
        <ele>13.212</ele>
        <time>2019-10-09T18:39:48Z</time>
      </trkpt>
      <trkpt lat="33.749079" lon="-7.299847">
        <ele>11.132</ele>
        <time>2019-10-09T18:41:04Z</time>
      </trkpt>
      <trkpt lat="33.744998" lon="-7.304264">
        <ele>14.105</ele>
        <time>2019-10-09T18:42:51Z</time>
      </trkpt>
      <trkpt lat="33.743767" lon="-7.306111">
        <ele>16.308</ele>
        <time>2019-10-09T18:43:27Z</time>
      </trkpt>
      <trkpt lat="33.741746" lon="-7.308639">
        <ele>14.115</ele>
        <time>2019-10-09T18:44:17Z</time>
      </trkpt>
      <trkpt lat="33.740575" lon="-7.310604">
        <ele>13.073</ele>
        <time>2019-10-09T18:44:51Z</time>
      </trkpt>
      <trkpt lat="33.736615" lon="-7.315767">
        <ele>9.763</ele>
        <time>2019-10-09T18:46:39Z</time>
      </trkpt>
      <trkpt lat="33.734707" lon="-7.320805">
        <ele>8.665</ele>
        <time>2019-10-09T18:48:04Z</time>
      </trkpt>
      <trkpt lat="33.732944" lon="-7.323898">
        <ele>10.146</ele>
        <time>2019-10-09T18:48:58Z</time>
      </trkpt>
      <trkpt lat="33.730183" lon="-7.329874">
        <ele>8.129</ele>
        <time>2019-10-09T18:50:53Z</time>
      </trkpt>
      <trkpt lat="33.729583" lon="-7.330710">
        <ele>6.785</ele>
        <time>2019-10-09T18:51:15Z</time>
      </trkpt>
      <trkpt lat="33.728420" lon="-7.331799">
        <ele>5.065</ele>
        <time>2019-10-09T18:51:47Z</time>
      </trkpt>
      <trkpt lat="33.726769" lon="-7.333696">
        <ele>8.665</ele>
        <time>2019-10-09T18:52:58Z</time>
      </trkpt>
      <trkpt lat="33.726567" lon="-7.334250">
        <ele>11.168</ele>
        <time>2019-10-09T18:53:18Z</time>
      </trkpt>
      <trkpt lat="33.727051" lon="-7.334778">
        <ele>8.214</ele>
        <time>2019-10-09T18:53:35Z</time>
      </trkpt>
      <trkpt lat="33.727091" lon="-7.335012">
        <ele>7.108</ele>
        <time>2019-10-09T18:53:45Z</time>
      </trkpt>
      <trkpt lat="33.726644" lon="-7.335684">
        <ele>4.310</ele>
        <time>2019-10-09T19:00:28Z</time>
      </trkpt>
      <trkpt lat="33.726739" lon="-7.335940">
        <ele>4.698</ele>
        <time>2019-10-09T19:00:54Z</time>
      </trkpt>
      <trkpt lat="33.726554" lon="-7.335864">
        <ele>6.368</ele>
        <time>2019-10-09T19:07:34Z</time>
      </trkpt>
      <trkpt lat="33.726546" lon="-7.335714">
        <ele>8.042</ele>
        <time>2019-10-10T10:23:59Z</time>
      </trkpt>
      <trkpt lat="33.727081" lon="-7.335029">
        <ele>7.022</ele>
        <time>2019-10-10T10:28:58Z</time>
      </trkpt>
      <trkpt lat="33.726595" lon="-7.334342">
        <ele>8.314</ele>
        <time>2019-10-10T10:29:30Z</time>
      </trkpt>
      <trkpt lat="33.726710" lon="-7.334029">
        <ele>8.208</ele>
        <time>2019-10-10T10:29:50Z</time>
      </trkpt>
      <trkpt lat="33.726608" lon="-7.334200">
        <ele>8.218</ele>
        <time>2019-10-10T11:15:20Z</time>
      </trkpt>
      <trkpt lat="33.725669" lon="-7.334526">
        <ele>10.236</ele>
        <time>2019-10-10T11:15:54Z</time>
      </trkpt>
      <trkpt lat="33.721492" lon="-7.337063">
        <ele>16.736</ele>
        <time>2019-10-10T11:17:46Z</time>
      </trkpt>
      <trkpt lat="33.720535" lon="-7.338269">
        <ele>18.352</ele>
        <time>2019-10-10T11:18:19Z</time>
      </trkpt>
      <trkpt lat="33.719551" lon="-7.340019">
        <ele>13.585</ele>
        <time>2019-10-10T11:18:52Z</time>
      </trkpt>
      <trkpt lat="33.719086" lon="-7.340117">
        <ele>13.012</ele>
        <time>2019-10-10T11:18:59Z</time>
      </trkpt>
      <trkpt lat="33.718293" lon="-7.339755">
        <ele>10.976</ele>
        <time>2019-10-10T11:19:11Z</time>
      </trkpt>
      <trkpt lat="33.717839" lon="-7.339942">
        <ele>7.848</ele>
        <time>2019-10-10T11:19:20Z</time>
      </trkpt>
      <trkpt lat="33.716503" lon="-7.341665">
        <ele>10.226</ele>
        <time>2019-10-10T11:20:04Z</time>
      </trkpt>
      <trkpt lat="33.713153" lon="-7.347340">
        <ele>16.047</ele>
        <time>2019-10-10T11:22:24Z</time>
      </trkpt>
      <trkpt lat="33.711390" lon="-7.353571">
        <ele>9.311</ele>
        <time>2019-10-10T11:23:55Z</time>
      </trkpt>
      <trkpt lat="33.710269" lon="-7.355562">
        <ele>8.908</ele>
        <time>2019-10-10T11:24:33Z</time>
      </trkpt>
      <trkpt lat="33.707218" lon="-7.363143">
        <ele>8.156</ele>
        <time>2019-10-10T11:26:42Z</time>
      </trkpt>
      <trkpt lat="33.706899" lon="-7.363584">
        <ele>8.584</ele>
        <time>2019-10-10T11:26:52Z</time>
      </trkpt>
      <trkpt lat="33.703938" lon="-7.371203">
        <ele>8.044</ele>
        <time>2019-10-10T11:29:03Z</time>
      </trkpt>
      <trkpt lat="33.703804" lon="-7.372242">
        <ele>6.320</ele>
        <time>2019-10-10T11:29:19Z</time>
      </trkpt>
      <trkpt lat="33.703261" lon="-7.372832">
        <ele>6.973</ele>
        <time>2019-10-10T11:29:32Z</time>
      </trkpt>
      <trkpt lat="33.700443" lon="-7.379433">
        <ele>11.270</ele>
        <time>2019-10-10T11:32:40Z</time>
      </trkpt>
      <trkpt lat="33.700391" lon="-7.380362">
        <ele>10.014</ele>
        <time>2019-10-10T11:33:08Z</time>
      </trkpt>
      <trkpt lat="33.701148" lon="-7.380625">
        <ele>8.996</ele>
        <time>2019-10-10T11:33:49Z</time>
      </trkpt>
      <trkpt lat="33.701181" lon="-7.380744">
        <ele>8.542</ele>
        <time>2019-10-10T11:33:56Z</time>
      </trkpt>
      <trkpt lat="33.700815" lon="-7.383332">
        <ele>9.022</ele>
        <time>2019-10-10T11:34:48Z</time>
      </trkpt>
      <trkpt lat="33.700505" lon="-7.387837">
        <ele>7.214</ele>
        <time>2019-10-10T11:36:49Z</time>
      </trkpt>
      <trkpt lat="33.699402" lon="-7.388368">
        <ele>9.108</ele>
        <time>2019-10-10T11:37:29Z</time>
      </trkpt>
      <trkpt lat="33.699177" lon="-7.388951">
        <ele>9.298</ele>
        <time>2019-10-10T11:38:09Z</time>
      </trkpt>
      <trkpt lat="33.698949" lon="-7.388971">
        <ele>9.576</ele>
        <time>2019-10-10T11:38:27Z</time>
      </trkpt>
      <trkpt lat="33.698592" lon="-7.388716">
        <ele>10.216</ele>
        <time>2019-10-10T11:38:41Z</time>
      </trkpt>
      <trkpt lat="33.697397" lon="-7.389268">
        <ele>12.732</ele>
        <time>2019-10-10T11:39:17Z</time>
      </trkpt>
      <trkpt lat="33.697403" lon="-7.389468">
        <ele>12.295</ele>
        <time>2019-10-10T11:39:54Z</time>
      </trkpt>
      <trkpt lat="33.696287" lon="-7.388443">
        <ele>11.892</ele>
        <time>2019-10-10T11:40:40Z</time>
      </trkpt>
      <trkpt lat="33.695735" lon="-7.388591">
        <ele>12.056</ele>
        <time>2019-10-10T11:40:59Z</time>
      </trkpt>
      <trkpt lat="33.694272" lon="-7.390900">
        <ele>10.188</ele>
        <time>2019-10-10T11:41:57Z</time>
      </trkpt>
      <trkpt lat="33.693907" lon="-7.391205">
        <ele>10.791</ele>
        <time>2019-10-10T11:42:25Z</time>
      </trkpt>
      <trkpt lat="33.690992" lon="-7.394990">
        <ele>9.881</ele>
        <time>2019-10-10T11:44:09Z</time>
      </trkpt>
      <trkpt lat="33.682581" lon="-7.406193">
        <ele>9.619</ele>
        <time>2019-10-10T11:47:55Z</time>
      </trkpt>
      <trkpt lat="33.682380" lon="-7.406858">
        <ele>8.908</ele>
        <time>2019-10-10T11:48:07Z</time>
      </trkpt>
      <trkpt lat="33.682434" lon="-7.407591">
        <ele>9.153</ele>
        <time>2019-10-10T11:48:18Z</time>
      </trkpt>
      <trkpt lat="33.683478" lon="-7.410484">
        <ele>1.961</ele>
        <time>2019-10-10T11:49:06Z</time>
      </trkpt>
      <trkpt lat="33.683045" lon="-7.410744">
        <ele>1.931</ele>
        <time>2019-10-10T11:49:14Z</time>
      </trkpt>
      <trkpt lat="33.680551" lon="-7.414137">
        <ele>9.627</ele>
        <time>2019-10-10T11:50:30Z</time>
      </trkpt>
      <trkpt lat="33.678865" lon="-7.416136">
        <ele>8.260</ele>
        <time>2019-10-10T11:51:12Z</time>
      </trkpt>
      <trkpt lat="33.677759" lon="-7.417672">
        <ele>8.287</ele>
        <time>2019-10-10T11:51:43Z</time>
      </trkpt>
      <trkpt lat="33.676998" lon="-7.419065">
        <ele>10.621</ele>
        <time>2019-10-10T11:52:10Z</time>
      </trkpt>
      <trkpt lat="33.676322" lon="-7.420824">
        <ele>7.043</ele>
        <time>2019-10-10T11:52:38Z</time>
      </trkpt>
      <trkpt lat="33.672719" lon="-7.432959">
        <ele>8.576</ele>
        <time>2019-10-10T11:56:13Z</time>
      </trkpt>
      <trkpt lat="33.672112" lon="-7.434589">
        <ele>8.590</ele>
        <time>2019-10-10T11:56:36Z</time>
      </trkpt>
      <trkpt lat="33.669218" lon="-7.440922">
        <ele>7.719</ele>
        <time>2019-10-10T11:58:22Z</time>
      </trkpt>
      <trkpt lat="33.662603" lon="-7.453844">
        <ele>3.408</ele>
        <time>2019-10-10T12:02:07Z</time>
      </trkpt>
      <trkpt lat="33.660382" lon="-7.460176">
        <ele>4.931</ele>
        <time>2019-10-10T12:03:54Z</time>
      </trkpt>
      <trkpt lat="33.659641" lon="-7.461743">
        <ele>1.369</ele>
        <time>2019-10-10T12:04:22Z</time>
      </trkpt>
      <trkpt lat="33.658944" lon="-7.463010">
        <ele>4.379</ele>
        <time>2019-10-10T12:04:45Z</time>
      </trkpt>
      <trkpt lat="33.657403" lon="-7.465179">
        <ele>3.115</ele>
        <time>2019-10-10T12:05:27Z</time>
      </trkpt>
      <trkpt lat="33.655406" lon="-7.468414">
        <ele>4.888</ele>
        <time>2019-10-10T12:06:33Z</time>
      </trkpt>
      <trkpt lat="33.648743" lon="-7.482245">
        <ele>5.785</ele>
        <time>2019-10-10T12:12:17Z</time>
      </trkpt>
      <trkpt lat="33.645888" lon="-7.486810">
        <ele>5.139</ele>
        <time>2019-10-10T12:13:44Z</time>
      </trkpt>
      <trkpt lat="33.644780" lon="-7.488136">
        <ele>6.531</ele>
        <time>2019-10-10T12:14:17Z</time>
      </trkpt>
      <trkpt lat="33.643815" lon="-7.489846">
        <ele>6.465</ele>
        <time>2019-10-10T12:14:49Z</time>
      </trkpt>
      <trkpt lat="33.643130" lon="-7.491723">
        <ele>5.768</ele>
        <time>2019-10-10T12:15:23Z</time>
      </trkpt>
      <trkpt lat="33.641838" lon="-7.496726">
        <ele>6.114</ele>
        <time>2019-10-10T12:16:41Z</time>
      </trkpt>
      <trkpt lat="33.641115" lon="-7.498488">
        <ele>5.508</ele>
        <time>2019-10-10T12:17:12Z</time>
      </trkpt>
      <trkpt lat="33.637141" lon="-7.504215">
        <ele>5.210</ele>
        <time>2019-10-10T12:19:20Z</time>
      </trkpt>
      <trkpt lat="33.633011" lon="-7.509266">
        <ele>4.288</ele>
        <time>2019-10-10T12:21:11Z</time>
      </trkpt>
      <trkpt lat="33.625961" lon="-7.520429">
        <ele>2.958</ele>
        <time>2019-10-10T12:24:41Z</time>
      </trkpt>
      <trkpt lat="33.620072" lon="-7.532987">
        <ele>7.434</ele>
        <time>2019-10-10T12:28:38Z</time>
      </trkpt>
      <trkpt lat="33.619652" lon="-7.534257">
        <ele>7.597</ele>
        <time>2019-10-10T12:29:00Z</time>
      </trkpt>
      <trkpt lat="33.618208" lon="-7.545840">
        <ele>8.044</ele>
        <time>2019-10-10T12:32:58Z</time>
      </trkpt>
      <trkpt lat="33.618283" lon="-7.545678">
        <ele>8.098</ele>
        <time>2019-10-10T12:33:10Z</time>
      </trkpt>
      <trkpt lat="33.618480" lon="-7.545677">
        <ele>7.440</ele>
        <time>2019-10-10T12:34:40Z</time>
      </trkpt>
      <trkpt lat="33.618267" lon="-7.545696">
        <ele>8.077</ele>
        <time>2019-10-10T12:34:54Z</time>
      </trkpt>
      <trkpt lat="33.617833" lon="-7.546932">
        <ele>8.561</ele>
        <time>2019-10-10T12:35:29Z</time>
      </trkpt>
      <trkpt lat="33.617288" lon="-7.547879">
        <ele>9.927</ele>
        <time>2019-10-10T12:35:59Z</time>
      </trkpt>
      <trkpt lat="33.614786" lon="-7.554382">
        <ele>11.108</ele>
        <time>2019-10-10T12:39:33Z</time>
      </trkpt>
      <trkpt lat="33.612359" lon="-7.559154">
        <ele>11.731</ele>
        <time>2019-10-10T12:41:03Z</time>
      </trkpt>
      <trkpt lat="33.607289" lon="-7.571620">
        <ele>12.899</ele>
        <time>2019-10-10T12:44:40Z</time>
      </trkpt>
      <trkpt lat="33.606202" lon="-7.573924">
        <ele>10.829</ele>
        <time>2019-10-10T12:45:49Z</time>
      </trkpt>
      <trkpt lat="33.603502" lon="-7.580771">
        <ele>8.555</ele>
        <time>2019-10-10T12:48:08Z</time>
      </trkpt>
      <trkpt lat="33.601936" lon="-7.584230">
        <ele>10.578</ele>
        <time>2019-10-10T12:49:13Z</time>
      </trkpt>
      <trkpt lat="33.599637" lon="-7.589963">
        <ele>10.165</ele>
        <time>2019-10-10T12:50:59Z</time>
      </trkpt>
      <trkpt lat="33.597841" lon="-7.593700">
        <ele>11.889</ele>
        <time>2019-10-10T12:52:30Z</time>
      </trkpt>
      <trkpt lat="33.597179" lon="-7.595550">
        <ele>12.511</ele>
        <time>2019-10-10T12:54:13Z</time>
      </trkpt>
      <trkpt lat="33.596099" lon="-7.599461">
        <ele>10.285</ele>
        <time>2019-10-10T12:55:46Z</time>
      </trkpt>
      <trkpt lat="33.595971" lon="-7.600637">
        <ele>9.989</ele>
        <time>2019-10-10T12:56:14Z</time>
      </trkpt>
      <trkpt lat="33.596137" lon="-7.602318">
        <ele>11.017</ele>
        <time>2019-10-10T12:56:51Z</time>
      </trkpt>
      <trkpt lat="33.596257" lon="-7.602486">
        <ele>10.908</ele>
        <time>2019-10-10T12:57:00Z</time>
      </trkpt>
      <trkpt lat="33.596304" lon="-7.605421">
        <ele>12.452</ele>
        <time>2019-10-10T13:03:06Z</time>
      </trkpt>
      <trkpt lat="33.596993" lon="-7.609854">
        <ele>10.410</ele>
        <time>2019-10-10T13:06:39Z</time>
      </trkpt>
      <trkpt lat="33.597522" lon="-7.610932">
        <ele>8.280</ele>
        <time>2019-10-10T13:07:10Z</time>
      </trkpt>
      <trkpt lat="33.597741" lon="-7.611915">
        <ele>8.556</ele>
        <time>2019-10-10T13:07:26Z</time>
      </trkpt>
      <trkpt lat="33.600353" lon="-7.614803">
        <ele>4.819</ele>
        <time>2019-10-10T13:09:23Z</time>
      </trkpt>
      <trkpt lat="33.600834" lon="-7.616656">
        <ele>5.046</ele>
        <time>2019-10-10T13:10:04Z</time>
      </trkpt>
      <trkpt lat="33.601342" lon="-7.617457">
        <ele>6.690</ele>
        <time>2019-10-10T13:10:31Z</time>
      </trkpt>
      <trkpt lat="33.602542" lon="-7.618116">
        <ele>6.112</ele>
        <time>2019-10-10T13:11:05Z</time>
      </trkpt>
      <trkpt lat="33.603268" lon="-7.618770">
        <ele>4.427</ele>
        <time>2019-10-10T13:11:43Z</time>
      </trkpt>
      <trkpt lat="33.605269" lon="-7.620055">
        <ele>7.268</ele>
        <time>2019-10-10T13:12:35Z</time>
      </trkpt>
      <trkpt lat="33.607078" lon="-7.622337">
        <ele>4.014</ele>
        <time>2019-10-10T13:13:37Z</time>
      </trkpt>
      <trkpt lat="33.608710" lon="-7.626186">
        <ele>5.008</ele>
        <time>2019-10-10T13:14:52Z</time>
      </trkpt>
      <trkpt lat="33.608840" lon="-7.626814">
        <ele>4.576</ele>
        <time>2019-10-10T13:15:05Z</time>
      </trkpt>
      <trkpt lat="33.608809" lon="-7.628047">
        <ele>2.774</ele>
        <time>2019-10-10T13:16:11Z</time>
      </trkpt>
      <trkpt lat="33.608079" lon="-7.629537">
        <ele>1.844</ele>
        <time>2019-10-10T13:16:48Z</time>
      </trkpt>
      <trkpt lat="33.608177" lon="-7.630045">
        <ele>0.940</ele>
        <time>2019-10-10T13:22:52Z</time>
      </trkpt>
      <trkpt lat="33.607893" lon="-7.630103">
        <ele>2.193</ele>
        <time>2019-10-10T13:24:26Z</time>
      </trkpt>
      <trkpt lat="33.607570" lon="-7.630568">
        <ele>3.840</ele>
        <time>2019-10-10T13:24:42Z</time>
      </trkpt>
      <trkpt lat="33.607250" lon="-7.630436">
        <ele>4.984</ele>
        <time>2019-10-10T13:24:56Z</time>
      </trkpt>
      <trkpt lat="33.607100" lon="-7.630201">
        <ele>5.866</ele>
        <time>2019-10-10T13:26:03Z</time>
      </trkpt>
      <trkpt lat="33.607405" lon="-7.630572">
        <ele>4.156</ele>
        <time>2019-10-10T13:30:59Z</time>
      </trkpt>
      <trkpt lat="33.607240" lon="-7.631460">
        <ele>7.859</ele>
        <time>2019-10-10T13:33:36Z</time>
      </trkpt>
      <trkpt lat="33.607739" lon="-7.631932">
        <ele>9.714</ele>
        <time>2019-10-10T13:35:28Z</time>
      </trkpt>
      <trkpt lat="33.607654" lon="-7.632374">
        <ele>9.808</ele>
        <time>2019-10-10T13:39:48Z</time>
      </trkpt>
      <trkpt lat="33.607801" lon="-7.632228">
        <ele>10.329</ele>
        <time>2019-10-10T13:40:38Z</time>
      </trkpt>
      <trkpt lat="33.608005" lon="-7.632369">
        <ele>11.687</ele>
        <time>2019-10-10T13:46:28Z</time>
      </trkpt>
      <trkpt lat="33.607103" lon="-7.630229">
        <ele>5.727</ele>
        <time>2019-10-10T14:26:38Z</time>
      </trkpt>
      <trkpt lat="33.607575" lon="-7.629870">
        <ele>3.493</ele>
        <time>2019-10-10T14:28:31Z</time>
      </trkpt>
      <trkpt lat="33.608540" lon="-7.628137">
        <ele>4.986</ele>
        <time>2019-10-10T14:29:14Z</time>
      </trkpt>
      <trkpt lat="33.608747" lon="-7.627431">
        <ele>2.713</ele>
        <time>2019-10-10T14:29:28Z</time>
      </trkpt>
      <trkpt lat="33.608747" lon="-7.626766">
        <ele>4.787</ele>
        <time>2019-10-10T14:29:40Z</time>
      </trkpt>
      <trkpt lat="33.608264" lon="-7.625365">
        <ele>5.099</ele>
        <time>2019-10-10T14:30:10Z</time>
      </trkpt>
      <trkpt lat="33.606755" lon="-7.622228">
        <ele>3.282</ele>
        <time>2019-10-10T14:30:58Z</time>
      </trkpt>
      <trkpt lat="33.605054" lon="-7.619956">
        <ele>8.343</ele>
        <time>2019-10-10T14:32:21Z</time>
      </trkpt>
      <trkpt lat="33.603190" lon="-7.618819">
        <ele>5.017</ele>
        <time>2019-10-10T14:33:03Z</time>
      </trkpt>
      <trkpt lat="33.603102" lon="-7.619060">
        <ele>6.308</ele>
        <time>2019-10-10T14:33:45Z</time>
      </trkpt>
      <trkpt lat="33.603043" lon="-7.618477">
        <ele>4.672</ele>
        <time>2019-10-10T14:34:06Z</time>
      </trkpt>
      <trkpt lat="33.600844" lon="-7.617236">
        <ele>7.090</ele>
        <time>2019-10-10T14:35:04Z</time>
      </trkpt>
      <trkpt lat="33.600606" lon="-7.616749">
        <ele>7.410</ele>
        <time>2019-10-10T14:35:21Z</time>
      </trkpt>
      <trkpt lat="33.600502" lon="-7.617015">
        <ele>8.986</ele>
        <time>2019-10-10T14:36:05Z</time>
      </trkpt>
      <trkpt lat="33.600339" lon="-7.616479">
        <ele>9.489</ele>
        <time>2019-10-10T14:36:35Z</time>
      </trkpt>
      <trkpt lat="33.600074" lon="-7.616340">
        <ele>11.516</ele>
        <time>2019-10-10T14:37:06Z</time>
      </trkpt>
      <trkpt lat="33.598527" lon="-7.616882">
        <ele>17.980</ele>
        <time>2019-10-10T14:43:46Z</time>
      </trkpt>
      <trkpt lat="33.598775" lon="-7.616498">
        <ele>16.212</ele>
        <time>2019-10-10T14:44:37Z</time>
      </trkpt>
      <trkpt lat="33.598569" lon="-7.616769">
        <ele>17.638</ele>
        <time>2019-10-10T14:45:22Z</time>
      </trkpt>
      <trkpt lat="33.598828" lon="-7.617114">
        <ele>18.070</ele>
        <time>2019-10-10T14:46:25Z</time>
      </trkpt>
      <trkpt lat="33.598703" lon="-7.617506">
        <ele>19.017</ele>
        <time>2019-10-10T14:47:21Z</time>
      </trkpt>
      <trkpt lat="33.598525" lon="-7.617564">
        <ele>19.008</ele>
        <time>2019-10-10T14:47:53Z</time>
      </trkpt>
      <trkpt lat="33.597647" lon="-7.617013">
        <ele>16.137</ele>
        <time>2019-10-10T14:49:24Z</time>
      </trkpt>
      <trkpt lat="33.597645" lon="-7.616604">
        <ele>16.745</ele>
        <time>2019-10-10T14:50:28Z</time>
      </trkpt>
      <trkpt lat="33.597555" lon="-7.616900">
        <ele>15.995</ele>
        <time>2019-10-10T14:51:43Z</time>
      </trkpt>
      <trkpt lat="33.597068" lon="-7.616848">
        <ele>16.061</ele>
        <time>2019-10-10T14:53:27Z</time>
      </trkpt>
      <trkpt lat="33.596814" lon="-7.617168">
        <ele>14.764</ele>
        <time>2019-10-10T14:53:48Z</time>
      </trkpt>
      <trkpt lat="33.596758" lon="-7.617735">
        <ele>13.611</ele>
        <time>2019-10-10T14:54:11Z</time>
      </trkpt>
      <trkpt lat="33.597101" lon="-7.617943">
        <ele>15.195</ele>
        <time>2019-10-10T14:57:46Z</time>
      </trkpt>
      <trkpt lat="33.597029" lon="-7.618073">
        <ele>15.287</ele>
        <time>2019-10-10T14:58:19Z</time>
      </trkpt>
      <trkpt lat="33.596826" lon="-7.618014">
        <ele>14.216</ele>
        <time>2019-10-10T14:58:47Z</time>
      </trkpt>
      <trkpt lat="33.597202" lon="-7.617994">
        <ele>15.676</ele>
        <time>2019-10-10T14:59:57Z</time>
      </trkpt>
      <trkpt lat="33.596821" lon="-7.618197">
        <ele>14.513</ele>
        <time>2019-10-10T15:01:09Z</time>
      </trkpt>
      <trkpt lat="33.596697" lon="-7.618667">
        <ele>16.508</ele>
        <time>2019-10-10T15:10:05Z</time>
      </trkpt>
      <trkpt lat="33.596791" lon="-7.618164">
        <ele>14.395</ele>
        <time>2019-10-10T15:11:03Z</time>
      </trkpt>
      <trkpt lat="33.596581" lon="-7.617793">
        <ele>14.463</ele>
        <time>2019-10-10T15:11:46Z</time>
      </trkpt>
      <trkpt lat="33.596607" lon="-7.614779">
        <ele>27.193</ele>
        <time>2019-10-10T15:13:20Z</time>
      </trkpt>
      <trkpt lat="33.596676" lon="-7.613457">
        <ele>28.459</ele>
        <time>2019-10-10T15:13:53Z</time>
      </trkpt>
      <trkpt lat="33.596905" lon="-7.613002">
        <ele>22.572</ele>
        <time>2019-10-10T15:14:05Z</time>
      </trkpt>
      <trkpt lat="33.596683" lon="-7.612418">
        <ele>23.369</ele>
        <time>2019-10-10T15:14:45Z</time>
      </trkpt>
      <trkpt lat="33.596992" lon="-7.610762">
        <ele>14.333</ele>
        <time>2019-10-10T15:15:34Z</time>
      </trkpt>
      <trkpt lat="33.596821" lon="-7.609881">
        <ele>11.835</ele>
        <time>2019-10-10T15:15:59Z</time>
      </trkpt>
      <trkpt lat="33.596736" lon="-7.609677">
        <ele>12.582</ele>
        <time>2019-10-10T15:16:08Z</time>
      </trkpt>
      <trkpt lat="33.596589" lon="-7.609704">
        <ele>13.643</ele>
        <time>2019-10-10T15:16:42Z</time>
      </trkpt>
      <trkpt lat="33.596725" lon="-7.608861">
        <ele>11.617</ele>
        <time>2019-10-10T15:18:59Z</time>
      </trkpt>
      <trkpt lat="33.596222" lon="-7.606009">
        <ele>11.108</ele>
        <time>2019-10-10T15:19:49Z</time>
      </trkpt>
      <trkpt lat="33.596154" lon="-7.603761">
        <ele>13.182</ele>
        <time>2019-10-10T15:20:43Z</time>
      </trkpt>
      <trkpt lat="33.595842" lon="-7.603498">
        <ele>12.260</ele>
        <time>2019-10-10T15:20:56Z</time>
      </trkpt>
      <trkpt lat="33.594039" lon="-7.603591">
        <ele>20.460</ele>
        <time>2019-10-10T15:21:49Z</time>
      </trkpt>
      <trkpt lat="33.592171" lon="-7.603498">
        <ele>28.356</ele>
        <time>2019-10-10T15:23:35Z</time>
      </trkpt>
      <trkpt lat="33.592053" lon="-7.603726">
        <ele>27.119</ele>
        <time>2019-10-10T15:23:42Z</time>
      </trkpt>
      <trkpt lat="33.591052" lon="-7.603670">
        <ele>26.746</ele>
        <time>2019-10-10T15:24:06Z</time>
      </trkpt>
      <trkpt lat="33.588582" lon="-7.603992">
        <ele>23.830</ele>
        <time>2019-10-10T15:27:02Z</time>
      </trkpt>
      <trkpt lat="33.585794" lon="-7.605833">
        <ele>22.342</ele>
        <time>2019-10-10T15:28:17Z</time>
      </trkpt>
      <trkpt lat="33.585097" lon="-7.606849">
        <ele>30.489</ele>
        <time>2019-10-10T15:30:15Z</time>
      </trkpt>
      <trkpt lat="33.584774" lon="-7.608085">
        <ele>30.306</ele>
        <time>2019-10-10T15:30:37Z</time>
      </trkpt>
      <trkpt lat="33.584313" lon="-7.608981">
        <ele>32.226</ele>
        <time>2019-10-10T15:30:58Z</time>
      </trkpt>
      <trkpt lat="33.583285" lon="-7.614548">
        <ele>31.908</ele>
        <time>2019-10-10T15:34:14Z</time>
      </trkpt>
      <trkpt lat="33.583333" lon="-7.615384">
        <ele>30.462</ele>
        <time>2019-10-10T15:35:08Z</time>
      </trkpt>
      <trkpt lat="33.583577" lon="-7.615196">
        <ele>30.430</ele>
        <time>2019-10-10T15:35:42Z</time>
      </trkpt>
      <trkpt lat="33.584742" lon="-7.615967">
        <ele>30.620</ele>
        <time>2019-10-10T15:36:21Z</time>
      </trkpt>
      <trkpt lat="33.585021" lon="-7.615999">
        <ele>29.436</ele>
        <time>2019-10-10T15:36:30Z</time>
      </trkpt>
      <trkpt lat="33.585618" lon="-7.616420">
        <ele>30.139</ele>
        <time>2019-10-10T15:36:50Z</time>
      </trkpt>
      <trkpt lat="33.588116" lon="-7.617633">
        <ele>29.276</ele>
        <time>2019-10-10T15:39:12Z</time>
      </trkpt>
      <trkpt lat="33.587903" lon="-7.618355">
        <ele>27.630</ele>
        <time>2019-10-10T15:40:20Z</time>
      </trkpt>
      <trkpt lat="33.587904" lon="-7.621286">
        <ele>33.082</ele>
        <time>2019-10-10T15:43:26Z</time>
      </trkpt>
      <trkpt lat="33.589610" lon="-7.625363">
        <ele>29.129</ele>
        <time>2019-10-10T15:46:24Z</time>
      </trkpt>
      <trkpt lat="33.589896" lon="-7.625648">
        <ele>33.500</ele>
        <time>2019-10-10T15:46:39Z</time>
      </trkpt>
      <trkpt lat="33.590113" lon="-7.625619">
        <ele>33.820</ele>
        <time>2019-10-10T15:46:48Z</time>
      </trkpt>
      <trkpt lat="33.591717" lon="-7.624854">
        <ele>23.308</ele>
        <time>2019-10-10T15:48:42Z</time>
      </trkpt>
      <trkpt lat="33.591986" lon="-7.624513">
        <ele>23.676</ele>
        <time>2019-10-10T15:49:05Z</time>
      </trkpt>
      <trkpt lat="33.592059" lon="-7.624727">
        <ele>24.024</ele>
        <time>2019-10-10T15:51:08Z</time>
      </trkpt>
      <trkpt lat="33.590630" lon="-7.625366">
        <ele>29.824</ele>
        <time>2019-10-10T15:52:38Z</time>
      </trkpt>
      <trkpt lat="33.589963" lon="-7.625952">
        <ele>35.570</ele>
        <time>2019-10-10T15:53:03Z</time>
      </trkpt>
      <trkpt lat="33.590268" lon="-7.626637">
        <ele>33.873</ele>
        <time>2019-10-10T15:54:18Z</time>
      </trkpt>
      <trkpt lat="33.590023" lon="-7.626621">
        <ele>34.910</ele>
        <time>2019-10-10T15:54:50Z</time>
      </trkpt>
      <trkpt lat="33.589512" lon="-7.626139">
        <ele>31.444</ele>
        <time>2019-10-10T15:55:12Z</time>
      </trkpt>
      <trkpt lat="33.588897" lon="-7.626608">
        <ele>27.916</ele>
        <time>2019-10-10T15:55:30Z</time>
      </trkpt>
      <trkpt lat="33.586298" lon="-7.628960">
        <ele>27.156</ele>
        <time>2019-10-10T15:57:00Z</time>
      </trkpt>
      <trkpt lat="33.584195" lon="-7.631282">
        <ele>33.659</ele>
        <time>2019-10-10T15:58:17Z</time>
      </trkpt>
      <trkpt lat="33.581200" lon="-7.633915">
        <ele>33.614</ele>
        <time>2019-10-10T16:00:14Z</time>
      </trkpt>
      <trkpt lat="33.581005" lon="-7.634310">
        <ele>33.508</ele>
        <time>2019-10-10T16:00:30Z</time>
      </trkpt>
      <trkpt lat="33.581650" lon="-7.635093">
        <ele>35.349</ele>
        <time>2019-10-10T16:00:57Z</time>
      </trkpt>
      <trkpt lat="33.581783" lon="-7.635192">
        <ele>35.417</ele>
        <time>2019-10-10T16:01:29Z</time>
      </trkpt>
      <trkpt lat="33.581903" lon="-7.635063">
        <ele>34.927</ele>
        <time>2019-10-10T16:01:54Z</time>
      </trkpt>
      <trkpt lat="33.581889" lon="-7.634782">
        <ele>34.673</ele>
        <time>2019-10-10T16:02:11Z</time>
      </trkpt>
      <trkpt lat="33.582319" lon="-7.635194">
        <ele>34.296</ele>
        <time>2019-10-10T16:02:53Z</time>
      </trkpt>
      <trkpt lat="33.581363" lon="-7.634060">
        <ele>33.653</ele>
        <time>2019-10-10T16:42:10Z</time>
      </trkpt>
      <trkpt lat="33.578981" lon="-7.636492">
        <ele>37.027</ele>
        <time>2019-10-10T16:43:45Z</time>
      </trkpt>
      <trkpt lat="33.577191" lon="-7.637879">
        <ele>37.999</ele>
        <time>2019-10-10T16:44:35Z</time>
      </trkpt>
      <trkpt lat="33.576555" lon="-7.638628">
        <ele>38.077</ele>
        <time>2019-10-10T16:44:56Z</time>
      </trkpt>
      <trkpt lat="33.569349" lon="-7.644254">
        <ele>43.961</ele>
        <time>2019-10-10T16:49:46Z</time>
      </trkpt>
      <trkpt lat="33.560112" lon="-7.644814">
        <ele>48.827</ele>
        <time>2019-10-10T16:53:48Z</time>
      </trkpt>
      <trkpt lat="33.551224" lon="-7.644151">
        <ele>56.508</ele>
        <time>2019-10-10T16:56:59Z</time>
      </trkpt>
      <trkpt lat="33.550336" lon="-7.644321">
        <ele>53.861</ele>
        <time>2019-10-10T16:57:46Z</time>
      </trkpt>
      <trkpt lat="33.549447" lon="-7.644692">
        <ele>52.819</ele>
        <time>2019-10-10T16:58:11Z</time>
      </trkpt>
      <trkpt lat="33.551116" lon="-7.644126">
        <ele>56.639</ele>
        <time>2019-10-10T17:01:38Z</time>
      </trkpt>
      <trkpt lat="33.548721" lon="-7.643754">
        <ele>54.635</ele>
        <time>2019-10-10T17:02:47Z</time>
      </trkpt>
      <trkpt lat="33.524149" lon="-7.635226">
        <ele>99.838</ele>
        <time>2019-10-10T17:12:26Z</time>
      </trkpt>
      <trkpt lat="33.515707" lon="-7.631626">
        <ele>92.075</ele>
        <time>2019-10-10T17:14:45Z</time>
      </trkpt>
      <trkpt lat="33.513022" lon="-7.631043">
        <ele>93.429</ele>
        <time>2019-10-10T17:15:39Z</time>
      </trkpt>
      <trkpt lat="33.513549" lon="-7.631292">
        <ele>92.171</ele>
        <time>2019-10-10T17:16:28Z</time>
      </trkpt>
      <trkpt lat="33.513303" lon="-7.631856">
        <ele>92.117</ele>
        <time>2019-10-10T17:17:02Z</time>
      </trkpt>
      <trkpt lat="33.512029" lon="-7.632039">
        <ele>97.187</ele>
        <time>2019-10-10T17:17:38Z</time>
      </trkpt>
      <trkpt lat="33.511020" lon="-7.632082">
        <ele>102.615</ele>
        <time>2019-10-10T17:18:08Z</time>
      </trkpt>
      <trkpt lat="33.509290" lon="-7.631650">
        <ele>108.408</ele>
        <time>2019-10-10T17:18:58Z</time>
      </trkpt>
      <trkpt lat="33.506019" lon="-7.631913">
        <ele>120.015</ele>
        <time>2019-10-10T17:20:32Z</time>
      </trkpt>
      <trkpt lat="33.504246" lon="-7.631524">
        <ele>122.763</ele>
        <time>2019-10-10T17:21:19Z</time>
      </trkpt>
      <trkpt lat="33.501923" lon="-7.629855">
        <ele>123.363</ele>
        <time>2019-10-10T17:23:20Z</time>
      </trkpt>
      <trkpt lat="33.501214" lon="-7.629928">
        <ele>123.889</ele>
        <time>2019-10-10T17:23:37Z</time>
      </trkpt>
      <trkpt lat="33.500105" lon="-7.630747">
        <ele>125.682</ele>
        <time>2019-10-10T17:24:08Z</time>
      </trkpt>
      <trkpt lat="33.499348" lon="-7.630825">
        <ele>129.149</ele>
        <time>2019-10-10T17:24:29Z</time>
      </trkpt>
      <trkpt lat="33.498730" lon="-7.630579">
        <ele>133.763</ele>
        <time>2019-10-10T17:24:46Z</time>
      </trkpt>
      <trkpt lat="33.497076" lon="-7.629530">
        <ele>140.785</ele>
        <time>2019-10-10T17:25:32Z</time>
      </trkpt>
      <trkpt lat="33.496206" lon="-7.629296">
        <ele>141.589</ele>
        <time>2019-10-10T17:25:49Z</time>
      </trkpt>
      <trkpt lat="33.495314" lon="-7.629461">
        <ele>141.506</ele>
        <time>2019-10-10T17:26:06Z</time>
      </trkpt>
      <trkpt lat="33.492943" lon="-7.630657">
        <ele>145.126</ele>
        <time>2019-10-10T17:27:07Z</time>
      </trkpt>
      <trkpt lat="33.491134" lon="-7.630949">
        <ele>146.308</ele>
        <time>2019-10-10T17:27:47Z</time>
      </trkpt>
      <trkpt lat="33.490421" lon="-7.631266">
        <ele>144.462</ele>
        <time>2019-10-10T17:28:01Z</time>
      </trkpt>
      <trkpt lat="33.488281" lon="-7.633619">
        <ele>137.650</ele>
        <time>2019-10-10T17:28:41Z</time>
      </trkpt>
      <trkpt lat="33.484705" lon="-7.635641">
        <ele>126.520</ele>
        <time>2019-10-10T17:29:34Z</time>
      </trkpt>
      <trkpt lat="33.482865" lon="-7.637532">
        <ele>117.786</ele>
        <time>2019-10-10T17:30:08Z</time>
      </trkpt>
      <trkpt lat="33.482226" lon="-7.637906">
        <ele>116.329</ele>
        <time>2019-10-10T17:30:20Z</time>
      </trkpt>
      <trkpt lat="33.481683" lon="-7.637953">
        <ele>116.066</ele>
        <time>2019-10-10T17:30:29Z</time>
      </trkpt>
      <trkpt lat="33.479351" lon="-7.637660">
        <ele>120.110</ele>
        <time>2019-10-10T17:31:12Z</time>
      </trkpt>
      <trkpt lat="33.472009" lon="-7.638491">
        <ele>120.182</ele>
        <time>2019-10-10T17:33:20Z</time>
      </trkpt>
      <trkpt lat="33.468139" lon="-7.638199">
        <ele>123.377</ele>
        <time>2019-10-10T17:34:33Z</time>
      </trkpt>
      <trkpt lat="33.467004" lon="-7.638249">
        <ele>123.661</ele>
        <time>2019-10-10T17:34:53Z</time>
      </trkpt>
      <trkpt lat="33.465886" lon="-7.638583">
        <ele>123.927</ele>
        <time>2019-10-10T17:35:15Z</time>
      </trkpt>
      <trkpt lat="33.465317" lon="-7.639113">
        <ele>125.208</ele>
        <time>2019-10-10T17:35:31Z</time>
      </trkpt>
      <trkpt lat="33.464881" lon="-7.639116">
        <ele>123.941</ele>
        <time>2019-10-10T17:36:29Z</time>
      </trkpt>
      <trkpt lat="33.461742" lon="-7.640688">
        <ele>126.249</ele>
        <time>2019-10-10T17:37:36Z</time>
      </trkpt>
      <trkpt lat="33.460612" lon="-7.640879">
        <ele>127.729</ele>
        <time>2019-10-10T17:37:56Z</time>
      </trkpt>
      <trkpt lat="33.458598" lon="-7.641568">
        <ele>125.015</ele>
        <time>2019-10-10T17:38:33Z</time>
      </trkpt>
      <trkpt lat="33.455158" lon="-7.641665">
        <ele>129.288</ele>
        <time>2019-10-10T17:39:36Z</time>
      </trkpt>
      <trkpt lat="33.453958" lon="-7.642058">
        <ele>133.285</ele>
        <time>2019-10-10T17:40:06Z</time>
      </trkpt>
      <trkpt lat="33.452621" lon="-7.642158">
        <ele>133.139</ele>
        <time>2019-10-10T17:40:33Z</time>
      </trkpt>
      <trkpt lat="33.450675" lon="-7.642812">
        <ele>135.951</ele>
        <time>2019-10-10T17:41:14Z</time>
      </trkpt>
      <trkpt lat="33.449730" lon="-7.642692">
        <ele>136.916</ele>
        <time>2019-10-10T17:41:35Z</time>
      </trkpt>
      <trkpt lat="33.449517" lon="-7.642797">
        <ele>136.876</ele>
        <time>2019-10-10T17:41:58Z</time>
      </trkpt>
      <trkpt lat="33.448967" lon="-7.642360">
        <ele>137.013</ele>
        <time>2019-10-10T17:42:13Z</time>
      </trkpt>
      <trkpt lat="33.444115" lon="-7.640426">
        <ele>145.708</ele>
        <time>2019-10-10T17:43:58Z</time>
      </trkpt>
      <trkpt lat="33.437296" lon="-7.632099">
        <ele>155.645</ele>
        <time>2019-10-10T17:47:22Z</time>
      </trkpt>
      <trkpt lat="33.437242" lon="-7.631769">
        <ele>155.933</ele>
        <time>2019-10-10T17:47:30Z</time>
      </trkpt>
      <trkpt lat="33.437549" lon="-7.631239">
        <ele>153.413</ele>
        <time>2019-10-10T17:47:43Z</time>
      </trkpt>
      <trkpt lat="33.438045" lon="-7.628148">
        <ele>151.559</ele>
        <time>2019-10-10T17:48:56Z</time>
      </trkpt>
      <trkpt lat="33.437662" lon="-7.627573">
        <ele>153.432</ele>
        <time>2019-10-10T17:49:05Z</time>
      </trkpt>
      <trkpt lat="33.436628" lon="-7.627418">
        <ele>154.939</ele>
        <time>2019-10-10T17:49:42Z</time>
      </trkpt>
      <trkpt lat="33.436237" lon="-7.627176">
        <ele>156.443</ele>
        <time>2019-10-10T17:49:55Z</time>
      </trkpt>
      <trkpt lat="33.436204" lon="-7.626216">
        <ele>154.895</ele>
        <time>2019-10-10T17:50:09Z</time>
      </trkpt>
      <trkpt lat="33.435974" lon="-7.625171">
        <ele>154.059</ele>
        <time>2019-10-10T17:50:25Z</time>
      </trkpt>
      <trkpt lat="33.435273" lon="-7.625630">
        <ele>155.603</ele>
        <time>2019-10-10T17:50:43Z</time>
      </trkpt>
      <trkpt lat="33.433443" lon="-7.627385">
        <ele>162.623</ele>
        <time>2019-10-10T17:51:52Z</time>
      </trkpt>
      <trkpt lat="33.432822" lon="-7.627679">
        <ele>166.708</ele>
        <time>2019-10-10T17:52:08Z</time>
      </trkpt>
      <trkpt lat="33.424678" lon="-7.627045">
        <ele>169.499</ele>
        <time>2019-10-10T17:54:47Z</time>
      </trkpt>
      <trkpt lat="33.424358" lon="-7.626854">
        <ele>169.987</ele>
        <time>2019-10-10T17:54:54Z</time>
      </trkpt>
      <trkpt lat="33.424189" lon="-7.626481">
        <ele>170.097</ele>
        <time>2019-10-10T17:55:01Z</time>
      </trkpt>
      <trkpt lat="33.424269" lon="-7.625441">
        <ele>170.113</ele>
        <time>2019-10-10T17:55:18Z</time>
      </trkpt>
      <trkpt lat="33.423912" lon="-7.625252">
        <ele>170.746</ele>
        <time>2019-10-10T17:55:27Z</time>
      </trkpt>
      <trkpt lat="33.423037" lon="-7.626539">
        <ele>173.093</ele>
        <time>2019-10-10T17:55:52Z</time>
      </trkpt>
      <trkpt lat="33.422345" lon="-7.626859">
        <ele>174.347</ele>
        <time>2019-10-10T17:56:06Z</time>
      </trkpt>
      <trkpt lat="33.410673" lon="-7.625836">
        <ele>180.229</ele>
        <time>2019-10-10T17:59:44Z</time>
      </trkpt>
      <trkpt lat="33.409411" lon="-7.625497">
        <ele>181.344</ele>
        <time>2019-10-10T18:00:06Z</time>
      </trkpt>
      <trkpt lat="33.407273" lon="-7.624500">
        <ele>184.705</ele>
        <time>2019-10-10T18:00:47Z</time>
      </trkpt>
      <trkpt lat="33.406276" lon="-7.623857">
        <ele>182.615</ele>
        <time>2019-10-10T18:01:09Z</time>
      </trkpt>
      <trkpt lat="33.399674" lon="-7.621049">
        <ele>186.908</ele>
        <time>2019-10-10T18:03:15Z</time>
      </trkpt>
      <trkpt lat="33.397293" lon="-7.620471">
        <ele>189.338</ele>
        <time>2019-10-10T18:03:58Z</time>
      </trkpt>
      <trkpt lat="33.396699" lon="-7.620079">
        <ele>189.946</ele>
        <time>2019-10-10T18:04:12Z</time>
      </trkpt>
      <trkpt lat="33.395370" lon="-7.620197">
        <ele>188.646</ele>
        <time>2019-10-10T18:04:58Z</time>
      </trkpt>
      <trkpt lat="33.394566" lon="-7.620079">
        <ele>188.572</ele>
        <time>2019-10-10T18:05:14Z</time>
      </trkpt>
      <trkpt lat="33.393728" lon="-7.618194">
        <ele>189.595</ele>
        <time>2019-10-10T18:07:51Z</time>
      </trkpt>
      <trkpt lat="33.393326" lon="-7.616785">
        <ele>192.882</ele>
        <time>2019-10-10T18:08:20Z</time>
      </trkpt>
      <trkpt lat="33.389991" lon="-7.617428">
        <ele>185.986</ele>
        <time>2019-10-10T18:09:15Z</time>
      </trkpt>
      <trkpt lat="33.389563" lon="-7.617289">
        <ele>186.018</ele>
        <time>2019-10-10T18:09:23Z</time>
      </trkpt>
      <trkpt lat="33.389076" lon="-7.617521">
        <ele>186.862</ele>
        <time>2019-10-10T18:09:28Z</time>
      </trkpt>
      <trkpt lat="33.388547" lon="-7.617465">
        <ele>186.283</ele>
        <time>2019-10-10T18:09:38Z</time>
      </trkpt>
      <trkpt lat="33.388154" lon="-7.618922">
        <ele>185.311</ele>
        <time>2019-10-10T18:10:01Z</time>
      </trkpt>
      <trkpt lat="33.387784" lon="-7.619538">
        <ele>187.908</ele>
        <time>2019-10-10T18:10:15Z</time>
      </trkpt>
      <trkpt lat="33.386193" lon="-7.619951">
        <ele>188.260</ele>
        <time>2019-10-10T18:10:46Z</time>
      </trkpt>
      <trkpt lat="33.383957" lon="-7.620936">
        <ele>189.928</ele>
        <time>2019-10-10T18:11:36Z</time>
      </trkpt>
      <trkpt lat="33.380860" lon="-7.621520">
        <ele>194.748</ele>
        <time>2019-10-10T18:12:36Z</time>
      </trkpt>
      <trkpt lat="33.372003" lon="-7.620744">
        <ele>189.184</ele>
        <time>2019-10-10T18:15:03Z</time>
      </trkpt>
      <trkpt lat="33.370989" lon="-7.620470">
        <ele>190.977</ele>
        <time>2019-10-10T18:15:20Z</time>
      </trkpt>
      <trkpt lat="33.370357" lon="-7.619921">
        <ele>190.594</ele>
        <time>2019-10-10T18:15:32Z</time>
      </trkpt>
      <trkpt lat="33.369191" lon="-7.619272">
        <ele>197.788</ele>
        <time>2019-10-10T18:15:57Z</time>
      </trkpt>
      <trkpt lat="33.368452" lon="-7.619395">
        <ele>198.720</ele>
        <time>2019-10-10T18:16:12Z</time>
      </trkpt>
      <trkpt lat="33.367407" lon="-7.619811">
        <ele>195.939</ele>
        <time>2019-10-10T18:16:33Z</time>
      </trkpt>
      <trkpt lat="33.364044" lon="-7.619491">
        <ele>196.501</ele>
        <time>2019-10-10T18:17:32Z</time>
      </trkpt>
      <trkpt lat="33.359994" lon="-7.618692">
        <ele>196.021</ele>
        <time>2019-10-10T18:18:38Z</time>
      </trkpt>
      <trkpt lat="33.356137" lon="-7.617477">
        <ele>197.108</ele>
        <time>2019-10-10T18:19:42Z</time>
      </trkpt>
      <trkpt lat="33.355892" lon="-7.617095">
        <ele>197.627</ele>
        <time>2019-10-10T18:19:49Z</time>
      </trkpt>
      <trkpt lat="33.356083" lon="-7.616066">
        <ele>199.685</ele>
        <time>2019-10-10T18:20:04Z</time>
      </trkpt>
      <trkpt lat="33.355967" lon="-7.615879">
        <ele>199.465</ele>
        <time>2019-10-10T18:20:08Z</time>
      </trkpt>
      <trkpt lat="33.355599" lon="-7.615878">
        <ele>200.681</ele>
        <time>2019-10-10T18:20:15Z</time>
      </trkpt>
      <trkpt lat="33.355296" lon="-7.616930">
        <ele>199.424</ele>
        <time>2019-10-10T18:20:34Z</time>
      </trkpt>
      <trkpt lat="33.354947" lon="-7.617084">
        <ele>200.591</ele>
        <time>2019-10-10T18:20:41Z</time>
      </trkpt>
      <trkpt lat="33.333296" lon="-7.609135">
        <ele>200.275</ele>
        <time>2019-10-10T18:26:40Z</time>
      </trkpt>
      <trkpt lat="33.333015" lon="-7.608890">
        <ele>201.227</ele>
        <time>2019-10-10T18:26:46Z</time>
      </trkpt>
      <trkpt lat="33.332929" lon="-7.607591">
        <ele>201.619</ele>
        <time>2019-10-10T18:27:05Z</time>
      </trkpt>
      <trkpt lat="33.332691" lon="-7.607392">
        <ele>200.809</ele>
        <time>2019-10-10T18:27:13Z</time>
      </trkpt>
      <trkpt lat="33.332426" lon="-7.607548">
        <ele>200.119</ele>
        <time>2019-10-10T18:27:19Z</time>
      </trkpt>
      <trkpt lat="33.332131" lon="-7.608316">
        <ele>202.008</ele>
        <time>2019-10-10T18:27:32Z</time>
      </trkpt>
      <trkpt lat="33.331570" lon="-7.608503">
        <ele>202.165</ele>
        <time>2019-10-10T18:27:41Z</time>
      </trkpt>
      <trkpt lat="33.323262" lon="-7.605400">
        <ele>202.633</ele>
        <time>2019-10-10T18:29:58Z</time>
      </trkpt>
      <trkpt lat="33.321503" lon="-7.604608">
        <ele>206.033</ele>
        <time>2019-10-10T18:30:27Z</time>
      </trkpt>
      <trkpt lat="33.320833" lon="-7.604052">
        <ele>205.789</ele>
        <time>2019-10-10T18:30:40Z</time>
      </trkpt>
      <trkpt lat="33.320041" lon="-7.601886">
        <ele>204.582</ele>
        <time>2019-10-10T18:31:21Z</time>
      </trkpt>
      <trkpt lat="33.319597" lon="-7.601292">
        <ele>204.189</ele>
        <time>2019-10-10T18:31:33Z</time>
      </trkpt>
      <trkpt lat="33.319074" lon="-7.600992">
        <ele>204.653</ele>
        <time>2019-10-10T18:31:42Z</time>
      </trkpt>
      <trkpt lat="33.318593" lon="-7.600929">
        <ele>205.515</ele>
        <time>2019-10-10T18:31:49Z</time>
      </trkpt>
      <trkpt lat="33.317479" lon="-7.601397">
        <ele>206.762</ele>
        <time>2019-10-10T18:32:09Z</time>
      </trkpt>
      <trkpt lat="33.317168" lon="-7.601396">
        <ele>207.583</ele>
        <time>2019-10-10T18:32:14Z</time>
      </trkpt>
      <trkpt lat="33.315483" lon="-7.599446">
        <ele>205.711</ele>
        <time>2019-10-10T18:32:50Z</time>
      </trkpt>
      <trkpt lat="33.312764" lon="-7.594836">
        <ele>208.508</ele>
        <time>2019-10-10T18:34:08Z</time>
      </trkpt>
      <trkpt lat="33.312938" lon="-7.594451">
        <ele>208.820</ele>
        <time>2019-10-10T18:34:15Z</time>
      </trkpt>
      <trkpt lat="33.313937" lon="-7.593800">
        <ele>208.298</ele>
        <time>2019-10-10T18:34:38Z</time>
      </trkpt>
      <trkpt lat="33.313932" lon="-7.593582">
        <ele>208.118</ele>
        <time>2019-10-10T18:34:43Z</time>
      </trkpt>
      <trkpt lat="33.312538" lon="-7.594550">
        <ele>208.634</ele>
        <time>2019-10-10T18:35:33Z</time>
      </trkpt>
      <trkpt lat="33.311685" lon="-7.595452">
        <ele>206.947</ele>
        <time>2019-10-10T18:36:19Z</time>
      </trkpt>
      <trkpt lat="33.311314" lon="-7.597140">
        <ele>207.144</ele>
        <time>2019-10-10T18:36:38Z</time>
      </trkpt>
      <trkpt lat="33.311332" lon="-7.598523">
        <ele>207.718</ele>
        <time>2019-10-10T18:36:58Z</time>
      </trkpt>
      <trkpt lat="33.310455" lon="-7.600362">
        <ele>207.610</ele>
        <time>2019-10-10T18:37:27Z</time>
      </trkpt>
      <trkpt lat="33.310055" lon="-7.602563">
        <ele>207.858</ele>
        <time>2019-10-10T18:38:06Z</time>
      </trkpt>
      <trkpt lat="33.309739" lon="-7.602761">
        <ele>207.652</ele>
        <time>2019-10-10T18:38:24Z</time>
      </trkpt>
      <trkpt lat="33.299882" lon="-7.598667">
        <ele>211.217</ele>
        <time>2019-10-10T18:41:22Z</time>
      </trkpt>
      <trkpt lat="33.285861" lon="-7.592546">
        <ele>211.908</ele>
        <time>2019-10-10T18:45:18Z</time>
      </trkpt>
      <trkpt lat="33.285313" lon="-7.592453">
        <ele>212.069</ele>
        <time>2019-10-10T18:45:28Z</time>
      </trkpt>
      <trkpt lat="33.285142" lon="-7.592215">
        <ele>212.147</ele>
        <time>2019-10-10T18:46:05Z</time>
      </trkpt>
      <trkpt lat="33.281475" lon="-7.590653">
        <ele>214.967</ele>
        <time>2019-10-10T18:47:17Z</time>
      </trkpt>
      <trkpt lat="33.280378" lon="-7.590317">
        <ele>213.853</ele>
        <time>2019-10-10T18:47:41Z</time>
      </trkpt>
      <trkpt lat="33.277566" lon="-7.588861">
        <ele>216.166</ele>
        <time>2019-10-10T18:48:44Z</time>
      </trkpt>
      <trkpt lat="33.275367" lon="-7.587955">
        <ele>218.093</ele>
        <time>2019-10-10T18:49:55Z</time>
      </trkpt>
      <trkpt lat="33.275354" lon="-7.589126">
        <ele>218.077</ele>
        <time>2019-10-10T18:50:48Z</time>
      </trkpt>
      <trkpt lat="33.275433" lon="-7.588350">
        <ele>217.599</ele>
        <time>2019-10-10T18:51:17Z</time>
      </trkpt>
      <trkpt lat="33.275325" lon="-7.587898">
        <ele>218.085</ele>
        <time>2019-10-10T18:51:31Z</time>
      </trkpt>
      <trkpt lat="33.270259" lon="-7.585588">
        <ele>218.989</ele>
        <time>2019-10-10T18:55:19Z</time>
      </trkpt>
      <trkpt lat="33.269513" lon="-7.585401">
        <ele>219.617</ele>
        <time>2019-10-10T18:56:18Z</time>
      </trkpt>
      <trkpt lat="33.269272" lon="-7.585777">
        <ele>221.508</ele>
        <time>2019-10-10T18:56:41Z</time>
      </trkpt>
      <trkpt lat="33.268473" lon="-7.585517">
        <ele>222.372</ele>
        <time>2019-10-10T18:57:44Z</time>
      </trkpt>
      <trkpt lat="33.268634" lon="-7.584984">
        <ele>220.910</ele>
        <time>2019-10-10T18:58:04Z</time>
      </trkpt>
      <trkpt lat="33.268432" lon="-7.584745">
        <ele>220.650</ele>
        <time>2019-10-10T18:58:22Z</time>
      </trkpt>
      <trkpt lat="33.268226" lon="-7.584731">
        <ele>220.846</ele>
        <time>2019-10-10T18:58:37Z</time>
      </trkpt>
      <trkpt lat="33.267944" lon="-7.585337">
        <ele>222.999</ele>
        <time>2019-10-10T19:05:16Z</time>
      </trkpt>
      <trkpt lat="33.268138" lon="-7.584729">
        <ele>220.986</ele>
        <time>2019-10-10T19:05:48Z</time>
      </trkpt>
      <trkpt lat="33.268078" lon="-7.584545">
        <ele>220.110</ele>
        <time>2019-10-10T19:05:57Z</time>
      </trkpt>
      <trkpt lat="33.265911" lon="-7.583595">
        <ele>217.692</ele>
        <time>2019-10-10T19:08:25Z</time>
      </trkpt>
      <trkpt lat="33.265682" lon="-7.583980">
        <ele>219.145</ele>
        <time>2019-10-10T19:15:28Z</time>
      </trkpt>
      <trkpt lat="33.265753" lon="-7.583441">
        <ele>217.547</ele>
        <time>2019-10-10T19:16:12Z</time>
      </trkpt>
      <trkpt lat="33.265081" lon="-7.583020">
        <ele>218.411</ele>
        <time>2019-10-10T19:16:31Z</time>
      </trkpt>
      <trkpt lat="33.265008" lon="-7.582759">
        <ele>217.208</ele>
        <time>2019-10-10T19:16:36Z</time>
      </trkpt>
      <trkpt lat="33.265282" lon="-7.582557">
        <ele>216.568</ele>
        <time>2019-10-10T19:16:43Z</time>
      </trkpt>
      <trkpt lat="33.265801" lon="-7.582703">
        <ele>217.086</ele>
        <time>2019-10-10T19:16:55Z</time>
      </trkpt>
      <trkpt lat="33.269515" lon="-7.584383">
        <ele>218.536</ele>
        <time>2019-10-10T19:18:46Z</time>
      </trkpt>
      <trkpt lat="33.270440" lon="-7.584965">
        <ele>217.192</ele>
        <time>2019-10-10T19:19:09Z</time>
      </trkpt>
      <trkpt lat="33.271429" lon="-7.585265">
        <ele>218.555</ele>
        <time>2019-10-10T19:20:01Z</time>
      </trkpt>
      <trkpt lat="33.271659" lon="-7.585480">
        <ele>220.492</ele>
        <time>2019-10-10T19:20:08Z</time>
      </trkpt>
      <trkpt lat="33.271816" lon="-7.586042">
        <ele>222.876</ele>
        <time>2019-10-10T19:20:20Z</time>
      </trkpt>
      <trkpt lat="33.274662" lon="-7.587526">
        <ele>220.018</ele>
        <time>2019-10-10T19:21:41Z</time>
      </trkpt>
      <trkpt lat="33.274823" lon="-7.587533">
        <ele>219.134</ele>
        <time>2019-10-10T19:21:47Z</time>
      </trkpt>
      <trkpt lat="33.275141" lon="-7.587086">
        <ele>217.355</ele>
        <time>2019-10-10T19:22:05Z</time>
      </trkpt>
      <trkpt lat="33.275264" lon="-7.586253">
        <ele>218.310</ele>
        <time>2019-10-10T19:22:31Z</time>
      </trkpt>
      <trkpt lat="33.275038" lon="-7.586938">
        <ele>216.708</ele>
        <time>2019-10-10T19:25:17Z</time>
      </trkpt>
      <trkpt lat="33.275179" lon="-7.587042">
        <ele>217.287</ele>
        <time>2019-10-10T19:27:16Z</time>
      </trkpt>
      <trkpt lat="33.275146" lon="-7.587494">
        <ele>218.245</ele>
        <time>2019-10-10T19:27:26Z</time>
      </trkpt>
      <trkpt lat="33.276279" lon="-7.588032">
        <ele>217.335</ele>
        <time>2019-10-10T19:28:02Z</time>
      </trkpt>
      <trkpt lat="33.276396" lon="-7.587934">
        <ele>217.391</ele>
        <time>2019-10-10T19:28:16Z</time>
      </trkpt>
      <trkpt lat="33.276758" lon="-7.588044">
        <ele>217.234</ele>
        <time>2019-10-10T19:28:35Z</time>
      </trkpt>
      <trkpt lat="33.276775" lon="-7.587885">
        <ele>217.341</ele>
        <time>2019-10-10T19:31:03Z</time>
      </trkpt>
      <trkpt lat="33.276596" lon="-7.587797">
        <ele>217.145</ele>
        <time>2019-10-10T19:36:28Z</time>
      </trkpt>
      <trkpt lat="33.276697" lon="-7.587806">
        <ele>217.197</ele>
        <time>2019-10-10T19:36:42Z</time>
      </trkpt>
      <trkpt lat="33.277263" lon="-7.588168">
        <ele>218.426</ele>
        <time>2019-10-10T19:38:57Z</time>
      </trkpt>
      <trkpt lat="33.276899" lon="-7.587796">
        <ele>217.651</ele>
        <time>2019-10-11T11:05:03Z</time>
      </trkpt>
      <trkpt lat="33.276709" lon="-7.588434">
        <ele>217.601</ele>
        <time>2019-10-11T11:08:02Z</time>
      </trkpt>
      <trkpt lat="33.275946" lon="-7.588202">
        <ele>216.911</ele>
        <time>2019-10-11T11:08:20Z</time>
      </trkpt>
      <trkpt lat="33.271312" lon="-7.585976">
        <ele>238.908</ele>
        <time>2019-10-11T11:10:11Z</time>
      </trkpt>
      <trkpt lat="33.270554" lon="-7.585744">
        <ele>230.739</ele>
        <time>2019-10-11T11:11:06Z</time>
      </trkpt>
      <trkpt lat="33.265796" lon="-7.583497">
        <ele>219.537</ele>
        <time>2019-10-11T11:12:54Z</time>
      </trkpt>
      <trkpt lat="33.261272" lon="-7.581585">
        <ele>214.088</ele>
        <time>2019-10-11T11:15:12Z</time>
      </trkpt>
      <trkpt lat="33.257539" lon="-7.579750">
        <ele>218.646</ele>
        <time>2019-10-11T11:16:47Z</time>
      </trkpt>
      <trkpt lat="33.256407" lon="-7.578513">
        <ele>218.431</ele>
        <time>2019-10-11T11:17:16Z</time>
      </trkpt>
      <trkpt lat="33.253374" lon="-7.572046">
        <ele>218.984</ele>
        <time>2019-10-11T11:19:05Z</time>
      </trkpt>
      <trkpt lat="33.253247" lon="-7.571493">
        <ele>219.681</ele>
        <time>2019-10-11T11:19:13Z</time>
      </trkpt>
      <trkpt lat="33.248255" lon="-7.560355">
        <ele>223.975</ele>
        <time>2019-10-11T11:22:05Z</time>
      </trkpt>
      <trkpt lat="33.247647" lon="-7.559466">
        <ele>221.872</ele>
        <time>2019-10-11T11:22:20Z</time>
      </trkpt>
      <trkpt lat="33.247553" lon="-7.558882">
        <ele>221.313</ele>
        <time>2019-10-11T11:22:26Z</time>
      </trkpt>
      <trkpt lat="33.246987" lon="-7.557560">
        <ele>221.214</ele>
        <time>2019-10-11T11:22:43Z</time>
      </trkpt>
      <trkpt lat="33.237005" lon="-7.535499">
        <ele>233.508</ele>
        <time>2019-10-11T11:28:28Z</time>
      </trkpt>
      <trkpt lat="33.236001" lon="-7.532241">
        <ele>230.841</ele>
        <time>2019-10-11T11:29:16Z</time>
      </trkpt>
      <trkpt lat="33.235468" lon="-7.531069">
        <ele>229.729</ele>
        <time>2019-10-11T11:29:33Z</time>
      </trkpt>
      <trkpt lat="33.233220" lon="-7.528062">
        <ele>230.890</ele>
        <time>2019-10-11T11:30:24Z</time>
      </trkpt>
      <trkpt lat="33.222617" lon="-7.511186">
        <ele>233.838</ele>
        <time>2019-10-11T11:35:02Z</time>
      </trkpt>
      <trkpt lat="33.218967" lon="-7.507470">
        <ele>234.033</ele>
        <time>2019-10-11T11:36:21Z</time>
      </trkpt>
      <trkpt lat="33.214331" lon="-7.503630">
        <ele>237.236</ele>
        <time>2019-10-11T11:37:53Z</time>
      </trkpt>
      <trkpt lat="33.213708" lon="-7.502931">
        <ele>238.563</ele>
        <time>2019-10-11T11:38:08Z</time>
      </trkpt>
      <trkpt lat="33.209974" lon="-7.496588">
        <ele>243.267</ele>
        <time>2019-10-11T11:39:54Z</time>
      </trkpt>
      <trkpt lat="33.206083" lon="-7.491564">
        <ele>246.066</ele>
        <time>2019-10-11T11:41:23Z</time>
      </trkpt>
      <trkpt lat="33.204103" lon="-7.487689">
        <ele>243.729</ele>
        <time>2019-10-11T11:42:19Z</time>
      </trkpt>
      <trkpt lat="33.194862" lon="-7.471892">
        <ele>253.921</ele>
        <time>2019-10-11T11:46:32Z</time>
      </trkpt>
      <trkpt lat="33.173894" lon="-7.426956">
        <ele>289.308</ele>
        <time>2019-10-11T12:07:12Z</time>
      </trkpt>
      <trkpt lat="33.169596" lon="-7.414388">
        <ele>299.730</ele>
        <time>2019-10-11T12:10:42Z</time>
      </trkpt>
      <trkpt lat="33.168562" lon="-7.407952">
        <ele>305.398</ele>
        <time>2019-10-11T12:16:13Z</time>
      </trkpt>
      <trkpt lat="33.164481" lon="-7.392418">
        <ele>319.069</ele>
        <time>2019-10-11T12:24:33Z</time>
      </trkpt>
      <trkpt lat="33.164137" lon="-7.391628">
        <ele>319.417</ele>
        <time>2019-10-11T12:24:46Z</time>
      </trkpt>
      <trkpt lat="33.163052" lon="-7.390187">
        <ele>324.112</ele>
        <time>2019-10-11T12:25:19Z</time>
      </trkpt>
      <trkpt lat="33.160954" lon="-7.387830">
        <ele>331.945</ele>
        <time>2019-10-11T12:26:27Z</time>
      </trkpt>
      <trkpt lat="33.160181" lon="-7.387161">
        <ele>336.312</ele>
        <time>2019-10-11T12:26:52Z</time>
      </trkpt>
      <trkpt lat="33.159509" lon="-7.386839">
        <ele>338.486</ele>
        <time>2019-10-11T12:27:11Z</time>
      </trkpt>
      <trkpt lat="33.155182" lon="-7.385582">
        <ele>343.214</ele>
        <time>2019-10-11T12:29:58Z</time>
      </trkpt>
      <trkpt lat="33.154398" lon="-7.384987">
        <ele>345.054</ele>
        <time>2019-10-11T12:30:23Z</time>
      </trkpt>
      <trkpt lat="33.151875" lon="-7.379820">
        <ele>353.309</ele>
        <time>2019-10-11T12:32:08Z</time>
      </trkpt>
      <trkpt lat="33.150921" lon="-7.378253">
        <ele>354.208</ele>
        <time>2019-10-11T12:32:39Z</time>
      </trkpt>
      <trkpt lat="33.135983" lon="-7.354691">
        <ele>394.785</ele>
        <time>2019-10-11T12:45:43Z</time>
      </trkpt>
      <trkpt lat="33.129904" lon="-7.345797">
        <ele>435.433</ele>
        <time>2019-10-11T12:50:40Z</time>
      </trkpt>
      <trkpt lat="33.128294" lon="-7.344323">
        <ele>445.574</ele>
        <time>2019-10-11T12:51:46Z</time>
      </trkpt>
      <trkpt lat="33.126226" lon="-7.343211">
        <ele>454.132</ele>
        <time>2019-10-11T12:53:04Z</time>
      </trkpt>
      <trkpt lat="33.124677" lon="-7.341321">
        <ele>465.797</ele>
        <time>2019-10-11T12:54:22Z</time>
      </trkpt>
      <trkpt lat="33.122158" lon="-7.338873">
        <ele>475.020</ele>
        <time>2019-10-11T12:56:12Z</time>
      </trkpt>
      <trkpt lat="33.118221" lon="-7.336780">
        <ele>492.777</ele>
        <time>2019-10-11T12:59:05Z</time>
      </trkpt>
      <trkpt lat="33.118305" lon="-7.336850">
        <ele>492.741</ele>
        <time>2019-10-11T13:00:56Z</time>
      </trkpt>
      <trkpt lat="33.118099" lon="-7.337714">
        <ele>486.445</ele>
        <time>2019-10-11T13:03:46Z</time>
      </trkpt>
      <trkpt lat="33.118292" lon="-7.336822">
        <ele>487.247</ele>
        <time>2019-10-11T13:06:29Z</time>
      </trkpt>
      <trkpt lat="33.117751" lon="-7.336226">
        <ele>486.711</ele>
        <time>2019-10-11T13:06:51Z</time>
      </trkpt>
      <trkpt lat="33.117282" lon="-7.335377">
        <ele>487.108</ele>
        <time>2019-10-11T13:07:11Z</time>
      </trkpt>
      <trkpt lat="33.115675" lon="-7.330078">
        <ele>510.028</ele>
        <time>2019-10-11T13:09:34Z</time>
      </trkpt>
      <trkpt lat="33.113218" lon="-7.325616">
        <ele>524.476</ele>
        <time>2019-10-11T13:12:05Z</time>
      </trkpt>
      <trkpt lat="33.109850" lon="-7.318539">
        <ele>531.177</ele>
        <time>2019-10-11T13:14:52Z</time>
      </trkpt>
      <trkpt lat="33.106981" lon="-7.302602">
        <ele>555.115</ele>
        <time>2019-10-11T13:20:32Z</time>
      </trkpt>
      <trkpt lat="33.106893" lon="-7.300559">
        <ele>554.930</ele>
        <time>2019-10-11T13:21:16Z</time>
      </trkpt>
      <trkpt lat="33.109259" lon="-7.285399">
        <ele>565.893</ele>
        <time>2019-10-11T13:34:28Z</time>
      </trkpt>
      <trkpt lat="33.109230" lon="-7.284332">
        <ele>568.470</ele>
        <time>2019-10-11T13:34:51Z</time>
      </trkpt>
      <trkpt lat="33.108918" lon="-7.283133">
        <ele>571.834</ele>
        <time>2019-10-11T13:35:17Z</time>
      </trkpt>
      <trkpt lat="33.103975" lon="-7.271729">
        <ele>592.975</ele>
        <time>2019-10-11T13:39:39Z</time>
      </trkpt>
      <trkpt lat="33.103231" lon="-7.270322">
        <ele>596.228</ele>
        <time>2019-10-11T13:40:10Z</time>
      </trkpt>
      <trkpt lat="33.088698" lon="-7.253817">
        <ele>620.920</ele>
        <time>2019-10-11T13:47:01Z</time>
      </trkpt>
      <trkpt lat="33.088054" lon="-7.252816">
        <ele>621.308</ele>
        <time>2019-10-11T13:47:23Z</time>
      </trkpt>
      <trkpt lat="33.087651" lon="-7.251770">
        <ele>621.481</ele>
        <time>2019-10-11T13:47:42Z</time>
      </trkpt>
      <trkpt lat="33.086512" lon="-7.247169">
        <ele>619.419</ele>
        <time>2019-10-11T13:48:52Z</time>
      </trkpt>
      <trkpt lat="33.085998" lon="-7.245964">
        <ele>619.820</ele>
        <time>2019-10-11T13:49:35Z</time>
      </trkpt>
      <trkpt lat="33.083077" lon="-7.241791">
        <ele>603.068</ele>
        <time>2019-10-11T13:51:41Z</time>
      </trkpt>
      <trkpt lat="33.081597" lon="-7.238522">
        <ele>593.983</ele>
        <time>2019-10-11T13:52:34Z</time>
      </trkpt>
      <trkpt lat="33.081156" lon="-7.237971">
        <ele>591.126</ele>
        <time>2019-10-11T13:52:50Z</time>
      </trkpt>
      <trkpt lat="33.081082" lon="-7.237395">
        <ele>592.583</ele>
        <time>2019-10-11T13:53:03Z</time>
      </trkpt>
      <trkpt lat="33.080474" lon="-7.237414">
        <ele>600.827</ele>
        <time>2019-10-11T13:53:51Z</time>
      </trkpt>
      <trkpt lat="33.080519" lon="-7.237593">
        <ele>657.032</ele>
        <time>2019-10-11T14:26:30Z</time>
      </trkpt>
      <trkpt lat="33.080603" lon="-7.236211">
        <ele>652.692</ele>
        <time>2019-10-11T14:27:29Z</time>
      </trkpt>
      <trkpt lat="33.079811" lon="-7.231957">
        <ele>662.411</ele>
        <time>2019-10-11T14:29:19Z</time>
      </trkpt>
      <trkpt lat="33.073551" lon="-7.212651">
        <ele>717.608</ele>
        <time>2019-10-11T14:38:03Z</time>
      </trkpt>
      <trkpt lat="33.073360" lon="-7.210812">
        <ele>718.817</ele>
        <time>2019-10-11T14:38:35Z</time>
      </trkpt>
      <trkpt lat="33.073345" lon="-7.208634">
        <ele>714.975</ele>
        <time>2019-10-11T14:39:09Z</time>
      </trkpt>
      <trkpt lat="33.072927" lon="-7.207078">
        <ele>718.676</ele>
        <time>2019-10-11T14:39:37Z</time>
      </trkpt>
      <trkpt lat="33.071973" lon="-7.205517">
        <ele>722.584</ele>
        <time>2019-10-11T14:40:17Z</time>
      </trkpt>
      <trkpt lat="33.069119" lon="-7.202697">
        <ele>739.019</ele>
        <time>2019-10-11T14:41:47Z</time>
      </trkpt>
      <trkpt lat="33.068376" lon="-7.201734">
        <ele>738.342</ele>
        <time>2019-10-11T14:42:09Z</time>
      </trkpt>
      <trkpt lat="33.065409" lon="-7.195741">
        <ele>740.639</ele>
        <time>2019-10-11T14:44:11Z</time>
      </trkpt>
      <trkpt lat="33.064652" lon="-7.194484">
        <ele>749.763</ele>
        <time>2019-10-11T14:44:48Z</time>
      </trkpt>
      <trkpt lat="33.063510" lon="-7.191952">
        <ele>751.013</ele>
        <time>2019-10-11T14:45:53Z</time>
      </trkpt>
      <trkpt lat="33.059161" lon="-7.185551">
        <ele>753.543</ele>
        <time>2019-10-11T14:48:01Z</time>
      </trkpt>
      <trkpt lat="33.058346" lon="-7.183699">
        <ele>753.107</ele>
        <time>2019-10-11T14:48:29Z</time>
      </trkpt>
      <trkpt lat="33.057731" lon="-7.180932">
        <ele>749.908</ele>
        <time>2019-10-11T14:49:11Z</time>
      </trkpt>
      <trkpt lat="33.056093" lon="-7.175920">
        <ele>759.315</ele>
        <time>2019-10-11T14:50:42Z</time>
      </trkpt>
      <trkpt lat="33.052060" lon="-7.168517">
        <ele>762.113</ele>
        <time>2019-10-11T14:52:53Z</time>
      </trkpt>
      <trkpt lat="33.051430" lon="-7.167653">
        <ele>763.874</ele>
        <time>2019-10-11T14:53:11Z</time>
      </trkpt>
      <trkpt lat="33.050720" lon="-7.167014">
        <ele>766.272</ele>
        <time>2019-10-11T14:53:27Z</time>
      </trkpt>
      <trkpt lat="33.048703" lon="-7.166017">
        <ele>767.167</ele>
        <time>2019-10-11T14:54:03Z</time>
      </trkpt>
      <trkpt lat="33.047758" lon="-7.165313">
        <ele>766.490</ele>
        <time>2019-10-11T14:54:20Z</time>
      </trkpt>
      <trkpt lat="33.033029" lon="-7.149720">
        <ele>806.137</ele>
        <time>2019-10-11T15:02:08Z</time>
      </trkpt>
      <trkpt lat="33.032433" lon="-7.148816">
        <ele>807.021</ele>
        <time>2019-10-11T15:02:27Z</time>
      </trkpt>
      <trkpt lat="33.031266" lon="-7.145730">
        <ele>802.228</ele>
        <time>2019-10-11T15:03:14Z</time>
      </trkpt>
      <trkpt lat="33.030586" lon="-7.144587">
        <ele>798.189</ele>
        <time>2019-10-11T15:03:28Z</time>
      </trkpt>
      <trkpt lat="33.029594" lon="-7.143618">
        <ele>794.217</ele>
        <time>2019-10-11T15:03:47Z</time>
      </trkpt>
      <trkpt lat="33.026377" lon="-7.141063">
        <ele>798.408</ele>
        <time>2019-10-11T15:04:54Z</time>
      </trkpt>
      <trkpt lat="33.024815" lon="-7.140391">
        <ele>799.556</ele>
        <time>2019-10-11T15:05:22Z</time>
      </trkpt>
      <trkpt lat="33.019469" lon="-7.139864">
        <ele>799.844</ele>
        <time>2019-10-11T15:06:48Z</time>
      </trkpt>
      <trkpt lat="33.007043" lon="-7.135596">
        <ele>799.495</ele>
        <time>2019-10-11T15:10:18Z</time>
      </trkpt>
      <trkpt lat="32.998481" lon="-7.134268">
        <ele>807.813</ele>
        <time>2019-10-11T15:12:59Z</time>
      </trkpt>
      <trkpt lat="32.997799" lon="-7.133923">
        <ele>809.768</ele>
        <time>2019-10-11T15:13:15Z</time>
      </trkpt>
      <trkpt lat="32.997237" lon="-7.133430">
        <ele>808.881</ele>
        <time>2019-10-11T15:13:30Z</time>
      </trkpt>
      <trkpt lat="32.992456" lon="-7.127511">
        <ele>815.298</ele>
        <time>2019-10-11T15:17:13Z</time>
      </trkpt>
      <trkpt lat="32.992289" lon="-7.127357">
        <ele>814.562</ele>
        <time>2019-10-11T15:17:22Z</time>
      </trkpt>
      <trkpt lat="32.992096" lon="-7.127519">
        <ele>813.931</ele>
        <time>2019-10-11T15:17:40Z</time>
      </trkpt>
      <trkpt lat="32.991941" lon="-7.127424">
        <ele>813.861</ele>
        <time>2019-10-11T15:18:42Z</time>
      </trkpt>
      <trkpt lat="32.992040" lon="-7.127253">
        <ele>814.707</ele>
        <time>2019-10-11T15:19:07Z</time>
      </trkpt>
      <trkpt lat="32.991915" lon="-7.127374">
        <ele>816.808</ele>
        <time>2019-10-11T15:23:41Z</time>
      </trkpt>
      <trkpt lat="32.991808" lon="-7.126792">
        <ele>816.477</ele>
        <time>2019-10-11T15:27:59Z</time>
      </trkpt>
      <trkpt lat="32.991021" lon="-7.125667">
        <ele>814.015</ele>
        <time>2019-10-11T15:28:35Z</time>
      </trkpt>
      <trkpt lat="32.973991" lon="-7.104206">
        <ele>820.536</ele>
        <time>2019-10-11T15:36:04Z</time>
      </trkpt>
      <trkpt lat="32.952624" lon="-7.066258">
        <ele>819.794</ele>
        <time>2019-10-11T15:46:58Z</time>
      </trkpt>
      <trkpt lat="32.952625" lon="-7.066049">
        <ele>820.589</ele>
        <time>2019-10-11T15:47:16Z</time>
      </trkpt>
      <trkpt lat="32.952428" lon="-7.065919">
        <ele>818.812</ele>
        <time>2019-10-11T15:53:06Z</time>
      </trkpt>
      <trkpt lat="32.909748" lon="-6.990424">
        <ele>841.019</ele>
        <time>2019-10-11T16:15:49Z</time>
      </trkpt>
      <trkpt lat="32.908792" lon="-6.988434">
        <ele>842.573</ele>
        <time>2019-10-11T16:16:17Z</time>
      </trkpt>
      <trkpt lat="32.908107" lon="-6.985841">
        <ele>844.296</ele>
        <time>2019-10-11T16:16:53Z</time>
      </trkpt>
      <trkpt lat="32.906733" lon="-6.975460">
        <ele>841.031</ele>
        <time>2019-10-11T16:19:31Z</time>
      </trkpt>
      <trkpt lat="32.906735" lon="-6.974546">
        <ele>841.124</ele>
        <time>2019-10-11T16:19:49Z</time>
      </trkpt>
      <trkpt lat="32.906916" lon="-6.973947">
        <ele>840.608</ele>
        <time>2019-10-11T16:20:04Z</time>
      </trkpt>
      <trkpt lat="32.906766" lon="-6.973397">
        <ele>839.843</ele>
        <time>2019-10-11T16:20:25Z</time>
      </trkpt>
      <trkpt lat="32.906992" lon="-6.973469">
        <ele>840.181</ele>
        <time>2019-10-11T16:20:50Z</time>
      </trkpt>
      <trkpt lat="32.906544" lon="-6.973520">
        <ele>839.272</ele>
        <time>2019-10-11T17:53:23Z</time>
      </trkpt>
      <trkpt lat="32.906401" lon="-6.972921">
        <ele>841.590</ele>
        <time>2019-10-11T17:53:34Z</time>
      </trkpt>
      <trkpt lat="32.901680" lon="-6.936460">
        <ele>827.325</ele>
        <time>2019-10-11T18:02:49Z</time>
      </trkpt>
      <trkpt lat="32.901016" lon="-6.932640">
        <ele>823.888</ele>
        <time>2019-10-11T18:03:49Z</time>
      </trkpt>
      <trkpt lat="32.898479" lon="-6.932881">
        <ele>826.775</ele>
        <time>2019-10-11T18:05:03Z</time>
      </trkpt>
      <trkpt lat="32.892785" lon="-6.934049">
        <ele>828.449</ele>
        <time>2019-10-11T18:07:01Z</time>
      </trkpt>
      <trkpt lat="32.891793" lon="-6.934102">
        <ele>839.199</ele>
        <time>2019-10-11T18:07:51Z</time>
      </trkpt>
      <trkpt lat="32.888282" lon="-6.919220">
        <ele>860.507</ele>
        <time>2019-10-11T18:13:34Z</time>
      </trkpt>
      <trkpt lat="32.888177" lon="-6.919434">
        <ele>856.027</ele>
        <time>2019-10-11T18:15:01Z</time>
      </trkpt>
      <trkpt lat="32.884667" lon="-6.920741">
        <ele>838.708</ele>
        <time>2019-10-11T18:17:11Z</time>
      </trkpt>
      <trkpt lat="32.884311" lon="-6.920952">
        <ele>840.183</ele>
        <time>2019-10-11T18:17:29Z</time>
      </trkpt>
      <trkpt lat="32.884233" lon="-6.921151">
        <ele>843.071</ele>
        <time>2019-10-11T18:19:21Z</time>
      </trkpt>
      <trkpt lat="32.883965" lon="-6.920988">
        <ele>847.532</ele>
        <time>2019-10-11T18:19:32Z</time>
      </trkpt>
      <trkpt lat="32.883670" lon="-6.921082">
        <ele>847.640</ele>
        <time>2019-10-11T18:20:00Z</time>
      </trkpt>
      <trkpt lat="32.883563" lon="-6.920935">
        <ele>848.775</ele>
        <time>2019-10-11T18:20:51Z</time>
      </trkpt>
      <trkpt lat="32.882784" lon="-6.920723">
        <ele>851.268</ele>
        <time>2019-10-11T18:21:14Z</time>
      </trkpt>
      <trkpt lat="32.880133" lon="-6.920163">
        <ele>841.975</ele>
        <time>2019-10-11T18:22:35Z</time>
      </trkpt>
      <trkpt lat="32.880507" lon="-6.919593">
        <ele>845.379</ele>
        <time>2019-10-11T18:23:02Z</time>
      </trkpt>
      <trkpt lat="32.880548" lon="-6.919137">
        <ele>846.288</ele>
        <time>2019-10-11T18:24:05Z</time>
      </trkpt>
      <trkpt lat="32.880474" lon="-6.919604">
        <ele>842.724</ele>
        <time>2019-10-11T18:25:18Z</time>
      </trkpt>
      <trkpt lat="32.880230" lon="-6.919876">
        <ele>843.226</ele>
        <time>2019-10-11T18:25:27Z</time>
      </trkpt>
      <trkpt lat="32.879912" lon="-6.919981">
        <ele>843.008</ele>
        <time>2019-10-11T18:26:33Z</time>
      </trkpt>
      <trkpt lat="32.879873" lon="-6.920320">
        <ele>844.792</ele>
        <time>2019-10-11T18:26:46Z</time>
      </trkpt>
      <trkpt lat="32.875141" lon="-6.923411">
        <ele>842.250</ele>
        <time>2019-10-11T18:30:53Z</time>
      </trkpt>
      <trkpt lat="32.877561" lon="-6.921651">
        <ele>852.471</ele>
        <time>2019-10-11T18:31:52Z</time>
      </trkpt>
      <trkpt lat="32.880199" lon="-6.919978">
        <ele>854.339</ele>
        <time>2019-10-11T18:33:29Z</time>
      </trkpt>
      <trkpt lat="32.882408" lon="-6.920572">
        <ele>847.764</ele>
        <time>2019-10-11T18:34:06Z</time>
      </trkpt>
      <trkpt lat="32.882933" lon="-6.920601">
        <ele>850.417</ele>
        <time>2019-10-11T18:34:20Z</time>
      </trkpt>
      <trkpt lat="32.883000" lon="-6.920382">
        <ele>848.224</ele>
        <time>2019-10-11T18:35:07Z</time>
      </trkpt>
      <trkpt lat="32.883216" lon="-6.920652">
        <ele>847.848</ele>
        <time>2019-10-11T18:35:31Z</time>
      </trkpt>
      <trkpt lat="32.884202" lon="-6.920815">
        <ele>855.675</ele>
        <time>2019-10-11T18:35:57Z</time>
      </trkpt>
      <trkpt lat="32.886056" lon="-6.920247">
        <ele>860.528</ele>
        <time>2019-10-11T18:36:52Z</time>
      </trkpt>
      <trkpt lat="32.885833" lon="-6.922002">
        <ele>851.320</ele>
        <time>2019-10-11T18:38:52Z</time>
      </trkpt>
      <trkpt lat="32.888088" lon="-6.921053">
        <ele>855.908</ele>
        <time>2019-10-11T18:43:59Z</time>
      </trkpt>
      <trkpt lat="32.888448" lon="-6.920857">
        <ele>856.761</ele>
        <time>2019-10-11T18:44:10Z</time>
      </trkpt>
      <trkpt lat="32.888537" lon="-6.920593">
        <ele>855.249</ele>
        <time>2019-10-11T18:44:17Z</time>
      </trkpt>
      <trkpt lat="32.887768" lon="-6.916974">
        <ele>849.330</ele>
        <time>2019-10-11T18:45:39Z</time>
      </trkpt>
      <trkpt lat="32.887750" lon="-6.916351">
        <ele>848.848</ele>
        <time>2019-10-11T18:45:51Z</time>
      </trkpt>
      <trkpt lat="32.897000" lon="-6.914755">
        <ele>846.273</ele>
        <time>2019-10-11T18:48:43Z</time>
      </trkpt>
      <trkpt lat="32.898556" lon="-6.914329">
        <ele>850.796</ele>
        <time>2019-10-11T18:49:12Z</time>
      </trkpt>
      <trkpt lat="32.898107" lon="-6.910526">
        <ele>850.053</ele>
        <time>2019-10-11T18:50:13Z</time>
      </trkpt>
      <trkpt lat="32.897818" lon="-6.909198">
        <ele>846.947</ele>
        <time>2019-10-11T18:50:35Z</time>
      </trkpt>
      <trkpt lat="32.897887" lon="-6.908543">
        <ele>846.131</ele>
        <time>2019-10-11T18:50:44Z</time>
      </trkpt>
      <trkpt lat="32.902786" lon="-6.906610">
        <ele>852.061</ele>
        <time>2019-10-11T18:52:13Z</time>
      </trkpt>
      <trkpt lat="32.906547" lon="-6.906859">
        <ele>851.007</ele>
        <time>2019-10-11T18:54:53Z</time>
      </trkpt>
      <trkpt lat="32.906384" lon="-6.906971">
        <ele>850.708</ele>
        <time>2019-10-11T18:55:02Z</time>
      </trkpt>
      <trkpt lat="32.905739" lon="-6.906959">
        <ele>849.227</ele>
        <time>2019-10-11T18:55:12Z</time>
      </trkpt>
      <trkpt lat="32.902599" lon="-6.906730">
        <ele>851.245</ele>
        <time>2019-10-11T18:55:58Z</time>
      </trkpt>
      <trkpt lat="32.898120" lon="-6.908565">
        <ele>851.176</ele>
        <time>2019-10-11T18:57:13Z</time>
      </trkpt>
      <trkpt lat="32.898309" lon="-6.911152">
        <ele>848.294</ele>
        <time>2019-10-11T18:57:47Z</time>
      </trkpt>
      <trkpt lat="32.898874" lon="-6.914521">
        <ele>848.079</ele>
        <time>2019-10-11T18:58:34Z</time>
      </trkpt>
      <trkpt lat="32.898795" lon="-6.914955">
        <ele>848.352</ele>
        <time>2019-10-11T18:58:41Z</time>
      </trkpt>
      <trkpt lat="32.899132" lon="-6.917296">
        <ele>846.979</ele>
        <time>2019-10-11T18:59:18Z</time>
      </trkpt>
      <trkpt lat="32.899208" lon="-6.917403">
        <ele>846.483</ele>
        <time>2019-10-11T18:59:22Z</time>
      </trkpt>
      <trkpt lat="32.899780" lon="-6.917313">
        <ele>846.052</ele>
        <time>2019-10-11T18:59:57Z</time>
      </trkpt>
      <trkpt lat="32.899659" lon="-6.917421">
        <ele>801.716</ele>
        <time>2019-10-12T10:26:35Z</time>
      </trkpt>
      <trkpt lat="32.899444" lon="-6.917323">
        <ele>801.776</ele>
        <time>2019-10-12T10:44:03Z</time>
      </trkpt>
      <trkpt lat="32.899191" lon="-6.917443">
        <ele>801.713</ele>
        <time>2019-10-12T10:45:25Z</time>
      </trkpt>
      <trkpt lat="32.899026" lon="-6.917177">
        <ele>801.708</ele>
        <time>2019-10-12T10:45:39Z</time>
      </trkpt>
      <trkpt lat="32.898504" lon="-6.914609">
        <ele>793.195</ele>
        <time>2019-10-12T10:46:28Z</time>
      </trkpt>
      <trkpt lat="32.898470" lon="-6.913256">
        <ele>793.853</ele>
        <time>2019-10-12T10:46:51Z</time>
      </trkpt>
      <trkpt lat="32.897778" lon="-6.909220">
        <ele>794.554</ele>
        <time>2019-10-12T10:47:58Z</time>
      </trkpt>
      <trkpt lat="32.897788" lon="-6.908297">
        <ele>795.538</ele>
        <time>2019-10-12T10:48:13Z</time>
      </trkpt>
      <trkpt lat="32.896210" lon="-6.896431">
        <ele>799.936</ele>
        <time>2019-10-12T10:51:33Z</time>
      </trkpt>
      <trkpt lat="32.896127" lon="-6.894080">
        <ele>803.542</ele>
        <time>2019-10-12T10:52:13Z</time>
      </trkpt>
      <trkpt lat="32.896337" lon="-6.890951">
        <ele>804.477</ele>
        <time>2019-10-12T10:53:03Z</time>
      </trkpt>
      <trkpt lat="32.896500" lon="-6.890428">
        <ele>803.051</ele>
        <time>2019-10-12T10:53:12Z</time>
      </trkpt>
      <trkpt lat="32.897728" lon="-6.878577">
        <ele>811.154</ele>
        <time>2019-10-12T10:56:37Z</time>
      </trkpt>
      <trkpt lat="32.902638" lon="-6.829267">
        <ele>828.556</ele>
        <time>2019-10-12T11:10:02Z</time>
      </trkpt>
      <trkpt lat="32.906229" lon="-6.792006">
        <ele>841.511</ele>
        <time>2019-10-12T11:21:19Z</time>
      </trkpt>
      <trkpt lat="32.906959" lon="-6.783968">
        <ele>845.008</ele>
        <time>2019-10-12T11:23:30Z</time>
      </trkpt>
      <trkpt lat="32.906936" lon="-6.783009">
        <ele>845.529</ele>
        <time>2019-10-12T11:23:46Z</time>
      </trkpt>
      <trkpt lat="32.907198" lon="-6.781501">
        <ele>844.657</ele>
        <time>2019-10-12T11:24:16Z</time>
      </trkpt>
      <trkpt lat="32.907729" lon="-6.781579">
        <ele>846.588</ele>
        <time>2019-10-12T11:24:45Z</time>
      </trkpt>
      <trkpt lat="32.907283" lon="-6.781551">
        <ele>846.462</ele>
        <time>2019-10-12T11:26:23Z</time>
      </trkpt>
      <trkpt lat="32.907214" lon="-6.781186">
        <ele>844.840</ele>
        <time>2019-10-12T11:26:35Z</time>
      </trkpt>
      <trkpt lat="32.909940" lon="-6.752246">
        <ele>859.186</ele>
        <time>2019-10-12T11:39:10Z</time>
      </trkpt>
      <trkpt lat="32.909784" lon="-6.750616">
        <ele>858.871</ele>
        <time>2019-10-12T11:39:37Z</time>
      </trkpt>
      <trkpt lat="32.908064" lon="-6.744614">
        <ele>855.465</ele>
        <time>2019-10-12T11:42:17Z</time>
      </trkpt>
      <trkpt lat="32.907819" lon="-6.742624">
        <ele>853.612</ele>
        <time>2019-10-12T11:42:45Z</time>
      </trkpt>
      <trkpt lat="32.907817" lon="-6.741366">
        <ele>850.532</ele>
        <time>2019-10-12T11:43:02Z</time>
      </trkpt>
      <trkpt lat="32.908123" lon="-6.739193">
        <ele>848.205</ele>
        <time>2019-10-12T11:43:28Z</time>
      </trkpt>
      <trkpt lat="32.910587" lon="-6.730054">
        <ele>819.108</ele>
        <time>2019-10-12T11:44:56Z</time>
      </trkpt>
      <trkpt lat="32.910795" lon="-6.728292">
        <ele>816.455</ele>
        <time>2019-10-12T11:45:14Z</time>
      </trkpt>
      <trkpt lat="32.910742" lon="-6.726424">
        <ele>815.613</ele>
        <time>2019-10-12T11:45:38Z</time>
      </trkpt>
      <trkpt lat="32.907677" lon="-6.702257">
        <ele>830.144</ele>
        <time>2019-10-12T11:52:36Z</time>
      </trkpt>
      <trkpt lat="32.905424" lon="-6.688343">
        <ele>824.618</ele>
        <time>2019-10-12T11:57:24Z</time>
      </trkpt>
      <trkpt lat="32.903185" lon="-6.682666">
        <ele>820.236</ele>
        <time>2019-10-12T11:58:55Z</time>
      </trkpt>
      <trkpt lat="32.901468" lon="-6.678818">
        <ele>817.522</ele>
        <time>2019-10-12T12:00:08Z</time>
      </trkpt>
      <trkpt lat="32.900208" lon="-6.675665">
        <ele>818.557</ele>
        <time>2019-10-12T12:01:29Z</time>
      </trkpt>
      <trkpt lat="32.900150" lon="-6.675227">
        <ele>818.891</ele>
        <time>2019-10-12T12:02:00Z</time>
      </trkpt>
      <trkpt lat="32.895993" lon="-6.665043">
        <ele>817.766</ele>
        <time>2019-10-12T12:05:05Z</time>
      </trkpt>
      <trkpt lat="32.890466" lon="-6.638882">
        <ele>831.429</ele>
        <time>2019-10-12T12:12:33Z</time>
      </trkpt>
      <trkpt lat="32.880000" lon="-6.612139">
        <ele>851.921</ele>
        <time>2019-10-12T12:30:22Z</time>
      </trkpt>
      <trkpt lat="32.879363" lon="-6.610163">
        <ele>853.008</ele>
        <time>2019-10-12T12:30:56Z</time>
      </trkpt>
      <trkpt lat="32.878675" lon="-6.606571">
        <ele>850.890</ele>
        <time>2019-10-12T12:31:49Z</time>
      </trkpt>
      <trkpt lat="32.878074" lon="-6.604837">
        <ele>849.188</ele>
        <time>2019-10-12T12:32:15Z</time>
      </trkpt>
      <trkpt lat="32.877373" lon="-6.603453">
        <ele>846.249</ele>
        <time>2019-10-12T12:32:37Z</time>
      </trkpt>
      <trkpt lat="32.869531" lon="-6.590475">
        <ele>842.013</ele>
        <time>2019-10-12T12:37:02Z</time>
      </trkpt>
      <trkpt lat="32.865856" lon="-6.582156">
        <ele>798.131</ele>
        <time>2019-10-12T12:38:31Z</time>
      </trkpt>
      <trkpt lat="32.865431" lon="-6.581443">
        <ele>797.227</ele>
        <time>2019-10-12T12:39:04Z</time>
      </trkpt>
      <trkpt lat="32.865485" lon="-6.580844">
        <ele>796.142</ele>
        <time>2019-10-12T12:39:15Z</time>
      </trkpt>
      <trkpt lat="32.865328" lon="-6.580153">
        <ele>795.666</ele>
        <time>2019-10-12T12:39:31Z</time>
      </trkpt>
      <trkpt lat="32.865042" lon="-6.579919">
        <ele>789.932</ele>
        <time>2019-10-12T13:23:50Z</time>
      </trkpt>
      <trkpt lat="32.865226" lon="-6.579968">
        <ele>852.492</ele>
        <time>2019-10-12T13:24:20Z</time>
      </trkpt>
      <trkpt lat="32.865226" lon="-6.579767">
        <ele>855.111</ele>
        <time>2019-10-12T13:24:29Z</time>
      </trkpt>
      <trkpt lat="32.863986" lon="-6.573981">
        <ele>842.408</ele>
        <time>2019-10-12T13:25:59Z</time>
      </trkpt>
      <trkpt lat="32.859460" lon="-6.554303">
        <ele>844.427</ele>
        <time>2019-10-12T13:32:24Z</time>
      </trkpt>
      <trkpt lat="32.859228" lon="-6.552317">
        <ele>843.525</ele>
        <time>2019-10-12T13:32:58Z</time>
      </trkpt>
      <trkpt lat="32.858991" lon="-6.551812">
        <ele>842.336</ele>
        <time>2019-10-12T13:33:06Z</time>
      </trkpt>
      <trkpt lat="32.859214" lon="-6.551088">
        <ele>842.510</ele>
        <time>2019-10-12T13:33:18Z</time>
      </trkpt>
      <trkpt lat="32.859051" lon="-6.546729">
        <ele>843.978</ele>
        <time>2019-10-12T13:34:22Z</time>
      </trkpt>
      <trkpt lat="32.858898" lon="-6.546183">
        <ele>842.994</ele>
        <time>2019-10-12T13:34:30Z</time>
      </trkpt>
      <trkpt lat="32.859031" lon="-6.545693">
        <ele>841.539</ele>
        <time>2019-10-12T13:34:37Z</time>
      </trkpt>
      <trkpt lat="32.858812" lon="-6.537965">
        <ele>859.773</ele>
        <time>2019-10-12T13:37:36Z</time>
      </trkpt>
      <trkpt lat="32.858949" lon="-6.536500">
        <ele>859.938</ele>
        <time>2019-10-12T13:38:08Z</time>
      </trkpt>
      <trkpt lat="32.860097" lon="-6.530627">
        <ele>858.870</ele>
        <time>2019-10-12T13:39:39Z</time>
      </trkpt>
      <trkpt lat="32.860152" lon="-6.529028">
        <ele>859.017</ele>
        <time>2019-10-12T13:40:00Z</time>
      </trkpt>
      <trkpt lat="32.859653" lon="-6.522106">
        <ele>865.908</ele>
        <time>2019-10-12T13:41:51Z</time>
      </trkpt>
      <trkpt lat="32.857915" lon="-6.515867">
        <ele>863.677</ele>
        <time>2019-10-12T13:43:20Z</time>
      </trkpt>
      <trkpt lat="32.857625" lon="-6.514240">
        <ele>860.035</ele>
        <time>2019-10-12T13:47:56Z</time>
      </trkpt>
      <trkpt lat="32.857452" lon="-6.514143">
        <ele>860.666</ele>
        <time>2019-10-12T13:48:17Z</time>
      </trkpt>
      <trkpt lat="32.856823" lon="-6.512141">
        <ele>857.220</ele>
        <time>2019-10-12T13:48:46Z</time>
      </trkpt>
      <trkpt lat="32.828059" lon="-6.463611">
        <ele>828.978</ele>
        <time>2019-10-12T14:03:37Z</time>
      </trkpt>
      <trkpt lat="32.822480" lon="-6.458536">
        <ele>790.124</ele>
        <time>2019-10-12T14:04:41Z</time>
      </trkpt>
      <trkpt lat="32.812284" lon="-6.452284">
        <ele>782.369</ele>
        <time>2019-10-12T14:07:39Z</time>
      </trkpt>
      <trkpt lat="32.811339" lon="-6.451568">
        <ele>781.493</ele>
        <time>2019-10-12T14:08:01Z</time>
      </trkpt>
      <trkpt lat="32.802514" lon="-6.438706">
        <ele>760.528</ele>
        <time>2019-10-12T14:11:34Z</time>
      </trkpt>
      <trkpt lat="32.801915" lon="-6.437416">
        <ele>762.089</ele>
        <time>2019-10-12T14:11:59Z</time>
      </trkpt>
      <trkpt lat="32.800242" lon="-6.432392">
        <ele>772.717</ele>
        <time>2019-10-12T14:13:38Z</time>
      </trkpt>
      <trkpt lat="32.798916" lon="-6.421575">
        <ele>796.608</ele>
        <time>2019-10-12T14:17:13Z</time>
      </trkpt>
      <trkpt lat="32.798536" lon="-6.419771">
        <ele>798.556</ele>
        <time>2019-10-12T14:17:47Z</time>
      </trkpt>
      <trkpt lat="32.797921" lon="-6.418132">
        <ele>799.564</ele>
        <time>2019-10-12T14:18:17Z</time>
      </trkpt>
      <trkpt lat="32.797060" lon="-6.416515">
        <ele>795.525</ele>
        <time>2019-10-12T14:18:46Z</time>
      </trkpt>
      <trkpt lat="32.796089" lon="-6.415212">
        <ele>790.119</ele>
        <time>2019-10-12T14:19:07Z</time>
      </trkpt>
      <trkpt lat="32.794839" lon="-6.413950">
        <ele>786.027</ele>
        <time>2019-10-12T14:19:28Z</time>
      </trkpt>
      <trkpt lat="32.791401" lon="-6.410729">
        <ele>774.723</ele>
        <time>2019-10-12T14:20:29Z</time>
      </trkpt>
      <trkpt lat="32.790411" lon="-6.409961">
        <ele>772.218</ele>
        <time>2019-10-12T14:20:45Z</time>
      </trkpt>
      <trkpt lat="32.782601" lon="-6.407172">
        <ele>751.532</ele>
        <time>2019-10-12T14:27:54Z</time>
      </trkpt>
      <trkpt lat="32.781601" lon="-6.407211">
        <ele>749.334</ele>
        <time>2019-10-12T14:28:10Z</time>
      </trkpt>
      <trkpt lat="32.780057" lon="-6.408149">
        <ele>749.355</ele>
        <time>2019-10-12T14:28:43Z</time>
      </trkpt>
      <trkpt lat="32.777807" lon="-6.408794">
        <ele>744.810</ele>
        <time>2019-10-12T14:29:20Z</time>
      </trkpt>
      <trkpt lat="32.777322" lon="-6.408824">
        <ele>745.108</ele>
        <time>2019-10-12T14:29:28Z</time>
      </trkpt>
      <trkpt lat="32.776809" lon="-6.408611">
        <ele>746.047</ele>
        <time>2019-10-12T14:29:37Z</time>
      </trkpt>
      <trkpt lat="32.776304" lon="-6.407946">
        <ele>747.775</ele>
        <time>2019-10-12T14:29:51Z</time>
      </trkpt>
      <trkpt lat="32.775340" lon="-6.405363">
        <ele>745.486</ele>
        <time>2019-10-12T14:30:34Z</time>
      </trkpt>
      <trkpt lat="32.774973" lon="-6.404821">
        <ele>743.760</ele>
        <time>2019-10-12T14:30:48Z</time>
      </trkpt>
      <trkpt lat="32.774322" lon="-6.404346">
        <ele>739.588</ele>
        <time>2019-10-12T14:31:37Z</time>
      </trkpt>
      <trkpt lat="32.769128" lon="-6.399347">
        <ele>733.634</ele>
        <time>2019-10-12T14:33:31Z</time>
      </trkpt>
      <trkpt lat="32.768422" lon="-6.399010">
        <ele>729.989</ele>
        <time>2019-10-12T14:33:47Z</time>
      </trkpt>
      <trkpt lat="32.768181" lon="-6.398470">
        <ele>727.263</ele>
        <time>2019-10-12T14:33:57Z</time>
      </trkpt>
      <trkpt lat="32.767171" lon="-6.397937">
        <ele>724.162</ele>
        <time>2019-10-12T14:34:21Z</time>
      </trkpt>
      <trkpt lat="32.767044" lon="-6.396920">
        <ele>722.183</ele>
        <time>2019-10-12T14:45:33Z</time>
      </trkpt>
      <trkpt lat="32.766904" lon="-6.396787">
        <ele>722.111</ele>
        <time>2019-10-12T14:45:59Z</time>
      </trkpt>
      <trkpt lat="32.766995" lon="-6.396535">
        <ele>721.708</ele>
        <time>2019-10-12T14:46:08Z</time>
      </trkpt>
      <trkpt lat="32.767165" lon="-6.396513">
        <ele>728.570</ele>
        <time>2019-10-12T14:47:31Z</time>
      </trkpt>
      <trkpt lat="32.766736" lon="-6.396454">
        <ele>726.328</ele>
        <time>2019-10-12T14:52:28Z</time>
      </trkpt>
      <trkpt lat="32.766666" lon="-6.396656">
        <ele>719.569</ele>
        <time>2019-10-12T14:52:52Z</time>
      </trkpt>
      <trkpt lat="32.765994" lon="-6.396708">
        <ele>714.953</ele>
        <time>2019-10-12T14:54:12Z</time>
      </trkpt>
      <trkpt lat="32.766611" lon="-6.396630">
        <ele>725.161</ele>
        <time>2019-10-12T14:55:06Z</time>
      </trkpt>
      <trkpt lat="32.766883" lon="-6.396128">
        <ele>721.477</ele>
        <time>2019-10-12T14:55:28Z</time>
      </trkpt>
      <trkpt lat="32.766722" lon="-6.396025">
        <ele>724.032</ele>
        <time>2019-10-12T14:56:22Z</time>
      </trkpt>
      <trkpt lat="32.767470" lon="-6.395880">
        <ele>727.026</ele>
        <time>2019-10-12T14:58:43Z</time>
      </trkpt>
      <trkpt lat="32.767645" lon="-6.395369">
        <ele>723.085</ele>
        <time>2019-10-12T14:59:10Z</time>
      </trkpt>
      <trkpt lat="32.767710" lon="-6.395452">
        <ele>721.189</ele>
        <time>2019-10-12T15:00:18Z</time>
      </trkpt>
      <trkpt lat="32.767728" lon="-6.394849">
        <ele>722.817</ele>
        <time>2019-10-12T15:02:19Z</time>
      </trkpt>
      <trkpt lat="32.767991" lon="-6.394654">
        <ele>718.208</ele>
        <time>2019-10-12T15:04:11Z</time>
      </trkpt>
      <trkpt lat="32.767923" lon="-6.394408">
        <ele>720.352</ele>
        <time>2019-10-12T15:04:27Z</time>
      </trkpt>
      <trkpt lat="32.767733" lon="-6.395049">
        <ele>719.080</ele>
        <time>2019-10-12T15:06:57Z</time>
      </trkpt>
      <trkpt lat="32.767389" lon="-6.394864">
        <ele>715.051</ele>
        <time>2019-10-12T15:07:33Z</time>
      </trkpt>
      <trkpt lat="32.766839" lon="-6.395025">
        <ele>729.515</ele>
        <time>2019-10-12T15:10:33Z</time>
      </trkpt>
      <trkpt lat="32.767550" lon="-6.394890">
        <ele>727.093</ele>
        <time>2019-10-12T15:12:40Z</time>
      </trkpt>
      <trkpt lat="32.767761" lon="-6.395397">
        <ele>727.299</ele>
        <time>2019-10-12T15:12:56Z</time>
      </trkpt>
      <trkpt lat="32.768081" lon="-6.395562">
        <ele>724.094</ele>
        <time>2019-10-12T15:17:18Z</time>
      </trkpt>
      <trkpt lat="32.767920" lon="-6.395998">
        <ele>720.148</ele>
        <time>2019-10-12T15:18:00Z</time>
      </trkpt>
      <trkpt lat="32.766998" lon="-6.395924">
        <ele>725.975</ele>
        <time>2019-10-12T15:21:55Z</time>
      </trkpt>
      <trkpt lat="32.766861" lon="-6.396424">
        <ele>724.528</ele>
        <time>2019-10-12T15:22:16Z</time>
      </trkpt>
      <trkpt lat="32.767124" lon="-6.396477">
        <ele>724.620</ele>
        <time>2019-10-12T15:22:34Z</time>
      </trkpt>
      <trkpt lat="32.767008" lon="-6.396563">
        <ele>724.208</ele>
        <time>2019-10-12T15:22:47Z</time>
      </trkpt>
      <trkpt lat="32.767245" lon="-6.397721">
        <ele>729.611</ele>
        <time>2019-10-12T15:23:57Z</time>
      </trkpt>
      <trkpt lat="32.767125" lon="-6.397875">
        <ele>729.249</ele>
        <time>2019-10-12T15:24:06Z</time>
      </trkpt>
      <trkpt lat="32.761893" lon="-6.397394">
        <ele>715.320</ele>
        <time>2019-10-12T15:25:55Z</time>
      </trkpt>
      <trkpt lat="32.760681" lon="-6.396821">
        <ele>715.974</ele>
        <time>2019-10-12T15:26:15Z</time>
      </trkpt>
      <trkpt lat="32.759904" lon="-6.395817">
        <ele>711.852</ele>
        <time>2019-10-12T15:26:31Z</time>
      </trkpt>
      <trkpt lat="32.758796" lon="-6.393010">
        <ele>702.278</ele>
        <time>2019-10-12T15:27:01Z</time>
      </trkpt>
      <trkpt lat="32.758350" lon="-6.392350">
        <ele>701.663</ele>
        <time>2019-10-12T15:27:12Z</time>
      </trkpt>
      <trkpt lat="32.755830" lon="-6.390870">
        <ele>705.957</ele>
        <time>2019-10-12T15:28:04Z</time>
      </trkpt>
      <trkpt lat="32.754375" lon="-6.389729">
        <ele>707.249</ele>
        <time>2019-10-12T15:28:40Z</time>
      </trkpt>
      <trkpt lat="32.727419" lon="-6.362667">
        <ele>678.002</ele>
        <time>2019-10-12T15:37:51Z</time>
      </trkpt>
      <trkpt lat="32.724074" lon="-6.359608">
        <ele>674.422</ele>
        <time>2019-10-12T15:38:58Z</time>
      </trkpt>
      <trkpt lat="32.722456" lon="-6.358391">
        <ele>670.408</ele>
        <time>2019-10-12T15:39:23Z</time>
      </trkpt>
      <trkpt lat="32.709420" lon="-6.351156">
        <ele>650.238</ele>
        <time>2019-10-12T15:42:39Z</time>
      </trkpt>
      <trkpt lat="32.708895" lon="-6.350608">
        <ele>650.236</ele>
        <time>2019-10-12T15:42:49Z</time>
      </trkpt>
      <trkpt lat="32.705440" lon="-6.345619">
        <ele>652.277</ele>
        <time>2019-10-12T15:44:16Z</time>
      </trkpt>
      <trkpt lat="32.704669" lon="-6.344833">
        <ele>649.571</ele>
        <time>2019-10-12T15:44:31Z</time>
      </trkpt>
      <trkpt lat="32.696039" lon="-6.341502">
        <ele>642.199</ele>
        <time>2019-10-12T15:46:46Z</time>
      </trkpt>
      <trkpt lat="32.692631" lon="-6.339378">
        <ele>640.825</ele>
        <time>2019-10-12T15:47:44Z</time>
      </trkpt>
      <trkpt lat="32.689612" lon="-6.336615">
        <ele>633.150</ele>
        <time>2019-10-12T15:48:35Z</time>
      </trkpt>
      <trkpt lat="32.688990" lon="-6.335869">
        <ele>633.894</ele>
        <time>2019-10-12T15:48:49Z</time>
      </trkpt>
      <trkpt lat="32.688085" lon="-6.334180">
        <ele>631.635</ele>
        <time>2019-10-12T15:49:10Z</time>
      </trkpt>
      <trkpt lat="32.686894" lon="-6.329641">
        <ele>637.486</ele>
        <time>2019-10-12T15:50:19Z</time>
      </trkpt>
      <trkpt lat="32.686302" lon="-6.328411">
        <ele>639.014</ele>
        <time>2019-10-12T15:50:39Z</time>
      </trkpt>
      <trkpt lat="32.681590" lon="-6.322056">
        <ele>639.508</ele>
        <time>2019-10-12T15:52:31Z</time>
      </trkpt>
      <trkpt lat="32.676902" lon="-6.316671">
        <ele>636.957</ele>
        <time>2019-10-12T15:54:12Z</time>
      </trkpt>
      <trkpt lat="32.675842" lon="-6.316195">
        <ele>634.995</ele>
        <time>2019-10-12T15:54:30Z</time>
      </trkpt>
      <trkpt lat="32.674117" lon="-6.316018">
        <ele>633.236</ele>
        <time>2019-10-12T15:54:59Z</time>
      </trkpt>
      <trkpt lat="32.673355" lon="-6.315803">
        <ele>634.050</ele>
        <time>2019-10-12T15:55:12Z</time>
      </trkpt>
      <trkpt lat="32.649455" lon="-6.306288">
        <ele>602.588</ele>
        <time>2019-10-12T16:05:59Z</time>
      </trkpt>
      <trkpt lat="32.644512" lon="-6.305385">
        <ele>601.514</ele>
        <time>2019-10-12T16:07:26Z</time>
      </trkpt>
      <trkpt lat="32.640605" lon="-6.304240">
        <ele>603.159</ele>
        <time>2019-10-12T16:08:31Z</time>
      </trkpt>
      <trkpt lat="32.615748" lon="-6.289037">
        <ele>576.813</ele>
        <time>2019-10-12T16:17:28Z</time>
      </trkpt>
      <trkpt lat="32.614919" lon="-6.288122">
        <ele>575.699</ele>
        <time>2019-10-12T16:17:43Z</time>
      </trkpt>
      <trkpt lat="32.614440" lon="-6.286447">
        <ele>570.207</ele>
        <time>2019-10-12T16:18:00Z</time>
      </trkpt>
      <trkpt lat="32.614106" lon="-6.285977">
        <ele>568.127</ele>
        <time>2019-10-12T16:18:06Z</time>
      </trkpt>
      <trkpt lat="32.613783" lon="-6.285911">
        <ele>566.908</ele>
        <time>2019-10-12T16:18:11Z</time>
      </trkpt>
      <trkpt lat="32.613340" lon="-6.286053">
        <ele>565.833</ele>
        <time>2019-10-12T16:18:18Z</time>
      </trkpt>
      <trkpt lat="32.612261" lon="-6.287023">
        <ele>564.181</ele>
        <time>2019-10-12T16:18:41Z</time>
      </trkpt>
      <trkpt lat="32.611894" lon="-6.287117">
        <ele>564.572</ele>
        <time>2019-10-12T16:18:47Z</time>
      </trkpt>
      <trkpt lat="32.611570" lon="-6.287011">
        <ele>564.176</ele>
        <time>2019-10-12T16:18:52Z</time>
      </trkpt>
      <trkpt lat="32.611280" lon="-6.286499">
        <ele>563.134</ele>
        <time>2019-10-12T16:18:59Z</time>
      </trkpt>
      <trkpt lat="32.611435" lon="-6.286028">
        <ele>561.930</ele>
        <time>2019-10-12T16:19:04Z</time>
      </trkpt>
      <trkpt lat="32.612642" lon="-6.285528">
        <ele>558.375</ele>
        <time>2019-10-12T16:19:18Z</time>
      </trkpt>
      <trkpt lat="32.616075" lon="-6.283327">
        <ele>546.779</ele>
        <time>2019-10-12T16:20:09Z</time>
      </trkpt>
      <trkpt lat="32.616316" lon="-6.282890">
        <ele>544.961</ele>
        <time>2019-10-12T16:20:15Z</time>
      </trkpt>
      <trkpt lat="32.616220" lon="-6.282341">
        <ele>544.021</ele>
        <time>2019-10-12T16:20:22Z</time>
      </trkpt>
      <trkpt lat="32.615961" lon="-6.282072">
        <ele>544.713</ele>
        <time>2019-10-12T16:20:28Z</time>
      </trkpt>
      <trkpt lat="32.615663" lon="-6.281992">
        <ele>545.808</ele>
        <time>2019-10-12T16:20:34Z</time>
      </trkpt>
      <trkpt lat="32.613399" lon="-6.282596">
        <ele>551.570</ele>
        <time>2019-10-12T16:21:27Z</time>
      </trkpt>
      <trkpt lat="32.611023" lon="-6.282413">
        <ele>562.468</ele>
        <time>2019-10-12T16:22:47Z</time>
      </trkpt>
      <trkpt lat="32.605755" lon="-6.280734">
        <ele>570.069</ele>
        <time>2019-10-12T16:26:39Z</time>
      </trkpt>
      <trkpt lat="32.605759" lon="-6.280421">
        <ele>569.163</ele>
        <time>2019-10-12T16:27:54Z</time>
      </trkpt>
      <trkpt lat="32.605628" lon="-6.280478">
        <ele>568.681</ele>
        <time>2019-10-12T16:28:07Z</time>
      </trkpt>
      <trkpt lat="32.605598" lon="-6.280867">
        <ele>568.347</ele>
        <time>2019-10-12T16:28:38Z</time>
      </trkpt>
      <trkpt lat="32.605697" lon="-6.280633">
        <ele>566.752</ele>
        <time>2019-10-12T16:29:12Z</time>
      </trkpt>
      <trkpt lat="32.605525" lon="-6.280607">
        <ele>565.316</ele>
        <time>2019-10-12T16:29:46Z</time>
      </trkpt>
      <trkpt lat="32.605765" lon="-6.280446">
        <ele>552.266</ele>
        <time>2019-10-12T17:00:46Z</time>
      </trkpt>
      <trkpt lat="32.605610" lon="-6.280385">
        <ele>552.129</ele>
        <time>2019-10-12T17:01:19Z</time>
      </trkpt>
      <trkpt lat="32.605964" lon="-6.280460">
        <ele>541.921</ele>
        <time>2019-10-12T17:02:31Z</time>
      </trkpt>
      <trkpt lat="32.605485" lon="-6.280647">
        <ele>557.708</ele>
        <time>2019-10-12T17:04:13Z</time>
      </trkpt>
      <trkpt lat="32.604332" lon="-6.280264">
        <ele>580.870</ele>
        <time>2019-10-12T17:04:53Z</time>
      </trkpt>
      <trkpt lat="32.602433" lon="-6.278752">
        <ele>569.248</ele>
        <time>2019-10-12T17:06:14Z</time>
      </trkpt>
      <trkpt lat="32.601865" lon="-6.276919">
        <ele>558.119</ele>
        <time>2019-10-12T17:07:36Z</time>
      </trkpt>
      <trkpt lat="32.600774" lon="-6.270783">
        <ele>561.423</ele>
        <time>2019-10-12T17:10:51Z</time>
      </trkpt>
      <trkpt lat="32.599529" lon="-6.269770">
        <ele>562.871</ele>
        <time>2019-10-12T17:12:56Z</time>
      </trkpt>
      <trkpt lat="32.600752" lon="-6.270564">
        <ele>563.837</ele>
        <time>2019-10-12T17:14:14Z</time>
      </trkpt>
      <trkpt lat="32.599963" lon="-6.266622">
        <ele>553.112</ele>
        <time>2019-10-12T17:15:51Z</time>
      </trkpt>
      <trkpt lat="32.598594" lon="-6.264541">
        <ele>555.966</ele>
        <time>2019-10-12T17:17:01Z</time>
      </trkpt>
      <trkpt lat="32.598130" lon="-6.263142">
        <ele>547.764</ele>
        <time>2019-10-12T17:17:30Z</time>
      </trkpt>
      <trkpt lat="32.597864" lon="-6.263103">
        <ele>548.006</ele>
        <time>2019-10-12T17:17:41Z</time>
      </trkpt>
      <trkpt lat="32.596855" lon="-6.263409">
        <ele>554.916</ele>
        <time>2019-10-12T17:18:17Z</time>
      </trkpt>
      <trkpt lat="32.596873" lon="-6.263202">
        <ele>557.308</ele>
        <time>2019-10-12T17:19:54Z</time>
      </trkpt>
      <trkpt lat="32.596705" lon="-6.263091">
        <ele>557.380</ele>
        <time>2019-10-12T17:21:03Z</time>
      </trkpt>
      <trkpt lat="32.596750" lon="-6.263229">
        <ele>557.958</ele>
        <time>2019-10-12T17:21:31Z</time>
      </trkpt>
      <trkpt lat="32.596731" lon="-6.263097">
        <ele>556.439</ele>
        <time>2019-10-12T17:23:00Z</time>
      </trkpt>
      <trkpt lat="32.596600" lon="-6.263131">
        <ele>498.784</ele>
        <time>2019-10-13T09:59:45Z</time>
      </trkpt>
      <trkpt lat="32.596821" lon="-6.263418">
        <ele>498.707</ele>
        <time>2019-10-13T10:01:53Z</time>
      </trkpt>
      <trkpt lat="32.597843" lon="-6.263012">
        <ele>495.417</ele>
        <time>2019-10-13T10:02:33Z</time>
      </trkpt>
      <trkpt lat="32.597960" lon="-6.262829">
        <ele>494.008</ele>
        <time>2019-10-13T10:02:39Z</time>
      </trkpt>
      <trkpt lat="32.597513" lon="-6.260775">
        <ele>489.032</ele>
        <time>2019-10-13T10:03:31Z</time>
      </trkpt>
      <trkpt lat="32.597314" lon="-6.260411">
        <ele>490.040</ele>
        <time>2019-10-13T10:03:41Z</time>
      </trkpt>
      <trkpt lat="32.597023" lon="-6.260244">
        <ele>491.212</ele>
        <time>2019-10-13T10:03:49Z</time>
      </trkpt>
      <trkpt lat="32.594478" lon="-6.260798">
        <ele>489.061</ele>
        <time>2019-10-13T10:05:16Z</time>
      </trkpt>
      <trkpt lat="32.592812" lon="-6.260532">
        <ele>483.660</ele>
        <time>2019-10-13T10:06:22Z</time>
      </trkpt>
      <trkpt lat="32.594468" lon="-6.260899">
        <ele>495.539</ele>
        <time>2019-10-13T10:09:56Z</time>
      </trkpt>
      <trkpt lat="32.594306" lon="-6.260759">
        <ele>489.320</ele>
        <time>2019-10-13T10:10:13Z</time>
      </trkpt>
      <trkpt lat="32.593616" lon="-6.260747">
        <ele>485.714</ele>
        <time>2019-10-13T10:10:27Z</time>
      </trkpt>
      <trkpt lat="32.588859" lon="-6.259760">
        <ele>483.567</ele>
        <time>2019-10-13T10:12:33Z</time>
      </trkpt>
      <trkpt lat="32.587276" lon="-6.259983">
        <ele>481.681</ele>
        <time>2019-10-13T10:36:54Z</time>
      </trkpt>
      <trkpt lat="32.586544" lon="-6.258947">
        <ele>489.919</ele>
        <time>2019-10-13T10:37:51Z</time>
      </trkpt>
      <trkpt lat="32.585377" lon="-6.258360">
        <ele>499.108</ele>
        <time>2019-10-13T10:39:10Z</time>
      </trkpt>
      <trkpt lat="32.584287" lon="-6.258346">
        <ele>506.960</ele>
        <time>2019-10-13T10:40:13Z</time>
      </trkpt>
      <trkpt lat="32.581734" lon="-6.258982">
        <ele>508.358</ele>
        <time>2019-10-13T10:41:23Z</time>
      </trkpt>
      <trkpt lat="32.581521" lon="-6.258770">
        <ele>508.380</ele>
        <time>2019-10-13T10:41:31Z</time>
      </trkpt>
      <trkpt lat="32.581735" lon="-6.258229">
        <ele>507.959</ele>
        <time>2019-10-13T10:41:44Z</time>
      </trkpt>
      <trkpt lat="32.582076" lon="-6.255833">
        <ele>508.768</ele>
        <time>2019-10-13T10:42:36Z</time>
      </trkpt>
      <trkpt lat="32.583106" lon="-6.246648">
        <ele>511.217</ele>
        <time>2019-10-13T10:45:43Z</time>
      </trkpt>
      <trkpt lat="32.584413" lon="-6.237365">
        <ele>515.868</ele>
        <time>2019-10-13T10:50:17Z</time>
      </trkpt>
      <trkpt lat="32.584122" lon="-6.236367">
        <ele>515.122</ele>
        <time>2019-10-13T10:50:39Z</time>
      </trkpt>
      <trkpt lat="32.581540" lon="-6.232068">
        <ele>513.793</ele>
        <time>2019-10-13T10:52:26Z</time>
      </trkpt>
      <trkpt lat="32.581216" lon="-6.231088">
        <ele>514.265</ele>
        <time>2019-10-13T10:52:46Z</time>
      </trkpt>
      <trkpt lat="32.581767" lon="-6.221227">
        <ele>518.121</ele>
        <time>2019-10-13T10:56:03Z</time>
      </trkpt>
      <trkpt lat="32.579761" lon="-6.198045">
        <ele>521.808</ele>
        <time>2019-10-13T11:03:36Z</time>
      </trkpt>
      <trkpt lat="32.579870" lon="-6.196999">
        <ele>521.463</ele>
        <time>2019-10-13T11:03:58Z</time>
      </trkpt>
      <trkpt lat="32.580243" lon="-6.195820">
        <ele>523.661</ele>
        <time>2019-10-13T11:04:24Z</time>
      </trkpt>
      <trkpt lat="32.592256" lon="-6.168542">
        <ele>546.013</ele>
        <time>2019-10-13T11:16:27Z</time>
      </trkpt>
      <trkpt lat="32.594669" lon="-6.162714">
        <ele>550.342</ele>
        <time>2019-10-13T11:22:20Z</time>
      </trkpt>
      <trkpt lat="32.604137" lon="-6.110776">
        <ele>611.661</ele>
        <time>2019-10-13T11:47:43Z</time>
      </trkpt>
      <trkpt lat="32.604101" lon="-6.108918">
        <ele>613.470</ele>
        <time>2019-10-13T11:48:27Z</time>
      </trkpt>
      <trkpt lat="32.602106" lon="-6.092164">
        <ele>648.021</ele>
        <time>2019-10-13T11:56:35Z</time>
      </trkpt>
      <trkpt lat="32.602003" lon="-6.091595">
        <ele>650.035</ele>
        <time>2019-10-13T11:56:51Z</time>
      </trkpt>
      <trkpt lat="32.601699" lon="-6.091310">
        <ele>651.566</ele>
        <time>2019-10-13T11:57:08Z</time>
      </trkpt>
      <trkpt lat="32.601905" lon="-6.090458">
        <ele>650.829</ele>
        <time>2019-10-13T11:57:37Z</time>
      </trkpt>
      <trkpt lat="32.601778" lon="-6.089420">
        <ele>655.421</ele>
        <time>2019-10-13T11:58:12Z</time>
      </trkpt>
      <trkpt lat="32.601456" lon="-6.089675">
        <ele>657.908</ele>
        <time>2019-10-13T11:58:48Z</time>
      </trkpt>
      <trkpt lat="32.601748" lon="-6.089420">
        <ele>661.820</ele>
        <time>2019-10-13T11:59:20Z</time>
      </trkpt>
      <trkpt lat="32.601748" lon="-6.089125">
        <ele>660.038</ele>
        <time>2019-10-13T11:59:28Z</time>
      </trkpt>
      <trkpt lat="32.600680" lon="-6.079984">
        <ele>678.590</ele>
        <time>2019-10-13T12:03:52Z</time>
      </trkpt>
      <trkpt lat="32.600611" lon="-6.079825">
        <ele>679.089</ele>
        <time>2019-10-13T12:03:59Z</time>
      </trkpt>
      <trkpt lat="32.599866" lon="-6.079931">
        <ele>681.928</ele>
        <time>2019-10-13T12:09:52Z</time>
      </trkpt>
      <trkpt lat="32.600049" lon="-6.079866">
        <ele>740.157</ele>
        <time>2019-10-13T12:43:11Z</time>
      </trkpt>
      <trkpt lat="32.600535" lon="-6.078939">
        <ele>739.138</ele>
        <time>2019-10-13T12:43:48Z</time>
      </trkpt>
      <trkpt lat="32.599000" lon="-6.065992">
        <ele>780.492</ele>
        <time>2019-10-13T12:50:20Z</time>
      </trkpt>
      <trkpt lat="32.598879" lon="-6.065412">
        <ele>782.672</ele>
        <time>2019-10-13T12:50:36Z</time>
      </trkpt>
      <trkpt lat="32.598572" lon="-6.064892">
        <ele>784.013</ele>
        <time>2019-10-13T12:50:55Z</time>
      </trkpt>
      <trkpt lat="32.598794" lon="-6.064211">
        <ele>782.914</ele>
        <time>2019-10-13T12:51:16Z</time>
      </trkpt>
      <trkpt lat="32.595920" lon="-6.039789">
        <ele>789.008</ele>
        <time>2019-10-13T12:59:56Z</time>
      </trkpt>
      <trkpt lat="32.596114" lon="-6.038748">
        <ele>784.721</ele>
        <time>2019-10-13T13:00:06Z</time>
      </trkpt>
      <trkpt lat="32.597254" lon="-6.037050">
        <ele>779.399</ele>
        <time>2019-10-13T13:01:28Z</time>
      </trkpt>
      <trkpt lat="32.597786" lon="-6.035845">
        <ele>775.581</ele>
        <time>2019-10-13T13:02:20Z</time>
      </trkpt>
      <trkpt lat="32.599721" lon="-6.028917">
        <ele>758.990</ele>
        <time>2019-10-13T13:03:44Z</time>
      </trkpt>
      <trkpt lat="32.601084" lon="-6.025392">
        <ele>758.159</ele>
        <time>2019-10-13T13:04:37Z</time>
      </trkpt>
      <trkpt lat="32.601508" lon="-6.023714">
        <ele>755.248</ele>
        <time>2019-10-13T13:05:02Z</time>
      </trkpt>
      <trkpt lat="32.602143" lon="-6.018550">
        <ele>762.649</ele>
        <time>2019-10-13T13:06:42Z</time>
      </trkpt>
      <trkpt lat="32.601131" lon="-6.007923">
        <ele>789.843</ele>
        <time>2019-10-13T13:11:26Z</time>
      </trkpt>
      <trkpt lat="32.601338" lon="-6.006338">
        <ele>792.853</ele>
        <time>2019-10-13T13:12:50Z</time>
      </trkpt>
      <trkpt lat="32.606426" lon="-5.997964">
        <ele>802.104</ele>
        <time>2019-10-13T13:16:16Z</time>
      </trkpt>
      <trkpt lat="32.607295" lon="-5.996899">
        <ele>799.014</ele>
        <time>2019-10-13T13:16:36Z</time>
      </trkpt>
      <trkpt lat="32.609334" lon="-5.995008">
        <ele>800.808</ele>
        <time>2019-10-13T13:17:27Z</time>
      </trkpt>
      <trkpt lat="32.610346" lon="-5.993712">
        <ele>803.389</ele>
        <time>2019-10-13T13:17:58Z</time>
      </trkpt>
      <trkpt lat="32.618353" lon="-5.981833">
        <ele>796.487</ele>
        <time>2019-10-13T13:21:42Z</time>
      </trkpt>
      <trkpt lat="32.624798" lon="-5.971931">
        <ele>778.489</ele>
        <time>2019-10-13T13:24:15Z</time>
      </trkpt>
      <trkpt lat="32.625821" lon="-5.970165">
        <ele>775.898</ele>
        <time>2019-10-13T13:24:40Z</time>
      </trkpt>
      <trkpt lat="32.626938" lon="-5.967532">
        <ele>769.817</ele>
        <time>2019-10-13T13:25:16Z</time>
      </trkpt>
      <trkpt lat="32.627145" lon="-5.966744">
        <ele>766.926</ele>
        <time>2019-10-13T13:25:24Z</time>
      </trkpt>
      <trkpt lat="32.627136" lon="-5.965869">
        <ele>763.827</ele>
        <time>2019-10-13T13:25:32Z</time>
      </trkpt>
      <trkpt lat="32.626604" lon="-5.963550">
        <ele>756.651</ele>
        <time>2019-10-13T13:25:59Z</time>
      </trkpt>
      <trkpt lat="32.627061" lon="-5.959783">
        <ele>775.036</ele>
        <time>2019-10-13T13:27:34Z</time>
      </trkpt>
      <trkpt lat="32.634775" lon="-5.939101">
        <ele>756.417</ele>
        <time>2019-10-13T13:32:46Z</time>
      </trkpt>
      <trkpt lat="32.634754" lon="-5.938011">
        <ele>761.018</ele>
        <time>2019-10-13T13:33:18Z</time>
      </trkpt>
      <trkpt lat="32.633619" lon="-5.934319">
        <ele>770.508</ele>
        <time>2019-10-13T13:36:31Z</time>
      </trkpt>
      <trkpt lat="32.633563" lon="-5.933452">
        <ele>772.887</ele>
        <time>2019-10-13T13:36:52Z</time>
      </trkpt>
      <trkpt lat="32.633805" lon="-5.932055">
        <ele>773.665</ele>
        <time>2019-10-13T13:37:22Z</time>
      </trkpt>
      <trkpt lat="32.634136" lon="-5.931130">
        <ele>772.357</ele>
        <time>2019-10-13T13:38:30Z</time>
      </trkpt>
      <trkpt lat="32.635178" lon="-5.929250">
        <ele>770.116</ele>
        <time>2019-10-13T13:38:59Z</time>
      </trkpt>
      <trkpt lat="32.643407" lon="-5.915240">
        <ele>771.395</ele>
        <time>2019-10-13T13:52:24Z</time>
      </trkpt>
      <trkpt lat="32.643451" lon="-5.914515">
        <ele>770.924</ele>
        <time>2019-10-13T13:52:54Z</time>
      </trkpt>
      <trkpt lat="32.643144" lon="-5.913297">
        <ele>764.715</ele>
        <time>2019-10-13T13:53:16Z</time>
      </trkpt>
      <trkpt lat="32.643283" lon="-5.912577">
        <ele>761.659</ele>
        <time>2019-10-13T13:53:25Z</time>
      </trkpt>
      <trkpt lat="32.643704" lon="-5.912181">
        <ele>762.165</ele>
        <time>2019-10-13T13:53:40Z</time>
      </trkpt>
      <trkpt lat="32.644937" lon="-5.912015">
        <ele>771.268</ele>
        <time>2019-10-13T13:54:27Z</time>
      </trkpt>
      <trkpt lat="32.645450" lon="-5.911630">
        <ele>773.014</ele>
        <time>2019-10-13T13:54:44Z</time>
      </trkpt>
      <trkpt lat="32.646161" lon="-5.910818">
        <ele>770.208</ele>
        <time>2019-10-13T13:55:03Z</time>
      </trkpt>
      <trkpt lat="32.646898" lon="-5.909288">
        <ele>762.560</ele>
        <time>2019-10-13T13:55:24Z</time>
      </trkpt>
      <trkpt lat="32.647361" lon="-5.908967">
        <ele>760.688</ele>
        <time>2019-10-13T13:55:31Z</time>
      </trkpt>
      <trkpt lat="32.649157" lon="-5.908222">
        <ele>755.210</ele>
        <time>2019-10-13T13:56:00Z</time>
      </trkpt>
      <trkpt lat="32.650069" lon="-5.906707">
        <ele>748.439</ele>
        <time>2019-10-13T13:56:26Z</time>
      </trkpt>
      <trkpt lat="32.650487" lon="-5.906556">
        <ele>748.128</ele>
        <time>2019-10-13T13:56:31Z</time>
      </trkpt>
      <trkpt lat="32.651792" lon="-5.906584">
        <ele>742.837</ele>
        <time>2019-10-13T13:56:44Z</time>
      </trkpt>
      <trkpt lat="32.652161" lon="-5.906456">
        <ele>741.688</ele>
        <time>2019-10-13T13:56:48Z</time>
      </trkpt>
      <trkpt lat="32.652213" lon="-5.905789">
        <ele>738.652</ele>
        <time>2019-10-13T13:56:54Z</time>
      </trkpt>
      <trkpt lat="32.651690" lon="-5.904473">
        <ele>732.039</ele>
        <time>2019-10-13T13:57:07Z</time>
      </trkpt>
      <trkpt lat="32.651935" lon="-5.903969">
        <ele>730.501</ele>
        <time>2019-10-13T13:57:12Z</time>
      </trkpt>
      <trkpt lat="32.652340" lon="-5.903917">
        <ele>731.221</ele>
        <time>2019-10-13T13:57:17Z</time>
      </trkpt>
      <trkpt lat="32.653186" lon="-5.904208">
        <ele>730.008</ele>
        <time>2019-10-13T13:57:40Z</time>
      </trkpt>
      <trkpt lat="32.654021" lon="-5.903981">
        <ele>737.287</ele>
        <time>2019-10-13T13:58:10Z</time>
      </trkpt>
      <trkpt lat="32.654532" lon="-5.903584">
        <ele>740.985</ele>
        <time>2019-10-13T13:58:28Z</time>
      </trkpt>
      <trkpt lat="32.655517" lon="-5.902422">
        <ele>742.027</ele>
        <time>2019-10-13T13:59:48Z</time>
      </trkpt>
      <trkpt lat="32.658227" lon="-5.900332">
        <ele>746.576</ele>
        <time>2019-10-13T14:01:22Z</time>
      </trkpt>
      <trkpt lat="32.659374" lon="-5.898580">
        <ele>754.535</ele>
        <time>2019-10-13T14:02:21Z</time>
      </trkpt>
      <trkpt lat="32.660226" lon="-5.896299">
        <ele>754.364</ele>
        <time>2019-10-13T14:03:07Z</time>
      </trkpt>
      <trkpt lat="32.660261" lon="-5.895567">
        <ele>754.715</ele>
        <time>2019-10-13T14:03:20Z</time>
      </trkpt>
      <trkpt lat="32.659896" lon="-5.893567">
        <ele>765.199</ele>
        <time>2019-10-13T14:04:12Z</time>
      </trkpt>
      <trkpt lat="32.660186" lon="-5.892886">
        <ele>764.955</ele>
        <time>2019-10-13T14:04:25Z</time>
      </trkpt>
      <trkpt lat="32.660653" lon="-5.892757">
        <ele>766.907</ele>
        <time>2019-10-13T14:04:36Z</time>
      </trkpt>
      <trkpt lat="32.661630" lon="-5.893116">
        <ele>770.917</ele>
        <time>2019-10-13T14:05:12Z</time>
      </trkpt>
      <trkpt lat="32.662653" lon="-5.893030">
        <ele>773.408</ele>
        <time>2019-10-13T14:05:40Z</time>
      </trkpt>
      <trkpt lat="32.665935" lon="-5.891468">
        <ele>771.139</ele>
        <time>2019-10-13T14:06:45Z</time>
      </trkpt>
      <trkpt lat="32.671372" lon="-5.886867">
        <ele>777.657</ele>
        <time>2019-10-13T14:09:06Z</time>
      </trkpt>
      <trkpt lat="32.672171" lon="-5.886054">
        <ele>777.679</ele>
        <time>2019-10-13T14:09:26Z</time>
      </trkpt>
      <trkpt lat="32.673324" lon="-5.882670">
        <ele>785.348</ele>
        <time>2019-10-13T14:10:42Z</time>
      </trkpt>
      <trkpt lat="32.674169" lon="-5.878286">
        <ele>796.457</ele>
        <time>2019-10-13T14:13:13Z</time>
      </trkpt>
      <trkpt lat="32.674636" lon="-5.877525">
        <ele>797.916</ele>
        <time>2019-10-13T14:13:32Z</time>
      </trkpt>
      <trkpt lat="32.676875" lon="-5.875016">
        <ele>811.197</ele>
        <time>2019-10-13T14:14:50Z</time>
      </trkpt>
      <trkpt lat="32.678213" lon="-5.872463">
        <ele>813.051</ele>
        <time>2019-10-13T14:16:00Z</time>
      </trkpt>
      <trkpt lat="32.678616" lon="-5.869822">
        <ele>802.365</ele>
        <time>2019-10-13T14:16:31Z</time>
      </trkpt>
      <trkpt lat="32.677460" lon="-5.867322">
        <ele>792.968</ele>
        <time>2019-10-13T14:17:31Z</time>
      </trkpt>
      <trkpt lat="32.677439" lon="-5.866903">
        <ele>790.814</ele>
        <time>2019-10-13T14:17:35Z</time>
      </trkpt>
      <trkpt lat="32.677756" lon="-5.866632">
        <ele>790.308</ele>
        <time>2019-10-13T14:17:40Z</time>
      </trkpt>
      <trkpt lat="32.679251" lon="-5.867137">
        <ele>798.530</ele>
        <time>2019-10-13T14:18:31Z</time>
      </trkpt>
      <trkpt lat="32.679970" lon="-5.867011">
        <ele>807.288</ele>
        <time>2019-10-13T14:19:01Z</time>
      </trkpt>
      <trkpt lat="32.680695" lon="-5.866311">
        <ele>811.530</ele>
        <time>2019-10-13T14:19:39Z</time>
      </trkpt>
      <trkpt lat="32.681221" lon="-5.865203">
        <ele>813.479</ele>
        <time>2019-10-13T14:20:22Z</time>
      </trkpt>
      <trkpt lat="32.682290" lon="-5.859075">
        <ele>834.568</ele>
        <time>2019-10-13T14:23:33Z</time>
      </trkpt>
      <trkpt lat="32.682274" lon="-5.858695">
        <ele>836.397</ele>
        <time>2019-10-13T14:24:33Z</time>
      </trkpt>
      <trkpt lat="32.681773" lon="-5.857725">
        <ele>834.788</ele>
        <time>2019-10-13T14:24:51Z</time>
      </trkpt>
      <trkpt lat="32.681560" lon="-5.856884">
        <ele>831.552</ele>
        <time>2019-10-13T14:25:00Z</time>
      </trkpt>
      <trkpt lat="32.681553" lon="-5.856369">
        <ele>829.877</ele>
        <time>2019-10-13T14:25:05Z</time>
      </trkpt>
      <trkpt lat="32.681737" lon="-5.855988">
        <ele>828.761</ele>
        <time>2019-10-13T14:25:10Z</time>
      </trkpt>
      <trkpt lat="32.682100" lon="-5.855758">
        <ele>829.227</ele>
        <time>2019-10-13T14:25:27Z</time>
      </trkpt>
      <trkpt lat="32.682742" lon="-5.854901">
        <ele>835.208</ele>
        <time>2019-10-13T14:27:24Z</time>
      </trkpt>
      <trkpt lat="32.684582" lon="-5.853937">
        <ele>833.171</ele>
        <time>2019-10-13T14:27:55Z</time>
      </trkpt>
      <trkpt lat="32.685554" lon="-5.853721">
        <ele>828.079</ele>
        <time>2019-10-13T14:28:09Z</time>
      </trkpt>
      <trkpt lat="32.686671" lon="-5.853949">
        <ele>824.291</ele>
        <time>2019-10-13T14:28:30Z</time>
      </trkpt>
      <trkpt lat="32.688336" lon="-5.853439">
        <ele>820.760</ele>
        <time>2019-10-13T14:29:02Z</time>
      </trkpt>
      <trkpt lat="32.695836" lon="-5.852069">
        <ele>799.899</ele>
        <time>2019-10-13T14:30:46Z</time>
      </trkpt>
      <trkpt lat="32.696403" lon="-5.851643">
        <ele>797.688</ele>
        <time>2019-10-13T14:30:55Z</time>
      </trkpt>
      <trkpt lat="32.697368" lon="-5.850127">
        <ele>792.079</ele>
        <time>2019-10-13T14:31:12Z</time>
      </trkpt>
      <trkpt lat="32.698330" lon="-5.849649">
        <ele>782.923</ele>
        <time>2019-10-13T14:31:31Z</time>
      </trkpt>
      <trkpt lat="32.698171" lon="-5.849776">
        <ele>784.083</ele>
        <time>2019-10-13T14:37:43Z</time>
      </trkpt>
      <trkpt lat="32.698679" lon="-5.848438">
        <ele>783.325</ele>
        <time>2019-10-13T14:38:17Z</time>
      </trkpt>
      <trkpt lat="32.698494" lon="-5.847541">
        <ele>781.417</ele>
        <time>2019-10-13T14:38:26Z</time>
      </trkpt>
      <trkpt lat="32.697552" lon="-5.846334">
        <ele>772.808</ele>
        <time>2019-10-13T14:38:42Z</time>
      </trkpt>
      <trkpt lat="32.695544" lon="-5.844946">
        <ele>755.692</ele>
        <time>2019-10-13T14:39:05Z</time>
      </trkpt>
      <trkpt lat="32.695309" lon="-5.844367">
        <ele>752.470</ele>
        <time>2019-10-13T14:39:10Z</time>
      </trkpt>
      <trkpt lat="32.695445" lon="-5.843618">
        <ele>749.952</ele>
        <time>2019-10-13T14:39:16Z</time>
      </trkpt>
      <trkpt lat="32.696195" lon="-5.842836">
        <ele>747.461</ele>
        <time>2019-10-13T14:39:29Z</time>
      </trkpt>
      <trkpt lat="32.696550" lon="-5.842741">
        <ele>746.490</ele>
        <time>2019-10-13T14:39:35Z</time>
      </trkpt>
      <trkpt lat="32.697099" lon="-5.843036">
        <ele>745.799</ele>
        <time>2019-10-13T14:39:46Z</time>
      </trkpt>
      <trkpt lat="32.697495" lon="-5.844114">
        <ele>749.660</ele>
        <time>2019-10-13T14:40:15Z</time>
      </trkpt>
      <trkpt lat="32.698056" lon="-5.844538">
        <ele>757.244</ele>
        <time>2019-10-13T14:40:48Z</time>
      </trkpt>
      <trkpt lat="32.700115" lon="-5.844610">
        <ele>770.648</ele>
        <time>2019-10-13T14:42:32Z</time>
      </trkpt>
      <trkpt lat="32.701789" lon="-5.843894">
        <ele>781.561</ele>
        <time>2019-10-13T14:43:45Z</time>
      </trkpt>
      <trkpt lat="32.703175" lon="-5.841160">
        <ele>799.817</ele>
        <time>2019-10-13T14:46:08Z</time>
      </trkpt>
      <trkpt lat="32.703999" lon="-5.840033">
        <ele>806.108</ele>
        <time>2019-10-13T14:48:46Z</time>
      </trkpt>
      <trkpt lat="32.704002" lon="-5.839565">
        <ele>808.418</ele>
        <time>2019-10-13T14:49:06Z</time>
      </trkpt>
      <trkpt lat="32.703612" lon="-5.838795">
        <ele>813.076</ele>
        <time>2019-10-13T14:49:44Z</time>
      </trkpt>
      <trkpt lat="32.703607" lon="-5.838367">
        <ele>814.328</ele>
        <time>2019-10-13T14:50:01Z</time>
      </trkpt>
      <trkpt lat="32.705023" lon="-5.835743">
        <ele>820.867</ele>
        <time>2019-10-13T14:51:35Z</time>
      </trkpt>
      <trkpt lat="32.705221" lon="-5.835126">
        <ele>825.686</ele>
        <time>2019-10-13T14:51:59Z</time>
      </trkpt>
      <trkpt lat="32.703592" lon="-5.828580">
        <ele>841.985</ele>
        <time>2019-10-13T14:54:58Z</time>
      </trkpt>
      <trkpt lat="32.701661" lon="-5.823330">
        <ele>855.736</ele>
        <time>2019-10-13T14:57:10Z</time>
      </trkpt>
      <trkpt lat="32.701530" lon="-5.821312">
        <ele>856.070</ele>
        <time>2019-10-13T14:57:46Z</time>
      </trkpt>
      <trkpt lat="32.701626" lon="-5.821304">
        <ele>855.082</ele>
        <time>2019-10-13T14:58:10Z</time>
      </trkpt>
      <trkpt lat="32.700878" lon="-5.818829">
        <ele>842.143</ele>
        <time>2019-10-13T15:00:18Z</time>
      </trkpt>
      <trkpt lat="32.700948" lon="-5.817944">
        <ele>838.417</ele>
        <time>2019-10-13T15:00:26Z</time>
      </trkpt>
      <trkpt lat="32.701453" lon="-5.817507">
        <ele>837.008</ele>
        <time>2019-10-13T15:00:34Z</time>
      </trkpt>
      <trkpt lat="32.704733" lon="-5.815917">
        <ele>820.382</ele>
        <time>2019-10-13T15:01:12Z</time>
      </trkpt>
      <trkpt lat="32.705516" lon="-5.815313">
        <ele>816.040</ele>
        <time>2019-10-13T15:01:21Z</time>
      </trkpt>
      <trkpt lat="32.707215" lon="-5.813368">
        <ele>801.752</ele>
        <time>2019-10-13T15:02:30Z</time>
      </trkpt>
      <trkpt lat="32.708621" lon="-5.811450">
        <ele>798.031</ele>
        <time>2019-10-13T15:03:03Z</time>
      </trkpt>
      <trkpt lat="32.709449" lon="-5.809948">
        <ele>788.520</ele>
        <time>2019-10-13T15:03:26Z</time>
      </trkpt>
      <trkpt lat="32.709853" lon="-5.808363">
        <ele>782.969</ele>
        <time>2019-10-13T15:04:01Z</time>
      </trkpt>
      <trkpt lat="32.710526" lon="-5.807334">
        <ele>777.010</ele>
        <time>2019-10-13T15:04:27Z</time>
      </trkpt>
      <trkpt lat="32.711224" lon="-5.807127">
        <ele>776.984</ele>
        <time>2019-10-13T15:04:45Z</time>
      </trkpt>
      <trkpt lat="32.712128" lon="-5.807496">
        <ele>768.529</ele>
        <time>2019-10-13T15:05:15Z</time>
      </trkpt>
      <trkpt lat="32.712741" lon="-5.807312">
        <ele>766.900</ele>
        <time>2019-10-13T15:05:48Z</time>
      </trkpt>
      <trkpt lat="32.713205" lon="-5.806834">
        <ele>773.920</ele>
        <time>2019-10-13T15:08:30Z</time>
      </trkpt>
      <trkpt lat="32.713036" lon="-5.807101">
        <ele>776.508</ele>
        <time>2019-10-13T15:08:51Z</time>
      </trkpt>
      <trkpt lat="32.713149" lon="-5.807304">
        <ele>736.766</ele>
        <time>2019-10-13T16:05:19Z</time>
      </trkpt>
      <trkpt lat="32.713301" lon="-5.806957">
        <ele>749.034</ele>
        <time>2019-10-13T16:05:55Z</time>
      </trkpt>
      <trkpt lat="32.714950" lon="-5.806192">
        <ele>741.066</ele>
        <time>2019-10-13T16:07:04Z</time>
      </trkpt>
      <trkpt lat="32.717730" lon="-5.803886">
        <ele>750.695</ele>
        <time>2019-10-13T16:08:49Z</time>
      </trkpt>
      <trkpt lat="32.718004" lon="-5.803306">
        <ele>750.414</ele>
        <time>2019-10-13T16:09:09Z</time>
      </trkpt>
      <trkpt lat="32.717795" lon="-5.802643">
        <ele>750.063</ele>
        <time>2019-10-13T16:09:31Z</time>
      </trkpt>
      <trkpt lat="32.717437" lon="-5.802417">
        <ele>752.454</ele>
        <time>2019-10-13T16:09:47Z</time>
      </trkpt>
      <trkpt lat="32.716499" lon="-5.802196">
        <ele>756.528</ele>
        <time>2019-10-13T16:10:26Z</time>
      </trkpt>
      <trkpt lat="32.716123" lon="-5.801845">
        <ele>757.979</ele>
        <time>2019-10-13T16:10:45Z</time>
      </trkpt>
      <trkpt lat="32.715907" lon="-5.801367">
        <ele>757.805</ele>
        <time>2019-10-13T16:11:01Z</time>
      </trkpt>
      <trkpt lat="32.715949" lon="-5.800420">
        <ele>761.325</ele>
        <time>2019-10-13T16:11:29Z</time>
      </trkpt>
      <trkpt lat="32.716633" lon="-5.799526">
        <ele>767.708</ele>
        <time>2019-10-13T16:12:07Z</time>
      </trkpt>
      <trkpt lat="32.717773" lon="-5.798608">
        <ele>774.411</ele>
        <time>2019-10-13T16:12:57Z</time>
      </trkpt>
      <trkpt lat="32.721936" lon="-5.796709">
        <ele>791.979</ele>
        <time>2019-10-13T16:15:46Z</time>
      </trkpt>
      <trkpt lat="32.722756" lon="-5.796498">
        <ele>794.231</ele>
        <time>2019-10-13T16:16:20Z</time>
      </trkpt>
      <trkpt lat="32.724428" lon="-5.796394">
        <ele>802.570</ele>
        <time>2019-10-13T16:17:30Z</time>
      </trkpt>
      <trkpt lat="32.724834" lon="-5.796176">
        <ele>805.129</ele>
        <time>2019-10-13T16:17:48Z</time>
      </trkpt>
      <trkpt lat="32.725174" lon="-5.795569">
        <ele>809.168</ele>
        <time>2019-10-13T16:18:16Z</time>
      </trkpt>
      <trkpt lat="32.725352" lon="-5.794112">
        <ele>817.669</ele>
        <time>2019-10-13T16:19:12Z</time>
      </trkpt>
      <trkpt lat="32.726277" lon="-5.792461">
        <ele>820.513</ele>
        <time>2019-10-13T16:20:00Z</time>
      </trkpt>
      <trkpt lat="32.726684" lon="-5.792006">
        <ele>821.332</ele>
        <time>2019-10-13T16:20:14Z</time>
      </trkpt>
      <trkpt lat="32.728060" lon="-5.791027">
        <ele>819.192</ele>
        <time>2019-10-13T16:20:44Z</time>
      </trkpt>
      <trkpt lat="32.728514" lon="-5.790391">
        <ele>817.211</ele>
        <time>2019-10-13T16:20:53Z</time>
      </trkpt>
      <trkpt lat="32.728849" lon="-5.789111">
        <ele>812.208</ele>
        <time>2019-10-13T16:21:04Z</time>
      </trkpt>
      <trkpt lat="32.728760" lon="-5.786399">
        <ele>806.667</ele>
        <time>2019-10-13T16:21:31Z</time>
      </trkpt>
      <trkpt lat="32.728944" lon="-5.785505">
        <ele>806.875</ele>
        <time>2019-10-13T16:22:40Z</time>
      </trkpt>
      <trkpt lat="32.730725" lon="-5.783718">
        <ele>802.417</ele>
        <time>2019-10-13T16:23:16Z</time>
      </trkpt>
      <trkpt lat="32.732567" lon="-5.781366">
        <ele>804.156</ele>
        <time>2019-10-13T16:24:04Z</time>
      </trkpt>
      <trkpt lat="32.738062" lon="-5.773159">
        <ele>797.085</ele>
        <time>2019-10-13T16:26:22Z</time>
      </trkpt>
      <trkpt lat="32.740872" lon="-5.766577">
        <ele>809.224</ele>
        <time>2019-10-13T16:28:27Z</time>
      </trkpt>
      <trkpt lat="32.743233" lon="-5.760038">
        <ele>812.875</ele>
        <time>2019-10-13T16:32:07Z</time>
      </trkpt>
      <trkpt lat="32.743962" lon="-5.758637">
        <ele>810.939</ele>
        <time>2019-10-13T16:32:27Z</time>
      </trkpt>
      <trkpt lat="32.744285" lon="-5.756378">
        <ele>803.449</ele>
        <time>2019-10-13T16:32:47Z</time>
      </trkpt>
      <trkpt lat="32.745161" lon="-5.754958">
        <ele>804.502</ele>
        <time>2019-10-13T16:33:11Z</time>
      </trkpt>
      <trkpt lat="32.745910" lon="-5.752615">
        <ele>807.322</ele>
        <time>2019-10-13T16:33:48Z</time>
      </trkpt>
      <trkpt lat="32.747388" lon="-5.750496">
        <ele>815.908</ele>
        <time>2019-10-13T16:34:50Z</time>
      </trkpt>
      <trkpt lat="32.749408" lon="-5.745298">
        <ele>808.918</ele>
        <time>2019-10-13T16:36:06Z</time>
      </trkpt>
      <trkpt lat="32.750010" lon="-5.740759">
        <ele>810.966</ele>
        <time>2019-10-13T16:37:15Z</time>
      </trkpt>
      <trkpt lat="32.749818" lon="-5.739105">
        <ele>813.418</ele>
        <time>2019-10-13T16:37:40Z</time>
      </trkpt>
      <trkpt lat="32.749218" lon="-5.737318">
        <ele>818.537</ele>
        <time>2019-10-13T16:38:17Z</time>
      </trkpt>
      <trkpt lat="32.749047" lon="-5.735446">
        <ele>828.346</ele>
        <time>2019-10-13T16:39:12Z</time>
      </trkpt>
      <trkpt lat="32.749054" lon="-5.732883">
        <ele>827.665</ele>
        <time>2019-10-13T16:39:55Z</time>
      </trkpt>
      <trkpt lat="32.747940" lon="-5.728877">
        <ele>836.216</ele>
        <time>2019-10-13T16:41:09Z</time>
      </trkpt>
      <trkpt lat="32.747785" lon="-5.727828">
        <ele>833.650</ele>
        <time>2019-10-13T16:41:20Z</time>
      </trkpt>
      <trkpt lat="32.747783" lon="-5.725272">
        <ele>823.288</ele>
        <time>2019-10-13T16:41:51Z</time>
      </trkpt>
      <trkpt lat="32.747884" lon="-5.725164">
        <ele>820.924</ele>
        <time>2019-10-13T16:42:19Z</time>
      </trkpt>
      <trkpt lat="32.749000" lon="-5.725591">
        <ele>821.826</ele>
        <time>2019-10-13T16:43:00Z</time>
      </trkpt>
      <trkpt lat="32.748950" lon="-5.725774">
        <ele>821.408</ele>
        <time>2019-10-13T16:50:20Z</time>
      </trkpt>
      <trkpt lat="32.749000" lon="-5.725592">
        <ele>821.222</ele>
        <time>2019-10-13T16:54:00Z</time>
      </trkpt>
      <trkpt lat="32.748105" lon="-5.725342">
        <ele>823.610</ele>
        <time>2019-10-13T16:54:44Z</time>
      </trkpt>
      <trkpt lat="32.747979" lon="-5.725455">
        <ele>824.652</ele>
        <time>2019-10-13T16:54:54Z</time>
      </trkpt>
      <trkpt lat="32.747982" lon="-5.726108">
        <ele>828.051</ele>
        <time>2019-10-13T16:55:53Z</time>
      </trkpt>
      <trkpt lat="32.747831" lon="-5.725974">
        <ele>829.420</ele>
        <time>2019-10-13T16:57:28Z</time>
      </trkpt>
      <trkpt lat="32.747631" lon="-5.723836">
        <ele>821.499</ele>
        <time>2019-10-13T16:57:56Z</time>
      </trkpt>
      <trkpt lat="32.747166" lon="-5.722714">
        <ele>820.460</ele>
        <time>2019-10-13T16:58:15Z</time>
      </trkpt>
      <trkpt lat="32.743378" lon="-5.717411">
        <ele>831.924</ele>
        <time>2019-10-13T17:00:21Z</time>
      </trkpt>
      <trkpt lat="32.741041" lon="-5.715560">
        <ele>846.638</ele>
        <time>2019-10-13T17:01:59Z</time>
      </trkpt>
      <trkpt lat="32.740789" lon="-5.715088">
        <ele>847.570</ele>
        <time>2019-10-13T17:02:15Z</time>
      </trkpt>
      <trkpt lat="32.740537" lon="-5.713802">
        <ele>847.217</ele>
        <time>2019-10-13T17:02:44Z</time>
      </trkpt>
      <trkpt lat="32.739760" lon="-5.712794">
        <ele>843.208</ele>
        <time>2019-10-13T17:03:04Z</time>
      </trkpt>
      <trkpt lat="32.739369" lon="-5.711885">
        <ele>848.487</ele>
        <time>2019-10-13T17:03:34Z</time>
      </trkpt>
      <trkpt lat="32.739510" lon="-5.709768">
        <ele>857.735</ele>
        <time>2019-10-13T17:04:45Z</time>
      </trkpt>
      <trkpt lat="32.742011" lon="-5.701535">
        <ele>896.037</ele>
        <time>2019-10-13T17:09:48Z</time>
      </trkpt>
      <trkpt lat="32.741575" lon="-5.696292">
        <ele>891.926</ele>
        <time>2019-10-13T17:10:56Z</time>
      </trkpt>
      <trkpt lat="32.740766" lon="-5.693603">
        <ele>890.355</ele>
        <time>2019-10-13T17:12:21Z</time>
      </trkpt>
      <trkpt lat="32.740748" lon="-5.692548">
        <ele>885.134</ele>
        <time>2019-10-13T17:12:31Z</time>
      </trkpt>
      <trkpt lat="32.740890" lon="-5.691990">
        <ele>883.625</ele>
        <time>2019-10-13T17:12:37Z</time>
      </trkpt>
      <trkpt lat="32.745338" lon="-5.686150">
        <ele>864.479</ele>
        <time>2019-10-13T17:14:00Z</time>
      </trkpt>
      <trkpt lat="32.746299" lon="-5.685687">
        <ele>859.439</ele>
        <time>2019-10-13T17:14:11Z</time>
      </trkpt>
      <trkpt lat="32.747946" lon="-5.685708">
        <ele>852.601</ele>
        <time>2019-10-13T17:14:31Z</time>
      </trkpt>
      <trkpt lat="32.748722" lon="-5.685538">
        <ele>851.421</ele>
        <time>2019-10-13T17:14:44Z</time>
      </trkpt>
      <trkpt lat="32.749601" lon="-5.685120">
        <ele>850.008</ele>
        <time>2019-10-13T17:15:04Z</time>
      </trkpt>
      <trkpt lat="32.750716" lon="-5.684201">
        <ele>853.337</ele>
        <time>2019-10-13T17:15:26Z</time>
      </trkpt>
      <trkpt lat="32.751151" lon="-5.683580">
        <ele>854.015</ele>
        <time>2019-10-13T17:15:39Z</time>
      </trkpt>
      <trkpt lat="32.751914" lon="-5.681559">
        <ele>860.737</ele>
        <time>2019-10-13T17:16:32Z</time>
      </trkpt>
      <trkpt lat="32.754235" lon="-5.678117">
        <ele>870.736</ele>
        <time>2019-10-13T17:18:17Z</time>
      </trkpt>
      <trkpt lat="32.755184" lon="-5.676279">
        <ele>873.675</ele>
        <time>2019-10-13T17:19:02Z</time>
      </trkpt>
      <trkpt lat="32.757415" lon="-5.674603">
        <ele>878.924</ele>
        <time>2019-10-13T17:20:04Z</time>
      </trkpt>
      <trkpt lat="32.758861" lon="-5.673768">
        <ele>883.735</ele>
        <time>2019-10-13T17:20:43Z</time>
      </trkpt>
      <trkpt lat="32.764490" lon="-5.667596">
        <ele>892.719</ele>
        <time>2019-10-13T17:23:51Z</time>
      </trkpt>
      <trkpt lat="32.764944" lon="-5.667398">
        <ele>890.367</ele>
        <time>2019-10-13T17:23:59Z</time>
      </trkpt>
      <trkpt lat="32.767431" lon="-5.667295">
        <ele>885.881</ele>
        <time>2019-10-13T17:24:41Z</time>
      </trkpt>
      <trkpt lat="32.768622" lon="-5.667039">
        <ele>880.619</ele>
        <time>2019-10-13T17:24:58Z</time>
      </trkpt>
      <trkpt lat="32.769576" lon="-5.667342">
        <ele>878.108</ele>
        <time>2019-10-13T17:25:12Z</time>
      </trkpt>
      <trkpt lat="32.769936" lon="-5.667290">
        <ele>878.830</ele>
        <time>2019-10-13T17:25:21Z</time>
      </trkpt>
      <trkpt lat="32.771595" lon="-5.664982">
        <ele>897.678</ele>
        <time>2019-10-13T17:26:58Z</time>
      </trkpt>
      <trkpt lat="32.774002" lon="-5.663478">
        <ele>906.560</ele>
        <time>2019-10-13T17:28:36Z</time>
      </trkpt>
      <trkpt lat="32.774754" lon="-5.663556">
        <ele>910.229</ele>
        <time>2019-10-13T17:29:02Z</time>
      </trkpt>
      <trkpt lat="32.775992" lon="-5.663293">
        <ele>913.228</ele>
        <time>2019-10-13T17:29:57Z</time>
      </trkpt>
      <trkpt lat="32.776443" lon="-5.663478">
        <ele>914.927</ele>
        <time>2019-10-13T17:30:15Z</time>
      </trkpt>
      <trkpt lat="32.777158" lon="-5.664145">
        <ele>918.928</ele>
        <time>2019-10-13T17:30:45Z</time>
      </trkpt>
      <trkpt lat="32.777646" lon="-5.664059">
        <ele>920.042</ele>
        <time>2019-10-13T17:31:03Z</time>
      </trkpt>
      <trkpt lat="32.777834" lon="-5.663725">
        <ele>921.857</ele>
        <time>2019-10-13T17:31:15Z</time>
      </trkpt>
      <trkpt lat="32.777846" lon="-5.663157">
        <ele>924.000</ele>
        <time>2019-10-13T17:31:33Z</time>
      </trkpt>
      <trkpt lat="32.777674" lon="-5.662626">
        <ele>926.420</ele>
        <time>2019-10-13T17:31:49Z</time>
      </trkpt>
      <trkpt lat="32.777078" lon="-5.661673">
        <ele>929.008</ele>
        <time>2019-10-13T17:32:50Z</time>
      </trkpt>
      <trkpt lat="32.777124" lon="-5.661115">
        <ele>931.289</ele>
        <time>2019-10-13T17:33:04Z</time>
      </trkpt>
      <trkpt lat="32.777369" lon="-5.660873">
        <ele>932.547</ele>
        <time>2019-10-13T17:33:14Z</time>
      </trkpt>
      <trkpt lat="32.778020" lon="-5.660614">
        <ele>935.379</ele>
        <time>2019-10-13T17:33:39Z</time>
      </trkpt>
      <trkpt lat="32.778214" lon="-5.660322">
        <ele>937.388</ele>
        <time>2019-10-13T17:36:40Z</time>
      </trkpt>
      <trkpt lat="32.778164" lon="-5.661006">
        <ele>937.677</ele>
        <time>2019-10-13T17:37:10Z</time>
      </trkpt>
      <trkpt lat="32.777994" lon="-5.660640">
        <ele>938.176</ele>
        <time>2019-10-13T17:40:09Z</time>
      </trkpt>
      <trkpt lat="32.778125" lon="-5.661201">
        <ele>938.337</ele>
        <time>2019-10-13T17:40:10Z</time>
      </trkpt>
      <trkpt lat="32.778357" lon="-5.659821">
        <ele>938.681</ele>
        <time>2019-10-13T17:41:28Z</time>
      </trkpt>
      <trkpt lat="32.778664" lon="-5.659346">
        <ele>939.772</ele>
        <time>2019-10-13T17:41:43Z</time>
      </trkpt>
      <trkpt lat="32.779888" lon="-5.658889">
        <ele>941.913</ele>
        <time>2019-10-13T17:42:18Z</time>
      </trkpt>
      <trkpt lat="32.781164" lon="-5.658748">
        <ele>953.514</ele>
        <time>2019-10-13T17:42:56Z</time>
      </trkpt>
      <trkpt lat="32.781785" lon="-5.658317">
        <ele>958.008</ele>
        <time>2019-10-13T17:43:18Z</time>
      </trkpt>
      <trkpt lat="32.782117" lon="-5.657574">
        <ele>952.151</ele>
        <time>2019-10-13T17:43:44Z</time>
      </trkpt>
      <trkpt lat="32.782243" lon="-5.656755">
        <ele>950.119</ele>
        <time>2019-10-13T17:49:39Z</time>
      </trkpt>
      <trkpt lat="32.782352" lon="-5.655374">
        <ele>942.531</ele>
        <time>2019-10-13T17:50:12Z</time>
      </trkpt>
      <trkpt lat="32.782111" lon="-5.655213">
        <ele>936.380</ele>
        <time>2019-10-13T17:58:41Z</time>
      </trkpt>
      <trkpt lat="32.782400" lon="-5.655238">
        <ele>932.834</ele>
        <time>2019-10-14T10:44:18Z</time>
      </trkpt>
      <trkpt lat="32.782638" lon="-5.653894">
        <ele>929.055</ele>
        <time>2019-10-14T10:45:40Z</time>
      </trkpt>
      <trkpt lat="32.783640" lon="-5.652863">
        <ele>926.710</ele>
        <time>2019-10-14T10:46:48Z</time>
      </trkpt>
      <trkpt lat="32.784426" lon="-5.651080">
        <ele>924.808</ele>
        <time>2019-10-14T10:47:48Z</time>
      </trkpt>
      <trkpt lat="32.783896" lon="-5.650353">
        <ele>920.187</ele>
        <time>2019-10-14T10:48:14Z</time>
      </trkpt>
      <trkpt lat="32.782757" lon="-5.650509">
        <ele>920.515</ele>
        <time>2019-10-14T10:49:22Z</time>
      </trkpt>
      <trkpt lat="32.780750" lon="-5.650306">
        <ele>911.697</ele>
        <time>2019-10-14T10:50:36Z</time>
      </trkpt>
      <trkpt lat="32.779999" lon="-5.650819">
        <ele>899.859</ele>
        <time>2019-10-14T10:50:58Z</time>
      </trkpt>
      <trkpt lat="32.779815" lon="-5.651296">
        <ele>898.160</ele>
        <time>2019-10-14T10:51:16Z</time>
      </trkpt>
      <trkpt lat="32.779520" lon="-5.651461">
        <ele>900.117</ele>
        <time>2019-10-14T10:51:31Z</time>
      </trkpt>
      <trkpt lat="32.777659" lon="-5.650854">
        <ele>903.874</ele>
        <time>2019-10-14T10:52:41Z</time>
      </trkpt>
      <trkpt lat="32.777434" lon="-5.650295">
        <ele>903.716</ele>
        <time>2019-10-14T10:52:56Z</time>
      </trkpt>
      <trkpt lat="32.777118" lon="-5.648174">
        <ele>905.546</ele>
        <time>2019-10-14T10:53:42Z</time>
      </trkpt>
      <trkpt lat="32.776850" lon="-5.647451">
        <ele>905.988</ele>
        <time>2019-10-14T10:53:58Z</time>
      </trkpt>
      <trkpt lat="32.775537" lon="-5.645022">
        <ele>912.716</ele>
        <time>2019-10-14T10:55:03Z</time>
      </trkpt>
      <trkpt lat="32.772827" lon="-5.639353">
        <ele>917.508</ele>
        <time>2019-10-14T10:57:24Z</time>
      </trkpt>
      <trkpt lat="32.769358" lon="-5.634394">
        <ele>927.938</ele>
        <time>2019-10-14T11:01:17Z</time>
      </trkpt>
      <trkpt lat="32.765901" lon="-5.627880">
        <ele>944.666</ele>
        <time>2019-10-14T11:04:14Z</time>
      </trkpt>
      <trkpt lat="32.765042" lon="-5.626598">
        <ele>945.448</ele>
        <time>2019-10-14T11:07:11Z</time>
      </trkpt>
      <trkpt lat="32.764131" lon="-5.625612">
        <ele>949.050</ele>
        <time>2019-10-14T11:07:49Z</time>
      </trkpt>
      <trkpt lat="32.760753" lon="-5.619764">
        <ele>972.921</ele>
        <time>2019-10-14T11:11:30Z</time>
      </trkpt>
      <trkpt lat="32.759469" lon="-5.617845">
        <ele>984.988</ele>
        <time>2019-10-14T11:13:08Z</time>
      </trkpt>
      <trkpt lat="32.759313" lon="-5.617435">
        <ele>988.655</ele>
        <time>2019-10-14T11:13:27Z</time>
      </trkpt>
      <trkpt lat="32.757257" lon="-5.603838">
        <ele>1014.587</ele>
        <time>2019-10-14T11:19:21Z</time>
      </trkpt>
      <trkpt lat="32.756818" lon="-5.598266">
        <ele>1012.749</ele>
        <time>2019-10-14T11:22:36Z</time>
      </trkpt>
      <trkpt lat="32.756512" lon="-5.596882">
        <ele>1007.202</ele>
        <time>2019-10-14T11:22:47Z</time>
      </trkpt>
      <trkpt lat="32.755193" lon="-5.594013">
        <ele>992.222</ele>
        <time>2019-10-14T11:23:08Z</time>
      </trkpt>
      <trkpt lat="32.753390" lon="-5.590628">
        <ele>1000.708</ele>
        <time>2019-10-14T11:24:43Z</time>
      </trkpt>
      <trkpt lat="32.752481" lon="-5.586183">
        <ele>1015.898</ele>
        <time>2019-10-14T11:27:24Z</time>
      </trkpt>
      <trkpt lat="32.751578" lon="-5.582850">
        <ele>1014.326</ele>
        <time>2019-10-14T11:33:44Z</time>
      </trkpt>
      <trkpt lat="32.750688" lon="-5.581450">
        <ele>1008.628</ele>
        <time>2019-10-14T11:36:19Z</time>
      </trkpt>
      <trkpt lat="32.746773" lon="-5.576348">
        <ele>986.750</ele>
        <time>2019-10-14T11:37:43Z</time>
      </trkpt>
      <trkpt lat="32.744378" lon="-5.574194">
        <ele>987.641</ele>
        <time>2019-10-14T11:39:26Z</time>
      </trkpt>
      <trkpt lat="32.744480" lon="-5.574381">
        <ele>988.498</ele>
        <time>2019-10-14T11:39:33Z</time>
      </trkpt>
      <trkpt lat="32.744402" lon="-5.574583">
        <ele>987.735</ele>
        <time>2019-10-14T11:39:47Z</time>
      </trkpt>
      <trkpt lat="32.744428" lon="-5.574304">
        <ele>986.477</ele>
        <time>2019-10-14T11:40:08Z</time>
      </trkpt>
      <trkpt lat="32.743451" lon="-5.573502">
        <ele>986.897</ele>
        <time>2019-10-14T11:40:49Z</time>
      </trkpt>
      <trkpt lat="32.741561" lon="-5.572529">
        <ele>998.023</ele>
        <time>2019-10-14T11:41:57Z</time>
      </trkpt>
      <trkpt lat="32.740899" lon="-5.572337">
        <ele>1000.825</ele>
        <time>2019-10-14T11:42:21Z</time>
      </trkpt>
      <trkpt lat="32.739978" lon="-5.572308">
        <ele>1002.308</ele>
        <time>2019-10-14T11:42:53Z</time>
      </trkpt>
      <trkpt lat="32.737052" lon="-5.572865">
        <ele>1014.943</ele>
        <time>2019-10-14T11:44:44Z</time>
      </trkpt>
      <trkpt lat="32.735309" lon="-5.572051">
        <ele>1013.771</ele>
        <time>2019-10-14T11:45:37Z</time>
      </trkpt>
      <trkpt lat="32.734409" lon="-5.571937">
        <ele>1016.533</ele>
        <time>2019-10-14T11:46:07Z</time>
      </trkpt>
      <trkpt lat="32.728510" lon="-5.573934">
        <ele>1042.345</ele>
        <time>2019-10-14T11:50:06Z</time>
      </trkpt>
      <trkpt lat="32.726980" lon="-5.575069">
        <ele>1048.416</ele>
        <time>2019-10-14T11:51:20Z</time>
      </trkpt>
      <trkpt lat="32.722595" lon="-5.575842">
        <ele>1076.543</ele>
        <time>2019-10-14T11:55:02Z</time>
      </trkpt>
      <trkpt lat="32.721313" lon="-5.577101">
        <ele>1090.460</ele>
        <time>2019-10-14T11:56:50Z</time>
      </trkpt>
      <trkpt lat="32.720498" lon="-5.577291">
        <ele>1094.692</ele>
        <time>2019-10-14T11:57:40Z</time>
      </trkpt>
      <trkpt lat="32.719679" lon="-5.578106">
        <ele>1103.631</ele>
        <time>2019-10-14T11:58:42Z</time>
      </trkpt>
      <trkpt lat="32.719144" lon="-5.578183">
        <ele>1107.561</ele>
        <time>2019-10-14T11:59:17Z</time>
      </trkpt>
      <trkpt lat="32.718777" lon="-5.577784">
        <ele>1112.307</ele>
        <time>2019-10-14T12:00:33Z</time>
      </trkpt>
      <trkpt lat="32.718770" lon="-5.577150">
        <ele>1120.608</ele>
        <time>2019-10-14T12:01:10Z</time>
      </trkpt>
      <trkpt lat="32.721039" lon="-5.573928">
        <ele>1143.787</ele>
        <time>2019-10-14T12:10:14Z</time>
      </trkpt>
      <trkpt lat="32.720945" lon="-5.573312">
        <ele>1150.955</ele>
        <time>2019-10-14T12:10:48Z</time>
      </trkpt>
      <trkpt lat="32.720707" lon="-5.573068">
        <ele>1152.577</ele>
        <time>2019-10-14T12:11:09Z</time>
      </trkpt>
      <trkpt lat="32.720410" lon="-5.573030">
        <ele>1154.229</ele>
        <time>2019-10-14T12:11:30Z</time>
      </trkpt>
      <trkpt lat="32.719268" lon="-5.574323">
        <ele>1160.960</ele>
        <time>2019-10-14T12:20:15Z</time>
      </trkpt>
      <trkpt lat="32.718785" lon="-5.574580">
        <ele>1164.397</ele>
        <time>2019-10-14T12:20:51Z</time>
      </trkpt>
      <trkpt lat="32.718586" lon="-5.574609">
        <ele>1164.544</ele>
        <time>2019-10-14T12:22:09Z</time>
      </trkpt>
      <trkpt lat="32.718556" lon="-5.574477">
        <ele>1166.576</ele>
        <time>2019-10-14T12:24:30Z</time>
      </trkpt>
      <trkpt lat="32.718573" lon="-5.574583">
        <ele>1165.574</ele>
        <time>2019-10-14T12:25:02Z</time>
      </trkpt>
      <trkpt lat="32.718879" lon="-5.574492">
        <ele>1166.756</ele>
        <time>2019-10-14T12:26:24Z</time>
      </trkpt>
      <trkpt lat="32.718817" lon="-5.574572">
        <ele>1167.321</ele>
        <time>2019-10-14T12:26:30Z</time>
      </trkpt>
      <trkpt lat="32.715750" lon="-5.574984">
        <ele>1191.808</ele>
        <time>2019-10-14T12:31:43Z</time>
      </trkpt>
      <trkpt lat="32.711903" lon="-5.576026">
        <ele>1218.541</ele>
        <time>2019-10-14T12:36:31Z</time>
      </trkpt>
      <trkpt lat="32.711552" lon="-5.576520">
        <ele>1224.189</ele>
        <time>2019-10-14T12:37:00Z</time>
      </trkpt>
      <trkpt lat="32.711501" lon="-5.577915">
        <ele>1229.831</ele>
        <time>2019-10-14T12:40:56Z</time>
      </trkpt>
      <trkpt lat="32.711317" lon="-5.578356">
        <ele>1232.033</ele>
        <time>2019-10-14T12:41:15Z</time>
      </trkpt>
      <trkpt lat="32.710908" lon="-5.578659">
        <ele>1234.664</ele>
        <time>2019-10-14T12:41:39Z</time>
      </trkpt>
      <trkpt lat="32.709806" lon="-5.578734">
        <ele>1240.191</ele>
        <time>2019-10-14T12:42:45Z</time>
      </trkpt>
      <trkpt lat="32.708421" lon="-5.579285">
        <ele>1250.618</ele>
        <time>2019-10-14T12:44:11Z</time>
      </trkpt>
      <trkpt lat="32.707007" lon="-5.581461">
        <ele>1268.550</ele>
        <time>2019-10-14T12:46:32Z</time>
      </trkpt>
      <trkpt lat="32.706376" lon="-5.581732">
        <ele>1273.179</ele>
        <time>2019-10-14T12:47:14Z</time>
      </trkpt>
      <trkpt lat="32.705728" lon="-5.581462">
        <ele>1275.305</ele>
        <time>2019-10-14T12:48:41Z</time>
      </trkpt>
      <trkpt lat="32.705319" lon="-5.579924">
        <ele>1291.625</ele>
        <time>2019-10-14T12:50:24Z</time>
      </trkpt>
      <trkpt lat="32.704978" lon="-5.579474">
        <ele>1293.508</ele>
        <time>2019-10-14T12:50:50Z</time>
      </trkpt>
      <trkpt lat="32.704471" lon="-5.579312">
        <ele>1294.871</ele>
        <time>2019-10-14T12:51:15Z</time>
      </trkpt>
      <trkpt lat="32.703626" lon="-5.579794">
        <ele>1306.159</ele>
        <time>2019-10-14T12:52:20Z</time>
      </trkpt>
      <trkpt lat="32.703322" lon="-5.579813">
        <ele>1306.291</ele>
        <time>2019-10-14T12:52:34Z</time>
      </trkpt>
      <trkpt lat="32.702487" lon="-5.579597">
        <ele>1309.923</ele>
        <time>2019-10-14T12:53:15Z</time>
      </trkpt>
      <trkpt lat="32.700951" lon="-5.578765">
        <ele>1321.794</ele>
        <time>2019-10-14T12:54:55Z</time>
      </trkpt>
      <trkpt lat="32.699820" lon="-5.577753">
        <ele>1331.361</ele>
        <time>2019-10-14T12:56:19Z</time>
      </trkpt>
      <trkpt lat="32.699255" lon="-5.576390">
        <ele>1343.078</ele>
        <time>2019-10-14T13:01:12Z</time>
      </trkpt>
      <trkpt lat="32.698842" lon="-5.575829">
        <ele>1348.620</ele>
        <time>2019-10-14T13:01:53Z</time>
      </trkpt>
      <trkpt lat="32.696931" lon="-5.574518">
        <ele>1362.029</ele>
        <time>2019-10-14T13:04:05Z</time>
      </trkpt>
      <trkpt lat="32.693923" lon="-5.574179">
        <ele>1369.100</ele>
        <time>2019-10-14T13:06:34Z</time>
      </trkpt>
      <trkpt lat="32.692653" lon="-5.573374">
        <ele>1371.120</ele>
        <time>2019-10-14T13:07:10Z</time>
      </trkpt>
      <trkpt lat="32.692332" lon="-5.573306">
        <ele>1370.908</ele>
        <time>2019-10-14T13:07:17Z</time>
      </trkpt>
      <trkpt lat="32.691699" lon="-5.573667">
        <ele>1372.296</ele>
        <time>2019-10-14T13:07:34Z</time>
      </trkpt>
      <trkpt lat="32.691163" lon="-5.574544">
        <ele>1377.084</ele>
        <time>2019-10-14T13:08:13Z</time>
      </trkpt>
      <trkpt lat="32.690598" lon="-5.574778">
        <ele>1379.026</ele>
        <time>2019-10-14T13:08:43Z</time>
      </trkpt>
      <trkpt lat="32.689812" lon="-5.574385">
        <ele>1387.048</ele>
        <time>2019-10-14T13:09:55Z</time>
      </trkpt>
      <trkpt lat="32.688981" lon="-5.573570">
        <ele>1394.439</ele>
        <time>2019-10-14T13:11:04Z</time>
      </trkpt>
      <trkpt lat="32.688672" lon="-5.572894">
        <ele>1400.986</ele>
        <time>2019-10-14T13:12:54Z</time>
      </trkpt>
      <trkpt lat="32.688625" lon="-5.572368">
        <ele>1403.563</ele>
        <time>2019-10-14T13:13:16Z</time>
      </trkpt>
      <trkpt lat="32.688827" lon="-5.571221">
        <ele>1404.615</ele>
        <time>2019-10-14T13:13:48Z</time>
      </trkpt>
      <trkpt lat="32.689615" lon="-5.568790">
        <ele>1415.325</ele>
        <time>2019-10-14T13:15:25Z</time>
      </trkpt>
      <trkpt lat="32.689550" lon="-5.568007">
        <ele>1422.426</ele>
        <time>2019-10-14T13:16:05Z</time>
      </trkpt>
      <trkpt lat="32.689159" lon="-5.567560">
        <ele>1426.608</ele>
        <time>2019-10-14T13:16:39Z</time>
      </trkpt>
      <trkpt lat="32.688033" lon="-5.567260">
        <ele>1437.008</ele>
        <time>2019-10-14T13:17:52Z</time>
      </trkpt>
      <trkpt lat="32.687860" lon="-5.567342">
        <ele>1433.496</ele>
        <time>2019-10-14T13:55:49Z</time>
      </trkpt>
      <trkpt lat="32.687907" lon="-5.567181">
        <ele>1433.754</ele>
        <time>2019-10-14T13:56:28Z</time>
      </trkpt>
      <trkpt lat="32.687500" lon="-5.566293">
        <ele>1435.086</ele>
        <time>2019-10-14T13:56:51Z</time>
      </trkpt>
      <trkpt lat="32.686660" lon="-5.565797">
        <ele>1433.568</ele>
        <time>2019-10-14T13:57:52Z</time>
      </trkpt>
      <trkpt lat="32.685441" lon="-5.563621">
        <ele>1436.079</ele>
        <time>2019-10-14T13:58:53Z</time>
      </trkpt>
      <trkpt lat="32.684986" lon="-5.562034">
        <ele>1438.726</ele>
        <time>2019-10-14T14:08:50Z</time>
      </trkpt>
      <trkpt lat="32.683474" lon="-5.560418">
        <ele>1442.643</ele>
        <time>2019-10-14T14:10:08Z</time>
      </trkpt>
      <trkpt lat="32.682568" lon="-5.559797">
        <ele>1445.455</ele>
        <time>2019-10-14T14:10:46Z</time>
      </trkpt>
      <trkpt lat="32.681692" lon="-5.558554">
        <ele>1451.324</ele>
        <time>2019-10-14T14:11:38Z</time>
      </trkpt>
      <trkpt lat="32.680817" lon="-5.557850">
        <ele>1461.104</ele>
        <time>2019-10-14T14:12:28Z</time>
      </trkpt>
      <trkpt lat="32.680608" lon="-5.557411">
        <ele>1464.514</ele>
        <time>2019-10-14T14:12:48Z</time>
      </trkpt>
      <trkpt lat="32.680880" lon="-5.555812">
        <ele>1471.708</ele>
        <time>2019-10-14T14:13:52Z</time>
      </trkpt>
      <trkpt lat="32.680697" lon="-5.554254">
        <ele>1484.266</ele>
        <time>2019-10-14T14:15:05Z</time>
      </trkpt>
      <trkpt lat="32.682204" lon="-5.551528">
        <ele>1505.854</ele>
        <time>2019-10-14T14:17:48Z</time>
      </trkpt>
      <trkpt lat="32.682149" lon="-5.549803">
        <ele>1510.716</ele>
        <time>2019-10-14T14:19:16Z</time>
      </trkpt>
      <trkpt lat="32.682478" lon="-5.549253">
        <ele>1515.778</ele>
        <time>2019-10-14T14:19:51Z</time>
      </trkpt>
      <trkpt lat="32.683457" lon="-5.548731">
        <ele>1520.869</ele>
        <time>2019-10-14T14:22:16Z</time>
      </trkpt>
      <trkpt lat="32.683087" lon="-5.548874">
        <ele>1518.096</ele>
        <time>2019-10-14T14:24:01Z</time>
      </trkpt>
      <trkpt lat="32.683549" lon="-5.548591">
        <ele>1520.673</ele>
        <time>2019-10-14T14:24:51Z</time>
      </trkpt>
      <trkpt lat="32.683911" lon="-5.547845">
        <ele>1522.985</ele>
        <time>2019-10-14T14:25:29Z</time>
      </trkpt>
      <trkpt lat="32.683896" lon="-5.546571">
        <ele>1527.561</ele>
        <time>2019-10-14T14:26:53Z</time>
      </trkpt>
      <trkpt lat="32.684250" lon="-5.544568">
        <ele>1527.621</ele>
        <time>2019-10-14T14:27:42Z</time>
      </trkpt>
      <trkpt lat="32.684228" lon="-5.540019">
        <ele>1538.213</ele>
        <time>2019-10-14T14:34:22Z</time>
      </trkpt>
      <trkpt lat="32.684785" lon="-5.537707">
        <ele>1541.208</ele>
        <time>2019-10-14T14:35:08Z</time>
      </trkpt>
      <trkpt lat="32.684457" lon="-5.534755">
        <ele>1550.260</ele>
        <time>2019-10-14T14:37:36Z</time>
      </trkpt>
      <trkpt lat="32.684958" lon="-5.531760">
        <ele>1574.118</ele>
        <time>2019-10-14T14:39:57Z</time>
      </trkpt>
      <trkpt lat="32.684707" lon="-5.530900">
        <ele>1578.990</ele>
        <time>2019-10-14T14:40:40Z</time>
      </trkpt>
      <trkpt lat="32.683818" lon="-5.529336">
        <ele>1589.572</ele>
        <time>2019-10-14T14:42:04Z</time>
      </trkpt>
      <trkpt lat="32.682876" lon="-5.525800">
        <ele>1609.623</ele>
        <time>2019-10-14T14:44:50Z</time>
      </trkpt>
      <trkpt lat="32.682923" lon="-5.520381">
        <ele>1638.150</ele>
        <time>2019-10-14T14:53:26Z</time>
      </trkpt>
      <trkpt lat="32.682058" lon="-5.517326">
        <ele>1645.987</ele>
        <time>2019-10-14T14:54:51Z</time>
      </trkpt>
      <trkpt lat="32.681144" lon="-5.515778">
        <ele>1660.589</ele>
        <time>2019-10-14T14:56:09Z</time>
      </trkpt>
      <trkpt lat="32.676082" lon="-5.508857">
        <ele>1645.532</ele>
        <time>2019-10-14T14:58:51Z</time>
      </trkpt>
      <trkpt lat="32.675547" lon="-5.508320">
        <ele>1647.692</ele>
        <time>2019-10-14T14:59:07Z</time>
      </trkpt>
      <trkpt lat="32.675097" lon="-5.508065">
        <ele>1651.411</ele>
        <time>2019-10-14T14:59:26Z</time>
      </trkpt>
      <trkpt lat="32.672879" lon="-5.507567">
        <ele>1673.908</ele>
        <time>2019-10-14T15:01:36Z</time>
      </trkpt>
      <trkpt lat="32.670025" lon="-5.504752">
        <ele>1699.387</ele>
        <time>2019-10-14T15:05:18Z</time>
      </trkpt>
      <trkpt lat="32.669318" lon="-5.504345">
        <ele>1706.975</ele>
        <time>2019-10-14T15:06:09Z</time>
      </trkpt>
      <trkpt lat="32.668687" lon="-5.504305">
        <ele>1709.727</ele>
        <time>2019-10-14T15:06:50Z</time>
      </trkpt>
      <trkpt lat="32.666993" lon="-5.504699">
        <ele>1727.249</ele>
        <time>2019-10-14T15:08:40Z</time>
      </trkpt>
      <trkpt lat="32.666217" lon="-5.505850">
        <ele>1732.260</ele>
        <time>2019-10-14T15:09:55Z</time>
      </trkpt>
      <trkpt lat="32.665672" lon="-5.506144">
        <ele>1737.167</ele>
        <time>2019-10-14T15:10:32Z</time>
      </trkpt>
      <trkpt lat="32.665014" lon="-5.505867">
        <ele>1743.524</ele>
        <time>2019-10-14T15:11:16Z</time>
      </trkpt>
      <trkpt lat="32.664665" lon="-5.504975">
        <ele>1751.376</ele>
        <time>2019-10-14T15:12:04Z</time>
      </trkpt>
      <trkpt lat="32.664776" lon="-5.503685">
        <ele>1757.556</ele>
        <time>2019-10-14T15:13:04Z</time>
      </trkpt>
      <trkpt lat="32.665188" lon="-5.503159">
        <ele>1762.759</ele>
        <time>2019-10-14T15:13:30Z</time>
      </trkpt>
      <trkpt lat="32.666071" lon="-5.502526">
        <ele>1768.714</ele>
        <time>2019-10-14T15:15:05Z</time>
      </trkpt>
      <trkpt lat="32.666571" lon="-5.500971">
        <ele>1774.508</ele>
        <time>2019-10-14T15:16:07Z</time>
      </trkpt>
      <trkpt lat="32.667033" lon="-5.500702">
        <ele>1777.679</ele>
        <time>2019-10-14T15:16:27Z</time>
      </trkpt>
      <trkpt lat="32.668253" lon="-5.500739">
        <ele>1779.427</ele>
        <time>2019-10-14T15:17:14Z</time>
      </trkpt>
      <trkpt lat="32.668884" lon="-5.499909">
        <ele>1781.979</ele>
        <time>2019-10-14T15:22:17Z</time>
      </trkpt>
      <trkpt lat="32.669269" lon="-5.498955">
        <ele>1785.161</ele>
        <time>2019-10-14T15:22:53Z</time>
      </trkpt>
      <trkpt lat="32.669290" lon="-5.497989">
        <ele>1788.182</ele>
        <time>2019-10-14T15:23:27Z</time>
      </trkpt>
      <trkpt lat="32.669704" lon="-5.496439">
        <ele>1795.379</ele>
        <time>2019-10-14T15:24:35Z</time>
      </trkpt>
      <trkpt lat="32.670441" lon="-5.495129">
        <ele>1803.696</ele>
        <time>2019-10-14T15:25:43Z</time>
      </trkpt>
      <trkpt lat="32.670654" lon="-5.492197">
        <ele>1818.978</ele>
        <time>2019-10-14T15:27:51Z</time>
      </trkpt>
      <trkpt lat="32.670998" lon="-5.491586">
        <ele>1825.246</ele>
        <time>2019-10-14T15:28:24Z</time>
      </trkpt>
      <trkpt lat="32.671622" lon="-5.491124">
        <ele>1832.288</ele>
        <time>2019-10-14T15:28:59Z</time>
      </trkpt>
      <trkpt lat="32.671993" lon="-5.490176">
        <ele>1833.316</ele>
        <time>2019-10-14T15:29:47Z</time>
      </trkpt>
      <trkpt lat="32.671967" lon="-5.489570">
        <ele>1836.908</ele>
        <time>2019-10-14T15:30:14Z</time>
      </trkpt>
      <trkpt lat="32.671637" lon="-5.489107">
        <ele>1839.578</ele>
        <time>2019-10-14T15:30:41Z</time>
      </trkpt>
      <trkpt lat="32.670352" lon="-5.488729">
        <ele>1851.096</ele>
        <time>2019-10-14T15:31:53Z</time>
      </trkpt>
      <trkpt lat="32.669640" lon="-5.488269">
        <ele>1855.158</ele>
        <time>2019-10-14T15:32:47Z</time>
      </trkpt>
      <trkpt lat="32.669449" lon="-5.487771">
        <ele>1861.290</ele>
        <time>2019-10-14T15:33:17Z</time>
      </trkpt>
      <trkpt lat="32.669484" lon="-5.486985">
        <ele>1866.631</ele>
        <time>2019-10-14T15:33:57Z</time>
      </trkpt>
      <trkpt lat="32.670662" lon="-5.484785">
        <ele>1866.548</ele>
        <time>2019-10-14T15:34:59Z</time>
      </trkpt>
      <trkpt lat="32.671239" lon="-5.479627">
        <ele>1875.655</ele>
        <time>2019-10-14T15:37:24Z</time>
      </trkpt>
      <trkpt lat="32.672867" lon="-5.474670">
        <ele>1878.257</ele>
        <time>2019-10-14T15:39:54Z</time>
      </trkpt>
      <trkpt lat="32.673095" lon="-5.474054">
        <ele>1881.933</ele>
        <time>2019-10-14T15:40:10Z</time>
      </trkpt>
      <trkpt lat="32.674138" lon="-5.472681">
        <ele>1894.923</ele>
        <time>2019-10-14T15:41:32Z</time>
      </trkpt>
      <trkpt lat="32.674631" lon="-5.471624">
        <ele>1905.215</ele>
        <time>2019-10-14T15:42:32Z</time>
      </trkpt>
      <trkpt lat="32.674798" lon="-5.470954">
        <ele>1906.408</ele>
        <time>2019-10-14T15:43:05Z</time>
      </trkpt>
      <trkpt lat="32.675050" lon="-5.467452">
        <ele>1914.187</ele>
        <time>2019-10-14T15:44:53Z</time>
      </trkpt>
      <trkpt lat="32.675616" lon="-5.466047">
        <ele>1914.035</ele>
        <time>2019-10-14T15:45:21Z</time>
      </trkpt>
      <trkpt lat="32.676291" lon="-5.465014">
        <ele>1916.597</ele>
        <time>2019-10-14T15:45:46Z</time>
      </trkpt>
      <trkpt lat="32.676392" lon="-5.463071">
        <ele>1921.029</ele>
        <time>2019-10-14T15:46:54Z</time>
      </trkpt>
      <trkpt lat="32.677150" lon="-5.460479">
        <ele>1940.390</ele>
        <time>2019-10-14T15:49:00Z</time>
      </trkpt>
      <trkpt lat="32.676980" lon="-5.459636">
        <ele>1943.937</ele>
        <time>2019-10-14T15:49:35Z</time>
      </trkpt>
      <trkpt lat="32.676560" lon="-5.458650">
        <ele>1948.214</ele>
        <time>2019-10-14T15:50:19Z</time>
      </trkpt>
      <trkpt lat="32.676784" lon="-5.457332">
        <ele>1973.766</ele>
        <time>2019-10-14T15:53:01Z</time>
      </trkpt>
      <trkpt lat="32.676572" lon="-5.456845">
        <ele>2005.324</ele>
        <time>2019-10-14T15:53:23Z</time>
      </trkpt>
      <trkpt lat="32.675525" lon="-5.455752">
        <ele>2015.604</ele>
        <time>2019-10-14T16:00:07Z</time>
      </trkpt>
      <trkpt lat="32.675267" lon="-5.455676">
        <ele>2015.414</ele>
        <time>2019-10-14T16:04:28Z</time>
      </trkpt>
      <trkpt lat="32.673691" lon="-5.454411">
        <ele>2016.108</ele>
        <time>2019-10-14T16:05:07Z</time>
      </trkpt>
      <trkpt lat="32.672493" lon="-5.453268">
        <ele>2011.746</ele>
        <time>2019-10-14T16:05:27Z</time>
      </trkpt>
      <trkpt lat="32.670860" lon="-5.451328">
        <ele>2002.154</ele>
        <time>2019-10-14T16:05:54Z</time>
      </trkpt>
      <trkpt lat="32.670324" lon="-5.450137">
        <ele>2003.836</ele>
        <time>2019-10-14T16:06:23Z</time>
      </trkpt>
      <trkpt lat="32.669463" lon="-5.445665">
        <ele>1997.838</ele>
        <time>2019-10-14T16:07:19Z</time>
      </trkpt>
      <trkpt lat="32.668766" lon="-5.443059">
        <ele>1996.499</ele>
        <time>2019-10-14T16:07:46Z</time>
      </trkpt>
      <trkpt lat="32.667867" lon="-5.440645">
        <ele>1991.736</ele>
        <time>2019-10-14T16:08:06Z</time>
      </trkpt>
      <trkpt lat="32.667779" lon="-5.439601">
        <ele>1990.513</ele>
        <time>2019-10-14T16:08:14Z</time>
      </trkpt>
      <trkpt lat="32.668003" lon="-5.436755">
        <ele>1983.035</ele>
        <time>2019-10-14T16:08:33Z</time>
      </trkpt>
      <trkpt lat="32.667627" lon="-5.434022">
        <ele>1970.968</ele>
        <time>2019-10-14T16:08:50Z</time>
      </trkpt>
      <trkpt lat="32.666491" lon="-5.429991">
        <ele>1956.542</ele>
        <time>2019-10-14T16:09:17Z</time>
      </trkpt>
      <trkpt lat="32.666570" lon="-5.427645">
        <ele>1948.126</ele>
        <time>2019-10-14T16:09:32Z</time>
      </trkpt>
      <trkpt lat="32.666345" lon="-5.426545">
        <ele>1940.708</ele>
        <time>2019-10-14T16:09:39Z</time>
      </trkpt>
      <trkpt lat="32.663788" lon="-5.422355">
        <ele>1929.960</ele>
        <time>2019-10-14T16:10:13Z</time>
      </trkpt>
      <trkpt lat="32.662789" lon="-5.421045">
        <ele>1927.668</ele>
        <time>2019-10-14T16:10:25Z</time>
      </trkpt>
      <trkpt lat="32.661108" lon="-5.419563">
        <ele>1937.290</ele>
        <time>2019-10-14T16:11:24Z</time>
      </trkpt>
      <trkpt lat="32.659309" lon="-5.416866">
        <ele>1927.722</ele>
        <time>2019-10-14T16:12:58Z</time>
      </trkpt>
      <trkpt lat="32.658906" lon="-5.411802">
        <ele>1900.533</ele>
        <time>2019-10-14T16:13:47Z</time>
      </trkpt>
      <trkpt lat="32.659742" lon="-5.407961">
        <ele>1880.360</ele>
        <time>2019-10-14T16:14:12Z</time>
      </trkpt>
      <trkpt lat="32.659106" lon="-5.404804">
        <ele>1872.327</ele>
        <time>2019-10-14T16:14:37Z</time>
      </trkpt>
      <trkpt lat="32.659276" lon="-5.398111">
        <ele>1848.869</ele>
        <time>2019-10-14T16:15:26Z</time>
      </trkpt>
      <trkpt lat="32.658989" lon="-5.397324">
        <ele>1846.375</ele>
        <time>2019-10-14T16:15:33Z</time>
      </trkpt>
      <trkpt lat="32.658500" lon="-5.396713">
        <ele>1843.728</ele>
        <time>2019-10-14T16:15:40Z</time>
      </trkpt>
      <trkpt lat="32.656966" lon="-5.396115">
        <ele>1841.320</ele>
        <time>2019-10-14T16:15:55Z</time>
      </trkpt>
      <trkpt lat="32.656536" lon="-5.395759">
        <ele>1841.508</ele>
        <time>2019-10-14T16:16:00Z</time>
      </trkpt>
      <trkpt lat="32.656201" lon="-5.395220">
        <ele>1841.231</ele>
        <time>2019-10-14T16:16:05Z</time>
      </trkpt>
      <trkpt lat="32.654345" lon="-5.389688">
        <ele>1827.539</ele>
        <time>2019-10-14T16:16:57Z</time>
      </trkpt>
      <trkpt lat="32.652666" lon="-5.383372">
        <ele>1812.231</ele>
        <time>2019-10-14T16:17:54Z</time>
      </trkpt>
      <trkpt lat="32.652598" lon="-5.382106">
        <ele>1815.023</ele>
        <time>2019-10-14T16:18:08Z</time>
      </trkpt>
      <trkpt lat="32.652801" lon="-5.381327">
        <ele>1817.034</ele>
        <time>2019-10-14T16:18:18Z</time>
      </trkpt>
      <trkpt lat="32.653445" lon="-5.380207">
        <ele>1821.841</ele>
        <time>2019-10-14T16:18:43Z</time>
      </trkpt>
      <trkpt lat="32.659123" lon="-5.373332">
        <ele>1828.488</ele>
        <time>2019-10-14T16:22:45Z</time>
      </trkpt>
      <trkpt lat="32.660493" lon="-5.371213">
        <ele>1842.520</ele>
        <time>2019-10-14T16:24:40Z</time>
      </trkpt>
      <trkpt lat="32.661980" lon="-5.366613">
        <ele>1823.448</ele>
        <time>2019-10-14T16:25:56Z</time>
      </trkpt>
      <trkpt lat="32.663138" lon="-5.363667">
        <ele>1808.661</ele>
        <time>2019-10-14T16:26:21Z</time>
      </trkpt>
      <trkpt lat="32.663626" lon="-5.359416">
        <ele>1792.017</ele>
        <time>2019-10-14T16:26:52Z</time>
      </trkpt>
      <trkpt lat="32.666768" lon="-5.351199">
        <ele>1794.308</ele>
        <time>2019-10-14T16:29:57Z</time>
      </trkpt>
      <trkpt lat="32.669192" lon="-5.344194">
        <ele>1806.558</ele>
        <time>2019-10-14T16:33:09Z</time>
      </trkpt>
      <trkpt lat="32.671533" lon="-5.338493">
        <ele>1784.196</ele>
        <time>2019-10-14T16:34:10Z</time>
      </trkpt>
      <trkpt lat="32.672376" lon="-5.337059">
        <ele>1777.378</ele>
        <time>2019-10-14T16:34:27Z</time>
      </trkpt>
      <trkpt lat="32.673939" lon="-5.335074">
        <ele>1764.910</ele>
        <time>2019-10-14T16:34:54Z</time>
      </trkpt>
      <trkpt lat="32.676505" lon="-5.330540">
        <ele>1750.481</ele>
        <time>2019-10-14T16:36:55Z</time>
      </trkpt>
      <trkpt lat="32.677481" lon="-5.327512">
        <ele>1756.868</ele>
        <time>2019-10-14T16:38:07Z</time>
      </trkpt>
      <trkpt lat="32.679199" lon="-5.324633">
        <ele>1766.535</ele>
        <time>2019-10-14T16:39:46Z</time>
      </trkpt>
      <trkpt lat="32.680611" lon="-5.321451">
        <ele>1770.787</ele>
        <time>2019-10-14T16:41:45Z</time>
      </trkpt>
      <trkpt lat="32.681434" lon="-5.318679">
        <ele>1766.119</ele>
        <time>2019-10-14T16:42:27Z</time>
      </trkpt>
      <trkpt lat="32.683072" lon="-5.310963">
        <ele>1737.109</ele>
        <time>2019-10-14T16:43:44Z</time>
      </trkpt>
      <trkpt lat="32.683145" lon="-5.309801">
        <ele>1735.119</ele>
        <time>2019-10-14T16:43:58Z</time>
      </trkpt>
      <trkpt lat="32.682938" lon="-5.308745">
        <ele>1735.608</ele>
        <time>2019-10-14T16:44:13Z</time>
      </trkpt>
      <trkpt lat="32.680131" lon="-5.303423">
        <ele>1750.025</ele>
        <time>2019-10-14T16:46:32Z</time>
      </trkpt>
      <trkpt lat="32.678090" lon="-5.296544">
        <ele>1733.113</ele>
        <time>2019-10-14T16:49:58Z</time>
      </trkpt>
      <trkpt lat="32.678643" lon="-5.298210">
        <ele>1740.265</ele>
        <time>2019-10-14T16:51:23Z</time>
      </trkpt>
      <trkpt lat="32.678653" lon="-5.298099">
        <ele>1743.647</ele>
        <time>2019-10-14T16:53:58Z</time>
      </trkpt>
      <trkpt lat="32.678560" lon="-5.298154">
        <ele>1732.498</ele>
        <time>2019-10-14T17:39:48Z</time>
      </trkpt>
      <trkpt lat="32.676566" lon="-5.291509">
        <ele>1713.315</ele>
        <time>2019-10-14T17:41:52Z</time>
      </trkpt>
      <trkpt lat="32.674371" lon="-5.286574">
        <ele>1714.362</ele>
        <time>2019-10-14T17:42:53Z</time>
      </trkpt>
      <trkpt lat="32.673980" lon="-5.285253">
        <ele>1719.454</ele>
        <time>2019-10-14T17:43:26Z</time>
      </trkpt>
      <trkpt lat="32.673902" lon="-5.284361">
        <ele>1725.258</ele>
        <time>2019-10-14T17:43:50Z</time>
      </trkpt>
      <trkpt lat="32.674217" lon="-5.271798">
        <ele>1742.352</ele>
        <time>2019-10-14T17:47:23Z</time>
      </trkpt>
      <trkpt lat="32.673822" lon="-5.260309">
        <ele>1720.117</ele>
        <time>2019-10-14T17:49:19Z</time>
      </trkpt>
      <trkpt lat="32.678707" lon="-5.243864">
        <ele>1728.208</ele>
        <time>2019-10-14T17:53:43Z</time>
      </trkpt>
      <trkpt lat="32.678709" lon="-5.241175">
        <ele>1737.049</ele>
        <time>2019-10-14T17:54:54Z</time>
      </trkpt>
      <trkpt lat="32.678391" lon="-5.237972">
        <ele>1728.627</ele>
        <time>2019-10-14T17:59:31Z</time>
      </trkpt>
      <trkpt lat="32.678534" lon="-5.236830">
        <ele>1723.599</ele>
        <time>2019-10-14T17:59:41Z</time>
      </trkpt>
      <trkpt lat="32.679144" lon="-5.234765">
        <ele>1713.421</ele>
        <time>2019-10-14T17:59:57Z</time>
      </trkpt>
      <trkpt lat="32.679309" lon="-5.233615">
        <ele>1708.682</ele>
        <time>2019-10-14T18:00:05Z</time>
      </trkpt>
      <trkpt lat="32.679081" lon="-5.228994">
        <ele>1685.179</ele>
        <time>2019-10-14T18:01:18Z</time>
      </trkpt>
      <trkpt lat="32.679428" lon="-5.227536">
        <ele>1677.586</ele>
        <time>2019-10-14T18:01:29Z</time>
      </trkpt>
      <trkpt lat="32.680791" lon="-5.223956">
        <ele>1664.558</ele>
        <time>2019-10-14T18:02:05Z</time>
      </trkpt>
      <trkpt lat="32.681250" lon="-5.223152">
        <ele>1663.718</ele>
        <time>2019-10-14T18:02:15Z</time>
      </trkpt>
      <trkpt lat="32.683528" lon="-5.220111">
        <ele>1658.698</ele>
        <time>2019-10-14T18:03:01Z</time>
      </trkpt>
      <trkpt lat="32.690812" lon="-5.206893">
        <ele>1654.117</ele>
        <time>2019-10-14T18:07:16Z</time>
      </trkpt>
      <trkpt lat="32.702820" lon="-5.193892">
        <ele>1649.208</ele>
        <time>2019-10-14T18:11:34Z</time>
      </trkpt>
      <trkpt lat="32.710880" lon="-5.189587">
        <ele>1688.875</ele>
        <time>2019-10-14T18:16:52Z</time>
      </trkpt>
      <trkpt lat="32.726887" lon="-5.181405">
        <ele>1720.893</ele>
        <time>2019-10-14T18:25:07Z</time>
      </trkpt>
      <trkpt lat="32.732263" lon="-5.178957">
        <ele>1697.645</ele>
        <time>2019-10-14T18:26:26Z</time>
      </trkpt>
      <trkpt lat="32.744404" lon="-5.173907">
        <ele>1680.717</ele>
        <time>2019-10-14T18:30:59Z</time>
      </trkpt>
      <trkpt lat="32.745084" lon="-5.173398">
        <ele>1682.968</ele>
        <time>2019-10-14T18:31:14Z</time>
      </trkpt>
      <trkpt lat="32.745793" lon="-5.172523">
        <ele>1681.815</ele>
        <time>2019-10-14T18:31:31Z</time>
      </trkpt>
      <trkpt lat="32.746581" lon="-5.170252">
        <ele>1670.462</ele>
        <time>2019-10-14T18:32:04Z</time>
      </trkpt>
      <trkpt lat="32.746865" lon="-5.168386">
        <ele>1671.034</ele>
        <time>2019-10-14T18:32:31Z</time>
      </trkpt>
      <trkpt lat="32.746614" lon="-5.166596">
        <ele>1686.212</ele>
        <time>2019-10-14T18:33:14Z</time>
      </trkpt>
      <trkpt lat="32.742300" lon="-5.157499">
        <ele>1715.732</ele>
        <time>2019-10-14T18:37:10Z</time>
      </trkpt>
      <trkpt lat="32.741876" lon="-5.156035">
        <ele>1719.405</ele>
        <time>2019-10-14T18:37:39Z</time>
      </trkpt>
      <trkpt lat="32.741218" lon="-5.152338">
        <ele>1726.308</ele>
        <time>2019-10-14T18:38:57Z</time>
      </trkpt>
      <trkpt lat="32.739766" lon="-5.143756">
        <ele>1762.185</ele>
        <time>2019-10-14T18:42:56Z</time>
      </trkpt>
      <trkpt lat="32.739944" lon="-5.141821">
        <ele>1767.053</ele>
        <time>2019-10-14T18:43:47Z</time>
      </trkpt>
      <trkpt lat="32.741052" lon="-5.138734">
        <ele>1774.375</ele>
        <time>2019-10-14T18:44:48Z</time>
      </trkpt>
      <trkpt lat="32.740346" lon="-5.137289">
        <ele>1772.857</ele>
        <time>2019-10-14T18:45:22Z</time>
      </trkpt>
      <trkpt lat="32.740210" lon="-5.134486">
        <ele>1765.928</ele>
        <time>2019-10-14T18:46:07Z</time>
      </trkpt>
      <trkpt lat="32.739874" lon="-5.132031">
        <ele>1754.515</ele>
        <time>2019-10-14T18:46:56Z</time>
      </trkpt>
      <trkpt lat="32.738377" lon="-5.129784">
        <ele>1733.142</ele>
        <time>2019-10-14T18:48:42Z</time>
      </trkpt>
      <trkpt lat="32.736620" lon="-5.127629">
        <ele>1707.274</ele>
        <time>2019-10-14T18:49:41Z</time>
      </trkpt>
      <trkpt lat="32.733868" lon="-5.125303">
        <ele>1697.138</ele>
        <time>2019-10-14T18:51:28Z</time>
      </trkpt>
      <trkpt lat="32.732196" lon="-5.122465">
        <ele>1686.470</ele>
        <time>2019-10-14T18:52:15Z</time>
      </trkpt>
      <trkpt lat="32.729368" lon="-5.119747">
        <ele>1648.817</ele>
        <time>2019-10-14T18:55:03Z</time>
      </trkpt>
      <trkpt lat="32.727933" lon="-5.118054">
        <ele>1629.808</ele>
        <time>2019-10-14T18:55:40Z</time>
      </trkpt>
      <trkpt lat="32.725997" lon="-5.114040">
        <ele>1597.277</ele>
        <time>2019-10-14T18:56:30Z</time>
      </trkpt>
      <trkpt lat="32.725348" lon="-5.110453">
        <ele>1598.555</ele>
        <time>2019-10-14T18:57:33Z</time>
      </trkpt>
      <trkpt lat="32.725322" lon="-5.109363">
        <ele>1598.247</ele>
        <time>2019-10-14T19:07:39Z</time>
      </trkpt>
      <trkpt lat="32.725286" lon="-5.109525">
        <ele>1596.859</ele>
        <time>2019-10-14T19:08:24Z</time>
      </trkpt>
      <trkpt lat="32.725234" lon="-5.109311">
        <ele>1528.183</ele>
        <time>2019-10-15T11:09:53Z</time>
      </trkpt>
      <trkpt lat="32.724556" lon="-5.106196">
        <ele>1617.825</ele>
        <time>2019-10-15T11:11:43Z</time>
      </trkpt>
      <trkpt lat="32.723928" lon="-5.101685">
        <ele>1612.717</ele>
        <time>2019-10-15T11:14:46Z</time>
      </trkpt>
      <trkpt lat="32.724286" lon="-5.100370">
        <ele>1607.308</ele>
        <time>2019-10-15T11:15:36Z</time>
      </trkpt>
      <trkpt lat="32.725899" lon="-5.096131">
        <ele>1602.332</ele>
        <time>2019-10-15T11:17:08Z</time>
      </trkpt>
      <trkpt lat="32.726678" lon="-5.095012">
        <ele>1601.360</ele>
        <time>2019-10-15T11:17:51Z</time>
      </trkpt>
      <trkpt lat="32.726023" lon="-5.093135">
        <ele>1600.732</ele>
        <time>2019-10-15T11:19:36Z</time>
      </trkpt>
      <trkpt lat="32.726038" lon="-5.092832">
        <ele>1600.146</ele>
        <time>2019-10-15T11:19:44Z</time>
      </trkpt>
      <trkpt lat="32.726680" lon="-5.091031">
        <ele>1596.967</ele>
        <time>2019-10-15T11:20:17Z</time>
      </trkpt>
      <trkpt lat="32.726623" lon="-5.090428">
        <ele>1598.397</ele>
        <time>2019-10-15T11:20:35Z</time>
      </trkpt>
      <trkpt lat="32.726881" lon="-5.089614">
        <ele>1597.953</ele>
        <time>2019-10-15T11:20:55Z</time>
      </trkpt>
      <trkpt lat="32.727757" lon="-5.088113">
        <ele>1599.690</ele>
        <time>2019-10-15T11:21:30Z</time>
      </trkpt>
      <trkpt lat="32.727968" lon="-5.087145">
        <ele>1599.841</ele>
        <time>2019-10-15T11:21:47Z</time>
      </trkpt>
      <trkpt lat="32.727442" lon="-5.081224">
        <ele>1597.681</ele>
        <time>2019-10-15T11:23:24Z</time>
      </trkpt>
      <trkpt lat="32.726928" lon="-5.078521">
        <ele>1597.509</ele>
        <time>2019-10-15T11:24:06Z</time>
      </trkpt>
      <trkpt lat="32.726481" lon="-5.076943">
        <ele>1596.908</ele>
        <time>2019-10-15T11:24:30Z</time>
      </trkpt>
      <trkpt lat="32.724577" lon="-5.072056">
        <ele>1595.858</ele>
        <time>2019-10-15T11:25:46Z</time>
      </trkpt>
      <trkpt lat="32.722938" lon="-5.069073">
        <ele>1595.276</ele>
        <time>2019-10-15T11:26:41Z</time>
      </trkpt>
      <trkpt lat="32.722696" lon="-5.068394">
        <ele>1595.318</ele>
        <time>2019-10-15T11:26:52Z</time>
      </trkpt>
      <trkpt lat="32.719941" lon="-5.050355">
        <ele>1614.732</ele>
        <time>2019-10-15T11:32:51Z</time>
      </trkpt>
      <trkpt lat="32.715974" lon="-5.042620">
        <ele>1623.543</ele>
        <time>2019-10-15T11:36:04Z</time>
      </trkpt>
      <trkpt lat="32.712500" lon="-5.033122">
        <ele>1613.223</ele>
        <time>2019-10-15T11:41:48Z</time>
      </trkpt>
      <trkpt lat="32.711311" lon="-5.031341">
        <ele>1612.869</ele>
        <time>2019-10-15T11:42:38Z</time>
      </trkpt>
      <trkpt lat="32.711238" lon="-5.030498">
        <ele>1618.396</ele>
        <time>2019-10-15T11:43:11Z</time>
      </trkpt>
      <trkpt lat="32.711626" lon="-5.029431">
        <ele>1618.324</ele>
        <time>2019-10-15T11:47:31Z</time>
      </trkpt>
      <trkpt lat="32.711436" lon="-5.029638">
        <ele>1619.604</ele>
        <time>2019-10-15T11:51:08Z</time>
      </trkpt>
      <trkpt lat="32.711213" lon="-5.030427">
        <ele>1620.414</ele>
        <time>2019-10-15T11:52:05Z</time>
      </trkpt>
      <trkpt lat="32.711016" lon="-5.028965">
        <ele>1620.808</ele>
        <time>2019-10-15T11:52:37Z</time>
      </trkpt>
      <trkpt lat="32.707482" lon="-5.019158">
        <ele>1627.776</ele>
        <time>2019-10-15T11:56:32Z</time>
      </trkpt>
      <trkpt lat="32.702188" lon="-4.987942">
        <ele>1623.774</ele>
        <time>2019-10-15T12:06:36Z</time>
      </trkpt>
      <trkpt lat="32.701821" lon="-4.982240">
        <ele>1628.226</ele>
        <time>2019-10-15T12:08:22Z</time>
      </trkpt>
      <trkpt lat="32.701174" lon="-4.976785">
        <ele>1622.260</ele>
        <time>2019-10-15T12:14:32Z</time>
      </trkpt>
      <trkpt lat="32.701185" lon="-4.969399">
        <ele>1615.611</ele>
        <time>2019-10-15T12:16:12Z</time>
      </trkpt>
      <trkpt lat="32.700987" lon="-4.965955">
        <ele>1610.721</ele>
        <time>2019-10-15T12:17:06Z</time>
      </trkpt>
      <trkpt lat="32.701651" lon="-4.963660">
        <ele>1612.277</ele>
        <time>2019-10-15T12:23:13Z</time>
      </trkpt>
      <trkpt lat="32.701846" lon="-4.958950">
        <ele>1614.924</ele>
        <time>2019-10-15T12:24:41Z</time>
      </trkpt>
      <trkpt lat="32.702458" lon="-4.957259">
        <ele>1612.877</ele>
        <time>2019-10-15T12:25:07Z</time>
      </trkpt>
      <trkpt lat="32.702948" lon="-4.956557">
        <ele>1610.761</ele>
        <time>2019-10-15T12:25:21Z</time>
      </trkpt>
      <trkpt lat="32.702801" lon="-4.955203">
        <ele>1610.427</ele>
        <time>2019-10-15T12:25:42Z</time>
      </trkpt>
      <trkpt lat="32.702897" lon="-4.954184">
        <ele>1610.808</ele>
        <time>2019-10-15T12:26:53Z</time>
      </trkpt>
      <trkpt lat="32.703286" lon="-4.953564">
        <ele>1612.041</ele>
        <time>2019-10-15T12:27:07Z</time>
      </trkpt>
      <trkpt lat="32.704352" lon="-4.952603">
        <ele>1612.459</ele>
        <time>2019-10-15T12:27:31Z</time>
      </trkpt>
      <trkpt lat="32.705012" lon="-4.951772">
        <ele>1612.831</ele>
        <time>2019-10-15T12:27:49Z</time>
      </trkpt>
      <trkpt lat="32.706434" lon="-4.950971">
        <ele>1613.155</ele>
        <time>2019-10-15T12:28:15Z</time>
      </trkpt>
      <trkpt lat="32.707518" lon="-4.950766">
        <ele>1610.636</ele>
        <time>2019-10-15T12:28:34Z</time>
      </trkpt>
      <trkpt lat="32.708386" lon="-4.951362">
        <ele>1610.436</ele>
        <time>2019-10-15T12:28:53Z</time>
      </trkpt>
      <trkpt lat="32.708790" lon="-4.952070">
        <ele>1609.952</ele>
        <time>2019-10-15T12:29:07Z</time>
      </trkpt>
      <trkpt lat="32.709047" lon="-4.953643">
        <ele>1609.779</ele>
        <time>2019-10-15T12:29:31Z</time>
      </trkpt>
      <trkpt lat="32.709391" lon="-4.953931">
        <ele>1609.379</ele>
        <time>2019-10-15T12:29:39Z</time>
      </trkpt>
      <trkpt lat="32.710581" lon="-4.951963">
        <ele>1610.005</ele>
        <time>2019-10-15T12:30:15Z</time>
      </trkpt>
      <trkpt lat="32.712185" lon="-4.950488">
        <ele>1610.825</ele>
        <time>2019-10-15T12:30:50Z</time>
      </trkpt>
      <trkpt lat="32.713287" lon="-4.950004">
        <ele>1610.808</ele>
        <time>2019-10-15T12:31:10Z</time>
      </trkpt>
      <trkpt lat="32.714048" lon="-4.949849">
        <ele>1610.871</ele>
        <time>2019-10-15T12:31:24Z</time>
      </trkpt>
      <trkpt lat="32.714686" lon="-4.949884">
        <ele>1611.469</ele>
        <time>2019-10-15T12:31:37Z</time>
      </trkpt>
      <trkpt lat="32.715417" lon="-4.950151">
        <ele>1611.191</ele>
        <time>2019-10-15T12:31:50Z</time>
      </trkpt>
      <trkpt lat="32.716089" lon="-4.950915">
        <ele>1610.815</ele>
        <time>2019-10-15T12:32:06Z</time>
      </trkpt>
      <trkpt lat="32.717224" lon="-4.954406">
        <ele>1608.476</ele>
        <time>2019-10-15T12:33:48Z</time>
      </trkpt>
      <trkpt lat="32.718103" lon="-4.956533">
        <ele>1608.296</ele>
        <time>2019-10-15T12:34:28Z</time>
      </trkpt>
      <trkpt lat="32.718559" lon="-4.957061">
        <ele>1608.762</ele>
        <time>2019-10-15T12:34:41Z</time>
      </trkpt>
      <trkpt lat="32.718996" lon="-4.956802">
        <ele>1608.369</ele>
        <time>2019-10-15T12:34:53Z</time>
      </trkpt>
      <trkpt lat="32.719050" lon="-4.957282">
        <ele>1608.897</ele>
        <time>2019-10-15T12:35:19Z</time>
      </trkpt>
      <trkpt lat="32.718796" lon="-4.957742">
        <ele>1609.223</ele>
        <time>2019-10-15T12:35:45Z</time>
      </trkpt>
      <trkpt lat="32.718810" lon="-4.958200">
        <ele>1610.925</ele>
        <time>2019-10-15T12:37:42Z</time>
      </trkpt>
      <trkpt lat="32.719276" lon="-4.956361">
        <ele>1609.608</ele>
        <time>2019-10-15T12:41:02Z</time>
      </trkpt>
      <trkpt lat="32.720885" lon="-4.953395">
        <ele>1611.123</ele>
        <time>2019-10-15T12:42:12Z</time>
      </trkpt>
      <trkpt lat="32.721657" lon="-4.952509">
        <ele>1612.251</ele>
        <time>2019-10-15T12:42:32Z</time>
      </trkpt>
      <trkpt lat="32.722226" lon="-4.951320">
        <ele>1612.293</ele>
        <time>2019-10-15T12:42:55Z</time>
      </trkpt>
      <trkpt lat="32.723103" lon="-4.950323">
        <ele>1614.767</ele>
        <time>2019-10-15T12:43:25Z</time>
      </trkpt>
      <trkpt lat="32.722868" lon="-4.949978">
        <ele>1617.178</ele>
        <time>2019-10-15T12:43:55Z</time>
      </trkpt>
      <trkpt lat="32.723024" lon="-4.950173">
        <ele>1615.658</ele>
        <time>2019-10-15T12:44:17Z</time>
      </trkpt>
      <trkpt lat="32.723055" lon="-4.950019">
        <ele>1615.214</ele>
        <time>2019-10-15T12:44:59Z</time>
      </trkpt>
      <trkpt lat="32.723498" lon="-4.949932">
        <ele>1615.581</ele>
        <time>2019-10-15T12:45:15Z</time>
      </trkpt>
      <trkpt lat="32.724249" lon="-4.948567">
        <ele>1613.329</ele>
        <time>2019-10-15T12:45:45Z</time>
      </trkpt>
      <trkpt lat="32.725173" lon="-4.947810">
        <ele>1612.200</ele>
        <time>2019-10-15T12:46:04Z</time>
      </trkpt>
      <trkpt lat="32.725985" lon="-4.946727">
        <ele>1610.120</ele>
        <time>2019-10-15T12:46:26Z</time>
      </trkpt>
      <trkpt lat="32.726440" lon="-4.945455">
        <ele>1611.408</ele>
        <time>2019-10-15T12:46:51Z</time>
      </trkpt>
      <trkpt lat="32.726309" lon="-4.943637">
        <ele>1610.926</ele>
        <time>2019-10-15T12:47:22Z</time>
      </trkpt>
      <trkpt lat="32.726883" lon="-4.941881">
        <ele>1609.064</ele>
        <time>2019-10-15T12:47:50Z</time>
      </trkpt>
      <trkpt lat="32.726685" lon="-4.941133">
        <ele>1608.066</ele>
        <time>2019-10-15T12:48:02Z</time>
      </trkpt>
      <trkpt lat="32.726803" lon="-4.940618">
        <ele>1606.790</ele>
        <time>2019-10-15T12:48:10Z</time>
      </trkpt>
      <trkpt lat="32.729475" lon="-4.938973">
        <ele>1593.051</ele>
        <time>2019-10-15T12:48:46Z</time>
      </trkpt>
      <trkpt lat="32.730768" lon="-4.937442">
        <ele>1583.371</ele>
        <time>2019-10-15T12:49:08Z</time>
      </trkpt>
      <trkpt lat="32.733194" lon="-4.935861">
        <ele>1579.727</ele>
        <time>2019-10-15T12:49:52Z</time>
      </trkpt>
      <trkpt lat="32.736253" lon="-4.933289">
        <ele>1580.754</ele>
        <time>2019-10-15T12:50:58Z</time>
      </trkpt>
      <trkpt lat="32.737188" lon="-4.932255">
        <ele>1580.351</ele>
        <time>2019-10-15T12:51:22Z</time>
      </trkpt>
      <trkpt lat="32.737524" lon="-4.931471">
        <ele>1579.901</ele>
        <time>2019-10-15T12:51:35Z</time>
      </trkpt>
      <trkpt lat="32.738032" lon="-4.928915">
        <ele>1574.211</ele>
        <time>2019-10-15T12:52:11Z</time>
      </trkpt>
      <trkpt lat="32.738059" lon="-4.925882">
        <ele>1570.508</ele>
        <time>2019-10-15T12:53:45Z</time>
      </trkpt>
      <trkpt lat="32.738212" lon="-4.924828">
        <ele>1567.199</ele>
        <time>2019-10-15T12:53:56Z</time>
      </trkpt>
      <trkpt lat="32.738597" lon="-4.924235">
        <ele>1564.387</ele>
        <time>2019-10-15T12:54:04Z</time>
      </trkpt>
      <trkpt lat="32.740090" lon="-4.922636">
        <ele>1566.799</ele>
        <time>2019-10-15T12:56:03Z</time>
      </trkpt>
      <trkpt lat="32.742537" lon="-4.921546">
        <ele>1566.573</ele>
        <time>2019-10-15T12:56:54Z</time>
      </trkpt>
      <trkpt lat="32.743741" lon="-4.920516">
        <ele>1570.384</ele>
        <time>2019-10-15T12:57:42Z</time>
      </trkpt>
      <trkpt lat="32.744203" lon="-4.919378">
        <ele>1572.034</ele>
        <time>2019-10-15T12:58:05Z</time>
      </trkpt>
      <trkpt lat="32.744106" lon="-4.918276">
        <ele>1570.410</ele>
        <time>2019-10-15T12:58:21Z</time>
      </trkpt>
      <trkpt lat="32.744200" lon="-4.916956">
        <ele>1569.247</ele>
        <time>2019-10-15T12:58:45Z</time>
      </trkpt>
      <trkpt lat="32.743969" lon="-4.915987">
        <ele>1569.391</ele>
        <time>2019-10-15T12:59:05Z</time>
      </trkpt>
      <trkpt lat="32.744129" lon="-4.914738">
        <ele>1565.281</ele>
        <time>2019-10-15T12:59:51Z</time>
      </trkpt>
      <trkpt lat="32.744631" lon="-4.914084">
        <ele>1565.419</ele>
        <time>2019-10-15T13:00:42Z</time>
      </trkpt>
      <trkpt lat="32.745402" lon="-4.913673">
        <ele>1562.608</ele>
        <time>2019-10-15T13:02:09Z</time>
      </trkpt>
      <trkpt lat="32.745499" lon="-4.913281">
        <ele>1561.143</ele>
        <time>2019-10-15T13:02:16Z</time>
      </trkpt>
      <trkpt lat="32.744410" lon="-4.913176">
        <ele>1555.681</ele>
        <time>2019-10-15T13:02:40Z</time>
      </trkpt>
      <trkpt lat="32.743648" lon="-4.912936">
        <ele>1553.673</ele>
        <time>2019-10-15T13:02:51Z</time>
      </trkpt>
      <trkpt lat="32.736267" lon="-4.909787">
        <ele>1561.787</ele>
        <time>2019-10-15T13:07:15Z</time>
      </trkpt>
      <trkpt lat="32.735256" lon="-4.909132">
        <ele>1563.688</ele>
        <time>2019-10-15T13:07:35Z</time>
      </trkpt>
      <trkpt lat="32.720837" lon="-4.887165">
        <ele>1567.238</ele>
        <time>2019-10-15T13:28:26Z</time>
      </trkpt>
      <trkpt lat="32.719839" lon="-4.886108">
        <ele>1567.244</ele>
        <time>2019-10-15T13:29:48Z</time>
      </trkpt>
      <trkpt lat="32.718793" lon="-4.885508">
        <ele>1569.211</ele>
        <time>2019-10-15T13:30:20Z</time>
      </trkpt>
      <trkpt lat="32.718179" lon="-4.884887">
        <ele>1574.224</ele>
        <time>2019-10-15T13:30:45Z</time>
      </trkpt>
      <trkpt lat="32.715735" lon="-4.881163">
        <ele>1584.604</ele>
        <time>2019-10-15T13:33:05Z</time>
      </trkpt>
      <trkpt lat="32.715567" lon="-4.880589">
        <ele>1587.914</ele>
        <time>2019-10-15T13:40:01Z</time>
      </trkpt>
      <trkpt lat="32.715326" lon="-4.880522">
        <ele>1586.608</ele>
        <time>2019-10-15T13:40:30Z</time>
      </trkpt>
      <trkpt lat="32.715149" lon="-4.880184">
        <ele>1585.816</ele>
        <time>2019-10-15T13:41:05Z</time>
      </trkpt>
      <trkpt lat="32.715448" lon="-4.880616">
        <ele>1585.084</ele>
        <time>2019-10-15T13:42:00Z</time>
      </trkpt>
      <trkpt lat="32.715315" lon="-4.880556">
        <ele>1585.866</ele>
        <time>2019-10-15T13:42:11Z</time>
      </trkpt>
      <trkpt lat="32.710586" lon="-4.873330">
        <ele>1590.330</ele>
        <time>2019-10-15T13:49:33Z</time>
      </trkpt>
      <trkpt lat="32.709639" lon="-4.871611">
        <ele>1593.791</ele>
        <time>2019-10-15T13:50:18Z</time>
      </trkpt>
      <trkpt lat="32.705127" lon="-4.851851">
        <ele>1575.881</ele>
        <time>2019-10-15T13:57:12Z</time>
      </trkpt>
      <trkpt lat="32.704690" lon="-4.850636">
        <ele>1573.047</ele>
        <time>2019-10-15T13:57:30Z</time>
      </trkpt>
      <trkpt lat="32.703904" lon="-4.849518">
        <ele>1566.594</ele>
        <time>2019-10-15T13:57:46Z</time>
      </trkpt>
      <trkpt lat="32.698693" lon="-4.844154">
        <ele>1544.939</ele>
        <time>2019-10-15T13:59:15Z</time>
      </trkpt>
      <trkpt lat="32.697957" lon="-4.842996">
        <ele>1542.501</ele>
        <time>2019-10-15T14:01:28Z</time>
      </trkpt>
      <trkpt lat="32.697727" lon="-4.842001">
        <ele>1541.921</ele>
        <time>2019-10-15T14:01:49Z</time>
      </trkpt>
      <trkpt lat="32.697676" lon="-4.840966">
        <ele>1538.608</ele>
        <time>2019-10-15T14:02:02Z</time>
      </trkpt>
      <trkpt lat="32.697432" lon="-4.824270">
        <ele>1520.817</ele>
        <time>2019-10-15T14:06:00Z</time>
      </trkpt>
      <trkpt lat="32.697523" lon="-4.822430">
        <ele>1519.425</ele>
        <time>2019-10-15T14:06:26Z</time>
      </trkpt>
      <trkpt lat="32.698588" lon="-4.814231">
        <ele>1511.267</ele>
        <time>2019-10-15T14:08:20Z</time>
      </trkpt>
      <trkpt lat="32.698888" lon="-4.812756">
        <ele>1510.571</ele>
        <time>2019-10-15T14:08:40Z</time>
      </trkpt>
      <trkpt lat="32.699272" lon="-4.812036">
        <ele>1509.452</ele>
        <time>2019-10-15T14:08:50Z</time>
      </trkpt>
      <trkpt lat="32.704474" lon="-4.805136">
        <ele>1492.342</ele>
        <time>2019-10-15T14:11:55Z</time>
      </trkpt>
      <trkpt lat="32.705441" lon="-4.801529">
        <ele>1487.548</ele>
        <time>2019-10-15T14:12:43Z</time>
      </trkpt>
      <trkpt lat="32.705611" lon="-4.801402">
        <ele>1487.555</ele>
        <time>2019-10-15T14:12:52Z</time>
      </trkpt>
      <trkpt lat="32.705735" lon="-4.801494">
        <ele>1487.628</ele>
        <time>2019-10-15T14:12:59Z</time>
      </trkpt>
      <trkpt lat="32.705651" lon="-4.800640">
        <ele>1497.889</ele>
        <time>2019-10-15T14:47:16Z</time>
      </trkpt>
      <trkpt lat="32.706419" lon="-4.797281">
        <ele>1499.017</ele>
        <time>2019-10-15T14:48:11Z</time>
      </trkpt>
      <trkpt lat="32.706520" lon="-4.796265">
        <ele>1496.608</ele>
        <time>2019-10-15T14:48:23Z</time>
      </trkpt>
      <trkpt lat="32.705747" lon="-4.779691">
        <ele>1475.866</ele>
        <time>2019-10-15T14:51:50Z</time>
      </trkpt>
      <trkpt lat="32.705422" lon="-4.778628">
        <ele>1472.534</ele>
        <time>2019-10-15T14:52:05Z</time>
      </trkpt>
      <trkpt lat="32.702455" lon="-4.773658">
        <ele>1491.856</ele>
        <time>2019-10-15T14:54:40Z</time>
      </trkpt>
      <trkpt lat="32.700660" lon="-4.764578">
        <ele>1504.960</ele>
        <time>2019-10-15T14:57:38Z</time>
      </trkpt>
      <trkpt lat="32.701027" lon="-4.761100">
        <ele>1502.281</ele>
        <time>2019-10-15T14:58:40Z</time>
      </trkpt>
      <trkpt lat="32.700980" lon="-4.759997">
        <ele>1501.511</ele>
        <time>2019-10-15T14:58:56Z</time>
      </trkpt>
      <trkpt lat="32.698950" lon="-4.755273">
        <ele>1506.047</ele>
        <time>2019-10-15T15:00:26Z</time>
      </trkpt>
      <trkpt lat="32.698244" lon="-4.754357">
        <ele>1505.164</ele>
        <time>2019-10-15T15:00:50Z</time>
      </trkpt>
      <trkpt lat="32.697293" lon="-4.753535">
        <ele>1508.686</ele>
        <time>2019-10-15T15:01:24Z</time>
      </trkpt>
      <trkpt lat="32.695570" lon="-4.753176">
        <ele>1511.060</ele>
        <time>2019-10-15T15:04:27Z</time>
      </trkpt>
      <trkpt lat="32.695615" lon="-4.752527">
        <ele>1509.326</ele>
        <time>2019-10-15T15:04:39Z</time>
      </trkpt>
      <trkpt lat="32.695160" lon="-4.751253">
        <ele>1504.708</ele>
        <time>2019-10-15T15:05:04Z</time>
      </trkpt>
      <trkpt lat="32.695527" lon="-4.752003">
        <ele>1504.162</ele>
        <time>2019-10-15T15:11:05Z</time>
      </trkpt>
      <trkpt lat="32.695686" lon="-4.753161">
        <ele>1507.340</ele>
        <time>2019-10-15T15:11:39Z</time>
      </trkpt>
      <trkpt lat="32.695149" lon="-4.753202">
        <ele>1509.282</ele>
        <time>2019-10-15T15:12:18Z</time>
      </trkpt>
      <trkpt lat="32.694691" lon="-4.753003">
        <ele>1507.456</ele>
        <time>2019-10-15T15:12:28Z</time>
      </trkpt>
      <trkpt lat="32.692872" lon="-4.751817">
        <ele>1510.537</ele>
        <time>2019-10-15T15:13:15Z</time>
      </trkpt>
      <trkpt lat="32.688571" lon="-4.746823">
        <ele>1499.147</ele>
        <time>2019-10-15T15:15:48Z</time>
      </trkpt>
      <trkpt lat="32.688602" lon="-4.746610">
        <ele>1500.093</ele>
        <time>2019-10-15T15:19:37Z</time>
      </trkpt>
      <trkpt lat="32.688354" lon="-4.746878">
        <ele>1499.170</ele>
        <time>2019-10-15T15:23:22Z</time>
      </trkpt>
      <trkpt lat="32.688697" lon="-4.747054">
        <ele>1503.343</ele>
        <time>2019-10-16T12:21:23Z</time>
      </trkpt>
      <trkpt lat="32.688808" lon="-4.746667">
        <ele>1503.364</ele>
        <time>2019-10-16T12:39:44Z</time>
      </trkpt>
      <trkpt lat="32.688856" lon="-4.746977">
        <ele>1503.310</ele>
        <time>2019-10-16T12:40:38Z</time>
      </trkpt>
      <trkpt lat="32.689229" lon="-4.747466">
        <ele>1503.208</ele>
        <time>2019-10-16T12:40:53Z</time>
      </trkpt>
      <trkpt lat="32.692988" lon="-4.751847">
        <ele>1508.418</ele>
        <time>2019-10-16T12:42:39Z</time>
      </trkpt>
      <trkpt lat="32.694810" lon="-4.753034">
        <ele>1510.496</ele>
        <time>2019-10-16T12:43:16Z</time>
      </trkpt>
      <trkpt lat="32.696854" lon="-4.753468">
        <ele>1509.999</ele>
        <time>2019-10-16T12:43:55Z</time>
      </trkpt>
      <trkpt lat="32.697622" lon="-4.753796">
        <ele>1506.857</ele>
        <time>2019-10-16T12:44:07Z</time>
      </trkpt>
      <trkpt lat="32.698408" lon="-4.754425">
        <ele>1502.034</ele>
        <time>2019-10-16T12:44:21Z</time>
      </trkpt>
      <trkpt lat="32.699057" lon="-4.755356">
        <ele>1499.420</ele>
        <time>2019-10-16T12:44:34Z</time>
      </trkpt>
      <trkpt lat="32.701028" lon="-4.759940">
        <ele>1498.012</ele>
        <time>2019-10-16T12:45:35Z</time>
      </trkpt>
      <trkpt lat="32.701095" lon="-4.761003">
        <ele>1498.127</ele>
        <time>2019-10-16T12:45:49Z</time>
      </trkpt>
      <trkpt lat="32.700732" lon="-4.764762">
        <ele>1499.088</ele>
        <time>2019-10-16T12:46:40Z</time>
      </trkpt>
      <trkpt lat="32.702504" lon="-4.773612">
        <ele>1486.524</ele>
        <time>2019-10-16T12:48:24Z</time>
      </trkpt>
      <trkpt lat="32.705531" lon="-4.778733">
        <ele>1471.526</ele>
        <time>2019-10-16T12:49:29Z</time>
      </trkpt>
      <trkpt lat="32.705822" lon="-4.779865">
        <ele>1471.408</ele>
        <time>2019-10-16T12:49:43Z</time>
      </trkpt>
      <trkpt lat="32.706571" lon="-4.795824">
        <ele>1488.832</ele>
        <time>2019-10-16T12:54:10Z</time>
      </trkpt>
      <trkpt lat="32.706527" lon="-4.797082">
        <ele>1489.320</ele>
        <time>2019-10-16T12:54:32Z</time>
      </trkpt>
      <trkpt lat="32.704600" lon="-4.805003">
        <ele>1496.563</ele>
        <time>2019-10-16T12:56:59Z</time>
      </trkpt>
      <trkpt lat="32.699340" lon="-4.812033">
        <ele>1516.031</ele>
        <time>2019-10-16T13:00:25Z</time>
      </trkpt>
      <trkpt lat="32.698745" lon="-4.813381">
        <ele>1517.138</ele>
        <time>2019-10-16T13:00:55Z</time>
      </trkpt>
      <trkpt lat="32.697471" lon="-4.823620">
        <ele>1525.984</ele>
        <time>2019-10-16T13:03:43Z</time>
      </trkpt>
      <trkpt lat="32.697719" lon="-4.840704">
        <ele>1539.976</ele>
        <time>2019-10-16T13:08:13Z</time>
      </trkpt>
      <trkpt lat="32.697860" lon="-4.842566">
        <ele>1546.221</ele>
        <time>2019-10-16T13:08:58Z</time>
      </trkpt>
      <trkpt lat="32.698561" lon="-4.843959">
        <ele>1551.659</ele>
        <time>2019-10-16T13:09:40Z</time>
      </trkpt>
      <trkpt lat="32.704113" lon="-4.849694">
        <ele>1566.003</ele>
        <time>2019-10-16T13:13:30Z</time>
      </trkpt>
      <trkpt lat="32.704799" lon="-4.850796">
        <ele>1571.723</ele>
        <time>2019-10-16T13:14:02Z</time>
      </trkpt>
      <trkpt lat="32.705726" lon="-4.854245">
        <ele>1577.408</ele>
        <time>2019-10-16T13:15:15Z</time>
      </trkpt>
      <trkpt lat="32.709685" lon="-4.871429">
        <ele>1589.399</ele>
        <time>2019-10-16T13:19:47Z</time>
      </trkpt>
      <trkpt lat="32.710086" lon="-4.872407">
        <ele>1591.777</ele>
        <time>2019-10-16T13:20:05Z</time>
      </trkpt>
      <trkpt lat="32.718187" lon="-4.884749">
        <ele>1574.730</ele>
        <time>2019-10-16T13:23:49Z</time>
      </trkpt>
      <trkpt lat="32.718797" lon="-4.885425">
        <ele>1572.288</ele>
        <time>2019-10-16T13:24:02Z</time>
      </trkpt>
      <trkpt lat="32.720204" lon="-4.886363">
        <ele>1568.425</ele>
        <time>2019-10-16T13:25:01Z</time>
      </trkpt>
      <trkpt lat="32.720822" lon="-4.887016">
        <ele>1567.361</ele>
        <time>2019-10-16T13:25:14Z</time>
      </trkpt>
      <trkpt lat="32.735117" lon="-4.908847">
        <ele>1512.813</ele>
        <time>2019-10-16T13:31:56Z</time>
      </trkpt>
      <trkpt lat="32.736314" lon="-4.909746">
        <ele>1511.698</ele>
        <time>2019-10-16T13:32:16Z</time>
      </trkpt>
      <trkpt lat="32.743712" lon="-4.912895">
        <ele>1503.515</ele>
        <time>2019-10-16T13:34:05Z</time>
      </trkpt>
      <trkpt lat="32.744446" lon="-4.913126">
        <ele>1506.665</ele>
        <time>2019-10-16T13:34:17Z</time>
      </trkpt>
      <trkpt lat="32.746707" lon="-4.913226">
        <ele>1510.311</ele>
        <time>2019-10-16T13:34:59Z</time>
      </trkpt>
      <trkpt lat="32.747899" lon="-4.913873">
        <ele>1513.308</ele>
        <time>2019-10-16T13:35:28Z</time>
      </trkpt>
      <trkpt lat="32.748427" lon="-4.914437">
        <ele>1514.615</ele>
        <time>2019-10-16T13:35:50Z</time>
      </trkpt>
      <trkpt lat="32.751705" lon="-4.919063">
        <ele>1531.423</ele>
        <time>2019-10-16T13:40:24Z</time>
      </trkpt>
      <trkpt lat="32.751632" lon="-4.919374">
        <ele>1534.436</ele>
        <time>2019-10-16T13:41:01Z</time>
      </trkpt>
      <trkpt lat="32.752288" lon="-4.920055">
        <ele>1536.024</ele>
        <time>2019-10-16T13:41:25Z</time>
      </trkpt>
      <trkpt lat="32.755887" lon="-4.925227">
        <ele>1527.571</ele>
        <time>2019-10-16T13:44:05Z</time>
      </trkpt>
      <trkpt lat="32.756402" lon="-4.925830">
        <ele>1528.377</ele>
        <time>2019-10-16T13:44:19Z</time>
      </trkpt>
      <trkpt lat="32.757120" lon="-4.926352">
        <ele>1532.149</ele>
        <time>2019-10-16T13:44:34Z</time>
      </trkpt>
      <trkpt lat="32.770050" lon="-4.930354">
        <ele>1535.644</ele>
        <time>2019-10-16T13:48:13Z</time>
      </trkpt>
      <trkpt lat="32.770510" lon="-4.930584">
        <ele>1536.124</ele>
        <time>2019-10-16T13:48:32Z</time>
      </trkpt>
      <trkpt lat="32.770653" lon="-4.930952">
        <ele>1532.604</ele>
        <time>2019-10-16T13:49:08Z</time>
      </trkpt>
      <trkpt lat="32.770881" lon="-4.930733">
        <ele>1537.214</ele>
        <time>2019-10-16T13:53:08Z</time>
      </trkpt>
      <trkpt lat="32.772021" lon="-4.930946">
        <ele>1537.608</ele>
        <time>2019-10-16T13:54:31Z</time>
      </trkpt>
      <trkpt lat="32.790724" lon="-4.936967">
        <ele>1547.576</ele>
        <time>2019-10-16T14:00:23Z</time>
      </trkpt>
      <trkpt lat="32.791574" lon="-4.937828">
        <ele>1548.894</ele>
        <time>2019-10-16T14:00:42Z</time>
      </trkpt>
      <trkpt lat="32.794189" lon="-4.942131">
        <ele>1541.647</ele>
        <time>2019-10-16T14:05:34Z</time>
      </trkpt>
      <trkpt lat="32.795058" lon="-4.942684">
        <ele>1542.495</ele>
        <time>2019-10-16T14:05:51Z</time>
      </trkpt>
      <trkpt lat="32.800974" lon="-4.945339">
        <ele>1535.522</ele>
        <time>2019-10-16T14:07:28Z</time>
      </trkpt>
      <trkpt lat="32.801756" lon="-4.945807">
        <ele>1534.388</ele>
        <time>2019-10-16T14:07:42Z</time>
      </trkpt>
      <trkpt lat="32.814993" lon="-4.957252">
        <ele>1504.240</ele>
        <time>2019-10-16T14:11:54Z</time>
      </trkpt>
      <trkpt lat="32.816889" lon="-4.958754">
        <ele>1502.765</ele>
        <time>2019-10-16T14:12:44Z</time>
      </trkpt>
      <trkpt lat="32.818420" lon="-4.959465">
        <ele>1504.379</ele>
        <time>2019-10-16T14:13:39Z</time>
      </trkpt>
      <trkpt lat="32.821014" lon="-4.959800">
        <ele>1512.905</ele>
        <time>2019-10-16T14:17:28Z</time>
      </trkpt>
      <trkpt lat="32.823001" lon="-4.961097">
        <ele>1506.325</ele>
        <time>2019-10-16T14:18:14Z</time>
      </trkpt>
      <trkpt lat="32.823691" lon="-4.961379">
        <ele>1508.108</ele>
        <time>2019-10-16T14:18:29Z</time>
      </trkpt>
      <trkpt lat="32.824887" lon="-4.961405">
        <ele>1510.931</ele>
        <time>2019-10-16T14:18:52Z</time>
      </trkpt>
      <trkpt lat="32.832376" lon="-4.960868">
        <ele>1514.299</ele>
        <time>2019-10-16T14:21:02Z</time>
      </trkpt>
      <trkpt lat="32.833588" lon="-4.960581">
        <ele>1511.942</ele>
        <time>2019-10-16T14:21:24Z</time>
      </trkpt>
      <trkpt lat="32.843438" lon="-4.952530">
        <ele>1508.120</ele>
        <time>2019-10-16T14:24:48Z</time>
      </trkpt>
      <trkpt lat="32.844421" lon="-4.952006">
        <ele>1507.497</ele>
        <time>2019-10-16T14:25:05Z</time>
      </trkpt>
      <trkpt lat="32.845997" lon="-4.951513">
        <ele>1505.293</ele>
        <time>2019-10-16T14:25:29Z</time>
      </trkpt>
      <trkpt lat="32.846681" lon="-4.951114">
        <ele>1504.785</ele>
        <time>2019-10-16T14:25:40Z</time>
      </trkpt>
      <trkpt lat="32.848451" lon="-4.949198">
        <ele>1497.130</ele>
        <time>2019-10-16T14:26:14Z</time>
      </trkpt>
      <trkpt lat="32.849201" lon="-4.948657">
        <ele>1495.436</ele>
        <time>2019-10-16T14:26:28Z</time>
      </trkpt>
      <trkpt lat="32.850187" lon="-4.948264">
        <ele>1496.317</ele>
        <time>2019-10-16T14:26:47Z</time>
      </trkpt>
      <trkpt lat="32.853545" lon="-4.947503">
        <ele>1500.518</ele>
        <time>2019-10-16T14:29:15Z</time>
      </trkpt>
      <trkpt lat="32.858477" lon="-4.945831">
        <ele>1509.808</ele>
        <time>2019-10-16T14:31:05Z</time>
      </trkpt>
      <trkpt lat="32.867610" lon="-4.944012">
        <ele>1517.357</ele>
        <time>2019-10-16T14:34:30Z</time>
      </trkpt>
      <trkpt lat="32.870133" lon="-4.943802">
        <ele>1518.315</ele>
        <time>2019-10-16T14:35:14Z</time>
      </trkpt>
      <trkpt lat="32.870886" lon="-4.943908">
        <ele>1517.948</ele>
        <time>2019-10-16T14:35:27Z</time>
      </trkpt>
      <trkpt lat="32.875245" lon="-4.945214">
        <ele>1511.166</ele>
        <time>2019-10-16T14:42:06Z</time>
      </trkpt>
      <trkpt lat="32.876693" lon="-4.945980">
        <ele>1515.533</ele>
        <time>2019-10-16T14:42:46Z</time>
      </trkpt>
      <trkpt lat="32.877663" lon="-4.947014">
        <ele>1516.569</ele>
        <time>2019-10-16T14:43:14Z</time>
      </trkpt>
      <trkpt lat="32.881475" lon="-4.952903">
        <ele>1517.331</ele>
        <time>2019-10-16T14:45:06Z</time>
      </trkpt>
      <trkpt lat="32.883324" lon="-4.957281">
        <ele>1535.166</ele>
        <time>2019-10-16T14:47:25Z</time>
      </trkpt>
      <trkpt lat="32.884063" lon="-4.958314">
        <ele>1544.525</ele>
        <time>2019-10-16T14:48:10Z</time>
      </trkpt>
      <trkpt lat="32.884273" lon="-4.958377">
        <ele>1545.126</ele>
        <time>2019-10-16T14:50:09Z</time>
      </trkpt>
      <trkpt lat="32.884721" lon="-4.958915">
        <ele>1545.008</ele>
        <time>2019-10-16T14:50:34Z</time>
      </trkpt>
      <trkpt lat="32.885109" lon="-4.959700">
        <ele>1550.008</ele>
        <time>2019-10-16T14:51:00Z</time>
      </trkpt>
      <trkpt lat="32.886334" lon="-4.969070">
        <ele>1571.376</ele>
        <time>2019-10-16T14:54:55Z</time>
      </trkpt>
      <trkpt lat="32.886572" lon="-4.973344">
        <ele>1581.344</ele>
        <time>2019-10-16T14:56:26Z</time>
      </trkpt>
      <trkpt lat="32.886782" lon="-4.974480">
        <ele>1580.987</ele>
        <time>2019-10-16T14:56:47Z</time>
      </trkpt>
      <trkpt lat="32.902012" lon="-5.024183">
        <ele>1668.865</ele>
        <time>2019-10-16T15:16:06Z</time>
      </trkpt>
      <trkpt lat="32.902482" lon="-5.024847">
        <ele>1671.692</ele>
        <time>2019-10-16T15:16:30Z</time>
      </trkpt>
      <trkpt lat="32.909102" lon="-5.031295">
        <ele>1703.428</ele>
        <time>2019-10-16T15:21:06Z</time>
      </trkpt>
      <trkpt lat="32.927767" lon="-5.048965">
        <ele>1776.970</ele>
        <time>2019-10-16T15:34:20Z</time>
      </trkpt>
      <trkpt lat="32.928222" lon="-5.049423">
        <ele>1780.295</ele>
        <time>2019-10-16T15:34:45Z</time>
      </trkpt>
      <trkpt lat="32.928237" lon="-5.049612">
        <ele>1781.549</ele>
        <time>2019-10-16T15:35:07Z</time>
      </trkpt>
      <trkpt lat="32.928453" lon="-5.049626">
        <ele>1783.402</ele>
        <time>2019-10-16T16:03:59Z</time>
      </trkpt>
      <trkpt lat="32.929859" lon="-5.050979">
        <ele>1788.922</ele>
        <time>2019-10-16T16:05:01Z</time>
      </trkpt>
      <trkpt lat="32.930442" lon="-5.051758">
        <ele>1789.508</ele>
        <time>2019-10-16T16:05:42Z</time>
      </trkpt>
      <trkpt lat="32.931226" lon="-5.053553">
        <ele>1803.318</ele>
        <time>2019-10-16T16:07:02Z</time>
      </trkpt>
      <trkpt lat="32.931528" lon="-5.053954">
        <ele>1804.186</ele>
        <time>2019-10-16T16:07:14Z</time>
      </trkpt>
      <trkpt lat="32.932245" lon="-5.054367">
        <ele>1803.959</ele>
        <time>2019-10-16T16:07:30Z</time>
      </trkpt>
      <trkpt lat="32.933559" lon="-5.054714">
        <ele>1802.457</ele>
        <time>2019-10-16T16:08:04Z</time>
      </trkpt>
      <trkpt lat="32.937062" lon="-5.057144">
        <ele>1816.144</ele>
        <time>2019-10-16T16:10:49Z</time>
      </trkpt>
      <trkpt lat="32.938622" lon="-5.057749">
        <ele>1827.010</ele>
        <time>2019-10-16T16:12:03Z</time>
      </trkpt>
      <trkpt lat="32.939027" lon="-5.058399">
        <ele>1827.122</ele>
        <time>2019-10-16T16:12:30Z</time>
      </trkpt>
      <trkpt lat="32.939635" lon="-5.060267">
        <ele>1829.857</ele>
        <time>2019-10-16T16:13:45Z</time>
      </trkpt>
      <trkpt lat="32.940060" lon="-5.060736">
        <ele>1834.135</ele>
        <time>2019-10-16T16:14:18Z</time>
      </trkpt>
      <trkpt lat="32.940423" lon="-5.060824">
        <ele>1837.686</ele>
        <time>2019-10-16T16:14:36Z</time>
      </trkpt>
      <trkpt lat="32.941277" lon="-5.060620">
        <ele>1845.914</ele>
        <time>2019-10-16T16:15:21Z</time>
      </trkpt>
      <trkpt lat="32.945520" lon="-5.059291">
        <ele>1875.208</ele>
        <time>2019-10-16T16:18:52Z</time>
      </trkpt>
      <trkpt lat="32.954309" lon="-5.053558">
        <ele>1902.457</ele>
        <time>2019-10-16T16:24:28Z</time>
      </trkpt>
      <trkpt lat="32.956211" lon="-5.052972">
        <ele>1906.895</ele>
        <time>2019-10-16T16:25:16Z</time>
      </trkpt>
      <trkpt lat="32.957761" lon="-5.052915">
        <ele>1913.878</ele>
        <time>2019-10-16T16:26:37Z</time>
      </trkpt>
      <trkpt lat="32.958634" lon="-5.053244">
        <ele>1916.456</ele>
        <time>2019-10-16T16:27:05Z</time>
      </trkpt>
      <trkpt lat="32.962462" lon="-5.055895">
        <ele>1944.043</ele>
        <time>2019-10-16T16:30:28Z</time>
      </trkpt>
      <trkpt lat="32.964154" lon="-5.056224">
        <ele>1960.659</ele>
        <time>2019-10-16T16:32:13Z</time>
      </trkpt>
      <trkpt lat="32.969178" lon="-5.058182">
        <ele>2004.811</ele>
        <time>2019-10-16T16:37:36Z</time>
      </trkpt>
      <trkpt lat="32.969611" lon="-5.058161">
        <ele>2004.896</ele>
        <time>2019-10-16T16:38:00Z</time>
      </trkpt>
      <trkpt lat="32.970244" lon="-5.057575">
        <ele>2013.434</ele>
        <time>2019-10-16T16:38:41Z</time>
      </trkpt>
      <trkpt lat="32.971211" lon="-5.057437">
        <ele>2018.655</ele>
        <time>2019-10-16T16:39:31Z</time>
      </trkpt>
      <trkpt lat="32.972405" lon="-5.056937">
        <ele>2028.510</ele>
        <time>2019-10-16T16:42:02Z</time>
      </trkpt>
      <trkpt lat="32.972950" lon="-5.057751">
        <ele>2032.608</ele>
        <time>2019-10-16T16:51:15Z</time>
      </trkpt>
      <trkpt lat="32.974158" lon="-5.058661">
        <ele>2041.387</ele>
        <time>2019-10-16T16:52:30Z</time>
      </trkpt>
      <trkpt lat="32.974344" lon="-5.059908">
        <ele>2051.145</ele>
        <time>2019-10-16T16:53:21Z</time>
      </trkpt>
      <trkpt lat="32.975926" lon="-5.060840">
        <ele>2062.118</ele>
        <time>2019-10-16T16:54:43Z</time>
      </trkpt>
      <trkpt lat="32.976636" lon="-5.061860">
        <ele>2065.956</ele>
        <time>2019-10-16T16:55:38Z</time>
      </trkpt>
      <trkpt lat="32.977294" lon="-5.063372">
        <ele>2066.223</ele>
        <time>2019-10-16T16:56:15Z</time>
      </trkpt>
      <trkpt lat="32.978434" lon="-5.064132">
        <ele>2067.619</ele>
        <time>2019-10-16T16:57:53Z</time>
      </trkpt>
      <trkpt lat="32.979572" lon="-5.065663">
        <ele>2072.621</ele>
        <time>2019-10-16T16:59:05Z</time>
      </trkpt>
      <trkpt lat="32.979855" lon="-5.065797">
        <ele>2075.246</ele>
        <time>2019-10-16T16:59:15Z</time>
      </trkpt>
      <trkpt lat="32.981524" lon="-5.065637">
        <ele>2081.634</ele>
        <time>2019-10-16T17:00:23Z</time>
      </trkpt>
      <trkpt lat="32.982385" lon="-5.066886">
        <ele>2100.555</ele>
        <time>2019-10-16T17:01:29Z</time>
      </trkpt>
      <trkpt lat="32.983098" lon="-5.067168">
        <ele>2107.610</ele>
        <time>2019-10-16T17:02:02Z</time>
      </trkpt>
      <trkpt lat="32.983766" lon="-5.067191">
        <ele>2109.808</ele>
        <time>2019-10-16T17:02:30Z</time>
      </trkpt>
      <trkpt lat="32.984307" lon="-5.067816">
        <ele>2110.127</ele>
        <time>2019-10-16T17:02:56Z</time>
      </trkpt>
      <trkpt lat="32.985302" lon="-5.068400">
        <ele>2112.745</ele>
        <time>2019-10-16T17:03:37Z</time>
      </trkpt>
      <trkpt lat="32.987066" lon="-5.071071">
        <ele>2138.698</ele>
        <time>2019-10-16T17:05:33Z</time>
      </trkpt>
      <trkpt lat="32.987431" lon="-5.071202">
        <ele>2130.986</ele>
        <time>2019-10-16T17:05:47Z</time>
      </trkpt>
      <trkpt lat="32.990809" lon="-5.070461">
        <ele>2141.743</ele>
        <time>2019-10-16T17:08:45Z</time>
      </trkpt>
      <trkpt lat="32.992664" lon="-5.070293">
        <ele>2149.349</ele>
        <time>2019-10-16T17:10:03Z</time>
      </trkpt>
      <trkpt lat="32.993522" lon="-5.070589">
        <ele>2151.131</ele>
        <time>2019-10-16T17:10:41Z</time>
      </trkpt>
      <trkpt lat="32.993978" lon="-5.070902">
        <ele>2150.566</ele>
        <time>2019-10-16T17:11:02Z</time>
      </trkpt>
      <trkpt lat="32.994547" lon="-5.071571">
        <ele>2154.356</ele>
        <time>2019-10-16T17:11:36Z</time>
      </trkpt>
      <trkpt lat="32.995087" lon="-5.072653">
        <ele>2160.859</ele>
        <time>2019-10-16T17:12:16Z</time>
      </trkpt>
      <trkpt lat="32.995430" lon="-5.073020">
        <ele>2160.414</ele>
        <time>2019-10-16T17:12:28Z</time>
      </trkpt>
      <trkpt lat="32.996660" lon="-5.073146">
        <ele>2171.508</ele>
        <time>2019-10-16T17:13:16Z</time>
      </trkpt>
      <trkpt lat="32.997384" lon="-5.073550">
        <ele>2170.629</ele>
        <time>2019-10-16T17:13:49Z</time>
      </trkpt>
      <trkpt lat="32.998925" lon="-5.073657">
        <ele>2178.977</ele>
        <time>2019-10-16T17:15:00Z</time>
      </trkpt>
      <trkpt lat="32.999684" lon="-5.074576">
        <ele>2181.570</ele>
        <time>2019-10-16T17:15:43Z</time>
      </trkpt>
      <trkpt lat="33.000122" lon="-5.074485">
        <ele>2185.618</ele>
        <time>2019-10-16T17:16:04Z</time>
      </trkpt>
      <trkpt lat="33.000919" lon="-5.073795">
        <ele>2190.965</ele>
        <time>2019-10-16T17:17:27Z</time>
      </trkpt>
      <trkpt lat="33.002080" lon="-5.073580">
        <ele>2193.741</ele>
        <time>2019-10-16T17:18:11Z</time>
      </trkpt>
      <trkpt lat="33.003636" lon="-5.072964">
        <ele>2208.683</ele>
        <time>2019-10-16T17:19:06Z</time>
      </trkpt>
      <trkpt lat="33.006318" lon="-5.072840">
        <ele>2213.868</ele>
        <time>2019-10-16T17:20:38Z</time>
      </trkpt>
      <trkpt lat="33.009633" lon="-5.072111">
        <ele>2225.216</ele>
        <time>2019-10-16T17:22:25Z</time>
      </trkpt>
      <trkpt lat="33.012948" lon="-5.072191">
        <ele>2221.676</ele>
        <time>2019-10-16T17:27:39Z</time>
      </trkpt>
      <trkpt lat="33.014928" lon="-5.071818">
        <ele>2218.113</ele>
        <time>2019-10-16T17:28:13Z</time>
      </trkpt>
      <trkpt lat="33.017602" lon="-5.072440">
        <ele>2227.108</ele>
        <time>2019-10-16T17:29:17Z</time>
      </trkpt>
      <trkpt lat="33.018573" lon="-5.073054">
        <ele>2231.885</ele>
        <time>2019-10-16T17:29:46Z</time>
      </trkpt>
      <trkpt lat="33.019563" lon="-5.073182">
        <ele>2231.913</ele>
        <time>2019-10-16T17:30:14Z</time>
      </trkpt>
      <trkpt lat="33.020892" lon="-5.072557">
        <ele>2233.666</ele>
        <time>2019-10-16T17:30:48Z</time>
      </trkpt>
      <trkpt lat="33.021999" lon="-5.072631">
        <ele>2229.574</ele>
        <time>2019-10-16T17:31:46Z</time>
      </trkpt>
      <trkpt lat="33.022235" lon="-5.072457">
        <ele>2228.971</ele>
        <time>2019-10-16T17:31:59Z</time>
      </trkpt>
      <trkpt lat="33.024098" lon="-5.072557">
        <ele>2221.177</ele>
        <time>2019-10-16T17:32:26Z</time>
      </trkpt>
      <trkpt lat="33.025377" lon="-5.072453">
        <ele>2209.599</ele>
        <time>2019-10-16T17:32:39Z</time>
      </trkpt>
      <trkpt lat="33.026044" lon="-5.072304">
        <ele>2202.714</ele>
        <time>2019-10-16T17:32:46Z</time>
      </trkpt>
      <trkpt lat="33.027144" lon="-5.071774">
        <ele>2187.167</ele>
        <time>2019-10-16T17:33:09Z</time>
      </trkpt>
      <trkpt lat="33.028627" lon="-5.071724">
        <ele>2181.481</ele>
        <time>2019-10-16T17:34:00Z</time>
      </trkpt>
      <trkpt lat="33.029446" lon="-5.071067">
        <ele>2180.419</ele>
        <time>2019-10-16T17:34:21Z</time>
      </trkpt>
      <trkpt lat="33.031459" lon="-5.068610">
        <ele>2182.508</ele>
        <time>2019-10-16T17:35:15Z</time>
      </trkpt>
      <trkpt lat="33.032134" lon="-5.067413">
        <ele>2182.520</ele>
        <time>2019-10-16T17:35:37Z</time>
      </trkpt>
      <trkpt lat="33.033151" lon="-5.065051">
        <ele>2192.888</ele>
        <time>2019-10-16T17:36:47Z</time>
      </trkpt>
      <trkpt lat="33.037121" lon="-5.061270">
        <ele>2182.451</ele>
        <time>2019-10-16T17:38:06Z</time>
      </trkpt>
      <trkpt lat="33.040154" lon="-5.059427">
        <ele>2182.439</ele>
        <time>2019-10-16T17:38:58Z</time>
      </trkpt>
      <trkpt lat="33.040752" lon="-5.058915">
        <ele>2183.586</ele>
        <time>2019-10-16T17:39:09Z</time>
      </trkpt>
      <trkpt lat="33.042741" lon="-5.055263">
        <ele>2186.222</ele>
        <time>2019-10-16T17:40:10Z</time>
      </trkpt>
      <trkpt lat="33.045904" lon="-5.050227">
        <ele>2178.494</ele>
        <time>2019-10-16T17:41:26Z</time>
      </trkpt>
      <trkpt lat="33.046327" lon="-5.048566">
        <ele>2181.959</ele>
        <time>2019-10-16T17:41:50Z</time>
      </trkpt>
      <trkpt lat="33.046670" lon="-5.047773">
        <ele>2180.571</ele>
        <time>2019-10-16T17:42:00Z</time>
      </trkpt>
      <trkpt lat="33.049026" lon="-5.045110">
        <ele>2159.341</ele>
        <time>2019-10-16T17:48:00Z</time>
      </trkpt>
      <trkpt lat="33.050577" lon="-5.043734">
        <ele>2148.415</ele>
        <time>2019-10-16T17:48:19Z</time>
      </trkpt>
      <trkpt lat="33.057673" lon="-5.038277">
        <ele>2148.508</ele>
        <time>2019-10-16T17:50:23Z</time>
      </trkpt>
      <trkpt lat="33.060167" lon="-5.036718">
        <ele>2147.071</ele>
        <time>2019-10-16T17:51:07Z</time>
      </trkpt>
      <trkpt lat="33.061587" lon="-5.034436">
        <ele>2144.369</ele>
        <time>2019-10-16T17:51:38Z</time>
      </trkpt>
      <trkpt lat="33.063799" lon="-5.033034">
        <ele>2146.582</ele>
        <time>2019-10-16T17:54:04Z</time>
      </trkpt>
      <trkpt lat="33.065472" lon="-5.031765">
        <ele>2148.740</ele>
        <time>2019-10-16T17:54:35Z</time>
      </trkpt>
      <trkpt lat="33.066581" lon="-5.030138">
        <ele>2149.737</ele>
        <time>2019-10-16T17:55:04Z</time>
      </trkpt>
      <trkpt lat="33.068024" lon="-5.028913">
        <ele>2148.083</ele>
        <time>2019-10-16T17:55:30Z</time>
      </trkpt>
      <trkpt lat="33.070728" lon="-5.025556">
        <ele>2148.785</ele>
        <time>2019-10-16T17:56:29Z</time>
      </trkpt>
      <trkpt lat="33.071865" lon="-5.024544">
        <ele>2148.150</ele>
        <time>2019-10-16T17:56:51Z</time>
      </trkpt>
      <trkpt lat="33.073089" lon="-5.022569">
        <ele>2144.056</ele>
        <time>2019-10-16T17:57:23Z</time>
      </trkpt>
      <trkpt lat="33.074652" lon="-5.020999">
        <ele>2144.359</ele>
        <time>2019-10-16T17:57:55Z</time>
      </trkpt>
      <trkpt lat="33.076521" lon="-5.019820">
        <ele>2146.714</ele>
        <time>2019-10-16T17:58:31Z</time>
      </trkpt>
      <trkpt lat="33.078196" lon="-5.019431">
        <ele>2152.008</ele>
        <time>2019-10-16T17:59:03Z</time>
      </trkpt>
      <trkpt lat="33.080212" lon="-5.017770">
        <ele>2144.649</ele>
        <time>2019-10-16T17:59:41Z</time>
      </trkpt>
      <trkpt lat="33.081115" lon="-5.017511">
        <ele>2140.937</ele>
        <time>2019-10-16T17:59:52Z</time>
      </trkpt>
      <trkpt lat="33.087631" lon="-5.018067">
        <ele>2107.930</ele>
        <time>2019-10-16T18:01:01Z</time>
      </trkpt>
      <trkpt lat="33.090072" lon="-5.018762">
        <ele>2098.388</ele>
        <time>2019-10-16T18:01:34Z</time>
      </trkpt>
      <trkpt lat="33.090539" lon="-5.019085">
        <ele>2095.895</ele>
        <time>2019-10-16T18:01:42Z</time>
      </trkpt>
      <trkpt lat="33.091424" lon="-5.020146">
        <ele>2094.651</ele>
        <time>2019-10-16T18:02:02Z</time>
      </trkpt>
      <trkpt lat="33.092379" lon="-5.020906">
        <ele>2094.393</ele>
        <time>2019-10-16T18:02:19Z</time>
      </trkpt>
      <trkpt lat="33.096395" lon="-5.023088">
        <ele>2081.718</ele>
        <time>2019-10-16T18:03:21Z</time>
      </trkpt>
      <trkpt lat="33.097862" lon="-5.023480">
        <ele>2076.241</ele>
        <time>2019-10-16T18:03:39Z</time>
      </trkpt>
      <trkpt lat="33.099113" lon="-5.024300">
        <ele>2072.881</ele>
        <time>2019-10-16T18:03:59Z</time>
      </trkpt>
      <trkpt lat="33.100311" lon="-5.024668">
        <ele>2071.909</ele>
        <time>2019-10-16T18:04:17Z</time>
      </trkpt>
      <trkpt lat="33.101768" lon="-5.024958">
        <ele>2067.008</ele>
        <time>2019-10-16T18:04:36Z</time>
      </trkpt>
      <trkpt lat="33.104667" lon="-5.024055">
        <ele>2054.928</ele>
        <time>2019-10-16T18:05:06Z</time>
      </trkpt>
      <trkpt lat="33.106034" lon="-5.024224">
        <ele>2052.936</ele>
        <time>2019-10-16T18:05:25Z</time>
      </trkpt>
      <trkpt lat="33.106963" lon="-5.024704">
        <ele>2050.199</ele>
        <time>2019-10-16T18:06:02Z</time>
      </trkpt>
      <trkpt lat="33.108836" lon="-5.026286">
        <ele>2047.057</ele>
        <time>2019-10-16T18:07:27Z</time>
      </trkpt>
      <trkpt lat="33.113075" lon="-5.027423">
        <ele>2035.564</ele>
        <time>2019-10-16T18:08:36Z</time>
      </trkpt>
      <trkpt lat="33.114518" lon="-5.028964">
        <ele>2037.520</ele>
        <time>2019-10-16T18:09:09Z</time>
      </trkpt>
      <trkpt lat="33.115467" lon="-5.029652">
        <ele>2037.532</ele>
        <time>2019-10-16T18:09:31Z</time>
      </trkpt>
      <trkpt lat="33.116599" lon="-5.030177">
        <ele>2033.297</ele>
        <time>2019-10-16T18:09:51Z</time>
      </trkpt>
      <trkpt lat="33.117347" lon="-5.030315">
        <ele>2028.951</ele>
        <time>2019-10-16T18:10:02Z</time>
      </trkpt>
      <trkpt lat="33.120669" lon="-5.029968">
        <ele>2009.501</ele>
        <time>2019-10-16T18:10:33Z</time>
      </trkpt>
      <trkpt lat="33.121657" lon="-5.030123">
        <ele>2003.211</ele>
        <time>2019-10-16T18:10:42Z</time>
      </trkpt>
      <trkpt lat="33.128749" lon="-5.034776">
        <ele>1992.308</ele>
        <time>2019-10-16T18:12:52Z</time>
      </trkpt>
      <trkpt lat="33.130212" lon="-5.034849">
        <ele>1988.559</ele>
        <time>2019-10-16T18:13:17Z</time>
      </trkpt>
      <trkpt lat="33.130861" lon="-5.035089">
        <ele>1988.267</ele>
        <time>2019-10-16T18:13:30Z</time>
      </trkpt>
      <trkpt lat="33.132604" lon="-5.037272">
        <ele>1988.480</ele>
        <time>2019-10-16T18:14:14Z</time>
      </trkpt>
      <trkpt lat="33.132945" lon="-5.037490">
        <ele>1988.088</ele>
        <time>2019-10-16T18:14:24Z</time>
      </trkpt>
      <trkpt lat="33.133246" lon="-5.038411">
        <ele>1987.585</ele>
        <time>2019-10-16T18:14:41Z</time>
      </trkpt>
      <trkpt lat="33.138236" lon="-5.047004">
        <ele>1985.041</ele>
        <time>2019-10-16T18:17:35Z</time>
      </trkpt>
      <trkpt lat="33.143548" lon="-5.053387">
        <ele>1979.353</ele>
        <time>2019-10-16T18:19:54Z</time>
      </trkpt>
      <trkpt lat="33.143990" lon="-5.053807">
        <ele>1980.268</ele>
        <time>2019-10-16T18:20:04Z</time>
      </trkpt>
      <trkpt lat="33.144863" lon="-5.054184">
        <ele>1978.873</ele>
        <time>2019-10-16T18:20:21Z</time>
      </trkpt>
      <trkpt lat="33.145180" lon="-5.054471">
        <ele>1977.985</ele>
        <time>2019-10-16T18:20:28Z</time>
      </trkpt>
      <trkpt lat="33.145913" lon="-5.054460">
        <ele>1976.413</ele>
        <time>2019-10-16T18:20:44Z</time>
      </trkpt>
      <trkpt lat="33.148843" lon="-5.055452">
        <ele>1974.308</ele>
        <time>2019-10-16T18:21:38Z</time>
      </trkpt>
      <trkpt lat="33.149641" lon="-5.056207">
        <ele>1974.531</ele>
        <time>2019-10-16T18:22:24Z</time>
      </trkpt>
      <trkpt lat="33.149902" lon="-5.057011">
        <ele>1972.389</ele>
        <time>2019-10-16T18:22:37Z</time>
      </trkpt>
      <trkpt lat="33.150175" lon="-5.059085">
        <ele>1963.152</ele>
        <time>2019-10-16T18:23:03Z</time>
      </trkpt>
      <trkpt lat="33.150583" lon="-5.060309">
        <ele>1962.620</ele>
        <time>2019-10-16T18:23:55Z</time>
      </trkpt>
      <trkpt lat="33.152052" lon="-5.063150">
        <ele>1961.517</ele>
        <time>2019-10-16T18:24:48Z</time>
      </trkpt>
      <trkpt lat="33.152359" lon="-5.064357">
        <ele>1959.993</ele>
        <time>2019-10-16T18:25:12Z</time>
      </trkpt>
      <trkpt lat="33.152677" lon="-5.066737">
        <ele>1958.275</ele>
        <time>2019-10-16T18:25:56Z</time>
      </trkpt>
      <trkpt lat="33.153409" lon="-5.067687">
        <ele>1959.010</ele>
        <time>2019-10-16T18:26:17Z</time>
      </trkpt>
      <trkpt lat="33.154390" lon="-5.068197">
        <ele>1959.111</ele>
        <time>2019-10-16T18:26:35Z</time>
      </trkpt>
      <trkpt lat="33.155154" lon="-5.068062">
        <ele>1958.721</ele>
        <time>2019-10-16T18:26:47Z</time>
      </trkpt>
      <trkpt lat="33.160119" lon="-5.065809">
        <ele>1956.603</ele>
        <time>2019-10-16T18:32:43Z</time>
      </trkpt>
      <trkpt lat="33.162060" lon="-5.066176">
        <ele>1959.908</ele>
        <time>2019-10-16T18:33:22Z</time>
      </trkpt>
      <trkpt lat="33.162707" lon="-5.066056">
        <ele>1959.285</ele>
        <time>2019-10-16T18:33:39Z</time>
      </trkpt>
      <trkpt lat="33.163410" lon="-5.066503">
        <ele>1959.543</ele>
        <time>2019-10-16T18:34:01Z</time>
      </trkpt>
      <trkpt lat="33.163937" lon="-5.066622">
        <ele>1960.316</ele>
        <time>2019-10-16T18:35:25Z</time>
      </trkpt>
      <trkpt lat="33.164745" lon="-5.066521">
        <ele>1962.874</ele>
        <time>2019-10-16T18:35:45Z</time>
      </trkpt>
      <trkpt lat="33.169340" lon="-5.063975">
        <ele>1947.061</ele>
        <time>2019-10-16T18:36:51Z</time>
      </trkpt>
      <trkpt lat="33.169972" lon="-5.063419">
        <ele>1942.697</ele>
        <time>2019-10-16T18:37:02Z</time>
      </trkpt>
      <trkpt lat="33.170840" lon="-5.063155">
        <ele>1942.189</ele>
        <time>2019-10-16T18:37:20Z</time>
      </trkpt>
      <trkpt lat="33.173250" lon="-5.061795">
        <ele>1951.474</ele>
        <time>2019-10-16T18:38:28Z</time>
      </trkpt>
      <trkpt lat="33.173671" lon="-5.061687">
        <ele>1955.448</ele>
        <time>2019-10-16T18:38:42Z</time>
      </trkpt>
      <trkpt lat="33.177032" lon="-5.061645">
        <ele>1958.861</ele>
        <time>2019-10-16T18:40:00Z</time>
      </trkpt>
      <trkpt lat="33.178047" lon="-5.061334">
        <ele>1956.217</ele>
        <time>2019-10-16T18:40:17Z</time>
      </trkpt>
      <trkpt lat="33.178704" lon="-5.060774">
        <ele>1955.708</ele>
        <time>2019-10-16T18:40:33Z</time>
      </trkpt>
      <trkpt lat="33.179473" lon="-5.060527">
        <ele>1955.258</ele>
        <time>2019-10-16T18:40:47Z</time>
      </trkpt>
      <trkpt lat="33.180130" lon="-5.060571">
        <ele>1953.326</ele>
        <time>2019-10-16T18:40:56Z</time>
      </trkpt>
      <trkpt lat="33.184525" lon="-5.061995">
        <ele>1945.319</ele>
        <time>2019-10-16T18:42:14Z</time>
      </trkpt>
      <trkpt lat="33.186045" lon="-5.062148">
        <ele>1948.657</ele>
        <time>2019-10-16T18:42:43Z</time>
      </trkpt>
      <trkpt lat="33.188337" lon="-5.061757">
        <ele>1940.034</ele>
        <time>2019-10-16T18:43:14Z</time>
      </trkpt>
      <trkpt lat="33.191823" lon="-5.062160">
        <ele>1923.960</ele>
        <time>2019-10-16T18:43:49Z</time>
      </trkpt>
      <trkpt lat="33.194213" lon="-5.063311">
        <ele>1915.532</ele>
        <time>2019-10-16T18:44:23Z</time>
      </trkpt>
      <trkpt lat="33.198473" lon="-5.063980">
        <ele>1904.617</ele>
        <time>2019-10-16T18:45:15Z</time>
      </trkpt>
      <trkpt lat="33.200637" lon="-5.063731">
        <ele>1904.912</ele>
        <time>2019-10-16T18:45:51Z</time>
      </trkpt>
      <trkpt lat="33.205285" lon="-5.062167">
        <ele>1912.132</ele>
        <time>2019-10-16T18:47:18Z</time>
      </trkpt>
      <trkpt lat="33.205733" lon="-5.061841">
        <ele>1914.005</ele>
        <time>2019-10-16T18:47:31Z</time>
      </trkpt>
      <trkpt lat="33.206172" lon="-5.061851">
        <ele>1914.608</ele>
        <time>2019-10-16T18:47:41Z</time>
      </trkpt>
      <trkpt lat="33.208647" lon="-5.061017">
        <ele>1918.525</ele>
        <time>2019-10-16T18:48:30Z</time>
      </trkpt>
      <trkpt lat="33.209694" lon="-5.060560">
        <ele>1911.873</ele>
        <time>2019-10-16T18:48:42Z</time>
      </trkpt>
      <trkpt lat="33.211110" lon="-5.059607">
        <ele>1900.496</ele>
        <time>2019-10-16T18:49:00Z</time>
      </trkpt>
      <trkpt lat="33.228813" lon="-5.060082">
        <ele>1880.314</ele>
        <time>2019-10-16T18:53:48Z</time>
      </trkpt>
      <trkpt lat="33.229830" lon="-5.059764">
        <ele>1881.691</ele>
        <time>2019-10-16T18:54:09Z</time>
      </trkpt>
      <trkpt lat="33.231341" lon="-5.058421">
        <ele>1877.537</ele>
        <time>2019-10-16T18:54:41Z</time>
      </trkpt>
      <trkpt lat="33.232383" lon="-5.058112">
        <ele>1875.419</ele>
        <time>2019-10-16T18:54:58Z</time>
      </trkpt>
      <trkpt lat="33.234403" lon="-5.058282">
        <ele>1884.944</ele>
        <time>2019-10-16T18:56:03Z</time>
      </trkpt>
      <trkpt lat="33.235806" lon="-5.058638">
        <ele>1875.399</ele>
        <time>2019-10-16T18:57:51Z</time>
      </trkpt>
      <trkpt lat="33.236894" lon="-5.059480">
        <ele>1864.407</ele>
        <time>2019-10-16T18:58:54Z</time>
      </trkpt>
      <trkpt lat="33.237148" lon="-5.059179">
        <ele>1867.427</ele>
        <time>2019-10-16T18:59:19Z</time>
      </trkpt>
      <trkpt lat="33.236910" lon="-5.059456">
        <ele>1868.908</ele>
        <time>2019-10-16T18:59:50Z</time>
      </trkpt>
      <trkpt lat="33.236767" lon="-5.059426">
        <ele>1869.483</ele>
        <time>2019-10-16T18:59:57Z</time>
      </trkpt>
      <trkpt lat="33.236205" lon="-5.058981">
        <ele>1870.691</ele>
        <time>2019-10-16T19:00:44Z</time>
      </trkpt>
      <trkpt lat="33.236250" lon="-5.058740">
        <ele>1871.164</ele>
        <time>2019-10-16T19:06:08Z</time>
      </trkpt>
      <trkpt lat="33.235079" lon="-5.058402">
        <ele>1874.572</ele>
        <time>2019-10-16T19:11:42Z</time>
      </trkpt>
      <trkpt lat="33.235079" lon="-5.058428">
        <ele>1823.954</ele>
        <time>2019-10-17T11:09:52Z</time>
      </trkpt>
      <trkpt lat="33.236530" lon="-5.059073">
        <ele>1823.556</ele>
        <time>2019-10-17T11:11:00Z</time>
      </trkpt>
      <trkpt lat="33.237176" lon="-5.059917">
        <ele>1824.811</ele>
        <time>2019-10-17T11:11:35Z</time>
      </trkpt>
      <trkpt lat="33.238965" lon="-5.064109">
        <ele>1819.008</ele>
        <time>2019-10-17T11:13:07Z</time>
      </trkpt>
      <trkpt lat="33.238877" lon="-5.064994">
        <ele>1816.519</ele>
        <time>2019-10-17T11:13:28Z</time>
      </trkpt>
      <trkpt lat="33.239001" lon="-5.065760">
        <ele>1815.327</ele>
        <time>2019-10-17T11:13:42Z</time>
      </trkpt>
      <trkpt lat="33.239737" lon="-5.066830">
        <ele>1817.410</ele>
        <time>2019-10-17T11:14:05Z</time>
      </trkpt>
      <trkpt lat="33.240641" lon="-5.070207">
        <ele>1822.581</ele>
        <time>2019-10-17T11:15:16Z</time>
      </trkpt>
      <trkpt lat="33.241307" lon="-5.071203">
        <ele>1821.756</ele>
        <time>2019-10-17T11:15:41Z</time>
      </trkpt>
      <trkpt lat="33.242095" lon="-5.071664">
        <ele>1820.171</ele>
        <time>2019-10-17T11:15:55Z</time>
      </trkpt>
      <trkpt lat="33.243605" lon="-5.071722">
        <ele>1813.612</ele>
        <time>2019-10-17T11:16:15Z</time>
      </trkpt>
      <trkpt lat="33.255747" lon="-5.070791">
        <ele>1796.429</ele>
        <time>2019-10-17T11:20:40Z</time>
      </trkpt>
      <trkpt lat="33.256610" lon="-5.071046">
        <ele>1797.013</ele>
        <time>2019-10-17T11:20:58Z</time>
      </trkpt>
      <trkpt lat="33.258341" lon="-5.072176">
        <ele>1805.843</ele>
        <time>2019-10-17T11:21:47Z</time>
      </trkpt>
      <trkpt lat="33.258998" lon="-5.072411">
        <ele>1808.107</ele>
        <time>2019-10-17T11:22:05Z</time>
      </trkpt>
      <trkpt lat="33.269530" lon="-5.073394">
        <ele>1820.608</ele>
        <time>2019-10-17T11:30:03Z</time>
      </trkpt>
      <trkpt lat="33.276080" lon="-5.074334">
        <ele>1827.915</ele>
        <time>2019-10-17T11:32:36Z</time>
      </trkpt>
      <trkpt lat="33.277333" lon="-5.074559">
        <ele>1826.793</ele>
        <time>2019-10-17T11:35:28Z</time>
      </trkpt>
      <trkpt lat="33.277417" lon="-5.074732">
        <ele>1827.436</ele>
        <time>2019-10-17T11:36:17Z</time>
      </trkpt>
      <trkpt lat="33.277710" lon="-5.074652">
        <ele>1827.797</ele>
        <time>2019-10-17T11:36:30Z</time>
      </trkpt>
      <trkpt lat="33.281256" lon="-5.075448">
        <ele>1820.532</ele>
        <time>2019-10-17T11:37:37Z</time>
      </trkpt>
      <trkpt lat="33.288071" lon="-5.077239">
        <ele>1834.067</ele>
        <time>2019-10-17T11:41:08Z</time>
      </trkpt>
      <trkpt lat="33.289117" lon="-5.077707">
        <ele>1837.868</ele>
        <time>2019-10-17T11:41:42Z</time>
      </trkpt>
      <trkpt lat="33.290104" lon="-5.078534">
        <ele>1844.545</ele>
        <time>2019-10-17T11:42:24Z</time>
      </trkpt>
      <trkpt lat="33.291363" lon="-5.080249">
        <ele>1847.971</ele>
        <time>2019-10-17T11:43:16Z</time>
      </trkpt>
      <trkpt lat="33.295669" lon="-5.087937">
        <ele>1861.741</ele>
        <time>2019-10-17T11:46:42Z</time>
      </trkpt>
      <trkpt lat="33.299651" lon="-5.095664">
        <ele>1856.815</ele>
        <time>2019-10-17T11:50:56Z</time>
      </trkpt>
      <trkpt lat="33.301199" lon="-5.097613">
        <ele>1861.708</ele>
        <time>2019-10-17T11:51:51Z</time>
      </trkpt>
      <trkpt lat="33.302148" lon="-5.099605">
        <ele>1867.061</ele>
        <time>2019-10-17T11:52:43Z</time>
      </trkpt>
      <trkpt lat="33.303024" lon="-5.102876">
        <ele>1871.389</ele>
        <time>2019-10-17T11:53:54Z</time>
      </trkpt>
      <trkpt lat="33.303962" lon="-5.104809">
        <ele>1871.382</ele>
        <time>2019-10-17T11:54:33Z</time>
      </trkpt>
      <trkpt lat="33.306301" lon="-5.108689">
        <ele>1865.133</ele>
        <time>2019-10-17T11:55:47Z</time>
      </trkpt>
      <trkpt lat="33.311286" lon="-5.115007">
        <ele>1890.878</ele>
        <time>2019-10-17T11:59:42Z</time>
      </trkpt>
      <trkpt lat="33.312214" lon="-5.115757">
        <ele>1897.553</ele>
        <time>2019-10-17T12:00:31Z</time>
      </trkpt>
      <trkpt lat="33.315389" lon="-5.117608">
        <ele>1914.464</ele>
        <time>2019-10-17T12:02:55Z</time>
      </trkpt>
      <trkpt lat="33.316208" lon="-5.118348">
        <ele>1916.641</ele>
        <time>2019-10-17T12:03:33Z</time>
      </trkpt>
      <trkpt lat="33.323111" lon="-5.127426">
        <ele>1939.987</ele>
        <time>2019-10-17T12:11:29Z</time>
      </trkpt>
      <trkpt lat="33.326604" lon="-5.129775">
        <ele>1939.742</ele>
        <time>2019-10-17T12:12:56Z</time>
      </trkpt>
      <trkpt lat="33.328545" lon="-5.131445">
        <ele>1939.226</ele>
        <time>2019-10-17T12:13:47Z</time>
      </trkpt>
      <trkpt lat="33.334740" lon="-5.133209">
        <ele>1921.208</ele>
        <time>2019-10-17T12:15:18Z</time>
      </trkpt>
      <trkpt lat="33.354177" lon="-5.144165">
        <ele>1935.092</ele>
        <time>2019-10-17T12:24:45Z</time>
      </trkpt>
      <trkpt lat="33.354582" lon="-5.144568">
        <ele>1934.670</ele>
        <time>2019-10-17T12:24:54Z</time>
      </trkpt>
      <trkpt lat="33.357861" lon="-5.149276">
        <ele>1949.233</ele>
        <time>2019-10-17T12:27:24Z</time>
      </trkpt>
      <trkpt lat="33.358042" lon="-5.149791">
        <ele>1946.664</ele>
        <time>2019-10-17T12:33:34Z</time>
      </trkpt>
      <trkpt lat="33.357915" lon="-5.149545">
        <ele>1948.719</ele>
        <time>2019-10-17T12:42:40Z</time>
      </trkpt>
      <trkpt lat="33.358843" lon="-5.150005">
        <ele>1947.274</ele>
        <time>2019-10-17T12:43:54Z</time>
      </trkpt>
      <trkpt lat="33.363642" lon="-5.149764">
        <ele>1922.635</ele>
        <time>2019-10-17T12:44:41Z</time>
      </trkpt>
      <trkpt lat="33.364670" lon="-5.149990">
        <ele>1918.282</ele>
        <time>2019-10-17T12:44:57Z</time>
      </trkpt>
      <trkpt lat="33.382901" lon="-5.162904">
        <ele>1959.897</ele>
        <time>2019-10-17T12:56:35Z</time>
      </trkpt>
      <trkpt lat="33.387023" lon="-5.164475">
        <ele>1955.323</ele>
        <time>2019-10-17T13:13:37Z</time>
      </trkpt>
      <trkpt lat="33.393206" lon="-5.167448">
        <ele>1928.525</ele>
        <time>2019-10-17T13:15:15Z</time>
      </trkpt>
      <trkpt lat="33.395030" lon="-5.168964">
        <ele>1913.808</ele>
        <time>2019-10-17T13:15:40Z</time>
      </trkpt>
      <trkpt lat="33.395645" lon="-5.169688">
        <ele>1910.673</ele>
        <time>2019-10-17T13:15:51Z</time>
      </trkpt>
      <trkpt lat="33.397670" lon="-5.173070">
        <ele>1904.361</ele>
        <time>2019-10-17T13:17:26Z</time>
      </trkpt>
      <trkpt lat="33.399891" lon="-5.175662">
        <ele>1888.594</ele>
        <time>2019-10-17T13:18:01Z</time>
      </trkpt>
      <trkpt lat="33.400862" lon="-5.178818">
        <ele>1866.135</ele>
        <time>2019-10-17T13:18:27Z</time>
      </trkpt>
      <trkpt lat="33.401228" lon="-5.179554">
        <ele>1860.030</ele>
        <time>2019-10-17T13:18:33Z</time>
      </trkpt>
      <trkpt lat="33.403560" lon="-5.181939">
        <ele>1837.015</ele>
        <time>2019-10-17T13:18:59Z</time>
      </trkpt>
      <trkpt lat="33.404949" lon="-5.183951">
        <ele>1831.286</ele>
        <time>2019-10-17T13:21:24Z</time>
      </trkpt>
      <trkpt lat="33.405394" lon="-5.184337">
        <ele>1831.683</ele>
        <time>2019-10-17T13:21:40Z</time>
      </trkpt>
      <trkpt lat="33.406170" lon="-5.184732">
        <ele>1831.025</ele>
        <time>2019-10-17T13:22:02Z</time>
      </trkpt>
      <trkpt lat="33.406345" lon="-5.184386">
        <ele>1834.926</ele>
        <time>2019-10-17T13:51:22Z</time>
      </trkpt>
      <trkpt lat="33.406232" lon="-5.184661">
        <ele>1838.908</ele>
        <time>2019-10-17T14:04:23Z</time>
      </trkpt>
      <trkpt lat="33.406457" lon="-5.184902">
        <ele>1833.208</ele>
        <time>2019-10-17T14:04:41Z</time>
      </trkpt>
      <trkpt lat="33.407245" lon="-5.185166">
        <ele>1826.236</ele>
        <time>2019-10-17T14:05:10Z</time>
      </trkpt>
      <trkpt lat="33.407623" lon="-5.185102">
        <ele>1823.444</ele>
        <time>2019-10-17T14:05:19Z</time>
      </trkpt>
      <trkpt lat="33.412266" lon="-5.181787">
        <ele>1803.747</ele>
        <time>2019-10-17T14:07:17Z</time>
      </trkpt>
      <trkpt lat="33.415041" lon="-5.179583">
        <ele>1774.768</ele>
        <time>2019-10-17T14:09:17Z</time>
      </trkpt>
      <trkpt lat="33.415447" lon="-5.179403">
        <ele>1772.083</ele>
        <time>2019-10-17T14:13:26Z</time>
      </trkpt>
      <trkpt lat="33.415143" lon="-5.179423">
        <ele>1771.358</ele>
        <time>2019-10-17T14:14:38Z</time>
      </trkpt>
      <trkpt lat="33.415820" lon="-5.179374">
        <ele>1765.889</ele>
        <time>2019-10-17T14:45:27Z</time>
      </trkpt>
      <trkpt lat="33.420275" lon="-5.178034">
        <ele>1747.956</ele>
        <time>2019-10-17T14:47:13Z</time>
      </trkpt>
      <trkpt lat="33.420136" lon="-5.178034">
        <ele>1752.566</ele>
        <time>2019-10-17T14:47:26Z</time>
      </trkpt>
      <trkpt lat="33.420316" lon="-5.177898">
        <ele>1753.029</ele>
        <time>2019-10-17T14:47:54Z</time>
      </trkpt>
      <trkpt lat="33.421647" lon="-5.178696">
        <ele>1740.321</ele>
        <time>2019-10-17T14:56:28Z</time>
      </trkpt>
      <trkpt lat="33.422584" lon="-5.178642">
        <ele>1735.508</ele>
        <time>2019-10-17T14:56:39Z</time>
      </trkpt>
      <trkpt lat="33.423858" lon="-5.179069">
        <ele>1725.790</ele>
        <time>2019-10-17T14:56:57Z</time>
      </trkpt>
      <trkpt lat="33.424617" lon="-5.179010">
        <ele>1725.398</ele>
        <time>2019-10-17T15:02:28Z</time>
      </trkpt>
      <trkpt lat="33.425850" lon="-5.178227">
        <ele>1712.821</ele>
        <time>2019-10-17T15:02:53Z</time>
      </trkpt>
      <trkpt lat="33.426186" lon="-5.177721">
        <ele>1707.932</ele>
        <time>2019-10-17T15:02:59Z</time>
      </trkpt>
      <trkpt lat="33.426308" lon="-5.176744">
        <ele>1701.617</ele>
        <time>2019-10-17T15:03:10Z</time>
      </trkpt>
      <trkpt lat="33.426698" lon="-5.175986">
        <ele>1694.712</ele>
        <time>2019-10-17T15:03:19Z</time>
      </trkpt>
      <trkpt lat="33.427765" lon="-5.174524">
        <ele>1683.093</ele>
        <time>2019-10-17T15:03:41Z</time>
      </trkpt>
      <trkpt lat="33.428375" lon="-5.174211">
        <ele>1678.440</ele>
        <time>2019-10-17T15:03:51Z</time>
      </trkpt>
      <trkpt lat="33.428962" lon="-5.174087">
        <ele>1675.764</ele>
        <time>2019-10-17T15:03:59Z</time>
      </trkpt>
      <trkpt lat="33.431366" lon="-5.174972">
        <ele>1658.206</ele>
        <time>2019-10-17T15:05:53Z</time>
      </trkpt>
      <trkpt lat="33.434303" lon="-5.180940">
        <ele>1616.716</ele>
        <time>2019-10-17T15:06:58Z</time>
      </trkpt>
      <trkpt lat="33.435081" lon="-5.185077">
        <ele>1603.908</ele>
        <time>2019-10-17T15:07:35Z</time>
      </trkpt>
      <trkpt lat="33.435052" lon="-5.185480">
        <ele>1602.540</ele>
        <time>2019-10-17T15:07:39Z</time>
      </trkpt>
      <trkpt lat="33.434861" lon="-5.185836">
        <ele>1602.228</ele>
        <time>2019-10-17T15:07:43Z</time>
      </trkpt>
      <trkpt lat="33.434192" lon="-5.186302">
        <ele>1598.681</ele>
        <time>2019-10-17T15:07:51Z</time>
      </trkpt>
      <trkpt lat="33.433622" lon="-5.186970">
        <ele>1593.632</ele>
        <time>2019-10-17T15:07:59Z</time>
      </trkpt>
      <trkpt lat="33.428855" lon="-5.189928">
        <ele>1560.667</ele>
        <time>2019-10-17T15:12:05Z</time>
      </trkpt>
      <trkpt lat="33.427708" lon="-5.190818">
        <ele>1547.222</ele>
        <time>2019-10-17T15:12:19Z</time>
      </trkpt>
      <trkpt lat="33.427063" lon="-5.191682">
        <ele>1533.233</ele>
        <time>2019-10-17T15:17:09Z</time>
      </trkpt>
      <trkpt lat="33.426050" lon="-5.192277">
        <ele>1527.410</ele>
        <time>2019-10-17T15:17:22Z</time>
      </trkpt>
      <trkpt lat="33.425522" lon="-5.194767">
        <ele>1510.211</ele>
        <time>2019-10-17T15:17:42Z</time>
      </trkpt>
      <trkpt lat="33.425708" lon="-5.196680">
        <ele>1495.921</ele>
        <time>2019-10-17T15:17:56Z</time>
      </trkpt>
      <trkpt lat="33.425872" lon="-5.197136">
        <ele>1491.703</ele>
        <time>2019-10-17T15:18:00Z</time>
      </trkpt>
      <trkpt lat="33.426894" lon="-5.198336">
        <ele>1479.108</ele>
        <time>2019-10-17T15:18:13Z</time>
      </trkpt>
      <trkpt lat="33.427879" lon="-5.199077">
        <ele>1467.025</ele>
        <time>2019-10-17T15:18:31Z</time>
      </trkpt>
      <trkpt lat="33.428020" lon="-5.201009">
        <ele>1455.573</ele>
        <time>2019-10-17T15:19:00Z</time>
      </trkpt>
      <trkpt lat="33.428633" lon="-5.202798">
        <ele>1446.296</ele>
        <time>2019-10-17T15:19:17Z</time>
      </trkpt>
      <trkpt lat="33.429138" lon="-5.202973">
        <ele>1440.447</ele>
        <time>2019-10-17T15:19:23Z</time>
      </trkpt>
      <trkpt lat="33.430627" lon="-5.202626">
        <ele>1428.282</ele>
        <time>2019-10-17T15:19:37Z</time>
      </trkpt>
      <trkpt lat="33.431663" lon="-5.202756">
        <ele>1420.387</ele>
        <time>2019-10-17T15:19:46Z</time>
      </trkpt>
      <trkpt lat="33.433716" lon="-5.204209">
        <ele>1401.698</ele>
        <time>2019-10-17T15:20:10Z</time>
      </trkpt>
      <trkpt lat="33.433890" lon="-5.204501">
        <ele>1398.185</ele>
        <time>2019-10-17T15:20:16Z</time>
      </trkpt>
      <trkpt lat="33.433811" lon="-5.204799">
        <ele>1395.043</ele>
        <time>2019-10-17T15:21:48Z</time>
      </trkpt>
      <trkpt lat="33.433995" lon="-5.204415">
        <ele>1448.864</ele>
        <time>2019-10-17T16:02:26Z</time>
      </trkpt>
      <trkpt lat="33.435528" lon="-5.205453">
        <ele>1442.010</ele>
        <time>2019-10-17T16:03:08Z</time>
      </trkpt>
      <trkpt lat="33.436351" lon="-5.205748">
        <ele>1439.208</ele>
        <time>2019-10-17T16:03:21Z</time>
      </trkpt>
      <trkpt lat="33.437313" lon="-5.205855">
        <ele>1443.978</ele>
        <time>2019-10-17T16:03:51Z</time>
      </trkpt>
      <trkpt lat="33.438443" lon="-5.205704">
        <ele>1455.636</ele>
        <time>2019-10-17T16:04:49Z</time>
      </trkpt>
      <trkpt lat="33.439054" lon="-5.205180">
        <ele>1452.619</ele>
        <time>2019-10-17T16:05:16Z</time>
      </trkpt>
      <trkpt lat="33.440786" lon="-5.201386">
        <ele>1449.270</ele>
        <time>2019-10-17T16:07:46Z</time>
      </trkpt>
      <trkpt lat="33.441420" lon="-5.198950">
        <ele>1454.975</ele>
        <time>2019-10-17T16:08:31Z</time>
      </trkpt>
      <trkpt lat="33.443984" lon="-5.194112">
        <ele>1470.850</ele>
        <time>2019-10-17T16:11:13Z</time>
      </trkpt>
      <trkpt lat="33.446268" lon="-5.186224">
        <ele>1500.371</ele>
        <time>2019-10-17T16:16:31Z</time>
      </trkpt>
      <trkpt lat="33.446308" lon="-5.184665">
        <ele>1507.758</ele>
        <time>2019-10-17T16:17:31Z</time>
      </trkpt>
      <trkpt lat="33.446065" lon="-5.183063">
        <ele>1511.237</ele>
        <time>2019-10-17T16:18:27Z</time>
      </trkpt>
      <trkpt lat="33.446084" lon="-5.182205">
        <ele>1512.549</ele>
        <time>2019-10-17T16:18:56Z</time>
      </trkpt>
      <trkpt lat="33.447211" lon="-5.179408">
        <ele>1524.213</ele>
        <time>2019-10-17T16:20:48Z</time>
      </trkpt>
      <trkpt lat="33.449177" lon="-5.171652">
        <ele>1549.508</ele>
        <time>2019-10-17T16:25:13Z</time>
      </trkpt>
      <trkpt lat="33.449829" lon="-5.170531">
        <ele>1555.927</ele>
        <time>2019-10-17T16:26:01Z</time>
      </trkpt>
      <trkpt lat="33.455282" lon="-5.167338">
        <ele>1582.935</ele>
        <time>2019-10-17T16:29:53Z</time>
      </trkpt>
      <trkpt lat="33.456702" lon="-5.166814">
        <ele>1593.128</ele>
        <time>2019-10-17T16:31:17Z</time>
      </trkpt>
      <trkpt lat="33.458430" lon="-5.165680">
        <ele>1605.539</ele>
        <time>2019-10-17T16:33:11Z</time>
      </trkpt>
      <trkpt lat="33.459812" lon="-5.165320">
        <ele>1613.114</ele>
        <time>2019-10-17T16:34:48Z</time>
      </trkpt>
      <trkpt lat="33.461321" lon="-5.163705">
        <ele>1624.389</ele>
        <time>2019-10-17T16:37:28Z</time>
      </trkpt>
      <trkpt lat="33.464010" lon="-5.161897">
        <ele>1646.650</ele>
        <time>2019-10-17T16:41:53Z</time>
      </trkpt>
      <trkpt lat="33.464350" lon="-5.161871">
        <ele>1649.977</ele>
        <time>2019-10-17T16:42:11Z</time>
      </trkpt>
      <trkpt lat="33.464755" lon="-5.162087">
        <ele>1652.239</ele>
        <time>2019-10-17T16:42:35Z</time>
      </trkpt>
      <trkpt lat="33.465615" lon="-5.163126">
        <ele>1657.101</ele>
        <time>2019-10-17T16:43:40Z</time>
      </trkpt>
      <trkpt lat="33.465700" lon="-5.163345">
        <ele>1658.721</ele>
        <time>2019-10-17T16:43:49Z</time>
      </trkpt>
      <trkpt lat="33.465603" lon="-5.163667">
        <ele>1661.608</ele>
        <time>2019-10-17T16:45:07Z</time>
      </trkpt>
      <trkpt lat="33.465599" lon="-5.163427">
        <ele>1658.557</ele>
        <time>2019-10-17T16:51:04Z</time>
      </trkpt>
      <trkpt lat="33.465621" lon="-5.163678">
        <ele>1661.835</ele>
        <time>2019-10-17T16:53:12Z</time>
      </trkpt>
      <trkpt lat="33.465638" lon="-5.163504">
        <ele>1661.138</ele>
        <time>2019-10-17T16:55:43Z</time>
      </trkpt>
      <trkpt lat="33.465911" lon="-5.163533">
        <ele>1661.699</ele>
        <time>2019-10-17T16:55:58Z</time>
      </trkpt>
      <trkpt lat="33.466865" lon="-5.164484">
        <ele>1668.274</ele>
        <time>2019-10-17T16:56:35Z</time>
      </trkpt>
      <trkpt lat="33.467644" lon="-5.164683">
        <ele>1672.059</ele>
        <time>2019-10-17T16:57:12Z</time>
      </trkpt>
      <trkpt lat="33.468401" lon="-5.164579">
        <ele>1676.080</ele>
        <time>2019-10-17T16:57:56Z</time>
      </trkpt>
      <trkpt lat="33.469670" lon="-5.164929">
        <ele>1685.657</ele>
        <time>2019-10-17T16:59:01Z</time>
      </trkpt>
      <trkpt lat="33.470108" lon="-5.164818">
        <ele>1687.455</ele>
        <time>2019-10-17T16:59:21Z</time>
      </trkpt>
      <trkpt lat="33.471175" lon="-5.163666">
        <ele>1685.807</ele>
        <time>2019-10-17T17:00:29Z</time>
      </trkpt>
      <trkpt lat="33.472338" lon="-5.162927">
        <ele>1700.817</ele>
        <time>2019-10-17T17:01:33Z</time>
      </trkpt>
      <trkpt lat="33.473099" lon="-5.161794">
        <ele>1702.908</ele>
        <time>2019-10-17T17:02:31Z</time>
      </trkpt>
      <trkpt lat="33.474539" lon="-5.160436">
        <ele>1713.679</ele>
        <time>2019-10-17T17:04:05Z</time>
      </trkpt>
      <trkpt lat="33.474752" lon="-5.160013">
        <ele>1714.347</ele>
        <time>2019-10-17T17:04:22Z</time>
      </trkpt>
      <trkpt lat="33.474966" lon="-5.158802">
        <ele>1718.940</ele>
        <time>2019-10-17T17:04:52Z</time>
      </trkpt>
      <trkpt lat="33.475498" lon="-5.157920">
        <ele>1721.191</ele>
        <time>2019-10-17T17:05:13Z</time>
      </trkpt>
      <trkpt lat="33.483168" lon="-5.151980">
        <ele>1701.256</ele>
        <time>2019-10-17T17:10:24Z</time>
      </trkpt>
      <trkpt lat="33.483505" lon="-5.151497">
        <ele>1700.331</ele>
        <time>2019-10-17T17:10:32Z</time>
      </trkpt>
      <trkpt lat="33.485068" lon="-5.147953">
        <ele>1704.372</ele>
        <time>2019-10-17T17:11:56Z</time>
      </trkpt>
      <trkpt lat="33.485584" lon="-5.147331">
        <ele>1708.249</ele>
        <time>2019-10-17T17:12:26Z</time>
      </trkpt>
      <trkpt lat="33.486062" lon="-5.147049">
        <ele>1711.325</ele>
        <time>2019-10-17T17:12:49Z</time>
      </trkpt>
      <trkpt lat="33.487954" lon="-5.146909">
        <ele>1739.126</ele>
        <time>2019-10-17T17:14:09Z</time>
      </trkpt>
      <trkpt lat="33.488453" lon="-5.147004">
        <ele>1741.908</ele>
        <time>2019-10-17T17:14:34Z</time>
      </trkpt>
      <trkpt lat="33.489738" lon="-5.147630">
        <ele>1730.308</ele>
        <time>2019-10-17T17:15:38Z</time>
      </trkpt>
      <trkpt lat="33.501724" lon="-5.149434">
        <ele>1713.666</ele>
        <time>2019-10-17T17:21:45Z</time>
      </trkpt>
      <trkpt lat="33.502672" lon="-5.149338">
        <ele>1713.284</ele>
        <time>2019-10-17T17:22:03Z</time>
      </trkpt>
      <trkpt lat="33.503382" lon="-5.148930">
        <ele>1711.267</ele>
        <time>2019-10-17T17:22:17Z</time>
      </trkpt>
      <trkpt lat="33.503912" lon="-5.148357">
        <ele>1708.998</ele>
        <time>2019-10-17T17:22:30Z</time>
      </trkpt>
      <trkpt lat="33.504256" lon="-5.147700">
        <ele>1707.063</ele>
        <time>2019-10-17T17:22:40Z</time>
      </trkpt>
      <trkpt lat="33.504447" lon="-5.146158">
        <ele>1701.718</ele>
        <time>2019-10-17T17:22:57Z</time>
      </trkpt>
      <trkpt lat="33.504230" lon="-5.145287">
        <ele>1698.519</ele>
        <time>2019-10-17T17:23:07Z</time>
      </trkpt>
      <trkpt lat="33.501356" lon="-5.137594">
        <ele>1713.686</ele>
        <time>2019-10-17T17:28:36Z</time>
      </trkpt>
      <trkpt lat="33.501178" lon="-5.136427">
        <ele>1714.056</ele>
        <time>2019-10-17T17:29:03Z</time>
      </trkpt>
      <trkpt lat="33.501553" lon="-5.134668">
        <ele>1711.059</ele>
        <time>2019-10-17T17:29:56Z</time>
      </trkpt>
      <trkpt lat="33.505039" lon="-5.130899">
        <ele>1705.814</ele>
        <time>2019-10-17T17:33:55Z</time>
      </trkpt>
      <trkpt lat="33.506440" lon="-5.128659">
        <ele>1699.908</ele>
        <time>2019-10-17T17:34:58Z</time>
      </trkpt>
      <trkpt lat="33.508218" lon="-5.126302">
        <ele>1702.159</ele>
        <time>2019-10-17T17:35:52Z</time>
      </trkpt>
      <trkpt lat="33.509116" lon="-5.124202">
        <ele>1702.547</ele>
        <time>2019-10-17T17:36:30Z</time>
      </trkpt>
      <trkpt lat="33.509589" lon="-5.123548">
        <ele>1700.540</ele>
        <time>2019-10-17T17:36:42Z</time>
      </trkpt>
      <trkpt lat="33.513229" lon="-5.120435">
        <ele>1695.881</ele>
        <time>2019-10-17T17:39:05Z</time>
      </trkpt>
      <trkpt lat="33.513662" lon="-5.119866">
        <ele>1693.076</ele>
        <time>2019-10-17T17:39:15Z</time>
      </trkpt>
      <trkpt lat="33.514010" lon="-5.119808">
        <ele>1692.021</ele>
        <time>2019-10-17T17:39:21Z</time>
      </trkpt>
      <trkpt lat="33.515609" lon="-5.118409">
        <ele>1690.772</ele>
        <time>2019-10-17T17:40:10Z</time>
      </trkpt>
      <trkpt lat="33.515671" lon="-5.117999">
        <ele>1693.349</ele>
        <time>2019-10-17T17:40:48Z</time>
      </trkpt>
      <trkpt lat="33.515507" lon="-5.118089">
        <ele>1693.282</ele>
        <time>2019-10-17T17:41:04Z</time>
      </trkpt>
      <trkpt lat="33.515600" lon="-5.118226">
        <ele>1692.043</ele>
        <time>2019-10-17T17:46:28Z</time>
      </trkpt>
      <trkpt lat="33.515504" lon="-5.118332">
        <ele>1693.517</ele>
        <time>2019-10-17T17:49:23Z</time>
      </trkpt>
      <trkpt lat="33.515256" lon="-5.118311">
        <ele>1692.808</ele>
        <time>2019-10-17T17:49:35Z</time>
      </trkpt>
      <trkpt lat="33.515035" lon="-5.118192">
        <ele>1691.262</ele>
        <time>2019-10-17T17:49:47Z</time>
      </trkpt>
      <trkpt lat="33.514970" lon="-5.117847">
        <ele>1694.360</ele>
        <time>2019-10-17T17:51:08Z</time>
      </trkpt>
      <trkpt lat="33.515028" lon="-5.118168">
        <ele>1703.133</ele>
        <time>2019-10-17T18:19:04Z</time>
      </trkpt>
      <trkpt lat="33.515430" lon="-5.118299">
        <ele>1694.324</ele>
        <time>2019-10-17T18:19:53Z</time>
      </trkpt>
      <trkpt lat="33.515583" lon="-5.118260">
        <ele>1692.349</ele>
        <time>2019-10-17T18:20:03Z</time>
      </trkpt>
      <trkpt lat="33.515702" lon="-5.117902">
        <ele>1692.964</ele>
        <time>2019-10-17T18:20:25Z</time>
      </trkpt>
      <trkpt lat="33.515561" lon="-5.118285">
        <ele>1692.645</ele>
        <time>2019-10-17T18:20:39Z</time>
      </trkpt>
      <trkpt lat="33.515176" lon="-5.118148">
        <ele>1692.832</ele>
        <time>2019-10-17T18:39:25Z</time>
      </trkpt>
      <trkpt lat="33.515722" lon="-5.118346">
        <ele>1692.533</ele>
        <time>2019-10-17T18:39:46Z</time>
      </trkpt>
      <trkpt lat="33.517896" lon="-5.116949">
        <ele>1688.623</ele>
        <time>2019-10-17T18:40:47Z</time>
      </trkpt>
      <trkpt lat="33.522473" lon="-5.118600">
        <ele>1682.415</ele>
        <time>2019-10-17T18:42:42Z</time>
      </trkpt>
      <trkpt lat="33.523188" lon="-5.118673">
        <ele>1684.208</ele>
        <time>2019-10-17T18:43:00Z</time>
      </trkpt>
      <trkpt lat="33.523517" lon="-5.118395">
        <ele>1682.057</ele>
        <time>2019-10-17T18:43:14Z</time>
      </trkpt>
      <trkpt lat="33.523728" lon="-5.117880">
        <ele>1681.285</ele>
        <time>2019-10-17T18:43:30Z</time>
      </trkpt>
      <trkpt lat="33.524639" lon="-5.116734">
        <ele>1680.958</ele>
        <time>2019-10-17T18:44:09Z</time>
      </trkpt>
      <trkpt lat="33.525079" lon="-5.115905">
        <ele>1682.399</ele>
        <time>2019-10-17T18:44:35Z</time>
      </trkpt>
      <trkpt lat="33.526283" lon="-5.114645">
        <ele>1683.724</ele>
        <time>2019-10-17T18:45:27Z</time>
      </trkpt>
      <trkpt lat="33.526542" lon="-5.113811">
        <ele>1683.029</ele>
        <time>2019-10-17T18:45:49Z</time>
      </trkpt>
      <trkpt lat="33.526816" lon="-5.113520">
        <ele>1685.260</ele>
        <time>2019-10-17T18:46:04Z</time>
      </trkpt>
      <trkpt lat="33.526548" lon="-5.112032">
        <ele>1690.047</ele>
        <time>2019-10-17T18:46:47Z</time>
      </trkpt>
      <trkpt lat="33.526687" lon="-5.111838">
        <ele>1689.378</ele>
        <time>2019-10-17T18:46:55Z</time>
      </trkpt>
      <trkpt lat="33.526947" lon="-5.111833">
        <ele>1692.733</ele>
        <time>2019-10-17T18:47:09Z</time>
      </trkpt>
      <trkpt lat="33.527747" lon="-5.121244">
        <ele>1691.626</ele>
        <time>2019-10-17T18:51:40Z</time>
      </trkpt>
      <trkpt lat="33.528040" lon="-5.121445">
        <ele>1688.108</ele>
        <time>2019-10-17T18:51:56Z</time>
      </trkpt>
      <trkpt lat="33.528311" lon="-5.121266">
        <ele>1688.141</ele>
        <time>2019-10-17T18:52:14Z</time>
      </trkpt>
      <trkpt lat="33.528677" lon="-5.121357">
        <ele>1689.639</ele>
        <time>2019-10-17T18:53:07Z</time>
      </trkpt>
      <trkpt lat="33.528255" lon="-5.121314">
        <ele>1687.112</ele>
        <time>2019-10-17T18:54:44Z</time>
      </trkpt>
      <trkpt lat="33.528324" lon="-5.121570">
        <ele>1686.883</ele>
        <time>2019-10-17T18:55:10Z</time>
      </trkpt>
      <trkpt lat="33.529200" lon="-5.121606">
        <ele>1692.068</ele>
        <time>2019-10-17T18:55:54Z</time>
      </trkpt>
      <trkpt lat="33.527667" lon="-5.121535">
        <ele>1681.553</ele>
        <time>2019-10-17T18:56:45Z</time>
      </trkpt>
      <trkpt lat="33.527193" lon="-5.117320">
        <ele>1681.394</ele>
        <time>2019-10-17T18:58:16Z</time>
      </trkpt>
      <trkpt lat="33.526827" lon="-5.117104">
        <ele>1680.121</ele>
        <time>2019-10-17T18:58:28Z</time>
      </trkpt>
      <trkpt lat="33.526188" lon="-5.116991">
        <ele>1678.199</ele>
        <time>2019-10-17T18:58:49Z</time>
      </trkpt>
      <trkpt lat="33.525152" lon="-5.116205">
        <ele>1683.907</ele>
        <time>2019-10-17T18:59:38Z</time>
      </trkpt>
      <trkpt lat="33.523579" lon="-5.118605">
        <ele>1680.627</ele>
        <time>2019-10-17T19:01:15Z</time>
      </trkpt>
      <trkpt lat="33.522506" lon="-5.122553">
        <ele>1683.708</ele>
        <time>2019-10-17T19:04:14Z</time>
      </trkpt>
      <trkpt lat="33.520960" lon="-5.121697">
        <ele>1681.383</ele>
        <time>2019-10-17T19:05:13Z</time>
      </trkpt>
      <trkpt lat="33.519444" lon="-5.121230">
        <ele>1675.741</ele>
        <time>2019-10-17T19:06:20Z</time>
      </trkpt>
      <trkpt lat="33.519678" lon="-5.119747">
        <ele>1683.374</ele>
        <time>2019-10-17T19:07:16Z</time>
      </trkpt>
      <trkpt lat="33.518565" lon="-5.119484">
        <ele>1683.495</ele>
        <time>2019-10-17T19:07:49Z</time>
      </trkpt>
      <trkpt lat="33.518059" lon="-5.118570">
        <ele>1682.420</ele>
        <time>2019-10-17T19:08:40Z</time>
      </trkpt>
      <trkpt lat="33.517193" lon="-5.119066">
        <ele>1680.535</ele>
        <time>2019-10-17T19:09:19Z</time>
      </trkpt>
      <trkpt lat="33.516589" lon="-5.117890">
        <ele>1685.686</ele>
        <time>2019-10-17T19:09:57Z</time>
      </trkpt>
      <trkpt lat="33.515686" lon="-5.118356">
        <ele>1690.243</ele>
        <time>2019-10-17T19:10:26Z</time>
      </trkpt>
      <trkpt lat="33.515274" lon="-5.118256">
        <ele>1690.186</ele>
        <time>2019-10-17T19:10:40Z</time>
      </trkpt>
      <trkpt lat="33.515064" lon="-5.118034">
        <ele>1691.860</ele>
        <time>2019-10-17T19:10:53Z</time>
      </trkpt>
      <trkpt lat="33.515146" lon="-5.118048">
        <ele>1643.861</ele>
        <time>2019-10-18T11:06:49Z</time>
      </trkpt>
      <trkpt lat="33.515061" lon="-5.118181">
        <ele>1643.821</ele>
        <time>2019-10-18T11:09:12Z</time>
      </trkpt>
      <trkpt lat="33.515775" lon="-5.118312">
        <ele>1641.913</ele>
        <time>2019-10-18T11:10:01Z</time>
      </trkpt>
      <trkpt lat="33.519641" lon="-5.115601">
        <ele>1629.308</ele>
        <time>2019-10-18T11:11:38Z</time>
      </trkpt>
      <trkpt lat="33.520016" lon="-5.115796">
        <ele>1631.140</ele>
        <time>2019-10-18T11:11:47Z</time>
      </trkpt>
      <trkpt lat="33.523239" lon="-5.114907">
        <ele>1636.418</ele>
        <time>2019-10-18T11:12:55Z</time>
      </trkpt>
      <trkpt lat="33.524315" lon="-5.114184">
        <ele>1638.081</ele>
        <time>2019-10-18T11:13:30Z</time>
      </trkpt>
      <trkpt lat="33.525579" lon="-5.112930">
        <ele>1636.454</ele>
        <time>2019-10-18T11:14:07Z</time>
      </trkpt>
      <trkpt lat="33.526397" lon="-5.112352">
        <ele>1633.860</ele>
        <time>2019-10-18T11:14:35Z</time>
      </trkpt>
      <trkpt lat="33.526675" lon="-5.111911">
        <ele>1634.666</ele>
        <time>2019-10-18T11:14:49Z</time>
      </trkpt>
      <trkpt lat="33.526903" lon="-5.111831">
        <ele>1636.042</ele>
        <time>2019-10-18T11:15:12Z</time>
      </trkpt>
      <trkpt lat="33.526535" lon="-5.111697">
        <ele>1636.939</ele>
        <time>2019-10-18T11:15:26Z</time>
      </trkpt>
      <trkpt lat="33.526308" lon="-5.111346">
        <ele>1636.945</ele>
        <time>2019-10-18T11:15:36Z</time>
      </trkpt>
      <trkpt lat="33.526066" lon="-5.110191">
        <ele>1639.547</ele>
        <time>2019-10-18T11:16:11Z</time>
      </trkpt>
      <trkpt lat="33.527418" lon="-5.109191">
        <ele>1643.311</ele>
        <time>2019-10-18T11:16:58Z</time>
      </trkpt>
      <trkpt lat="33.528116" lon="-5.106563">
        <ele>1637.308</ele>
        <time>2019-10-18T11:17:47Z</time>
      </trkpt>
      <trkpt lat="33.528009" lon="-5.106146">
        <ele>1636.038</ele>
        <time>2019-10-18T11:18:01Z</time>
      </trkpt>
      <trkpt lat="33.528372" lon="-5.105560">
        <ele>1636.636</ele>
        <time>2019-10-18T11:18:17Z</time>
      </trkpt>
      <trkpt lat="33.529704" lon="-5.106409">
        <ele>1640.749</ele>
        <time>2019-10-18T11:19:38Z</time>
      </trkpt>
      <trkpt lat="33.530362" lon="-5.106330">
        <ele>1637.182</ele>
        <time>2019-10-18T11:19:58Z</time>
      </trkpt>
      <trkpt lat="33.531935" lon="-5.106624">
        <ele>1625.158</ele>
        <time>2019-10-18T11:20:29Z</time>
      </trkpt>
      <trkpt lat="33.532654" lon="-5.105989">
        <ele>1626.264</ele>
        <time>2019-10-18T11:20:54Z</time>
      </trkpt>
      <trkpt lat="33.533144" lon="-5.105244">
        <ele>1628.120</ele>
        <time>2019-10-18T11:21:16Z</time>
      </trkpt>
      <trkpt lat="33.533426" lon="-5.102971">
        <ele>1627.627</ele>
        <time>2019-10-18T11:22:10Z</time>
      </trkpt>
      <trkpt lat="33.533738" lon="-5.102384">
        <ele>1629.683</ele>
        <time>2019-10-18T11:22:26Z</time>
      </trkpt>
      <trkpt lat="33.534161" lon="-5.102028">
        <ele>1631.825</ele>
        <time>2019-10-18T11:22:42Z</time>
      </trkpt>
      <trkpt lat="33.534847" lon="-5.101857">
        <ele>1638.717</ele>
        <time>2019-10-18T11:23:04Z</time>
      </trkpt>
      <trkpt lat="33.539735" lon="-5.102146">
        <ele>1631.408</ele>
        <time>2019-10-18T11:24:53Z</time>
      </trkpt>
      <trkpt lat="33.540294" lon="-5.102061">
        <ele>1628.312</ele>
        <time>2019-10-18T11:25:38Z</time>
      </trkpt>
      <trkpt lat="33.541070" lon="-5.101561">
        <ele>1622.840</ele>
        <time>2019-10-18T11:25:49Z</time>
      </trkpt>
      <trkpt lat="33.542046" lon="-5.100018">
        <ele>1617.613</ele>
        <time>2019-10-18T11:26:10Z</time>
      </trkpt>
      <trkpt lat="33.542540" lon="-5.099480">
        <ele>1614.116</ele>
        <time>2019-10-18T11:26:20Z</time>
      </trkpt>
      <trkpt lat="33.545700" lon="-5.097994">
        <ele>1607.432</ele>
        <time>2019-10-18T11:27:14Z</time>
      </trkpt>
      <trkpt lat="33.547639" lon="-5.097690">
        <ele>1603.158</ele>
        <time>2019-10-18T11:27:41Z</time>
      </trkpt>
      <trkpt lat="33.550338" lon="-5.096393">
        <ele>1594.584</ele>
        <time>2019-10-18T11:28:33Z</time>
      </trkpt>
      <trkpt lat="33.551000" lon="-5.096221">
        <ele>1597.451</ele>
        <time>2019-10-18T11:28:52Z</time>
      </trkpt>
      <trkpt lat="33.552071" lon="-5.096575">
        <ele>1603.337</ele>
        <time>2019-10-18T11:29:27Z</time>
      </trkpt>
      <trkpt lat="33.551749" lon="-5.096389">
        <ele>1601.349</ele>
        <time>2019-10-18T11:34:42Z</time>
      </trkpt>
      <trkpt lat="33.551641" lon="-5.096363">
        <ele>1601.713</ele>
        <time>2019-10-18T11:34:49Z</time>
      </trkpt>
      <trkpt lat="33.551855" lon="-5.096565">
        <ele>1603.308</ele>
        <time>2019-10-18T11:35:17Z</time>
      </trkpt>
      <trkpt lat="33.551616" lon="-5.096440">
        <ele>1600.977</ele>
        <time>2019-10-18T11:35:30Z</time>
      </trkpt>
      <trkpt lat="33.554130" lon="-5.097698">
        <ele>1603.415</ele>
        <time>2019-10-18T11:38:07Z</time>
      </trkpt>
      <trkpt lat="33.554798" lon="-5.097861">
        <ele>1603.518</ele>
        <time>2019-10-18T11:38:20Z</time>
      </trkpt>
      <trkpt lat="33.557357" lon="-5.097539">
        <ele>1602.731</ele>
        <time>2019-10-18T11:39:08Z</time>
      </trkpt>
      <trkpt lat="33.561793" lon="-5.096269">
        <ele>1602.587</ele>
        <time>2019-10-18T11:40:26Z</time>
      </trkpt>
      <trkpt lat="33.569474" lon="-5.096467">
        <ele>1583.763</ele>
        <time>2019-10-18T11:42:07Z</time>
      </trkpt>
      <trkpt lat="33.571287" lon="-5.095748">
        <ele>1581.969</ele>
        <time>2019-10-18T11:42:35Z</time>
      </trkpt>
      <trkpt lat="33.575677" lon="-5.094671">
        <ele>1574.446</ele>
        <time>2019-10-18T11:43:39Z</time>
      </trkpt>
      <trkpt lat="33.576908" lon="-5.094027">
        <ele>1572.627</ele>
        <time>2019-10-18T11:43:59Z</time>
      </trkpt>
      <trkpt lat="33.579631" lon="-5.091524">
        <ele>1557.568</ele>
        <time>2019-10-18T11:44:41Z</time>
      </trkpt>
      <trkpt lat="33.580592" lon="-5.091004">
        <ele>1556.414</ele>
        <time>2019-10-18T11:44:56Z</time>
      </trkpt>
      <trkpt lat="33.584992" lon="-5.089806">
        <ele>1552.508</ele>
        <time>2019-10-18T11:46:00Z</time>
      </trkpt>
      <trkpt lat="33.589183" lon="-5.088068">
        <ele>1544.146</ele>
        <time>2019-10-18T11:47:01Z</time>
      </trkpt>
      <trkpt lat="33.591659" lon="-5.087619">
        <ele>1534.654</ele>
        <time>2019-10-18T11:47:30Z</time>
      </trkpt>
      <trkpt lat="33.609081" lon="-5.081394">
        <ele>1515.677</ele>
        <time>2019-10-18T11:51:56Z</time>
      </trkpt>
      <trkpt lat="33.611384" lon="-5.081100">
        <ele>1511.760</ele>
        <time>2019-10-18T11:52:33Z</time>
      </trkpt>
      <trkpt lat="33.618789" lon="-5.081782">
        <ele>1499.786</ele>
        <time>2019-10-18T11:54:33Z</time>
      </trkpt>
      <trkpt lat="33.619596" lon="-5.081703">
        <ele>1499.572</ele>
        <time>2019-10-18T11:54:46Z</time>
      </trkpt>
      <trkpt lat="33.620411" lon="-5.081430">
        <ele>1499.048</ele>
        <time>2019-10-18T11:54:59Z</time>
      </trkpt>
      <trkpt lat="33.648251" lon="-5.067030">
        <ele>1459.625</ele>
        <time>2019-10-18T12:17:23Z</time>
      </trkpt>
      <trkpt lat="33.653185" lon="-5.063072">
        <ele>1472.646</ele>
        <time>2019-10-18T12:19:51Z</time>
      </trkpt>
      <trkpt lat="33.654143" lon="-5.062241">
        <ele>1475.388</ele>
        <time>2019-10-18T12:20:22Z</time>
      </trkpt>
      <trkpt lat="33.654953" lon="-5.061151">
        <ele>1479.116</ele>
        <time>2019-10-18T12:20:58Z</time>
      </trkpt>
      <trkpt lat="33.657518" lon="-5.056088">
        <ele>1491.508</ele>
        <time>2019-10-18T12:23:05Z</time>
      </trkpt>
      <trkpt lat="33.658174" lon="-5.054524">
        <ele>1492.148</ele>
        <time>2019-10-18T12:24:26Z</time>
      </trkpt>
      <trkpt lat="33.658240" lon="-5.054600">
        <ele>1492.116</ele>
        <time>2019-10-18T12:24:50Z</time>
      </trkpt>
      <trkpt lat="33.659407" lon="-5.051304">
        <ele>1490.919</ele>
        <time>2019-10-18T12:27:01Z</time>
      </trkpt>
      <trkpt lat="33.660300" lon="-5.047149">
        <ele>1498.462</ele>
        <time>2019-10-18T12:28:33Z</time>
      </trkpt>
      <trkpt lat="33.661025" lon="-5.045672">
        <ele>1498.358</ele>
        <time>2019-10-18T12:29:01Z</time>
      </trkpt>
      <trkpt lat="33.664337" lon="-5.041551">
        <ele>1483.944</ele>
        <time>2019-10-18T12:30:13Z</time>
      </trkpt>
      <trkpt lat="33.669772" lon="-5.037071">
        <ele>1461.240</ele>
        <time>2019-10-18T12:31:46Z</time>
      </trkpt>
      <trkpt lat="33.671623" lon="-5.034392">
        <ele>1450.747</ele>
        <time>2019-10-18T12:32:25Z</time>
      </trkpt>
      <trkpt lat="33.673567" lon="-5.032155">
        <ele>1440.783</ele>
        <time>2019-10-18T12:32:52Z</time>
      </trkpt>
      <trkpt lat="33.674988" lon="-5.031107">
        <ele>1434.425</ele>
        <time>2019-10-18T12:33:08Z</time>
      </trkpt>
      <trkpt lat="33.682792" lon="-5.026771">
        <ele>1420.217</ele>
        <time>2019-10-18T12:35:19Z</time>
      </trkpt>
      <trkpt lat="33.700631" lon="-5.015786">
        <ele>1412.608</ele>
        <time>2019-10-18T12:41:33Z</time>
      </trkpt>
      <trkpt lat="33.702229" lon="-5.015165">
        <ele>1406.262</ele>
        <time>2019-10-18T12:41:56Z</time>
      </trkpt>
      <trkpt lat="33.705675" lon="-5.014336">
        <ele>1387.020</ele>
        <time>2019-10-18T12:42:39Z</time>
      </trkpt>
      <trkpt lat="33.712358" lon="-5.013112">
        <ele>1367.543</ele>
        <time>2019-10-18T12:44:24Z</time>
      </trkpt>
      <trkpt lat="33.717517" lon="-5.011261">
        <ele>1357.896</ele>
        <time>2019-10-18T12:45:46Z</time>
      </trkpt>
      <trkpt lat="33.723420" lon="-5.010356">
        <ele>1349.612</ele>
        <time>2019-10-18T12:47:20Z</time>
      </trkpt>
      <trkpt lat="33.728807" lon="-5.010591">
        <ele>1340.668</ele>
        <time>2019-10-18T12:48:53Z</time>
      </trkpt>
      <trkpt lat="33.730585" lon="-5.010307">
        <ele>1341.054</ele>
        <time>2019-10-18T12:49:29Z</time>
      </trkpt>
      <trkpt lat="33.732475" lon="-5.009256">
        <ele>1342.461</ele>
        <time>2019-10-18T12:50:12Z</time>
      </trkpt>
      <trkpt lat="33.733557" lon="-5.008341">
        <ele>1347.431</ele>
        <time>2019-10-18T12:50:54Z</time>
      </trkpt>
      <trkpt lat="33.735172" lon="-5.007453">
        <ele>1333.461</ele>
        <time>2019-10-18T12:51:34Z</time>
      </trkpt>
      <trkpt lat="33.735518" lon="-5.006962">
        <ele>1324.407</ele>
        <time>2019-10-18T12:53:11Z</time>
      </trkpt>
      <trkpt lat="33.735509" lon="-5.006571">
        <ele>1322.708</ele>
        <time>2019-10-18T12:53:22Z</time>
      </trkpt>
      <trkpt lat="33.735891" lon="-5.005408">
        <ele>1322.917</ele>
        <time>2019-10-18T12:53:40Z</time>
      </trkpt>
      <trkpt lat="33.737469" lon="-5.003523">
        <ele>1314.945</ele>
        <time>2019-10-18T12:57:09Z</time>
      </trkpt>
      <trkpt lat="33.738016" lon="-5.003615">
        <ele>1312.768</ele>
        <time>2019-10-18T12:57:25Z</time>
      </trkpt>
      <trkpt lat="33.738486" lon="-5.004049">
        <ele>1310.591</ele>
        <time>2019-10-18T12:57:38Z</time>
      </trkpt>
      <trkpt lat="33.738649" lon="-5.004569">
        <ele>1308.377</ele>
        <time>2019-10-18T12:57:47Z</time>
      </trkpt>
      <trkpt lat="33.738551" lon="-5.005554">
        <ele>1304.523</ele>
        <time>2019-10-18T12:58:00Z</time>
      </trkpt>
      <trkpt lat="33.738704" lon="-5.006324">
        <ele>1300.499</ele>
        <time>2019-10-18T12:58:09Z</time>
      </trkpt>
      <trkpt lat="33.739316" lon="-5.007699">
        <ele>1292.766</ele>
        <time>2019-10-18T12:58:30Z</time>
      </trkpt>
      <trkpt lat="33.739898" lon="-5.008135">
        <ele>1287.665</ele>
        <time>2019-10-18T12:58:41Z</time>
      </trkpt>
      <trkpt lat="33.741729" lon="-5.007812">
        <ele>1275.768</ele>
        <time>2019-10-18T12:59:01Z</time>
      </trkpt>
      <trkpt lat="33.742504" lon="-5.007445">
        <ele>1269.814</ele>
        <time>2019-10-18T12:59:09Z</time>
      </trkpt>
      <trkpt lat="33.742963" lon="-5.006931">
        <ele>1263.608</ele>
        <time>2019-10-18T12:59:16Z</time>
      </trkpt>
      <trkpt lat="33.744317" lon="-5.004528">
        <ele>1244.740</ele>
        <time>2019-10-18T12:59:41Z</time>
      </trkpt>
      <trkpt lat="33.745307" lon="-5.003711">
        <ele>1234.838</ele>
        <time>2019-10-18T12:59:59Z</time>
      </trkpt>
      <trkpt lat="33.746045" lon="-5.004265">
        <ele>1235.541</ele>
        <time>2019-10-18T13:00:14Z</time>
      </trkpt>
      <trkpt lat="33.746554" lon="-5.004458">
        <ele>1234.154</ele>
        <time>2019-10-18T13:00:22Z</time>
      </trkpt>
      <trkpt lat="33.747035" lon="-5.004374">
        <ele>1231.350</ele>
        <time>2019-10-18T13:00:28Z</time>
      </trkpt>
      <trkpt lat="33.748108" lon="-5.003715">
        <ele>1222.316</ele>
        <time>2019-10-18T13:00:43Z</time>
      </trkpt>
      <trkpt lat="33.748703" lon="-5.003887">
        <ele>1218.442</ele>
        <time>2019-10-18T13:00:52Z</time>
      </trkpt>
      <trkpt lat="33.752035" lon="-5.003969">
        <ele>1204.489</ele>
        <time>2019-10-18T13:01:26Z</time>
      </trkpt>
      <trkpt lat="33.752572" lon="-5.004089">
        <ele>1199.887</ele>
        <time>2019-10-18T13:01:31Z</time>
      </trkpt>
      <trkpt lat="33.754668" lon="-5.005106">
        <ele>1184.042</ele>
        <time>2019-10-18T13:01:52Z</time>
      </trkpt>
      <trkpt lat="33.756272" lon="-5.004798">
        <ele>1170.526</ele>
        <time>2019-10-18T13:02:09Z</time>
      </trkpt>
      <trkpt lat="33.759294" lon="-5.005404">
        <ele>1149.408</ele>
        <time>2019-10-18T13:03:00Z</time>
      </trkpt>
      <trkpt lat="33.762208" lon="-5.005132">
        <ele>1132.842</ele>
        <time>2019-10-18T13:03:34Z</time>
      </trkpt>
      <trkpt lat="33.762687" lon="-5.004893">
        <ele>1129.560</ele>
        <time>2019-10-18T13:03:39Z</time>
      </trkpt>
      <trkpt lat="33.763550" lon="-5.004015">
        <ele>1121.083</ele>
        <time>2019-10-18T13:03:50Z</time>
      </trkpt>
      <trkpt lat="33.764932" lon="-5.004017">
        <ele>1110.826</ele>
        <time>2019-10-18T13:04:04Z</time>
      </trkpt>
      <trkpt lat="33.765948" lon="-5.003565">
        <ele>1102.592</ele>
        <time>2019-10-18T13:04:15Z</time>
      </trkpt>
      <trkpt lat="33.766402" lon="-5.003655">
        <ele>1099.968</ele>
        <time>2019-10-18T13:04:20Z</time>
      </trkpt>
      <trkpt lat="33.767510" lon="-5.004351">
        <ele>1093.634</ele>
        <time>2019-10-18T13:04:33Z</time>
      </trkpt>
      <trkpt lat="33.768406" lon="-5.004393">
        <ele>1086.051</ele>
        <time>2019-10-18T13:04:49Z</time>
      </trkpt>
      <trkpt lat="33.768561" lon="-5.004330">
        <ele>1083.469</ele>
        <time>2019-10-18T13:04:55Z</time>
      </trkpt>
      <trkpt lat="33.768507" lon="-5.004188">
        <ele>1081.504</ele>
        <time>2019-10-18T13:05:04Z</time>
      </trkpt>
      <trkpt lat="33.768639" lon="-5.004286">
        <ele>1084.324</ele>
        <time>2019-10-18T13:14:55Z</time>
      </trkpt>
      <trkpt lat="33.768969" lon="-5.004065">
        <ele>1085.308</ele>
        <time>2019-10-18T13:15:21Z</time>
      </trkpt>
      <trkpt lat="33.769862" lon="-5.003057">
        <ele>1076.360</ele>
        <time>2019-10-18T13:15:50Z</time>
      </trkpt>
      <trkpt lat="33.770966" lon="-5.001112">
        <ele>1064.118</ele>
        <time>2019-10-18T13:16:12Z</time>
      </trkpt>
      <trkpt lat="33.771463" lon="-5.000559">
        <ele>1060.611</ele>
        <time>2019-10-18T13:16:20Z</time>
      </trkpt>
      <trkpt lat="33.779276" lon="-4.994237">
        <ele>1030.844</ele>
        <time>2019-10-18T13:19:43Z</time>
      </trkpt>
      <trkpt lat="33.779327" lon="-4.994415">
        <ele>1031.910</ele>
        <time>2019-10-18T13:29:28Z</time>
      </trkpt>
      <trkpt lat="33.779277" lon="-4.994274">
        <ele>1031.116</ele>
        <time>2019-10-18T13:29:45Z</time>
      </trkpt>
      <trkpt lat="33.778543" lon="-4.994950">
        <ele>1032.632</ele>
        <time>2019-10-18T13:30:45Z</time>
      </trkpt>
      <trkpt lat="33.778812" lon="-4.994842">
        <ele>1034.939</ele>
        <time>2019-10-18T13:34:55Z</time>
      </trkpt>
      <trkpt lat="33.778683" lon="-4.994777">
        <ele>1037.175</ele>
        <time>2019-10-18T13:35:36Z</time>
      </trkpt>
      <trkpt lat="33.779012" lon="-4.994400">
        <ele>1038.828</ele>
        <time>2019-10-18T13:36:00Z</time>
      </trkpt>
      <trkpt lat="33.780627" lon="-4.992996">
        <ele>1022.220</ele>
        <time>2019-10-18T13:37:06Z</time>
      </trkpt>
      <trkpt lat="33.782731" lon="-4.991676">
        <ele>1018.308</ele>
        <time>2019-10-18T13:37:37Z</time>
      </trkpt>
      <trkpt lat="33.783405" lon="-4.991586">
        <ele>1012.041</ele>
        <time>2019-10-18T13:37:47Z</time>
      </trkpt>
      <trkpt lat="33.784089" lon="-4.991928">
        <ele>1005.939</ele>
        <time>2019-10-18T13:37:59Z</time>
      </trkpt>
      <trkpt lat="33.785764" lon="-4.994247">
        <ele>988.722</ele>
        <time>2019-10-18T13:38:41Z</time>
      </trkpt>
      <trkpt lat="33.786254" lon="-4.994686">
        <ele>984.365</ele>
        <time>2019-10-18T13:38:50Z</time>
      </trkpt>
      <trkpt lat="33.787113" lon="-4.994867">
        <ele>979.981</ele>
        <time>2019-10-18T13:40:48Z</time>
      </trkpt>
      <trkpt lat="33.787860" lon="-4.994536">
        <ele>975.947</ele>
        <time>2019-10-18T13:41:00Z</time>
      </trkpt>
      <trkpt lat="33.788428" lon="-4.993825">
        <ele>968.863</ele>
        <time>2019-10-18T13:41:10Z</time>
      </trkpt>
      <trkpt lat="33.788702" lon="-4.992542">
        <ele>961.520</ele>
        <time>2019-10-18T13:41:22Z</time>
      </trkpt>
      <trkpt lat="33.788676" lon="-4.991913">
        <ele>959.111</ele>
        <time>2019-10-18T13:41:27Z</time>
      </trkpt>
      <trkpt lat="33.788273" lon="-4.990285">
        <ele>951.521</ele>
        <time>2019-10-18T13:41:40Z</time>
      </trkpt>
      <trkpt lat="33.788301" lon="-4.989543">
        <ele>948.803</ele>
        <time>2019-10-18T13:41:48Z</time>
      </trkpt>
      <trkpt lat="33.789271" lon="-4.987323">
        <ele>942.608</ele>
        <time>2019-10-18T13:42:15Z</time>
      </trkpt>
      <trkpt lat="33.789627" lon="-4.986927">
        <ele>941.755</ele>
        <time>2019-10-18T13:42:23Z</time>
      </trkpt>
      <trkpt lat="33.790241" lon="-4.986614">
        <ele>939.333</ele>
        <time>2019-10-18T13:42:33Z</time>
      </trkpt>
      <trkpt lat="33.791052" lon="-4.986493">
        <ele>935.466</ele>
        <time>2019-10-18T13:42:47Z</time>
      </trkpt>
      <trkpt lat="33.791543" lon="-4.986806">
        <ele>933.889</ele>
        <time>2019-10-18T13:42:57Z</time>
      </trkpt>
      <trkpt lat="33.791746" lon="-4.987158">
        <ele>934.485</ele>
        <time>2019-10-18T13:43:02Z</time>
      </trkpt>
      <trkpt lat="33.792011" lon="-4.988563">
        <ele>930.871</ele>
        <time>2019-10-18T13:43:16Z</time>
      </trkpt>
      <trkpt lat="33.792282" lon="-4.989223">
        <ele>926.597</ele>
        <time>2019-10-18T13:43:22Z</time>
      </trkpt>
      <trkpt lat="33.793572" lon="-4.990694">
        <ele>916.064</ele>
        <time>2019-10-18T13:43:41Z</time>
      </trkpt>
      <trkpt lat="33.794071" lon="-4.990980">
        <ele>913.048</ele>
        <time>2019-10-18T13:43:48Z</time>
      </trkpt>
      <trkpt lat="33.794634" lon="-4.991057">
        <ele>909.461</ele>
        <time>2019-10-18T13:43:55Z</time>
      </trkpt>
      <trkpt lat="33.795787" lon="-4.990643">
        <ele>900.417</ele>
        <time>2019-10-18T13:44:09Z</time>
      </trkpt>
      <trkpt lat="33.799835" lon="-4.988690">
        <ele>877.008</ele>
        <time>2019-10-18T13:45:01Z</time>
      </trkpt>
      <trkpt lat="33.804178" lon="-4.984501">
        <ele>861.988</ele>
        <time>2019-10-18T13:46:16Z</time>
      </trkpt>
      <trkpt lat="33.805211" lon="-4.983919">
        <ele>861.416</ele>
        <time>2019-10-18T13:46:33Z</time>
      </trkpt>
      <trkpt lat="33.806428" lon="-4.983679">
        <ele>860.199</ele>
        <time>2019-10-18T13:46:51Z</time>
      </trkpt>
      <trkpt lat="33.859591" lon="-4.984887">
        <ele>694.342</ele>
        <time>2019-10-18T13:58:12Z</time>
      </trkpt>
      <trkpt lat="33.872947" lon="-4.986064">
        <ele>665.548</ele>
        <time>2019-10-18T14:01:25Z</time>
      </trkpt>
      <trkpt lat="33.891983" lon="-4.984856">
        <ele>632.294</ele>
        <time>2019-10-18T14:05:51Z</time>
      </trkpt>
      <trkpt lat="33.894788" lon="-4.984789">
        <ele>628.340</ele>
        <time>2019-10-18T14:06:36Z</time>
      </trkpt>
      <trkpt lat="33.895739" lon="-4.984480">
        <ele>628.167</ele>
        <time>2019-10-18T14:07:46Z</time>
      </trkpt>
      <trkpt lat="33.896240" lon="-4.984647">
        <ele>627.628</ele>
        <time>2019-10-18T14:07:56Z</time>
      </trkpt>
      <trkpt lat="33.906918" lon="-4.984427">
        <ele>603.589</ele>
        <time>2019-10-18T14:10:27Z</time>
      </trkpt>
      <trkpt lat="33.907963" lon="-4.984703">
        <ele>600.917</ele>
        <time>2019-10-18T14:10:44Z</time>
      </trkpt>
      <trkpt lat="33.908900" lon="-4.985169">
        <ele>598.408</ele>
        <time>2019-10-18T14:10:58Z</time>
      </trkpt>
      <trkpt lat="33.910971" lon="-4.986933">
        <ele>591.976</ele>
        <time>2019-10-18T14:11:40Z</time>
      </trkpt>
      <trkpt lat="33.911140" lon="-4.987585">
        <ele>592.714</ele>
        <time>2019-10-18T14:11:50Z</time>
      </trkpt>
      <trkpt lat="33.922406" lon="-5.007216">
        <ele>568.767</ele>
        <time>2019-10-18T14:17:04Z</time>
      </trkpt>
      <trkpt lat="33.923177" lon="-5.008083">
        <ele>566.320</ele>
        <time>2019-10-18T14:17:20Z</time>
      </trkpt>
      <trkpt lat="33.924040" lon="-5.008708">
        <ele>564.166</ele>
        <time>2019-10-18T14:17:35Z</time>
      </trkpt>
      <trkpt lat="33.925114" lon="-5.009124">
        <ele>563.292</ele>
        <time>2019-10-18T14:17:53Z</time>
      </trkpt>
      <trkpt lat="33.926003" lon="-5.009194">
        <ele>557.718</ele>
        <time>2019-10-18T14:18:06Z</time>
      </trkpt>
      <trkpt lat="33.927269" lon="-5.008925">
        <ele>552.975</ele>
        <time>2019-10-18T14:18:25Z</time>
      </trkpt>
      <trkpt lat="33.933833" lon="-5.006718">
        <ele>544.026</ele>
        <time>2019-10-18T14:20:37Z</time>
      </trkpt>
      <trkpt lat="33.935496" lon="-5.005727">
        <ele>539.247</ele>
        <time>2019-10-18T14:21:06Z</time>
      </trkpt>
      <trkpt lat="33.936913" lon="-5.004125">
        <ele>536.111</ele>
        <time>2019-10-18T14:21:37Z</time>
      </trkpt>
      <trkpt lat="33.943010" lon="-4.994563">
        <ele>537.408</ele>
        <time>2019-10-18T14:24:49Z</time>
      </trkpt>
      <trkpt lat="33.944597" lon="-4.993189">
        <ele>533.296</ele>
        <time>2019-10-18T14:25:22Z</time>
      </trkpt>
      <trkpt lat="33.946879" lon="-4.992089">
        <ele>526.224</ele>
        <time>2019-10-18T14:26:09Z</time>
      </trkpt>
      <trkpt lat="33.947186" lon="-4.991774">
        <ele>527.367</ele>
        <time>2019-10-18T14:26:19Z</time>
      </trkpt>
      <trkpt lat="33.954681" lon="-4.994374">
        <ele>517.190</ele>
        <time>2019-10-18T14:28:40Z</time>
      </trkpt>
      <trkpt lat="33.964523" lon="-4.997513">
        <ele>495.146</ele>
        <time>2019-10-18T14:31:51Z</time>
      </trkpt>
      <trkpt lat="33.969423" lon="-4.998608">
        <ele>485.832</ele>
        <time>2019-10-18T14:36:03Z</time>
      </trkpt>
      <trkpt lat="33.977051" lon="-5.000838">
        <ele>473.288</ele>
        <time>2019-10-18T14:38:13Z</time>
      </trkpt>
      <trkpt lat="33.978269" lon="-5.000863">
        <ele>472.555</ele>
        <time>2019-10-18T14:38:45Z</time>
      </trkpt>
      <trkpt lat="33.979231" lon="-5.000663">
        <ele>471.284</ele>
        <time>2019-10-18T14:39:00Z</time>
      </trkpt>
      <trkpt lat="33.987849" lon="-4.997154">
        <ele>453.307</ele>
        <time>2019-10-18T14:41:19Z</time>
      </trkpt>
      <trkpt lat="33.988149" lon="-4.996977">
        <ele>452.617</ele>
        <time>2019-10-18T14:41:47Z</time>
      </trkpt>
      <trkpt lat="33.988255" lon="-4.996724">
        <ele>454.708</ele>
        <time>2019-10-18T14:42:53Z</time>
      </trkpt>
      <trkpt lat="33.988424" lon="-4.996709">
        <ele>455.632</ele>
        <time>2019-10-18T14:44:28Z</time>
      </trkpt>
      <trkpt lat="33.988621" lon="-4.996990">
        <ele>454.990</ele>
        <time>2019-10-18T14:44:42Z</time>
      </trkpt>
      <trkpt lat="33.988420" lon="-4.997956">
        <ele>454.253</ele>
        <time>2019-10-18T14:45:08Z</time>
      </trkpt>
      <trkpt lat="33.988523" lon="-5.000793">
        <ele>453.476</ele>
        <time>2019-10-18T14:46:12Z</time>
      </trkpt>
      <trkpt lat="33.988501" lon="-4.997436">
        <ele>456.572</ele>
        <time>2019-10-18T14:48:10Z</time>
      </trkpt>
      <trkpt lat="33.988246" lon="-4.997361">
        <ele>456.538</ele>
        <time>2019-10-18T14:48:32Z</time>
      </trkpt>
      <trkpt lat="33.988177" lon="-4.996983">
        <ele>456.194</ele>
        <time>2019-10-18T14:48:38Z</time>
      </trkpt>
      <trkpt lat="33.988893" lon="-4.993934">
        <ele>454.391</ele>
        <time>2019-10-18T14:49:26Z</time>
      </trkpt>
      <trkpt lat="33.989345" lon="-4.992737">
        <ele>454.519</ele>
        <time>2019-10-18T14:49:46Z</time>
      </trkpt>
      <trkpt lat="33.990213" lon="-4.991388">
        <ele>509.809</ele>
        <time>2019-10-18T14:51:19Z</time>
      </trkpt>
      <trkpt lat="33.994391" lon="-4.986729">
        <ele>504.619</ele>
        <time>2019-10-18T14:53:11Z</time>
      </trkpt>
      <trkpt lat="33.998135" lon="-4.981636">
        <ele>499.808</ele>
        <time>2019-10-18T14:54:47Z</time>
      </trkpt>
      <trkpt lat="33.999553" lon="-4.979578">
        <ele>497.695</ele>
        <time>2019-10-18T14:55:27Z</time>
      </trkpt>
      <trkpt lat="34.001614" lon="-4.975909">
        <ele>518.793</ele>
        <time>2019-10-18T14:57:15Z</time>
      </trkpt>
      <trkpt lat="34.001756" lon="-4.975300">
        <ele>520.476</ele>
        <time>2019-10-18T14:57:35Z</time>
      </trkpt>
      <trkpt lat="34.002401" lon="-4.974430">
        <ele>514.939</ele>
        <time>2019-10-18T15:42:14Z</time>
      </trkpt>
      <trkpt lat="34.002450" lon="-4.973780">
        <ele>512.525</ele>
        <time>2019-10-18T15:42:28Z</time>
      </trkpt>
      <trkpt lat="34.002629" lon="-4.973534">
        <ele>511.531</ele>
        <time>2019-10-18T15:42:34Z</time>
      </trkpt>
      <trkpt lat="34.002935" lon="-4.973631">
        <ele>511.547</ele>
        <time>2019-10-18T15:42:41Z</time>
      </trkpt>
      <trkpt lat="34.003309" lon="-4.974231">
        <ele>511.164</ele>
        <time>2019-10-18T15:42:55Z</time>
      </trkpt>
      <trkpt lat="34.013368" lon="-4.981903">
        <ele>484.385</ele>
        <time>2019-10-18T15:46:49Z</time>
      </trkpt>
      <trkpt lat="34.016150" lon="-4.981765">
        <ele>498.689</ele>
        <time>2019-10-18T15:47:53Z</time>
      </trkpt>
      <trkpt lat="34.020601" lon="-4.981161">
        <ele>481.317</ele>
        <time>2019-10-18T15:49:33Z</time>
      </trkpt>
      <trkpt lat="34.025597" lon="-4.976346">
        <ele>470.408</ele>
        <time>2019-10-18T15:52:09Z</time>
      </trkpt>
      <trkpt lat="34.026630" lon="-4.975548">
        <ele>471.712</ele>
        <time>2019-10-18T15:52:54Z</time>
      </trkpt>
      <trkpt lat="34.028613" lon="-4.973654">
        <ele>459.190</ele>
        <time>2019-10-18T15:53:37Z</time>
      </trkpt>
      <trkpt lat="34.032374" lon="-4.972102">
        <ele>433.063</ele>
        <time>2019-10-18T15:54:15Z</time>
      </trkpt>
      <trkpt lat="34.035006" lon="-4.972132">
        <ele>417.276</ele>
        <time>2019-10-18T15:54:43Z</time>
      </trkpt>
      <trkpt lat="34.036075" lon="-4.971942">
        <ele>408.912</ele>
        <time>2019-10-18T15:54:59Z</time>
      </trkpt>
      <trkpt lat="34.036995" lon="-4.971310">
        <ele>400.948</ele>
        <time>2019-10-18T15:55:18Z</time>
      </trkpt>
      <trkpt lat="34.038274" lon="-4.969442">
        <ele>392.594</ele>
        <time>2019-10-18T15:55:48Z</time>
      </trkpt>
      <trkpt lat="34.038866" lon="-4.969055">
        <ele>386.811</ele>
        <time>2019-10-18T15:55:59Z</time>
      </trkpt>
      <trkpt lat="34.039531" lon="-4.968852">
        <ele>383.515</ele>
        <time>2019-10-18T15:56:12Z</time>
      </trkpt>
      <trkpt lat="34.042825" lon="-4.969200">
        <ele>383.765</ele>
        <time>2019-10-18T15:57:41Z</time>
      </trkpt>
      <trkpt lat="34.044424" lon="-4.968644">
        <ele>382.711</ele>
        <time>2019-10-18T15:58:11Z</time>
      </trkpt>
      <trkpt lat="34.045352" lon="-4.968637">
        <ele>384.308</ele>
        <time>2019-10-18T15:58:31Z</time>
      </trkpt>
      <trkpt lat="34.046303" lon="-4.969040">
        <ele>386.295</ele>
        <time>2019-10-18T15:58:50Z</time>
      </trkpt>
      <trkpt lat="34.047725" lon="-4.970297">
        <ele>381.793</ele>
        <time>2019-10-18T15:59:17Z</time>
      </trkpt>
      <trkpt lat="34.048537" lon="-4.970822">
        <ele>380.296</ele>
        <time>2019-10-18T15:59:31Z</time>
      </trkpt>
      <trkpt lat="34.050571" lon="-4.971649">
        <ele>374.329</ele>
        <time>2019-10-18T16:00:02Z</time>
      </trkpt>
      <trkpt lat="34.053265" lon="-4.972309">
        <ele>368.795</ele>
        <time>2019-10-18T16:00:43Z</time>
      </trkpt>
      <trkpt lat="34.053842" lon="-4.972828">
        <ele>367.091</ele>
        <time>2019-10-18T16:01:37Z</time>
      </trkpt>
      <trkpt lat="34.053438" lon="-4.974028">
        <ele>363.177</ele>
        <time>2019-10-18T16:03:17Z</time>
      </trkpt>
      <trkpt lat="34.053540" lon="-4.974630">
        <ele>361.554</ele>
        <time>2019-10-18T16:03:26Z</time>
      </trkpt>
      <trkpt lat="34.053767" lon="-4.975005">
        <ele>360.951</ele>
        <time>2019-10-18T16:03:34Z</time>
      </trkpt>
      <trkpt lat="34.054214" lon="-4.975250">
        <ele>360.401</ele>
        <time>2019-10-18T16:04:10Z</time>
      </trkpt>
      <trkpt lat="34.054493" lon="-4.974823">
        <ele>361.111</ele>
        <time>2019-10-18T16:04:27Z</time>
      </trkpt>
      <trkpt lat="34.054958" lon="-4.974500">
        <ele>358.408</ele>
        <time>2019-10-18T16:05:36Z</time>
      </trkpt>
      <trkpt lat="34.055358" lon="-4.974852">
        <ele>353.629</ele>
        <time>2019-10-18T16:06:01Z</time>
      </trkpt>
      <trkpt lat="34.055849" lon="-4.974851">
        <ele>351.687</ele>
        <time>2019-10-18T16:06:42Z</time>
      </trkpt>
      <trkpt lat="34.055649" lon="-4.974913">
        <ele>353.540</ele>
        <time>2019-10-18T16:06:52Z</time>
      </trkpt>
      <trkpt lat="34.055587" lon="-4.974787">
        <ele>354.233</ele>
        <time>2019-10-18T16:06:58Z</time>
      </trkpt>
      <trkpt lat="34.055635" lon="-4.976058">
        <ele>355.159</ele>
        <time>2019-10-18T16:08:36Z</time>
      </trkpt>
      <trkpt lat="34.056185" lon="-4.976994">
        <ele>364.695</ele>
        <time>2019-10-18T16:09:26Z</time>
      </trkpt>
      <trkpt lat="34.056372" lon="-4.978511">
        <ele>378.831</ele>
        <time>2019-10-18T16:10:39Z</time>
      </trkpt>
      <trkpt lat="34.056652" lon="-4.977367">
        <ele>384.488</ele>
        <time>2019-10-18T16:11:30Z</time>
      </trkpt>
      <trkpt lat="34.057262" lon="-4.976337">
        <ele>390.965</ele>
        <time>2019-10-18T16:12:24Z</time>
      </trkpt>
      <trkpt lat="34.057179" lon="-4.977360">
        <ele>396.468</ele>
        <time>2019-10-18T16:13:14Z</time>
      </trkpt>
      <trkpt lat="34.057281" lon="-4.976963">
        <ele>394.914</ele>
        <time>2019-10-18T16:13:32Z</time>
      </trkpt>
      <trkpt lat="34.057969" lon="-4.977177">
        <ele>399.908</ele>
        <time>2019-10-18T16:13:59Z</time>
      </trkpt>
      <trkpt lat="34.058808" lon="-4.977038">
        <ele>404.510</ele>
        <time>2019-10-18T16:14:23Z</time>
      </trkpt>
      <trkpt lat="34.059142" lon="-4.977747">
        <ele>403.028</ele>
        <time>2019-10-18T16:15:00Z</time>
      </trkpt>
      <trkpt lat="34.059028" lon="-4.977990">
        <ele>405.841</ele>
        <time>2019-10-18T16:15:16Z</time>
      </trkpt>
      <trkpt lat="34.059340" lon="-4.977684">
        <ele>419.264</ele>
        <time>2019-10-18T16:16:02Z</time>
      </trkpt>
      <trkpt lat="34.060378" lon="-4.978697">
        <ele>406.470</ele>
        <time>2019-10-18T16:17:34Z</time>
      </trkpt>
      <trkpt lat="34.060608" lon="-4.979111">
        <ele>408.446</ele>
        <time>2019-10-18T16:17:55Z</time>
      </trkpt>
      <trkpt lat="34.060492" lon="-4.979300">
        <ele>405.472</ele>
        <time>2019-10-18T16:18:53Z</time>
      </trkpt>
      <trkpt lat="34.060503" lon="-4.978863">
        <ele>412.029</ele>
        <time>2019-10-18T16:32:54Z</time>
      </trkpt>
      <trkpt lat="34.059540" lon="-4.977899">
        <ele>407.156</ele>
        <time>2019-10-18T16:33:50Z</time>
      </trkpt>
      <trkpt lat="34.059196" lon="-4.977879">
        <ele>404.759</ele>
        <time>2019-10-18T16:34:17Z</time>
      </trkpt>
      <trkpt lat="34.059041" lon="-4.978057">
        <ele>412.514</ele>
        <time>2019-10-18T16:35:01Z</time>
      </trkpt>
      <trkpt lat="34.059156" lon="-4.977781">
        <ele>428.708</ele>
        <time>2019-10-18T16:36:39Z</time>
      </trkpt>
      <trkpt lat="34.058722" lon="-4.977054">
        <ele>417.229</ele>
        <time>2019-10-18T16:37:14Z</time>
      </trkpt>
      <trkpt lat="34.057970" lon="-4.977198">
        <ele>408.927</ele>
        <time>2019-10-18T16:37:52Z</time>
      </trkpt>
      <trkpt lat="34.057248" lon="-4.977034">
        <ele>396.930</ele>
        <time>2019-10-18T16:38:20Z</time>
      </trkpt>
      <trkpt lat="34.057180" lon="-4.977337">
        <ele>395.523</ele>
        <time>2019-10-18T16:38:33Z</time>
      </trkpt>
      <trkpt lat="34.057228" lon="-4.976428">
        <ele>394.819</ele>
        <time>2019-10-18T16:39:14Z</time>
      </trkpt>
      <trkpt lat="34.056650" lon="-4.977467">
        <ele>389.155</ele>
        <time>2019-10-18T16:39:35Z</time>
      </trkpt>
      <trkpt lat="34.056383" lon="-4.978624">
        <ele>377.791</ele>
        <time>2019-10-18T16:39:51Z</time>
      </trkpt>
      <trkpt lat="34.056197" lon="-4.977109">
        <ele>368.738</ele>
        <time>2019-10-18T16:40:09Z</time>
      </trkpt>
      <trkpt lat="34.055625" lon="-4.976179">
        <ele>359.936</ele>
        <time>2019-10-18T16:40:21Z</time>
      </trkpt>
      <trkpt lat="34.055539" lon="-4.975020">
        <ele>350.217</ele>
        <time>2019-10-18T16:40:38Z</time>
      </trkpt>
      <trkpt lat="34.055355" lon="-4.974892">
        <ele>333.618</ele>
        <time>2019-10-18T16:47:31Z</time>
      </trkpt>
      <trkpt lat="34.055861" lon="-4.974819">
        <ele>320.408</ele>
        <time>2019-10-18T16:48:24Z</time>
      </trkpt>
      <trkpt lat="34.056160" lon="-4.974237">
        <ele>324.537</ele>
        <time>2019-10-18T16:48:53Z</time>
      </trkpt>
      <trkpt lat="34.056722" lon="-4.974487">
        <ele>331.145</ele>
        <time>2019-10-18T16:49:21Z</time>
      </trkpt>
      <trkpt lat="34.057385" lon="-4.974033">
        <ele>336.928</ele>
        <time>2019-10-18T16:50:19Z</time>
      </trkpt>
      <trkpt lat="34.057904" lon="-4.974767">
        <ele>342.631</ele>
        <time>2019-10-18T16:51:20Z</time>
      </trkpt>
      <trkpt lat="34.059102" lon="-4.975028">
        <ele>345.787</ele>
        <time>2019-10-18T16:52:53Z</time>
      </trkpt>
      <trkpt lat="34.059817" lon="-4.976197">
        <ele>339.813</ele>
        <time>2019-10-18T16:54:09Z</time>
      </trkpt>
      <trkpt lat="34.060079" lon="-4.976394">
        <ele>342.589</ele>
        <time>2019-10-18T16:54:23Z</time>
      </trkpt>
      <trkpt lat="34.060476" lon="-4.975489">
        <ele>323.336</ele>
        <time>2019-10-18T16:56:30Z</time>
      </trkpt>
      <trkpt lat="34.060642" lon="-4.975439">
        <ele>325.298</ele>
        <time>2019-10-18T16:56:35Z</time>
      </trkpt>
      <trkpt lat="34.060379" lon="-4.975276">
        <ele>331.715</ele>
        <time>2019-10-18T16:57:10Z</time>
      </trkpt>
      <trkpt lat="34.060467" lon="-4.974884">
        <ele>333.626</ele>
        <time>2019-10-18T16:57:24Z</time>
      </trkpt>
      <trkpt lat="34.060798" lon="-4.975029">
        <ele>329.608</ele>
        <time>2019-10-18T16:58:39Z</time>
      </trkpt>
      <trkpt lat="34.061099" lon="-4.974939">
        <ele>329.253</ele>
        <time>2019-10-18T16:58:57Z</time>
      </trkpt>
      <trkpt lat="34.061120" lon="-4.975228">
        <ele>327.431</ele>
        <time>2019-10-18T16:59:22Z</time>
      </trkpt>
      <trkpt lat="34.061096" lon="-4.974541">
        <ele>335.464</ele>
        <time>2019-10-18T17:00:34Z</time>
      </trkpt>
      <trkpt lat="34.061077" lon="-4.974934">
        <ele>335.317</ele>
        <time>2019-10-18T17:00:48Z</time>
      </trkpt>
      <trkpt lat="34.061345" lon="-4.975736">
        <ele>335.883</ele>
        <time>2019-10-18T17:05:33Z</time>
      </trkpt>
      <trkpt lat="34.061054" lon="-4.975431">
        <ele>324.939</ele>
        <time>2019-10-18T17:06:16Z</time>
      </trkpt>
      <trkpt lat="34.061159" lon="-4.975005">
        <ele>327.115</ele>
        <time>2019-10-18T17:09:05Z</time>
      </trkpt>
      <trkpt lat="34.061163" lon="-4.975167">
        <ele>319.792</ele>
        <time>2019-10-18T17:09:21Z</time>
      </trkpt>
      <trkpt lat="34.061618" lon="-4.975658">
        <ele>302.643</ele>
        <time>2019-10-18T17:09:38Z</time>
      </trkpt>
      <trkpt lat="34.060839" lon="-4.974866">
        <ele>267.164</ele>
        <time>2019-10-18T17:10:22Z</time>
      </trkpt>
      <trkpt lat="34.061018" lon="-4.975097">
        <ele>286.510</ele>
        <time>2019-10-18T17:11:12Z</time>
      </trkpt>
      <trkpt lat="34.059866" lon="-4.974468">
        <ele>311.421</ele>
        <time>2019-10-20T11:14:05Z</time>
      </trkpt>
      <trkpt lat="34.059983" lon="-4.974287">
        <ele>311.441</ele>
        <time>2019-10-20T11:14:49Z</time>
      </trkpt>
      <trkpt lat="34.060343" lon="-4.974230">
        <ele>311.405</ele>
        <time>2019-10-20T11:15:54Z</time>
      </trkpt>
      <trkpt lat="34.060640" lon="-4.973426">
        <ele>319.008</ele>
        <time>2019-10-20T11:17:24Z</time>
      </trkpt>
      <trkpt lat="34.060898" lon="-4.973232">
        <ele>320.596</ele>
        <time>2019-10-20T11:17:36Z</time>
      </trkpt>
      <trkpt lat="34.054363" lon="-4.975381">
        <ele>328.684</ele>
        <time>2019-10-20T11:22:55Z</time>
      </trkpt>
      <trkpt lat="34.055203" lon="-4.976298">
        <ele>327.088</ele>
        <time>2019-10-20T11:24:10Z</time>
      </trkpt>
      <trkpt lat="34.055391" lon="-4.977083">
        <ele>326.810</ele>
        <time>2019-10-20T11:24:26Z</time>
      </trkpt>
      <trkpt lat="34.055315" lon="-4.977647">
        <ele>328.183</ele>
        <time>2019-10-20T11:24:40Z</time>
      </trkpt>
      <trkpt lat="34.054912" lon="-4.978374">
        <ele>330.834</ele>
        <time>2019-10-20T11:25:04Z</time>
      </trkpt>
      <trkpt lat="34.053908" lon="-4.979175">
        <ele>340.754</ele>
        <time>2019-10-20T11:26:10Z</time>
      </trkpt>
      <trkpt lat="34.053510" lon="-4.979730">
        <ele>345.457</ele>
        <time>2019-10-20T11:26:34Z</time>
      </trkpt>
      <trkpt lat="34.052920" lon="-4.981692">
        <ele>356.043</ele>
        <time>2019-10-20T11:27:47Z</time>
      </trkpt>
      <trkpt lat="34.051628" lon="-4.983696">
        <ele>360.664</ele>
        <time>2019-10-20T11:28:48Z</time>
      </trkpt>
      <trkpt lat="34.051478" lon="-4.984522">
        <ele>360.110</ele>
        <time>2019-10-20T11:29:03Z</time>
      </trkpt>
      <trkpt lat="34.051512" lon="-4.987640">
        <ele>359.908</ele>
        <time>2019-10-20T11:30:02Z</time>
      </trkpt>
      <trkpt lat="34.051365" lon="-4.988893">
        <ele>362.688</ele>
        <time>2019-10-20T11:30:28Z</time>
      </trkpt>
      <trkpt lat="34.050638" lon="-4.990773">
        <ele>366.056</ele>
        <time>2019-10-20T11:31:35Z</time>
      </trkpt>
      <trkpt lat="34.049420" lon="-4.992835">
        <ele>369.450</ele>
        <time>2019-10-20T11:32:22Z</time>
      </trkpt>
      <trkpt lat="34.048056" lon="-4.994159">
        <ele>384.242</ele>
        <time>2019-10-20T11:33:32Z</time>
      </trkpt>
      <trkpt lat="34.045509" lon="-4.996067">
        <ele>400.415</ele>
        <time>2019-10-20T11:35:50Z</time>
      </trkpt>
      <trkpt lat="34.044722" lon="-4.997254">
        <ele>405.526</ele>
        <time>2019-10-20T11:37:02Z</time>
      </trkpt>
      <trkpt lat="34.037261" lon="-5.003200">
        <ele>419.026</ele>
        <time>2019-10-20T11:43:44Z</time>
      </trkpt>
      <trkpt lat="34.036810" lon="-5.003309">
        <ele>419.329</ele>
        <time>2019-10-20T11:43:55Z</time>
      </trkpt>
      <trkpt lat="34.033910" lon="-5.005537">
        <ele>426.913</ele>
        <time>2019-10-20T11:45:25Z</time>
      </trkpt>
      <trkpt lat="34.032852" lon="-5.006426">
        <ele>426.343</ele>
        <time>2019-10-20T11:46:01Z</time>
      </trkpt>
      <trkpt lat="34.032101" lon="-5.007374">
        <ele>428.707</ele>
        <time>2019-10-20T11:46:30Z</time>
      </trkpt>
      <trkpt lat="34.031649" lon="-5.008308">
        <ele>431.208</ele>
        <time>2019-10-20T11:46:59Z</time>
      </trkpt>
      <trkpt lat="34.031430" lon="-5.009313">
        <ele>436.075</ele>
        <time>2019-10-20T11:47:20Z</time>
      </trkpt>
      <trkpt lat="34.031291" lon="-5.013376">
        <ele>432.523</ele>
        <time>2019-10-20T11:48:30Z</time>
      </trkpt>
      <trkpt lat="34.031374" lon="-5.014106">
        <ele>429.087</ele>
        <time>2019-10-20T11:48:42Z</time>
      </trkpt>
      <trkpt lat="34.028806" lon="-5.017296">
        <ele>427.219</ele>
        <time>2019-10-20T11:49:56Z</time>
      </trkpt>
      <trkpt lat="34.026942" lon="-5.020458">
        <ele>422.172</ele>
        <time>2019-10-20T11:50:55Z</time>
      </trkpt>
      <trkpt lat="34.026425" lon="-5.021790">
        <ele>420.543</ele>
        <time>2019-10-20T11:51:20Z</time>
      </trkpt>
      <trkpt lat="34.026260" lon="-5.023266">
        <ele>419.953</ele>
        <time>2019-10-20T11:51:39Z</time>
      </trkpt>
      <trkpt lat="34.026369" lon="-5.024289">
        <ele>417.466</ele>
        <time>2019-10-20T11:51:54Z</time>
      </trkpt>
      <trkpt lat="34.027032" lon="-5.026896">
        <ele>411.861</ele>
        <time>2019-10-20T11:52:38Z</time>
      </trkpt>
      <trkpt lat="34.027454" lon="-5.027688">
        <ele>411.921</ele>
        <time>2019-10-20T11:53:16Z</time>
      </trkpt>
      <trkpt lat="34.027051" lon="-5.028386">
        <ele>410.413</ele>
        <time>2019-10-20T11:53:32Z</time>
      </trkpt>
      <trkpt lat="34.026896" lon="-5.030686">
        <ele>409.708</ele>
        <time>2019-10-20T11:54:08Z</time>
      </trkpt>
      <trkpt lat="34.025230" lon="-5.034832">
        <ele>418.420</ele>
        <time>2019-10-20T11:55:17Z</time>
      </trkpt>
      <trkpt lat="34.024701" lon="-5.035623">
        <ele>419.988</ele>
        <time>2019-10-20T11:55:33Z</time>
      </trkpt>
      <trkpt lat="34.023614" lon="-5.036964">
        <ele>422.252</ele>
        <time>2019-10-20T11:56:04Z</time>
      </trkpt>
      <trkpt lat="34.021168" lon="-5.038689">
        <ele>409.954</ele>
        <time>2019-10-20T11:57:04Z</time>
      </trkpt>
      <trkpt lat="34.021271" lon="-5.038948">
        <ele>409.067</ele>
        <time>2019-10-20T11:57:11Z</time>
      </trkpt>
      <trkpt lat="34.023146" lon="-5.039675">
        <ele>401.568</ele>
        <time>2019-10-20T11:57:47Z</time>
      </trkpt>
      <trkpt lat="34.023208" lon="-5.039961">
        <ele>401.368</ele>
        <time>2019-10-20T11:57:53Z</time>
      </trkpt>
      <trkpt lat="34.022284" lon="-5.040490">
        <ele>403.071</ele>
        <time>2019-10-20T11:58:19Z</time>
      </trkpt>
      <trkpt lat="34.021226" lon="-5.040645">
        <ele>405.875</ele>
        <time>2019-10-20T11:58:42Z</time>
      </trkpt>
      <trkpt lat="34.019326" lon="-5.042432">
        <ele>404.128</ele>
        <time>2019-10-20T11:59:31Z</time>
      </trkpt>
      <trkpt lat="34.019908" lon="-5.045101">
        <ele>409.420</ele>
        <time>2019-10-20T12:00:18Z</time>
      </trkpt>
      <trkpt lat="34.019953" lon="-5.046030">
        <ele>411.908</ele>
        <time>2019-10-20T12:00:32Z</time>
      </trkpt>
      <trkpt lat="34.018217" lon="-5.051442">
        <ele>405.861</ele>
        <time>2019-10-20T12:02:03Z</time>
      </trkpt>
      <trkpt lat="34.017657" lon="-5.053855">
        <ele>404.829</ele>
        <time>2019-10-20T12:03:06Z</time>
      </trkpt>
      <trkpt lat="34.018436" lon="-5.062217">
        <ele>402.673</ele>
        <time>2019-10-20T12:05:31Z</time>
      </trkpt>
      <trkpt lat="34.018433" lon="-5.063862">
        <ele>405.435</ele>
        <time>2019-10-20T12:06:00Z</time>
      </trkpt>
      <trkpt lat="34.005453" lon="-5.079373">
        <ele>417.538</ele>
        <time>2019-10-20T12:16:11Z</time>
      </trkpt>
      <trkpt lat="34.004710" lon="-5.080927">
        <ele>420.849</ele>
        <time>2019-10-20T12:16:52Z</time>
      </trkpt>
      <trkpt lat="34.004733" lon="-5.081439">
        <ele>422.059</ele>
        <time>2019-10-20T12:17:03Z</time>
      </trkpt>
      <trkpt lat="34.005167" lon="-5.081987">
        <ele>423.532</ele>
        <time>2019-10-20T12:17:32Z</time>
      </trkpt>
      <trkpt lat="34.005040" lon="-5.081983">
        <ele>423.528</ele>
        <time>2019-10-20T12:19:29Z</time>
      </trkpt>
      <trkpt lat="34.002121" lon="-5.093505">
        <ele>424.789</ele>
        <time>2019-10-20T12:22:57Z</time>
      </trkpt>
      <trkpt lat="33.992963" lon="-5.105388">
        <ele>433.717</ele>
        <time>2019-10-20T12:27:54Z</time>
      </trkpt>
      <trkpt lat="33.989727" lon="-5.108463">
        <ele>435.008</ele>
        <time>2019-10-20T12:29:22Z</time>
      </trkpt>
      <trkpt lat="33.989036" lon="-5.108683">
        <ele>438.156</ele>
        <time>2019-10-20T12:29:39Z</time>
      </trkpt>
      <trkpt lat="33.987747" lon="-5.110306">
        <ele>442.734</ele>
        <time>2019-10-20T12:30:23Z</time>
      </trkpt>
      <trkpt lat="33.987806" lon="-5.110390">
        <ele>441.138</ele>
        <time>2019-10-20T12:34:00Z</time>
      </trkpt>
      <trkpt lat="33.987826" lon="-5.110149">
        <ele>440.860</ele>
        <time>2019-10-20T12:34:11Z</time>
      </trkpt>
      <trkpt lat="33.987758" lon="-5.110364">
        <ele>441.593</ele>
        <time>2019-10-20T12:34:27Z</time>
      </trkpt>
      <trkpt lat="33.987639" lon="-5.110337">
        <ele>439.094</ele>
        <time>2019-10-20T12:37:44Z</time>
      </trkpt>
      <trkpt lat="33.974899" lon="-5.130329">
        <ele>456.644</ele>
        <time>2019-10-20T12:45:44Z</time>
      </trkpt>
      <trkpt lat="33.972606" lon="-5.135106">
        <ele>449.217</ele>
        <time>2019-10-20T12:47:04Z</time>
      </trkpt>
      <trkpt lat="33.968905" lon="-5.143532">
        <ele>462.784</ele>
        <time>2019-10-20T12:49:58Z</time>
      </trkpt>
      <trkpt lat="33.968630" lon="-5.145660">
        <ele>456.407</ele>
        <time>2019-10-20T12:50:22Z</time>
      </trkpt>
      <trkpt lat="33.967892" lon="-5.147326">
        <ele>458.917</ele>
        <time>2019-10-20T12:51:18Z</time>
      </trkpt>
      <trkpt lat="33.967431" lon="-5.149445">
        <ele>468.308</ele>
        <time>2019-10-20T12:52:10Z</time>
      </trkpt>
      <trkpt lat="33.967005" lon="-5.150684">
        <ele>465.862</ele>
        <time>2019-10-20T12:52:34Z</time>
      </trkpt>
      <trkpt lat="33.965971" lon="-5.152822">
        <ele>468.640</ele>
        <time>2019-10-20T12:53:18Z</time>
      </trkpt>
      <trkpt lat="33.965922" lon="-5.153522">
        <ele>468.274</ele>
        <time>2019-10-20T12:53:31Z</time>
      </trkpt>
      <trkpt lat="33.966258" lon="-5.154012">
        <ele>466.856</ele>
        <time>2019-10-20T12:53:42Z</time>
      </trkpt>
      <trkpt lat="33.968612" lon="-5.155970">
        <ele>464.689</ele>
        <time>2019-10-20T12:54:39Z</time>
      </trkpt>
      <trkpt lat="33.968852" lon="-5.156362">
        <ele>464.110</ele>
        <time>2019-10-20T12:54:47Z</time>
      </trkpt>
      <trkpt lat="33.968911" lon="-5.156914">
        <ele>464.610</ele>
        <time>2019-10-20T12:54:57Z</time>
      </trkpt>
      <trkpt lat="33.968020" lon="-5.158942">
        <ele>463.733</ele>
        <time>2019-10-20T12:55:38Z</time>
      </trkpt>
      <trkpt lat="33.968454" lon="-5.160922">
        <ele>462.759</ele>
        <time>2019-10-20T12:56:10Z</time>
      </trkpt>
      <trkpt lat="33.972353" lon="-5.163839">
        <ele>453.403</ele>
        <time>2019-10-20T12:57:38Z</time>
      </trkpt>
      <trkpt lat="33.972980" lon="-5.164457">
        <ele>449.123</ele>
        <time>2019-10-20T12:58:39Z</time>
      </trkpt>
      <trkpt lat="33.965212" lon="-5.169800">
        <ele>454.808</ele>
        <time>2019-10-20T13:03:14Z</time>
      </trkpt>
      <trkpt lat="33.964490" lon="-5.170399">
        <ele>454.519</ele>
        <time>2019-10-20T13:03:34Z</time>
      </trkpt>
      <trkpt lat="33.964038" lon="-5.171006">
        <ele>456.457</ele>
        <time>2019-10-20T13:03:50Z</time>
      </trkpt>
      <trkpt lat="33.955726" lon="-5.187336">
        <ele>455.121</ele>
        <time>2019-10-20T13:08:40Z</time>
      </trkpt>
      <trkpt lat="33.955189" lon="-5.187770">
        <ele>455.133</ele>
        <time>2019-10-20T13:08:50Z</time>
      </trkpt>
      <trkpt lat="33.954184" lon="-5.187875">
        <ele>452.946</ele>
        <time>2019-10-20T13:09:02Z</time>
      </trkpt>
      <trkpt lat="33.953779" lon="-5.188343">
        <ele>451.027</ele>
        <time>2019-10-20T13:09:09Z</time>
      </trkpt>
      <trkpt lat="33.953482" lon="-5.190832">
        <ele>441.677</ele>
        <time>2019-10-20T13:09:42Z</time>
      </trkpt>
      <trkpt lat="33.953578" lon="-5.194478">
        <ele>454.950</ele>
        <time>2019-10-20T13:11:01Z</time>
      </trkpt>
      <trkpt lat="33.953451" lon="-5.195445">
        <ele>456.734</ele>
        <time>2019-10-20T13:11:26Z</time>
      </trkpt>
      <trkpt lat="33.950266" lon="-5.202020">
        <ele>460.355</ele>
        <time>2019-10-20T13:13:47Z</time>
      </trkpt>
      <trkpt lat="33.949921" lon="-5.202393">
        <ele>460.510</ele>
        <time>2019-10-20T13:13:57Z</time>
      </trkpt>
      <trkpt lat="33.941126" lon="-5.208758">
        <ele>480.008</ele>
        <time>2019-10-20T13:18:18Z</time>
      </trkpt>
      <trkpt lat="33.940669" lon="-5.208946">
        <ele>481.527</ele>
        <time>2019-10-20T13:18:33Z</time>
      </trkpt>
      <trkpt lat="33.939454" lon="-5.209054">
        <ele>489.115</ele>
        <time>2019-10-20T13:22:13Z</time>
      </trkpt>
      <trkpt lat="33.939611" lon="-5.209025">
        <ele>501.129</ele>
        <time>2019-10-20T13:30:54Z</time>
      </trkpt>
      <trkpt lat="33.939609" lon="-5.208884">
        <ele>524.261</ele>
        <time>2019-10-20T13:58:31Z</time>
      </trkpt>
      <trkpt lat="33.938542" lon="-5.211850">
        <ele>485.724</ele>
        <time>2019-10-20T14:01:20Z</time>
      </trkpt>
      <trkpt lat="33.938508" lon="-5.212185">
        <ele>485.375</ele>
        <time>2019-10-20T14:01:32Z</time>
      </trkpt>
      <trkpt lat="33.939630" lon="-5.215341">
        <ele>479.265</ele>
        <time>2019-10-20T14:02:32Z</time>
      </trkpt>
      <trkpt lat="33.940231" lon="-5.216427">
        <ele>478.028</ele>
        <time>2019-10-20T14:02:58Z</time>
      </trkpt>
      <trkpt lat="33.955093" lon="-5.224050">
        <ele>457.135</ele>
        <time>2019-10-20T14:06:53Z</time>
      </trkpt>
      <trkpt lat="33.956922" lon="-5.225157">
        <ele>452.186</ele>
        <time>2019-10-20T14:07:22Z</time>
      </trkpt>
      <trkpt lat="33.955535" lon="-5.224247">
        <ele>453.314</ele>
        <time>2019-10-20T14:08:46Z</time>
      </trkpt>
      <trkpt lat="33.952489" lon="-5.233089">
        <ele>457.408</ele>
        <time>2019-10-20T14:11:43Z</time>
      </trkpt>
      <trkpt lat="33.944527" lon="-5.259189">
        <ele>471.827</ele>
        <time>2019-10-20T14:19:45Z</time>
      </trkpt>
      <trkpt lat="33.942525" lon="-5.261506">
        <ele>472.535</ele>
        <time>2019-10-20T14:20:50Z</time>
      </trkpt>
      <trkpt lat="33.937827" lon="-5.265579">
        <ele>486.279</ele>
        <time>2019-10-20T14:23:35Z</time>
      </trkpt>
      <trkpt lat="33.936455" lon="-5.266512">
        <ele>485.521</ele>
        <time>2019-10-20T14:25:43Z</time>
      </trkpt>
      <trkpt lat="33.933645" lon="-5.269109">
        <ele>505.094</ele>
        <time>2019-10-20T14:28:05Z</time>
      </trkpt>
      <trkpt lat="33.934496" lon="-5.268223">
        <ele>504.855</ele>
        <time>2019-10-20T14:28:39Z</time>
      </trkpt>
      <trkpt lat="33.934412" lon="-5.268287">
        <ele>499.845</ele>
        <time>2019-10-20T14:33:55Z</time>
      </trkpt>
      <trkpt lat="33.934404" lon="-5.268171">
        <ele>500.378</ele>
        <time>2019-10-20T14:34:53Z</time>
      </trkpt>
      <trkpt lat="33.934658" lon="-5.268190">
        <ele>500.527</ele>
        <time>2019-10-20T14:35:08Z</time>
      </trkpt>
      <trkpt lat="33.935066" lon="-5.267907">
        <ele>499.368</ele>
        <time>2019-10-20T14:35:22Z</time>
      </trkpt>
      <trkpt lat="33.934633" lon="-5.269405">
        <ele>500.814</ele>
        <time>2019-10-20T14:36:40Z</time>
      </trkpt>
      <trkpt lat="33.934569" lon="-5.270295">
        <ele>499.208</ele>
        <time>2019-10-20T14:37:12Z</time>
      </trkpt>
      <trkpt lat="33.935675" lon="-5.273996">
        <ele>481.316</ele>
        <time>2019-10-20T14:38:27Z</time>
      </trkpt>
      <trkpt lat="33.936185" lon="-5.278380">
        <ele>485.274</ele>
        <time>2019-10-20T14:40:16Z</time>
      </trkpt>
      <trkpt lat="33.936217" lon="-5.280739">
        <ele>498.288</ele>
        <time>2019-10-20T14:41:20Z</time>
      </trkpt>
      <trkpt lat="33.935946" lon="-5.283548">
        <ele>497.890</ele>
        <time>2019-10-20T14:42:15Z</time>
      </trkpt>
      <trkpt lat="33.935412" lon="-5.286793">
        <ele>500.813</ele>
        <time>2019-10-20T14:43:22Z</time>
      </trkpt>
      <trkpt lat="33.934894" lon="-5.291760">
        <ele>500.214</ele>
        <time>2019-10-20T14:45:28Z</time>
      </trkpt>
      <trkpt lat="33.933947" lon="-5.296858">
        <ele>504.064</ele>
        <time>2019-10-20T14:47:20Z</time>
      </trkpt>
      <trkpt lat="33.933589" lon="-5.301135">
        <ele>526.247</ele>
        <time>2019-10-20T14:49:56Z</time>
      </trkpt>
      <trkpt lat="33.933930" lon="-5.308117">
        <ele>510.638</ele>
        <time>2019-10-20T14:52:18Z</time>
      </trkpt>
      <trkpt lat="33.934568" lon="-5.311591">
        <ele>522.670</ele>
        <time>2019-10-20T14:53:49Z</time>
      </trkpt>
      <trkpt lat="33.934863" lon="-5.312439">
        <ele>518.617</ele>
        <time>2019-10-20T14:54:00Z</time>
      </trkpt>
      <trkpt lat="33.935071" lon="-5.314754">
        <ele>508.308</ele>
        <time>2019-10-20T14:54:28Z</time>
      </trkpt>
      <trkpt lat="33.935700" lon="-5.315482">
        <ele>497.477</ele>
        <time>2019-10-20T14:54:46Z</time>
      </trkpt>
      <trkpt lat="33.934517" lon="-5.318068">
        <ele>520.795</ele>
        <time>2019-10-20T14:58:47Z</time>
      </trkpt>
      <trkpt lat="33.933145" lon="-5.320196">
        <ele>514.899</ele>
        <time>2019-10-20T14:59:25Z</time>
      </trkpt>
      <trkpt lat="33.932631" lon="-5.321624">
        <ele>515.061</ele>
        <time>2019-10-20T14:59:51Z</time>
      </trkpt>
      <trkpt lat="33.932610" lon="-5.322099">
        <ele>517.234</ele>
        <time>2019-10-20T15:00:01Z</time>
      </trkpt>
      <trkpt lat="33.932853" lon="-5.322854">
        <ele>520.125</ele>
        <time>2019-10-20T15:00:20Z</time>
      </trkpt>
      <trkpt lat="33.933339" lon="-5.323415">
        <ele>520.895</ele>
        <time>2019-10-20T15:00:36Z</time>
      </trkpt>
      <trkpt lat="33.936186" lon="-5.324664">
        <ele>516.388</ele>
        <time>2019-10-20T15:01:29Z</time>
      </trkpt>
      <trkpt lat="33.937108" lon="-5.325523">
        <ele>519.968</ele>
        <time>2019-10-20T15:01:50Z</time>
      </trkpt>
      <trkpt lat="33.937602" lon="-5.326917">
        <ele>527.342</ele>
        <time>2019-10-20T15:02:28Z</time>
      </trkpt>
      <trkpt lat="33.937861" lon="-5.328865">
        <ele>539.226</ele>
        <time>2019-10-20T15:03:33Z</time>
      </trkpt>
      <trkpt lat="33.938754" lon="-5.330892">
        <ele>539.108</ele>
        <time>2019-10-20T15:05:07Z</time>
      </trkpt>
      <trkpt lat="33.938813" lon="-5.331362">
        <ele>545.180</ele>
        <time>2019-10-20T15:05:23Z</time>
      </trkpt>
      <trkpt lat="33.938562" lon="-5.331968">
        <ele>547.838</ele>
        <time>2019-10-20T15:05:45Z</time>
      </trkpt>
      <trkpt lat="33.937533" lon="-5.333330">
        <ele>554.542</ele>
        <time>2019-10-20T15:06:51Z</time>
      </trkpt>
      <trkpt lat="33.936207" lon="-5.333531">
        <ele>568.134</ele>
        <time>2019-10-20T15:07:48Z</time>
      </trkpt>
      <trkpt lat="33.935768" lon="-5.333832">
        <ele>569.677</ele>
        <time>2019-10-20T15:08:08Z</time>
      </trkpt>
      <trkpt lat="33.933539" lon="-5.337642">
        <ele>584.258</ele>
        <time>2019-10-20T15:10:46Z</time>
      </trkpt>
      <trkpt lat="33.928707" lon="-5.351976">
        <ele>584.158</ele>
        <time>2019-10-20T15:17:11Z</time>
      </trkpt>
      <trkpt lat="33.926595" lon="-5.354794">
        <ele>572.671</ele>
        <time>2019-10-20T15:17:54Z</time>
      </trkpt>
      <trkpt lat="33.924462" lon="-5.356502">
        <ele>556.193</ele>
        <time>2019-10-20T15:18:22Z</time>
      </trkpt>
      <trkpt lat="33.921435" lon="-5.361311">
        <ele>565.565</ele>
        <time>2019-10-20T15:21:33Z</time>
      </trkpt>
      <trkpt lat="33.921091" lon="-5.362059">
        <ele>571.321</ele>
        <time>2019-10-20T15:22:08Z</time>
      </trkpt>
      <trkpt lat="33.921071" lon="-5.363383">
        <ele>584.208</ele>
        <time>2019-10-20T15:22:56Z</time>
      </trkpt>
      <trkpt lat="33.921711" lon="-5.365348">
        <ele>595.763</ele>
        <time>2019-10-20T15:24:05Z</time>
      </trkpt>
      <trkpt lat="33.921907" lon="-5.366390">
        <ele>598.441</ele>
        <time>2019-10-20T15:24:31Z</time>
      </trkpt>
      <trkpt lat="33.922020" lon="-5.369909">
        <ele>598.535</ele>
        <time>2019-10-20T15:25:52Z</time>
      </trkpt>
      <trkpt lat="33.921734" lon="-5.370095">
        <ele>599.157</ele>
        <time>2019-10-20T15:27:49Z</time>
      </trkpt>
      <trkpt lat="33.921903" lon="-5.370048">
        <ele>598.560</ele>
        <time>2019-10-20T15:31:08Z</time>
      </trkpt>
      <trkpt lat="33.921999" lon="-5.370210">
        <ele>596.981</ele>
        <time>2019-10-20T15:31:18Z</time>
      </trkpt>
      <trkpt lat="33.922126" lon="-5.373455">
        <ele>599.821</ele>
        <time>2019-10-20T15:34:41Z</time>
      </trkpt>
      <trkpt lat="33.920169" lon="-5.388799">
        <ele>589.414</ele>
        <time>2019-10-20T15:38:21Z</time>
      </trkpt>
      <trkpt lat="33.920128" lon="-5.389949">
        <ele>587.813</ele>
        <time>2019-10-20T15:38:37Z</time>
      </trkpt>
      <trkpt lat="33.920394" lon="-5.393511">
        <ele>585.343</ele>
        <time>2019-10-20T15:39:22Z</time>
      </trkpt>
      <trkpt lat="33.921515" lon="-5.398104">
        <ele>590.707</ele>
        <time>2019-10-20T15:40:37Z</time>
      </trkpt>
      <trkpt lat="33.921531" lon="-5.398752">
        <ele>592.008</ele>
        <time>2019-10-20T15:40:47Z</time>
      </trkpt>
      <trkpt lat="33.921260" lon="-5.399274">
        <ele>591.475</ele>
        <time>2019-10-20T15:40:56Z</time>
      </trkpt>
      <trkpt lat="33.919623" lon="-5.400722">
        <ele>587.873</ele>
        <time>2019-10-20T15:41:30Z</time>
      </trkpt>
      <trkpt lat="33.919221" lon="-5.401238">
        <ele>585.767</ele>
        <time>2019-10-20T15:41:40Z</time>
      </trkpt>
      <trkpt lat="33.917067" lon="-5.406667">
        <ele>606.699</ele>
        <time>2019-10-20T15:43:43Z</time>
      </trkpt>
      <trkpt lat="33.916636" lon="-5.407423">
        <ele>605.982</ele>
        <time>2019-10-20T15:44:05Z</time>
      </trkpt>
      <trkpt lat="33.915819" lon="-5.408201">
        <ele>609.013</ele>
        <time>2019-10-20T15:44:34Z</time>
      </trkpt>
      <trkpt lat="33.914324" lon="-5.408765">
        <ele>609.473</ele>
        <time>2019-10-20T15:45:10Z</time>
      </trkpt>
      <trkpt lat="33.913775" lon="-5.409165">
        <ele>607.436</ele>
        <time>2019-10-20T15:45:21Z</time>
      </trkpt>
      <trkpt lat="33.912282" lon="-5.411827">
        <ele>604.165</ele>
        <time>2019-10-20T15:46:05Z</time>
      </trkpt>
      <trkpt lat="33.910752" lon="-5.415287">
        <ele>607.168</ele>
        <time>2019-10-20T15:47:10Z</time>
      </trkpt>
      <trkpt lat="33.908941" lon="-5.420650">
        <ele>613.314</ele>
        <time>2019-10-20T15:48:48Z</time>
      </trkpt>
      <trkpt lat="33.907748" lon="-5.428585">
        <ele>607.808</ele>
        <time>2019-10-20T15:50:43Z</time>
      </trkpt>
      <trkpt lat="33.907482" lon="-5.429524">
        <ele>607.580</ele>
        <time>2019-10-20T15:50:59Z</time>
      </trkpt>
      <trkpt lat="33.902735" lon="-5.439671">
        <ele>613.488</ele>
        <time>2019-10-20T15:54:20Z</time>
      </trkpt>
      <trkpt lat="33.900123" lon="-5.444676">
        <ele>612.532</ele>
        <time>2019-10-20T15:55:52Z</time>
      </trkpt>
      <trkpt lat="33.896904" lon="-5.451409">
        <ele>613.214</ele>
        <time>2019-10-20T15:58:00Z</time>
      </trkpt>
      <trkpt lat="33.895843" lon="-5.453316">
        <ele>613.077</ele>
        <time>2019-10-20T15:58:34Z</time>
      </trkpt>
      <trkpt lat="33.894608" lon="-5.454785">
        <ele>611.158</ele>
        <time>2019-10-20T15:59:09Z</time>
      </trkpt>
      <trkpt lat="33.894207" lon="-5.455529">
        <ele>611.768</ele>
        <time>2019-10-20T15:59:24Z</time>
      </trkpt>
      <trkpt lat="33.893890" lon="-5.456787">
        <ele>611.561</ele>
        <time>2019-10-20T15:59:44Z</time>
      </trkpt>
      <trkpt lat="33.893323" lon="-5.464074">
        <ele>605.353</ele>
        <time>2019-10-20T16:01:23Z</time>
      </trkpt>
      <trkpt lat="33.893347" lon="-5.465230">
        <ele>607.204</ele>
        <time>2019-10-20T16:01:40Z</time>
      </trkpt>
      <trkpt lat="33.900307" lon="-5.483213">
        <ele>598.814</ele>
        <time>2019-10-20T16:06:25Z</time>
      </trkpt>
      <trkpt lat="33.902159" lon="-5.487317">
        <ele>588.908</ele>
        <time>2019-10-20T16:07:31Z</time>
      </trkpt>
      <trkpt lat="33.902147" lon="-5.487862">
        <ele>587.579</ele>
        <time>2019-10-20T16:07:38Z</time>
      </trkpt>
      <trkpt lat="33.902740" lon="-5.490151">
        <ele>585.877</ele>
        <time>2019-10-20T16:08:19Z</time>
      </trkpt>
      <trkpt lat="33.903293" lon="-5.490814">
        <ele>584.031</ele>
        <time>2019-10-20T16:08:37Z</time>
      </trkpt>
      <trkpt lat="33.903082" lon="-5.491529">
        <ele>582.133</ele>
        <time>2019-10-20T16:08:52Z</time>
      </trkpt>
      <trkpt lat="33.903715" lon="-5.494215">
        <ele>583.986</ele>
        <time>2019-10-20T16:09:29Z</time>
      </trkpt>
      <trkpt lat="33.903531" lon="-5.494930">
        <ele>582.227</ele>
        <time>2019-10-20T16:09:39Z</time>
      </trkpt>
      <trkpt lat="33.903086" lon="-5.495309">
        <ele>578.867</ele>
        <time>2019-10-20T16:09:46Z</time>
      </trkpt>
      <trkpt lat="33.902768" lon="-5.495393">
        <ele>576.670</ele>
        <time>2019-10-20T16:09:50Z</time>
      </trkpt>
      <trkpt lat="33.901593" lon="-5.495266">
        <ele>569.786</ele>
        <time>2019-10-20T16:10:03Z</time>
      </trkpt>
      <trkpt lat="33.901131" lon="-5.495519">
        <ele>566.560</ele>
        <time>2019-10-20T16:10:08Z</time>
      </trkpt>
      <trkpt lat="33.899727" lon="-5.498234">
        <ele>548.926</ele>
        <time>2019-10-20T16:10:35Z</time>
      </trkpt>
      <trkpt lat="33.899905" lon="-5.498871">
        <ele>547.508</ele>
        <time>2019-10-20T16:10:43Z</time>
      </trkpt>
      <trkpt lat="33.900396" lon="-5.499119">
        <ele>553.182</ele>
        <time>2019-10-20T16:10:52Z</time>
      </trkpt>
      <trkpt lat="33.901753" lon="-5.498385">
        <ele>575.020</ele>
        <time>2019-10-20T16:11:46Z</time>
      </trkpt>
      <trkpt lat="33.902341" lon="-5.498420">
        <ele>574.124</ele>
        <time>2019-10-20T16:12:10Z</time>
      </trkpt>
      <trkpt lat="33.902834" lon="-5.498923">
        <ele>576.546</ele>
        <time>2019-10-20T16:12:37Z</time>
      </trkpt>
      <trkpt lat="33.903000" lon="-5.499696">
        <ele>581.929</ele>
        <time>2019-10-20T16:13:06Z</time>
      </trkpt>
      <trkpt lat="33.899107" lon="-5.507912">
        <ele>587.440</ele>
        <time>2019-10-20T16:16:12Z</time>
      </trkpt>
      <trkpt lat="33.898832" lon="-5.509213">
        <ele>582.910</ele>
        <time>2019-10-20T16:16:40Z</time>
      </trkpt>
      <trkpt lat="33.898518" lon="-5.515259">
        <ele>581.783</ele>
        <time>2019-10-20T16:18:20Z</time>
      </trkpt>
      <trkpt lat="33.899297" lon="-5.518276">
        <ele>589.426</ele>
        <time>2019-10-20T16:19:10Z</time>
      </trkpt>
      <trkpt lat="33.899787" lon="-5.525665">
        <ele>586.747</ele>
        <time>2019-10-20T16:21:05Z</time>
      </trkpt>
      <trkpt lat="33.898549" lon="-5.530283">
        <ele>581.111</ele>
        <time>2019-10-20T16:22:13Z</time>
      </trkpt>
      <trkpt lat="33.898098" lon="-5.536792">
        <ele>596.308</ele>
        <time>2019-10-20T16:25:34Z</time>
      </trkpt>
      <trkpt lat="33.896704" lon="-5.543046">
        <ele>582.726</ele>
        <time>2019-10-20T16:27:47Z</time>
      </trkpt>
      <trkpt lat="33.896840" lon="-5.542787">
        <ele>583.124</ele>
        <time>2019-10-20T16:28:22Z</time>
      </trkpt>
      <trkpt lat="33.896396" lon="-5.542673">
        <ele>599.528</ele>
        <time>2019-10-20T16:32:56Z</time>
      </trkpt>
      <trkpt lat="33.896612" lon="-5.542250">
        <ele>585.930</ele>
        <time>2019-10-20T17:16:39Z</time>
      </trkpt>
      <trkpt lat="33.896853" lon="-5.542573">
        <ele>585.963</ele>
        <time>2019-10-20T17:16:45Z</time>
      </trkpt>
      <trkpt lat="33.896703" lon="-5.542386">
        <ele>585.984</ele>
        <time>2019-10-20T17:16:51Z</time>
      </trkpt>
      <trkpt lat="33.896502" lon="-5.542486">
        <ele>585.964</ele>
        <time>2019-10-20T17:17:03Z</time>
      </trkpt>
      <trkpt lat="33.896898" lon="-5.542522">
        <ele>585.967</ele>
        <time>2019-10-20T17:17:14Z</time>
      </trkpt>
      <trkpt lat="33.896785" lon="-5.542027">
        <ele>585.929</ele>
        <time>2019-10-20T17:17:20Z</time>
      </trkpt>
      <trkpt lat="33.896742" lon="-5.542381">
        <ele>585.900</ele>
        <time>2019-10-20T17:17:38Z</time>
      </trkpt>
      <trkpt lat="33.896614" lon="-5.542408">
        <ele>585.920</ele>
        <time>2019-10-20T17:18:02Z</time>
      </trkpt>
      <trkpt lat="33.896866" lon="-5.542490">
        <ele>585.908</ele>
        <time>2019-10-20T17:18:20Z</time>
      </trkpt>
      <trkpt lat="33.896610" lon="-5.542438">
        <ele>585.986</ele>
        <time>2019-10-20T17:18:26Z</time>
      </trkpt>
      <trkpt lat="33.896683" lon="-5.542379">
        <ele>585.954</ele>
        <time>2019-10-20T17:18:32Z</time>
      </trkpt>
      <trkpt lat="33.897218" lon="-5.543293">
        <ele>585.918</ele>
        <time>2019-10-20T17:18:37Z</time>
      </trkpt>
      <trkpt lat="33.896958" lon="-5.542899">
        <ele>585.930</ele>
        <time>2019-10-20T17:18:43Z</time>
      </trkpt>
      <trkpt lat="33.897136" lon="-5.543186">
        <ele>585.963</ele>
        <time>2019-10-20T17:19:32Z</time>
      </trkpt>
      <trkpt lat="33.897036" lon="-5.543043">
        <ele>585.924</ele>
        <time>2019-10-20T17:19:38Z</time>
      </trkpt>
      <trkpt lat="33.896986" lon="-5.542944">
        <ele>537.455</ele>
        <time>2019-10-21T11:30:10Z</time>
      </trkpt>
      <trkpt lat="33.897592" lon="-5.544045">
        <ele>538.807</ele>
        <time>2019-10-21T11:31:51Z</time>
      </trkpt>
      <trkpt lat="33.897280" lon="-5.544746">
        <ele>545.317</ele>
        <time>2019-10-21T11:32:27Z</time>
      </trkpt>
      <trkpt lat="33.899157" lon="-5.546516">
        <ele>527.908</ele>
        <time>2019-10-21T11:33:28Z</time>
      </trkpt>
      <trkpt lat="33.899649" lon="-5.547175">
        <ele>527.949</ele>
        <time>2019-10-21T11:34:00Z</time>
      </trkpt>
      <trkpt lat="33.901044" lon="-5.550473">
        <ele>534.187</ele>
        <time>2019-10-21T11:37:13Z</time>
      </trkpt>
      <trkpt lat="33.901455" lon="-5.550859">
        <ele>529.712</ele>
        <time>2019-10-21T11:37:32Z</time>
      </trkpt>
      <trkpt lat="33.901533" lon="-5.552458">
        <ele>524.346</ele>
        <time>2019-10-21T11:39:36Z</time>
      </trkpt>
      <trkpt lat="33.901143" lon="-5.553917">
        <ele>525.122</ele>
        <time>2019-10-21T11:40:38Z</time>
      </trkpt>
      <trkpt lat="33.901193" lon="-5.554194">
        <ele>520.679</ele>
        <time>2019-10-21T11:40:47Z</time>
      </trkpt>
      <trkpt lat="33.901853" lon="-5.554351">
        <ele>512.884</ele>
        <time>2019-10-21T11:41:02Z</time>
      </trkpt>
      <trkpt lat="33.903458" lon="-5.555063">
        <ele>498.876</ele>
        <time>2019-10-21T11:41:29Z</time>
      </trkpt>
      <trkpt lat="33.905995" lon="-5.556407">
        <ele>481.781</ele>
        <time>2019-10-21T11:42:04Z</time>
      </trkpt>
      <trkpt lat="33.907819" lon="-5.556685">
        <ele>471.461</ele>
        <time>2019-10-21T11:42:26Z</time>
      </trkpt>
      <trkpt lat="33.909219" lon="-5.556547">
        <ele>464.617</ele>
        <time>2019-10-21T11:42:44Z</time>
      </trkpt>
      <trkpt lat="33.910015" lon="-5.556690">
        <ele>461.208</ele>
        <time>2019-10-21T11:42:54Z</time>
      </trkpt>
      <trkpt lat="33.912830" lon="-5.558271">
        <ele>447.462</ele>
        <time>2019-10-21T11:43:28Z</time>
      </trkpt>
      <trkpt lat="33.915694" lon="-5.559368">
        <ele>431.750</ele>
        <time>2019-10-21T11:44:37Z</time>
      </trkpt>
      <trkpt lat="33.919316" lon="-5.561194">
        <ele>404.155</ele>
        <time>2019-10-21T11:45:08Z</time>
      </trkpt>
      <trkpt lat="33.920372" lon="-5.561270">
        <ele>396.689</ele>
        <time>2019-10-21T11:45:16Z</time>
      </trkpt>
      <trkpt lat="33.921534" lon="-5.560816">
        <ele>386.695</ele>
        <time>2019-10-21T11:45:31Z</time>
      </trkpt>
      <trkpt lat="33.923796" lon="-5.560585">
        <ele>379.692</ele>
        <time>2019-10-21T11:46:13Z</time>
      </trkpt>
      <trkpt lat="33.926110" lon="-5.561536">
        <ele>369.647</ele>
        <time>2019-10-21T11:46:38Z</time>
      </trkpt>
      <trkpt lat="33.928074" lon="-5.562044">
        <ele>368.579</ele>
        <time>2019-10-21T11:47:13Z</time>
      </trkpt>
      <trkpt lat="33.930037" lon="-5.563177">
        <ele>365.386</ele>
        <time>2019-10-21T11:47:45Z</time>
      </trkpt>
      <trkpt lat="33.932175" lon="-5.563437">
        <ele>365.260</ele>
        <time>2019-10-21T11:48:17Z</time>
      </trkpt>
      <trkpt lat="33.933785" lon="-5.564253">
        <ele>356.326</ele>
        <time>2019-10-21T11:48:35Z</time>
      </trkpt>
      <trkpt lat="33.934512" lon="-5.564330">
        <ele>352.008</ele>
        <time>2019-10-21T11:48:42Z</time>
      </trkpt>
      <trkpt lat="33.936055" lon="-5.564180">
        <ele>344.792</ele>
        <time>2019-10-21T11:49:02Z</time>
      </trkpt>
      <trkpt lat="33.939403" lon="-5.564748">
        <ele>326.920</ele>
        <time>2019-10-21T11:49:39Z</time>
      </trkpt>
      <trkpt lat="33.940313" lon="-5.565046">
        <ele>323.095</ele>
        <time>2019-10-21T11:49:51Z</time>
      </trkpt>
      <trkpt lat="33.944585" lon="-5.567986">
        <ele>315.219</ele>
        <time>2019-10-21T11:51:06Z</time>
      </trkpt>
      <trkpt lat="33.945178" lon="-5.568853">
        <ele>316.295</ele>
        <time>2019-10-21T11:51:21Z</time>
      </trkpt>
      <trkpt lat="33.945758" lon="-5.570921">
        <ele>313.822</ele>
        <time>2019-10-21T11:51:51Z</time>
      </trkpt>
      <trkpt lat="33.946207" lon="-5.571788">
        <ele>312.077</ele>
        <time>2019-10-21T11:52:04Z</time>
      </trkpt>
      <trkpt lat="33.947157" lon="-5.573009">
        <ele>315.529</ele>
        <time>2019-10-21T11:53:26Z</time>
      </trkpt>
      <trkpt lat="33.948065" lon="-5.573544">
        <ele>317.014</ele>
        <time>2019-10-21T11:53:48Z</time>
      </trkpt>
      <trkpt lat="33.953162" lon="-5.574014">
        <ele>301.554</ele>
        <time>2019-10-21T11:54:56Z</time>
      </trkpt>
      <trkpt lat="33.955663" lon="-5.575013">
        <ele>283.609</ele>
        <time>2019-10-21T11:55:27Z</time>
      </trkpt>
      <trkpt lat="33.958480" lon="-5.575377">
        <ele>283.008</ele>
        <time>2019-10-21T11:56:12Z</time>
      </trkpt>
      <trkpt lat="33.960830" lon="-5.576530">
        <ele>285.145</ele>
        <time>2019-10-21T11:57:01Z</time>
      </trkpt>
      <trkpt lat="33.961684" lon="-5.576690">
        <ele>292.283</ele>
        <time>2019-10-21T11:57:34Z</time>
      </trkpt>
      <trkpt lat="33.962919" lon="-5.576289">
        <ele>297.478</ele>
        <time>2019-10-21T11:58:18Z</time>
      </trkpt>
      <trkpt lat="33.965119" lon="-5.574425">
        <ele>315.432</ele>
        <time>2019-10-21T12:00:24Z</time>
      </trkpt>
      <trkpt lat="33.966438" lon="-5.573979">
        <ele>327.578</ele>
        <time>2019-10-21T12:01:30Z</time>
      </trkpt>
      <trkpt lat="33.967027" lon="-5.573937">
        <ele>329.415</ele>
        <time>2019-10-21T12:01:55Z</time>
      </trkpt>
      <trkpt lat="33.967661" lon="-5.574184">
        <ele>327.910</ele>
        <time>2019-10-21T12:02:16Z</time>
      </trkpt>
      <trkpt lat="33.968873" lon="-5.575117">
        <ele>325.432</ele>
        <time>2019-10-21T12:02:49Z</time>
      </trkpt>
      <trkpt lat="33.971319" lon="-5.575933">
        <ele>320.431</ele>
        <time>2019-10-21T12:03:31Z</time>
      </trkpt>
      <trkpt lat="33.973616" lon="-5.577278">
        <ele>301.561</ele>
        <time>2019-10-21T12:03:59Z</time>
      </trkpt>
      <trkpt lat="33.975383" lon="-5.577634">
        <ele>311.007</ele>
        <time>2019-10-21T12:04:52Z</time>
      </trkpt>
      <trkpt lat="33.976141" lon="-5.577460">
        <ele>319.608</ele>
        <time>2019-10-21T12:05:18Z</time>
      </trkpt>
      <trkpt lat="33.976655" lon="-5.576809">
        <ele>318.237</ele>
        <time>2019-10-21T12:05:33Z</time>
      </trkpt>
      <trkpt lat="33.977588" lon="-5.571765">
        <ele>293.875</ele>
        <time>2019-10-21T12:06:30Z</time>
      </trkpt>
      <trkpt lat="33.978242" lon="-5.570545">
        <ele>292.290</ele>
        <time>2019-10-21T12:06:47Z</time>
      </trkpt>
      <trkpt lat="33.978645" lon="-5.569237">
        <ele>287.864</ele>
        <time>2019-10-21T12:07:00Z</time>
      </trkpt>
      <trkpt lat="33.979595" lon="-5.567117">
        <ele>279.310</ele>
        <time>2019-10-21T12:07:22Z</time>
      </trkpt>
      <trkpt lat="33.981657" lon="-5.562842">
        <ele>290.187</ele>
        <time>2019-10-21T12:08:51Z</time>
      </trkpt>
      <trkpt lat="33.982020" lon="-5.562757">
        <ele>293.082</ele>
        <time>2019-10-21T12:09:05Z</time>
      </trkpt>
      <trkpt lat="33.983737" lon="-5.563287">
        <ele>301.134</ele>
        <time>2019-10-21T12:10:11Z</time>
      </trkpt>
      <trkpt lat="33.985376" lon="-5.562935">
        <ele>310.367</ele>
        <time>2019-10-21T12:11:19Z</time>
      </trkpt>
      <trkpt lat="33.987734" lon="-5.562131">
        <ele>325.481</ele>
        <time>2019-10-21T12:13:00Z</time>
      </trkpt>
      <trkpt lat="33.989669" lon="-5.562650">
        <ele>323.619</ele>
        <time>2019-10-21T12:14:20Z</time>
      </trkpt>
      <trkpt lat="33.990563" lon="-5.562514">
        <ele>328.308</ele>
        <time>2019-10-21T12:14:57Z</time>
      </trkpt>
      <trkpt lat="33.991543" lon="-5.562622">
        <ele>333.230</ele>
        <time>2019-10-21T12:15:35Z</time>
      </trkpt>
      <trkpt lat="33.992062" lon="-5.562527">
        <ele>334.558</ele>
        <time>2019-10-21T12:15:57Z</time>
      </trkpt>
      <trkpt lat="33.992905" lon="-5.562098">
        <ele>344.213</ele>
        <time>2019-10-21T12:16:34Z</time>
      </trkpt>
      <trkpt lat="33.994027" lon="-5.560884">
        <ele>347.917</ele>
        <time>2019-10-21T12:17:37Z</time>
      </trkpt>
      <trkpt lat="33.995414" lon="-5.559976">
        <ele>358.243</ele>
        <time>2019-10-21T12:18:42Z</time>
      </trkpt>
      <trkpt lat="34.001615" lon="-5.556734">
        <ele>379.230</ele>
        <time>2019-10-21T12:27:39Z</time>
      </trkpt>
      <trkpt lat="34.003061" lon="-5.556148">
        <ele>384.285</ele>
        <time>2019-10-21T12:28:31Z</time>
      </trkpt>
      <trkpt lat="34.005948" lon="-5.556112">
        <ele>389.267</ele>
        <time>2019-10-21T12:30:02Z</time>
      </trkpt>
      <trkpt lat="34.006404" lon="-5.556235">
        <ele>392.395</ele>
        <time>2019-10-21T12:30:20Z</time>
      </trkpt>
      <trkpt lat="34.006995" lon="-5.557110">
        <ele>393.349</ele>
        <time>2019-10-21T12:30:56Z</time>
      </trkpt>
      <trkpt lat="34.007204" lon="-5.558210">
        <ele>395.923</ele>
        <time>2019-10-21T12:31:26Z</time>
      </trkpt>
      <trkpt lat="34.007554" lon="-5.558759">
        <ele>397.708</ele>
        <time>2019-10-21T12:31:49Z</time>
      </trkpt>
      <trkpt lat="34.008193" lon="-5.558971">
        <ele>405.653</ele>
        <time>2019-10-21T12:32:17Z</time>
      </trkpt>
      <trkpt lat="34.010110" lon="-5.559094">
        <ele>420.191</ele>
        <time>2019-10-21T12:33:39Z</time>
      </trkpt>
      <trkpt lat="34.010997" lon="-5.559631">
        <ele>420.236</ele>
        <time>2019-10-21T12:34:19Z</time>
      </trkpt>
      <trkpt lat="34.011359" lon="-5.560210">
        <ele>420.040</ele>
        <time>2019-10-21T12:34:44Z</time>
      </trkpt>
      <trkpt lat="34.012535" lon="-5.563181">
        <ele>426.846</ele>
        <time>2019-10-21T12:36:13Z</time>
      </trkpt>
      <trkpt lat="34.012868" lon="-5.563640">
        <ele>425.873</ele>
        <time>2019-10-21T12:36:22Z</time>
      </trkpt>
      <trkpt lat="34.013372" lon="-5.563918">
        <ele>428.058</ele>
        <time>2019-10-21T12:36:36Z</time>
      </trkpt>
      <trkpt lat="34.014556" lon="-5.563952">
        <ele>436.070</ele>
        <time>2019-10-21T12:37:15Z</time>
      </trkpt>
      <trkpt lat="34.016885" lon="-5.565490">
        <ele>445.684</ele>
        <time>2019-10-21T12:38:45Z</time>
      </trkpt>
      <trkpt lat="34.017413" lon="-5.566297">
        <ele>449.607</ele>
        <time>2019-10-21T12:39:19Z</time>
      </trkpt>
      <trkpt lat="34.017533" lon="-5.567523">
        <ele>452.317</ele>
        <time>2019-10-21T12:39:50Z</time>
      </trkpt>
      <trkpt lat="34.018016" lon="-5.568378">
        <ele>453.808</ele>
        <time>2019-10-21T12:40:18Z</time>
      </trkpt>
      <trkpt lat="34.017897" lon="-5.569582">
        <ele>457.342</ele>
        <time>2019-10-21T12:40:52Z</time>
      </trkpt>
      <trkpt lat="34.018009" lon="-5.570719">
        <ele>464.840</ele>
        <time>2019-10-21T12:47:07Z</time>
      </trkpt>
      <trkpt lat="34.018588" lon="-5.571750">
        <ele>463.755</ele>
        <time>2019-10-21T12:47:44Z</time>
      </trkpt>
      <trkpt lat="34.019161" lon="-5.572374">
        <ele>467.619</ele>
        <time>2019-10-21T12:48:09Z</time>
      </trkpt>
      <trkpt lat="34.019325" lon="-5.573995">
        <ele>475.635</ele>
        <time>2019-10-21T12:49:02Z</time>
      </trkpt>
      <trkpt lat="34.020505" lon="-5.576092">
        <ele>488.562</ele>
        <time>2019-10-21T12:50:36Z</time>
      </trkpt>
      <trkpt lat="34.021042" lon="-5.576507">
        <ele>495.347</ele>
        <time>2019-10-21T12:51:03Z</time>
      </trkpt>
      <trkpt lat="34.021598" lon="-5.576720">
        <ele>497.969</ele>
        <time>2019-10-21T12:51:25Z</time>
      </trkpt>
      <trkpt lat="34.021982" lon="-5.576780">
        <ele>499.742</ele>
        <time>2019-10-21T12:51:37Z</time>
      </trkpt>
      <trkpt lat="34.022422" lon="-5.576575">
        <ele>501.722</ele>
        <time>2019-10-21T12:51:50Z</time>
      </trkpt>
      <trkpt lat="34.024925" lon="-5.574830">
        <ele>511.914</ele>
        <time>2019-10-21T12:53:19Z</time>
      </trkpt>
      <trkpt lat="34.028325" lon="-5.573683">
        <ele>519.708</ele>
        <time>2019-10-21T12:55:09Z</time>
      </trkpt>
      <trkpt lat="34.028882" lon="-5.573115">
        <ele>521.158</ele>
        <time>2019-10-21T12:55:31Z</time>
      </trkpt>
      <trkpt lat="34.029419" lon="-5.571889">
        <ele>527.696</ele>
        <time>2019-10-21T12:56:07Z</time>
      </trkpt>
      <trkpt lat="34.030910" lon="-5.571193">
        <ele>533.181</ele>
        <time>2019-10-21T12:56:56Z</time>
      </trkpt>
      <trkpt lat="34.031353" lon="-5.571156">
        <ele>533.535</ele>
        <time>2019-10-21T12:57:08Z</time>
      </trkpt>
      <trkpt lat="34.032057" lon="-5.571454">
        <ele>535.631</ele>
        <time>2019-10-21T12:57:28Z</time>
      </trkpt>
      <trkpt lat="34.032467" lon="-5.571476">
        <ele>535.728</ele>
        <time>2019-10-21T12:57:39Z</time>
      </trkpt>
      <trkpt lat="34.033602" lon="-5.570591">
        <ele>537.273</ele>
        <time>2019-10-21T12:58:14Z</time>
      </trkpt>
      <trkpt lat="34.034693" lon="-5.570061">
        <ele>535.325</ele>
        <time>2019-10-21T12:58:40Z</time>
      </trkpt>
      <trkpt lat="34.035778" lon="-5.569990">
        <ele>533.067</ele>
        <time>2019-10-21T12:59:03Z</time>
      </trkpt>
      <trkpt lat="34.037036" lon="-5.570319">
        <ele>529.781</ele>
        <time>2019-10-21T12:59:48Z</time>
      </trkpt>
      <trkpt lat="34.038863" lon="-5.568455">
        <ele>523.919</ele>
        <time>2019-10-21T13:01:12Z</time>
      </trkpt>
      <trkpt lat="34.039736" lon="-5.568649">
        <ele>520.508</ele>
        <time>2019-10-21T13:01:25Z</time>
      </trkpt>
      <trkpt lat="34.040874" lon="-5.569202">
        <ele>516.970</ele>
        <time>2019-10-21T13:03:37Z</time>
      </trkpt>
      <trkpt lat="34.042500" lon="-5.568676">
        <ele>504.388</ele>
        <time>2019-10-21T13:03:56Z</time>
      </trkpt>
      <trkpt lat="34.044796" lon="-5.565905">
        <ele>485.833</ele>
        <time>2019-10-21T13:04:31Z</time>
      </trkpt>
      <trkpt lat="34.045308" lon="-5.565004">
        <ele>478.657</ele>
        <time>2019-10-21T13:04:48Z</time>
      </trkpt>
      <trkpt lat="34.045948" lon="-5.563377">
        <ele>471.083</ele>
        <time>2019-10-21T13:05:08Z</time>
      </trkpt>
      <trkpt lat="34.046363" lon="-5.561984">
        <ele>472.170</ele>
        <time>2019-10-21T13:05:32Z</time>
      </trkpt>
      <trkpt lat="34.048782" lon="-5.550696">
        <ele>446.255</ele>
        <time>2019-10-21T13:14:50Z</time>
      </trkpt>
      <trkpt lat="34.049130" lon="-5.549687">
        <ele>444.267</ele>
        <time>2019-10-21T13:15:04Z</time>
      </trkpt>
      <trkpt lat="34.049834" lon="-5.548519">
        <ele>443.017</ele>
        <time>2019-10-21T13:15:24Z</time>
      </trkpt>
      <trkpt lat="34.051640" lon="-5.546751">
        <ele>442.487</ele>
        <time>2019-10-21T13:15:58Z</time>
      </trkpt>
      <trkpt lat="34.052118" lon="-5.545880">
        <ele>442.015</ele>
        <time>2019-10-21T13:16:09Z</time>
      </trkpt>
      <trkpt lat="34.052151" lon="-5.544426">
        <ele>438.108</ele>
        <time>2019-10-21T13:16:24Z</time>
      </trkpt>
      <trkpt lat="34.051248" lon="-5.542457">
        <ele>431.815</ele>
        <time>2019-10-21T13:16:54Z</time>
      </trkpt>
      <trkpt lat="34.051086" lon="-5.541320">
        <ele>436.783</ele>
        <time>2019-10-21T13:17:32Z</time>
      </trkpt>
      <trkpt lat="34.051260" lon="-5.540536">
        <ele>442.098</ele>
        <time>2019-10-21T13:18:01Z</time>
      </trkpt>
      <trkpt lat="34.052344" lon="-5.538554">
        <ele>452.032</ele>
        <time>2019-10-21T13:19:07Z</time>
      </trkpt>
      <trkpt lat="34.052652" lon="-5.537684">
        <ele>447.228</ele>
        <time>2019-10-21T13:19:24Z</time>
      </trkpt>
      <trkpt lat="34.052588" lon="-5.536822">
        <ele>443.595</ele>
        <time>2019-10-21T13:19:43Z</time>
      </trkpt>
      <trkpt lat="34.052693" lon="-5.536633">
        <ele>442.960</ele>
        <time>2019-10-21T13:20:08Z</time>
      </trkpt>
      <trkpt lat="34.052592" lon="-5.536754">
        <ele>441.212</ele>
        <time>2019-10-21T13:21:04Z</time>
      </trkpt>
      <trkpt lat="34.052346" lon="-5.534910">
        <ele>474.895</ele>
        <time>2019-10-21T13:31:16Z</time>
      </trkpt>
      <trkpt lat="34.052740" lon="-5.533101">
        <ele>461.849</ele>
        <time>2019-10-21T13:31:37Z</time>
      </trkpt>
      <trkpt lat="34.052994" lon="-5.532738">
        <ele>459.923</ele>
        <time>2019-10-21T13:31:41Z</time>
      </trkpt>
      <trkpt lat="34.053329" lon="-5.532577">
        <ele>459.408</ele>
        <time>2019-10-21T13:31:45Z</time>
      </trkpt>
      <trkpt lat="34.054944" lon="-5.532702">
        <ele>458.713</ele>
        <time>2019-10-21T13:33:09Z</time>
      </trkpt>
      <trkpt lat="34.057802" lon="-5.532332">
        <ele>473.071</ele>
        <time>2019-10-21T13:35:00Z</time>
      </trkpt>
      <trkpt lat="34.059215" lon="-5.532878">
        <ele>473.856</ele>
        <time>2019-10-21T13:35:56Z</time>
      </trkpt>
      <trkpt lat="34.059564" lon="-5.533452">
        <ele>473.990</ele>
        <time>2019-10-21T13:36:11Z</time>
      </trkpt>
      <trkpt lat="34.060613" lon="-5.534442">
        <ele>473.966</ele>
        <time>2019-10-21T13:36:37Z</time>
      </trkpt>
      <trkpt lat="34.061329" lon="-5.534926">
        <ele>471.183</ele>
        <time>2019-10-21T13:37:01Z</time>
      </trkpt>
      <trkpt lat="34.062075" lon="-5.535086">
        <ele>468.348</ele>
        <time>2019-10-21T13:37:14Z</time>
      </trkpt>
      <trkpt lat="34.062527" lon="-5.535952">
        <ele>469.780</ele>
        <time>2019-10-21T13:37:33Z</time>
      </trkpt>
      <trkpt lat="34.064618" lon="-5.537629">
        <ele>468.721</ele>
        <time>2019-10-21T13:38:21Z</time>
      </trkpt>
      <trkpt lat="34.065836" lon="-5.539081">
        <ele>467.641</ele>
        <time>2019-10-21T13:38:58Z</time>
      </trkpt>
      <trkpt lat="34.066713" lon="-5.539557">
        <ele>476.805</ele>
        <time>2019-10-21T13:39:36Z</time>
      </trkpt>
      <trkpt lat="34.067770" lon="-5.539575">
        <ele>487.508</ele>
        <time>2019-10-21T13:40:22Z</time>
      </trkpt>
      <trkpt lat="34.068777" lon="-5.540063">
        <ele>487.366</ele>
        <time>2019-10-21T13:41:12Z</time>
      </trkpt>
      <trkpt lat="34.069736" lon="-5.539900">
        <ele>493.034</ele>
        <time>2019-10-21T13:41:45Z</time>
      </trkpt>
      <trkpt lat="34.069941" lon="-5.540187">
        <ele>492.539</ele>
        <time>2019-10-21T13:41:52Z</time>
      </trkpt>
      <trkpt lat="34.069993" lon="-5.541100">
        <ele>489.433</ele>
        <time>2019-10-21T13:42:03Z</time>
      </trkpt>
      <trkpt lat="34.070184" lon="-5.541542">
        <ele>486.429</ele>
        <time>2019-10-21T13:42:08Z</time>
      </trkpt>
      <trkpt lat="34.071428" lon="-5.542597">
        <ele>478.686</ele>
        <time>2019-10-21T13:42:31Z</time>
      </trkpt>
      <trkpt lat="34.073116" lon="-5.543434">
        <ele>475.891</ele>
        <time>2019-10-21T13:43:10Z</time>
      </trkpt>
      <trkpt lat="34.071869" lon="-5.551963">
        <ele>430.223</ele>
        <time>2019-10-21T13:47:51Z</time>
      </trkpt>
      <trkpt lat="34.072011" lon="-5.552321">
        <ele>426.252</ele>
        <time>2019-10-21T13:49:52Z</time>
      </trkpt>
      <trkpt lat="34.071901" lon="-5.552194">
        <ele>427.453</ele>
        <time>2019-10-21T13:50:02Z</time>
      </trkpt>
      <trkpt lat="34.071483" lon="-5.552453">
        <ele>423.808</ele>
        <time>2019-10-21T13:50:23Z</time>
      </trkpt>
      <trkpt lat="34.070779" lon="-5.552515">
        <ele>420.708</ele>
        <time>2019-10-21T13:50:58Z</time>
      </trkpt>
      <trkpt lat="34.070816" lon="-5.552750">
        <ele>419.289</ele>
        <time>2019-10-21T13:55:15Z</time>
      </trkpt>
      <trkpt lat="34.070890" lon="-5.552390">
        <ele>417.567</ele>
        <time>2019-10-21T13:58:07Z</time>
      </trkpt>
      <trkpt lat="34.070953" lon="-5.552540">
        <ele>415.192</ele>
        <time>2019-10-21T14:13:56Z</time>
      </trkpt>
      <trkpt lat="34.071475" lon="-5.552379">
        <ele>419.736</ele>
        <time>2019-10-21T14:14:22Z</time>
      </trkpt>
      <trkpt lat="34.071825" lon="-5.551931">
        <ele>425.722</ele>
        <time>2019-10-21T14:14:57Z</time>
      </trkpt>
      <trkpt lat="34.072994" lon="-5.543729">
        <ele>478.199</ele>
        <time>2019-10-21T14:21:34Z</time>
      </trkpt>
      <trkpt lat="34.073182" lon="-5.543451">
        <ele>479.524</ele>
        <time>2019-10-21T14:21:49Z</time>
      </trkpt>
      <trkpt lat="34.074018" lon="-5.543584">
        <ele>480.826</ele>
        <time>2019-10-21T14:22:08Z</time>
      </trkpt>
      <trkpt lat="34.076233" lon="-5.545386">
        <ele>477.135</ele>
        <time>2019-10-21T14:25:07Z</time>
      </trkpt>
      <trkpt lat="34.077396" lon="-5.545879">
        <ele>480.986</ele>
        <time>2019-10-21T14:25:53Z</time>
      </trkpt>
      <trkpt lat="34.080334" lon="-5.546491">
        <ele>480.814</ele>
        <time>2019-10-21T14:26:55Z</time>
      </trkpt>
      <trkpt lat="34.083000" lon="-5.546528">
        <ele>469.108</ele>
        <time>2019-10-21T14:27:31Z</time>
      </trkpt>
      <trkpt lat="34.083470" lon="-5.546803">
        <ele>466.687</ele>
        <time>2019-10-21T14:27:38Z</time>
      </trkpt>
      <trkpt lat="34.083906" lon="-5.547475">
        <ele>464.345</ele>
        <time>2019-10-21T14:27:50Z</time>
      </trkpt>
      <trkpt lat="34.084570" lon="-5.548109">
        <ele>464.350</ele>
        <time>2019-10-21T14:28:07Z</time>
      </trkpt>
      <trkpt lat="34.086774" lon="-5.548541">
        <ele>466.464</ele>
        <time>2019-10-21T14:28:48Z</time>
      </trkpt>
      <trkpt lat="34.088268" lon="-5.548192">
        <ele>465.280</ele>
        <time>2019-10-21T14:29:11Z</time>
      </trkpt>
      <trkpt lat="34.091658" lon="-5.548285">
        <ele>463.317</ele>
        <time>2019-10-21T14:30:17Z</time>
      </trkpt>
      <trkpt lat="34.094217" lon="-5.547941">
        <ele>458.342</ele>
        <time>2019-10-21T14:30:57Z</time>
      </trkpt>
      <trkpt lat="34.097497" lon="-5.547748">
        <ele>457.834</ele>
        <time>2019-10-21T14:31:51Z</time>
      </trkpt>
      <trkpt lat="34.101079" lon="-5.546955">
        <ele>460.823</ele>
        <time>2019-10-21T14:33:05Z</time>
      </trkpt>
      <trkpt lat="34.102319" lon="-5.547123">
        <ele>459.883</ele>
        <time>2019-10-21T14:33:29Z</time>
      </trkpt>
      <trkpt lat="34.103629" lon="-5.547073">
        <ele>457.811</ele>
        <time>2019-10-21T14:33:51Z</time>
      </trkpt>
      <trkpt lat="34.105146" lon="-5.547410">
        <ele>453.408</ele>
        <time>2019-10-21T14:34:14Z</time>
      </trkpt>
      <trkpt lat="34.106699" lon="-5.547430">
        <ele>454.346</ele>
        <time>2019-10-21T14:34:46Z</time>
      </trkpt>
      <trkpt lat="34.109009" lon="-5.547100">
        <ele>460.994</ele>
        <time>2019-10-21T14:35:48Z</time>
      </trkpt>
      <trkpt lat="34.110124" lon="-5.546514">
        <ele>458.039</ele>
        <time>2019-10-21T14:36:13Z</time>
      </trkpt>
      <trkpt lat="34.111411" lon="-5.547075">
        <ele>451.533</ele>
        <time>2019-10-21T14:36:31Z</time>
      </trkpt>
      <trkpt lat="34.112478" lon="-5.548112">
        <ele>452.869</ele>
        <time>2019-10-21T14:37:06Z</time>
      </trkpt>
      <trkpt lat="34.113466" lon="-5.548833">
        <ele>462.026</ele>
        <time>2019-10-21T14:37:46Z</time>
      </trkpt>
      <trkpt lat="34.115715" lon="-5.549395">
        <ele>468.641</ele>
        <time>2019-10-21T14:39:01Z</time>
      </trkpt>
      <trkpt lat="34.116939" lon="-5.550007">
        <ele>469.813</ele>
        <time>2019-10-21T14:39:41Z</time>
      </trkpt>
      <trkpt lat="34.117779" lon="-5.550172">
        <ele>472.471</ele>
        <time>2019-10-21T14:40:03Z</time>
      </trkpt>
      <trkpt lat="34.118495" lon="-5.550145">
        <ele>472.841</ele>
        <time>2019-10-21T14:40:20Z</time>
      </trkpt>
      <trkpt lat="34.119656" lon="-5.549564">
        <ele>470.615</ele>
        <time>2019-10-21T14:40:45Z</time>
      </trkpt>
      <trkpt lat="34.120411" lon="-5.548807">
        <ele>468.608</ele>
        <time>2019-10-21T14:41:02Z</time>
      </trkpt>
      <trkpt lat="34.120659" lon="-5.548728">
        <ele>467.981</ele>
        <time>2019-10-21T14:41:06Z</time>
      </trkpt>
      <trkpt lat="34.120909" lon="-5.548869">
        <ele>467.679</ele>
        <time>2019-10-21T14:41:11Z</time>
      </trkpt>
      <trkpt lat="34.121472" lon="-5.549892">
        <ele>472.214</ele>
        <time>2019-10-21T14:41:39Z</time>
      </trkpt>
      <trkpt lat="34.121835" lon="-5.550274">
        <ele>475.128</ele>
        <time>2019-10-21T14:41:55Z</time>
      </trkpt>
      <trkpt lat="34.123771" lon="-5.550600">
        <ele>489.184</ele>
        <time>2019-10-21T14:43:24Z</time>
      </trkpt>
      <trkpt lat="34.125026" lon="-5.550153">
        <ele>494.521</ele>
        <time>2019-10-21T14:44:23Z</time>
      </trkpt>
      <trkpt lat="34.127528" lon="-5.550536">
        <ele>508.796</ele>
        <time>2019-10-21T14:46:19Z</time>
      </trkpt>
      <trkpt lat="34.130485" lon="-5.549739">
        <ele>508.448</ele>
        <time>2019-10-21T14:47:32Z</time>
      </trkpt>
      <trkpt lat="34.132272" lon="-5.549742">
        <ele>509.091</ele>
        <time>2019-10-21T14:48:11Z</time>
      </trkpt>
      <trkpt lat="34.134417" lon="-5.549095">
        <ele>512.781</ele>
        <time>2019-10-21T14:49:11Z</time>
      </trkpt>
      <trkpt lat="34.135900" lon="-5.548371">
        <ele>507.419</ele>
        <time>2019-10-21T14:49:37Z</time>
      </trkpt>
      <trkpt lat="34.136976" lon="-5.548328">
        <ele>501.908</ele>
        <time>2019-10-21T14:49:53Z</time>
      </trkpt>
      <trkpt lat="34.138072" lon="-5.548646">
        <ele>497.653</ele>
        <time>2019-10-21T14:50:10Z</time>
      </trkpt>
      <trkpt lat="34.139032" lon="-5.548497">
        <ele>496.211</ele>
        <time>2019-10-21T14:50:24Z</time>
      </trkpt>
      <trkpt lat="34.143020" lon="-5.545182">
        <ele>487.446</ele>
        <time>2019-10-21T14:51:33Z</time>
      </trkpt>
      <trkpt lat="34.143936" lon="-5.543858">
        <ele>489.230</ele>
        <time>2019-10-21T14:52:00Z</time>
      </trkpt>
      <trkpt lat="34.144919" lon="-5.542900">
        <ele>491.016</ele>
        <time>2019-10-21T14:52:25Z</time>
      </trkpt>
      <trkpt lat="34.147147" lon="-5.541790">
        <ele>489.353</ele>
        <time>2019-10-21T14:53:11Z</time>
      </trkpt>
      <trkpt lat="34.147848" lon="-5.541282">
        <ele>489.718</ele>
        <time>2019-10-21T14:53:25Z</time>
      </trkpt>
      <trkpt lat="34.151242" lon="-5.537791">
        <ele>492.580</ele>
        <time>2019-10-21T14:56:38Z</time>
      </trkpt>
      <trkpt lat="34.156544" lon="-5.534402">
        <ele>485.879</ele>
        <time>2019-10-21T14:58:10Z</time>
      </trkpt>
      <trkpt lat="34.159064" lon="-5.533207">
        <ele>487.205</ele>
        <time>2019-10-21T14:58:49Z</time>
      </trkpt>
      <trkpt lat="34.160197" lon="-5.532966">
        <ele>481.625</ele>
        <time>2019-10-21T14:59:08Z</time>
      </trkpt>
      <trkpt lat="34.161678" lon="-5.532398">
        <ele>481.108</ele>
        <time>2019-10-21T15:00:32Z</time>
      </trkpt>
      <trkpt lat="34.161663" lon="-5.531812">
        <ele>479.071</ele>
        <time>2019-10-21T15:02:09Z</time>
      </trkpt>
      <trkpt lat="34.161554" lon="-5.532039">
        <ele>479.739</ele>
        <time>2019-10-21T15:05:00Z</time>
      </trkpt>
      <trkpt lat="34.161766" lon="-5.532411">
        <ele>479.674</ele>
        <time>2019-10-21T15:05:20Z</time>
      </trkpt>
      <trkpt lat="34.163209" lon="-5.531650">
        <ele>476.928</ele>
        <time>2019-10-21T15:06:15Z</time>
      </trkpt>
      <trkpt lat="34.167360" lon="-5.531249">
        <ele>454.514</ele>
        <time>2019-10-21T15:07:42Z</time>
      </trkpt>
      <trkpt lat="34.165688" lon="-5.530634">
        <ele>446.061</ele>
        <time>2019-10-21T15:10:43Z</time>
      </trkpt>
      <trkpt lat="34.163860" lon="-5.529726">
        <ele>442.416</ele>
        <time>2019-10-21T15:11:16Z</time>
      </trkpt>
      <trkpt lat="34.163517" lon="-5.529159">
        <ele>442.548</ele>
        <time>2019-10-21T15:11:27Z</time>
      </trkpt>
      <trkpt lat="34.163441" lon="-5.527915">
        <ele>436.819</ele>
        <time>2019-10-21T15:11:43Z</time>
      </trkpt>
      <trkpt lat="34.163125" lon="-5.527476">
        <ele>433.609</ele>
        <time>2019-10-21T15:19:39Z</time>
      </trkpt>
      <trkpt lat="34.162476" lon="-5.527342">
        <ele>431.119</ele>
        <time>2019-10-21T15:19:52Z</time>
      </trkpt>
      <trkpt lat="34.160834" lon="-5.527524">
        <ele>422.108</ele>
        <time>2019-10-21T15:20:47Z</time>
      </trkpt>
      <trkpt lat="34.159792" lon="-5.528021">
        <ele>419.045</ele>
        <time>2019-10-21T15:21:01Z</time>
      </trkpt>
      <trkpt lat="34.159472" lon="-5.527821">
        <ele>418.143</ele>
        <time>2019-10-21T15:21:05Z</time>
      </trkpt>
      <trkpt lat="34.159083" lon="-5.527047">
        <ele>413.958</ele>
        <time>2019-10-21T15:21:13Z</time>
      </trkpt>
      <trkpt lat="34.158235" lon="-5.526887">
        <ele>406.242</ele>
        <time>2019-10-21T15:21:22Z</time>
      </trkpt>
      <trkpt lat="34.157831" lon="-5.526973">
        <ele>403.518</ele>
        <time>2019-10-21T15:21:26Z</time>
      </trkpt>
      <trkpt lat="34.157337" lon="-5.527394">
        <ele>400.665</ele>
        <time>2019-10-21T15:21:32Z</time>
      </trkpt>
      <trkpt lat="34.156424" lon="-5.527118">
        <ele>396.160</ele>
        <time>2019-10-21T15:21:42Z</time>
      </trkpt>
      <trkpt lat="34.155781" lon="-5.527533">
        <ele>392.342</ele>
        <time>2019-10-21T15:21:49Z</time>
      </trkpt>
      <trkpt lat="34.155486" lon="-5.527540">
        <ele>391.194</ele>
        <time>2019-10-21T15:21:52Z</time>
      </trkpt>
      <trkpt lat="34.147276" lon="-5.524160">
        <ele>345.857</ele>
        <time>2019-10-21T15:24:18Z</time>
      </trkpt>
      <trkpt lat="34.146444" lon="-5.523476">
        <ele>340.522</ele>
        <time>2019-10-21T15:24:28Z</time>
      </trkpt>
      <trkpt lat="34.144757" lon="-5.521641">
        <ele>326.908</ele>
        <time>2019-10-21T15:24:50Z</time>
      </trkpt>
      <trkpt lat="34.144520" lon="-5.521212">
        <ele>324.373</ele>
        <time>2019-10-21T15:24:54Z</time>
      </trkpt>
      <trkpt lat="34.144473" lon="-5.520668">
        <ele>322.241</ele>
        <time>2019-10-21T15:24:58Z</time>
      </trkpt>
      <trkpt lat="34.144605" lon="-5.520208">
        <ele>320.176</ele>
        <time>2019-10-21T15:25:02Z</time>
      </trkpt>
      <trkpt lat="34.145681" lon="-5.519193">
        <ele>312.920</ele>
        <time>2019-10-21T15:25:17Z</time>
      </trkpt>
      <trkpt lat="34.146356" lon="-5.519258">
        <ele>308.466</ele>
        <time>2019-10-21T15:25:26Z</time>
      </trkpt>
      <trkpt lat="34.146992" lon="-5.520113">
        <ele>303.133</ele>
        <time>2019-10-21T15:25:37Z</time>
      </trkpt>
      <trkpt lat="34.147399" lon="-5.520347">
        <ele>300.668</ele>
        <time>2019-10-21T15:25:42Z</time>
      </trkpt>
      <trkpt lat="34.148108" lon="-5.520151">
        <ele>296.960</ele>
        <time>2019-10-21T15:25:50Z</time>
      </trkpt>
      <trkpt lat="34.148446" lon="-5.519619">
        <ele>293.546</ele>
        <time>2019-10-21T15:25:56Z</time>
      </trkpt>
      <trkpt lat="34.148585" lon="-5.517393">
        <ele>281.288</ele>
        <time>2019-10-21T15:26:15Z</time>
      </trkpt>
      <trkpt lat="34.147561" lon="-5.513947">
        <ele>264.816</ele>
        <time>2019-10-21T15:26:45Z</time>
      </trkpt>
      <trkpt lat="34.147648" lon="-5.512767">
        <ele>260.308</ele>
        <time>2019-10-21T15:26:55Z</time>
      </trkpt>
      <trkpt lat="34.147359" lon="-5.512163">
        <ele>256.118</ele>
        <time>2019-10-21T15:27:01Z</time>
      </trkpt>
      <trkpt lat="34.146795" lon="-5.511855">
        <ele>253.026</ele>
        <time>2019-10-21T15:27:07Z</time>
      </trkpt>
      <trkpt lat="34.146489" lon="-5.511506">
        <ele>250.551</ele>
        <time>2019-10-21T15:27:11Z</time>
      </trkpt>
      <trkpt lat="34.146259" lon="-5.510608">
        <ele>246.315</ele>
        <time>2019-10-21T15:27:19Z</time>
      </trkpt>
      <trkpt lat="34.146465" lon="-5.510052">
        <ele>243.961</ele>
        <time>2019-10-21T15:27:25Z</time>
      </trkpt>
      <trkpt lat="34.147524" lon="-5.508414">
        <ele>235.168</ele>
        <time>2019-10-21T15:27:46Z</time>
      </trkpt>
      <trkpt lat="34.149130" lon="-5.502880">
        <ele>226.883</ele>
        <time>2019-10-21T15:29:20Z</time>
      </trkpt>
      <trkpt lat="34.149377" lon="-5.499006">
        <ele>235.095</ele>
        <time>2019-10-21T15:30:41Z</time>
      </trkpt>
      <trkpt lat="34.150680" lon="-5.496547">
        <ele>229.873</ele>
        <time>2019-10-21T15:31:20Z</time>
      </trkpt>
      <trkpt lat="34.151535" lon="-5.493365">
        <ele>216.185</ele>
        <time>2019-10-21T15:31:54Z</time>
      </trkpt>
      <trkpt lat="34.151417" lon="-5.491989">
        <ele>212.113</ele>
        <time>2019-10-21T15:32:12Z</time>
      </trkpt>
      <trkpt lat="34.149756" lon="-5.486435">
        <ele>211.808</ele>
        <time>2019-10-21T15:33:36Z</time>
      </trkpt>
      <trkpt lat="34.149553" lon="-5.485245">
        <ele>213.821</ele>
        <time>2019-10-21T15:33:59Z</time>
      </trkpt>
      <trkpt lat="34.149679" lon="-5.483366">
        <ele>217.999</ele>
        <time>2019-10-21T15:34:39Z</time>
      </trkpt>
      <trkpt lat="34.150992" lon="-5.479414">
        <ele>223.754</ele>
        <time>2019-10-21T15:36:26Z</time>
      </trkpt>
      <trkpt lat="34.151425" lon="-5.476688">
        <ele>237.878</ele>
        <time>2019-10-21T15:37:58Z</time>
      </trkpt>
      <trkpt lat="34.151432" lon="-5.475354">
        <ele>244.534</ele>
        <time>2019-10-21T15:38:41Z</time>
      </trkpt>
      <trkpt lat="34.151143" lon="-5.473161">
        <ele>256.381</ele>
        <time>2019-10-21T15:40:01Z</time>
      </trkpt>
      <trkpt lat="34.150003" lon="-5.469519">
        <ele>272.696</ele>
        <time>2019-10-21T15:42:13Z</time>
      </trkpt>
      <trkpt lat="34.148711" lon="-5.466880">
        <ele>286.278</ele>
        <time>2019-10-21T15:44:03Z</time>
      </trkpt>
      <trkpt lat="34.149111" lon="-5.466000">
        <ele>285.439</ele>
        <time>2019-10-21T15:44:36Z</time>
      </trkpt>
      <trkpt lat="34.149275" lon="-5.466103">
        <ele>278.001</ele>
        <time>2019-10-21T16:37:59Z</time>
      </trkpt>
      <trkpt lat="34.149175" lon="-5.465831">
        <ele>283.821</ele>
        <time>2019-10-21T16:38:42Z</time>
      </trkpt>
      <trkpt lat="34.149326" lon="-5.465613">
        <ele>283.408</ele>
        <time>2019-10-21T16:38:51Z</time>
      </trkpt>
      <trkpt lat="34.149605" lon="-5.465289">
        <ele>278.927</ele>
        <time>2019-10-21T16:39:01Z</time>
      </trkpt>
      <trkpt lat="34.149993" lon="-5.465108">
        <ele>278.915</ele>
        <time>2019-10-21T16:39:14Z</time>
      </trkpt>
      <trkpt lat="34.175280" lon="-5.476998">
        <ele>196.710</ele>
        <time>2019-10-21T16:46:34Z</time>
      </trkpt>
      <trkpt lat="34.194022" lon="-5.487434">
        <ele>167.044</ele>
        <time>2019-10-21T16:51:49Z</time>
      </trkpt>
      <trkpt lat="34.196425" lon="-5.488232">
        <ele>153.690</ele>
        <time>2019-10-21T16:52:25Z</time>
      </trkpt>
      <trkpt lat="34.198278" lon="-5.488477">
        <ele>147.537</ele>
        <time>2019-10-21T16:53:05Z</time>
      </trkpt>
      <trkpt lat="34.199558" lon="-5.488439">
        <ele>149.132</ele>
        <time>2019-10-21T16:55:04Z</time>
      </trkpt>
      <trkpt lat="34.199376" lon="-5.488533">
        <ele>149.944</ele>
        <time>2019-10-21T16:55:17Z</time>
      </trkpt>
      <trkpt lat="34.199076" lon="-5.488525">
        <ele>150.552</ele>
        <time>2019-10-21T16:55:29Z</time>
      </trkpt>
      <trkpt lat="34.201659" lon="-5.488127">
        <ele>151.753</ele>
        <time>2019-10-21T16:56:57Z</time>
      </trkpt>
      <trkpt lat="34.204121" lon="-5.487154">
        <ele>142.808</ele>
        <time>2019-10-21T16:57:44Z</time>
      </trkpt>
      <trkpt lat="34.223556" lon="-5.476374">
        <ele>124.008</ele>
        <time>2019-10-21T17:03:56Z</time>
      </trkpt>
      <trkpt lat="34.224412" lon="-5.475953">
        <ele>124.649</ele>
        <time>2019-10-21T17:04:15Z</time>
      </trkpt>
      <trkpt lat="34.224871" lon="-5.476003">
        <ele>123.767</ele>
        <time>2019-10-21T17:04:25Z</time>
      </trkpt>
      <trkpt lat="34.225136" lon="-5.475487">
        <ele>121.442</ele>
        <time>2019-10-21T17:04:38Z</time>
      </trkpt>
      <trkpt lat="34.235150" lon="-5.469936">
        <ele>122.286</ele>
        <time>2019-10-21T17:08:07Z</time>
      </trkpt>
      <trkpt lat="34.238911" lon="-5.468077">
        <ele>122.042</ele>
        <time>2019-10-21T17:09:14Z</time>
      </trkpt>
      <trkpt lat="34.240410" lon="-5.467566">
        <ele>116.479</ele>
        <time>2019-10-21T17:09:42Z</time>
      </trkpt>
      <trkpt lat="34.267913" lon="-5.460709">
        <ele>126.624</ele>
        <time>2019-10-21T17:56:05Z</time>
      </trkpt>
      <trkpt lat="34.269080" lon="-5.460492">
        <ele>129.626</ele>
        <time>2019-10-21T17:56:47Z</time>
      </trkpt>
      <trkpt lat="34.270623" lon="-5.460580">
        <ele>135.117</ele>
        <time>2019-10-21T17:57:35Z</time>
      </trkpt>
      <trkpt lat="34.272672" lon="-5.460422">
        <ele>137.387</ele>
        <time>2019-10-21T17:58:36Z</time>
      </trkpt>
      <trkpt lat="34.276561" lon="-5.460968">
        <ele>138.615</ele>
        <time>2019-10-21T18:00:10Z</time>
      </trkpt>
      <trkpt lat="34.276858" lon="-5.461180">
        <ele>134.208</ele>
        <time>2019-10-21T18:04:27Z</time>
      </trkpt>
      <trkpt lat="34.277374" lon="-5.461111">
        <ele>128.235</ele>
        <time>2019-10-21T18:05:24Z</time>
      </trkpt>
      <trkpt lat="34.293275" lon="-5.463304">
        <ele>120.083</ele>
        <time>2019-10-21T18:10:48Z</time>
      </trkpt>
      <trkpt lat="34.296432" lon="-5.464243">
        <ele>116.668</ele>
        <time>2019-10-21T18:11:42Z</time>
      </trkpt>
      <trkpt lat="34.298308" lon="-5.465182">
        <ele>127.362</ele>
        <time>2019-10-21T18:12:51Z</time>
      </trkpt>
      <trkpt lat="34.313760" lon="-5.476373">
        <ele>108.678</ele>
        <time>2019-10-21T18:19:51Z</time>
      </trkpt>
      <trkpt lat="34.316400" lon="-5.478499">
        <ele>103.255</ele>
        <time>2019-10-21T18:20:47Z</time>
      </trkpt>
      <trkpt lat="34.318176" lon="-5.480373">
        <ele>88.760</ele>
        <time>2019-10-21T18:21:19Z</time>
      </trkpt>
      <trkpt lat="34.319594" lon="-5.482310">
        <ele>84.482</ele>
        <time>2019-10-21T18:21:59Z</time>
      </trkpt>
      <trkpt lat="34.324637" lon="-5.490610">
        <ele>101.587</ele>
        <time>2019-10-21T18:25:56Z</time>
      </trkpt>
      <trkpt lat="34.325724" lon="-5.491627">
        <ele>106.242</ele>
        <time>2019-10-21T18:26:31Z</time>
      </trkpt>
      <trkpt lat="34.327231" lon="-5.492273">
        <ele>105.726</ele>
        <time>2019-10-21T18:27:09Z</time>
      </trkpt>
      <trkpt lat="34.328366" lon="-5.492307">
        <ele>112.708</ele>
        <time>2019-10-21T18:27:47Z</time>
      </trkpt>
      <trkpt lat="34.329440" lon="-5.492014">
        <ele>117.812</ele>
        <time>2019-10-21T18:28:30Z</time>
      </trkpt>
      <trkpt lat="34.338969" lon="-5.486873">
        <ele>110.070</ele>
        <time>2019-10-21T18:32:08Z</time>
      </trkpt>
      <trkpt lat="34.339908" lon="-5.486527">
        <ele>109.325</ele>
        <time>2019-10-21T18:32:25Z</time>
      </trkpt>
      <trkpt lat="34.340940" lon="-5.486497">
        <ele>109.229</ele>
        <time>2019-10-21T18:32:44Z</time>
      </trkpt>
      <trkpt lat="34.350438" lon="-5.489793">
        <ele>107.465</ele>
        <time>2019-10-21T18:36:00Z</time>
      </trkpt>
      <trkpt lat="34.369379" lon="-5.497861">
        <ele>101.042</ele>
        <time>2019-10-21T18:43:15Z</time>
      </trkpt>
      <trkpt lat="34.371202" lon="-5.498123">
        <ele>103.037</ele>
        <time>2019-10-21T18:43:57Z</time>
      </trkpt>
      <trkpt lat="34.386538" lon="-5.496985">
        <ele>105.359</ele>
        <time>2019-10-21T18:50:41Z</time>
      </trkpt>
      <trkpt lat="34.388705" lon="-5.497033">
        <ele>104.953</ele>
        <time>2019-10-21T18:51:30Z</time>
      </trkpt>
      <trkpt lat="34.393974" lon="-5.499063">
        <ele>125.804</ele>
        <time>2019-10-21T18:55:07Z</time>
      </trkpt>
      <trkpt lat="34.394987" lon="-5.499938">
        <ele>128.414</ele>
        <time>2019-10-21T18:55:55Z</time>
      </trkpt>
      <trkpt lat="34.396651" lon="-5.501842">
        <ele>138.808</ele>
        <time>2019-10-21T18:57:18Z</time>
      </trkpt>
      <trkpt lat="34.397659" lon="-5.502512">
        <ele>139.049</ele>
        <time>2019-10-21T18:57:44Z</time>
      </trkpt>
      <trkpt lat="34.402784" lon="-5.503891">
        <ele>149.167</ele>
        <time>2019-10-21T19:00:12Z</time>
      </trkpt>
      <trkpt lat="34.403776" lon="-5.503934">
        <ele>153.512</ele>
        <time>2019-10-21T19:00:42Z</time>
      </trkpt>
      <trkpt lat="34.406380" lon="-5.503371">
        <ele>155.986</ele>
        <time>2019-10-21T19:01:47Z</time>
      </trkpt>
      <trkpt lat="34.407105" lon="-5.503355">
        <ele>157.272</ele>
        <time>2019-10-21T19:02:05Z</time>
      </trkpt>
      <trkpt lat="34.408143" lon="-5.503580">
        <ele>156.469</ele>
        <time>2019-10-21T19:02:29Z</time>
      </trkpt>
      <trkpt lat="34.409934" lon="-5.504468">
        <ele>155.974</ele>
        <time>2019-10-21T19:03:07Z</time>
      </trkpt>
      <trkpt lat="34.410837" lon="-5.504737">
        <ele>158.386</ele>
        <time>2019-10-21T19:03:27Z</time>
      </trkpt>
      <trkpt lat="34.418016" lon="-5.504835">
        <ele>148.057</ele>
        <time>2019-10-21T19:05:40Z</time>
      </trkpt>
      <trkpt lat="34.420096" lon="-5.504758">
        <ele>139.800</ele>
        <time>2019-10-21T19:06:12Z</time>
      </trkpt>
      <trkpt lat="34.425697" lon="-5.503718">
        <ele>134.620</ele>
        <time>2019-10-21T19:07:57Z</time>
      </trkpt>
      <trkpt lat="34.466502" lon="-5.508255">
        <ele>86.108</ele>
        <time>2019-10-21T19:19:24Z</time>
      </trkpt>
      <trkpt lat="34.467382" lon="-5.508554">
        <ele>83.329</ele>
        <time>2019-10-21T19:19:39Z</time>
      </trkpt>
      <trkpt lat="34.468303" lon="-5.509111">
        <ele>83.317</ele>
        <time>2019-10-21T19:19:57Z</time>
      </trkpt>
      <trkpt lat="34.481376" lon="-5.517927">
        <ele>84.682</ele>
        <time>2019-10-21T19:26:50Z</time>
      </trkpt>
      <trkpt lat="34.482521" lon="-5.518511">
        <ele>83.786</ele>
        <time>2019-10-21T19:27:14Z</time>
      </trkpt>
      <trkpt lat="34.483421" lon="-5.518694">
        <ele>84.342</ele>
        <time>2019-10-21T19:27:35Z</time>
      </trkpt>
      <trkpt lat="34.484674" lon="-5.518612">
        <ele>93.569</ele>
        <time>2019-10-21T19:28:23Z</time>
      </trkpt>
      <trkpt lat="34.486153" lon="-5.517918">
        <ele>105.194</ele>
        <time>2019-10-21T19:29:42Z</time>
      </trkpt>
      <trkpt lat="34.488526" lon="-5.515762">
        <ele>118.286</ele>
        <time>2019-10-21T19:32:00Z</time>
      </trkpt>
      <trkpt lat="34.488337" lon="-5.515687">
        <ele>116.345</ele>
        <time>2019-10-21T19:32:52Z</time>
      </trkpt>
      <trkpt lat="34.488330" lon="-5.515490">
        <ele>114.647</ele>
        <time>2019-10-21T19:33:23Z</time>
      </trkpt>
      <trkpt lat="34.488518" lon="-5.515701">
        <ele>125.911</ele>
        <time>2019-10-21T19:39:15Z</time>
      </trkpt>
      <trkpt lat="34.489415" lon="-5.514773">
        <ele>121.408</ele>
        <time>2019-10-21T19:39:59Z</time>
      </trkpt>
      <trkpt lat="34.489940" lon="-5.513716">
        <ele>117.058</ele>
        <time>2019-10-21T19:40:43Z</time>
      </trkpt>
      <trkpt lat="34.489757" lon="-5.513347">
        <ele>118.656</ele>
        <time>2019-10-21T19:41:08Z</time>
      </trkpt>
      <trkpt lat="34.489561" lon="-5.512049">
        <ele>117.711</ele>
        <time>2019-10-21T19:41:51Z</time>
      </trkpt>
      <trkpt lat="34.490875" lon="-5.508646">
        <ele>127.265</ele>
        <time>2019-10-21T20:06:48Z</time>
      </trkpt>
      <trkpt lat="34.491705" lon="-5.509831">
        <ele>129.931</ele>
        <time>2019-10-21T20:10:27Z</time>
      </trkpt>
      <trkpt lat="34.491870" lon="-5.510336">
        <ele>121.198</ele>
        <time>2019-10-21T20:10:56Z</time>
      </trkpt>
      <trkpt lat="34.491627" lon="-5.511402">
        <ele>107.323</ele>
        <time>2019-10-21T20:11:56Z</time>
      </trkpt>
      <trkpt lat="34.490859" lon="-5.513210">
        <ele>112.395</ele>
        <time>2019-10-21T20:13:56Z</time>
      </trkpt>
      <trkpt lat="34.490912" lon="-5.513464">
        <ele>117.367</ele>
        <time>2019-10-21T20:15:48Z</time>
      </trkpt>
      <trkpt lat="34.492519" lon="-5.512544">
        <ele>119.581</ele>
        <time>2019-10-21T20:16:35Z</time>
      </trkpt>
      <trkpt lat="34.493916" lon="-5.512081">
        <ele>110.919</ele>
        <time>2019-10-21T20:17:53Z</time>
      </trkpt>
      <trkpt lat="34.494101" lon="-5.511879">
        <ele>109.508</ele>
        <time>2019-10-21T20:18:11Z</time>
      </trkpt>
      <trkpt lat="34.494808" lon="-5.511872">
        <ele>109.810</ele>
        <time>2019-10-21T20:28:25Z</time>
      </trkpt>
      <trkpt lat="34.500044" lon="-5.510431">
        <ele>129.118</ele>
        <time>2019-10-21T20:31:54Z</time>
      </trkpt>
      <trkpt lat="34.500969" lon="-5.509718">
        <ele>134.753</ele>
        <time>2019-10-21T20:32:42Z</time>
      </trkpt>
      <trkpt lat="34.503311" lon="-5.507235">
        <ele>148.587</ele>
        <time>2019-10-21T20:34:44Z</time>
      </trkpt>
      <trkpt lat="34.505967" lon="-5.506191">
        <ele>157.383</ele>
        <time>2019-10-21T20:36:23Z</time>
      </trkpt>
      <trkpt lat="34.507356" lon="-5.506030">
        <ele>162.750</ele>
        <time>2019-10-21T20:37:04Z</time>
      </trkpt>
      <trkpt lat="34.515098" lon="-5.506471">
        <ele>181.795</ele>
        <time>2019-10-21T20:44:10Z</time>
      </trkpt>
      <trkpt lat="34.515499" lon="-5.506390">
        <ele>183.037</ele>
        <time>2019-10-21T20:47:07Z</time>
      </trkpt>
      <trkpt lat="34.515387" lon="-5.506069">
        <ele>181.863</ele>
        <time>2019-10-21T20:47:34Z</time>
      </trkpt>
      <trkpt lat="34.515505" lon="-5.505742">
        <ele>180.644</ele>
        <time>2019-10-21T20:47:59Z</time>
      </trkpt>
      <trkpt lat="34.515497" lon="-5.505761">
        <ele>139.597</ele>
        <time>2019-10-22T10:37:43Z</time>
      </trkpt>
      <trkpt lat="34.515349" lon="-5.506204">
        <ele>140.823</ele>
        <time>2019-10-22T10:38:20Z</time>
      </trkpt>
      <trkpt lat="34.515497" lon="-5.506439">
        <ele>140.825</ele>
        <time>2019-10-22T10:38:48Z</time>
      </trkpt>
      <trkpt lat="34.518088" lon="-5.505547">
        <ele>134.908</ele>
        <time>2019-10-22T10:40:35Z</time>
      </trkpt>
      <trkpt lat="34.523639" lon="-5.505117">
        <ele>132.093</ele>
        <time>2019-10-22T10:42:36Z</time>
      </trkpt>
      <trkpt lat="34.524495" lon="-5.505389">
        <ele>129.471</ele>
        <time>2019-10-22T10:42:54Z</time>
      </trkpt>
      <trkpt lat="34.526429" lon="-5.506768">
        <ele>118.986</ele>
        <time>2019-10-22T10:43:23Z</time>
      </trkpt>
      <trkpt lat="34.534504" lon="-5.511843">
        <ele>90.253</ele>
        <time>2019-10-22T10:45:18Z</time>
      </trkpt>
      <trkpt lat="34.535243" lon="-5.512767">
        <ele>91.522</ele>
        <time>2019-10-22T10:45:38Z</time>
      </trkpt>
      <trkpt lat="34.536901" lon="-5.516086">
        <ele>99.021</ele>
        <time>2019-10-22T10:47:07Z</time>
      </trkpt>
      <trkpt lat="34.539501" lon="-5.519113">
        <ele>95.085</ele>
        <time>2019-10-22T10:48:46Z</time>
      </trkpt>
      <trkpt lat="34.540386" lon="-5.519897">
        <ele>98.410</ele>
        <time>2019-10-22T10:49:23Z</time>
      </trkpt>
      <trkpt lat="34.542658" lon="-5.520972">
        <ele>95.354</ele>
        <time>2019-10-22T10:51:01Z</time>
      </trkpt>
      <trkpt lat="34.546926" lon="-5.522006">
        <ele>95.756</ele>
        <time>2019-10-22T10:52:24Z</time>
      </trkpt>
      <trkpt lat="34.554000" lon="-5.525291">
        <ele>110.611</ele>
        <time>2019-10-22T10:55:28Z</time>
      </trkpt>
      <trkpt lat="34.565398" lon="-5.527073">
        <ele>117.608</ele>
        <time>2019-10-22T11:00:18Z</time>
      </trkpt>
      <trkpt lat="34.565580" lon="-5.527590">
        <ele>120.019</ele>
        <time>2019-10-22T11:01:51Z</time>
      </trkpt>
      <trkpt lat="34.566166" lon="-5.527215">
        <ele>122.877</ele>
        <time>2019-10-22T11:03:42Z</time>
      </trkpt>
      <trkpt lat="34.568305" lon="-5.527654">
        <ele>126.552</ele>
        <time>2019-10-22T11:04:48Z</time>
      </trkpt>
      <trkpt lat="34.580097" lon="-5.533458">
        <ele>91.489</ele>
        <time>2019-10-22T11:08:09Z</time>
      </trkpt>
      <trkpt lat="34.580720" lon="-5.533982">
        <ele>90.168</ele>
        <time>2019-10-22T11:08:22Z</time>
      </trkpt>
      <trkpt lat="34.583432" lon="-5.537212">
        <ele>74.327</ele>
        <time>2019-10-22T11:09:10Z</time>
      </trkpt>
      <trkpt lat="34.584333" lon="-5.537896">
        <ele>72.091</ele>
        <time>2019-10-22T11:09:28Z</time>
      </trkpt>
      <trkpt lat="34.585536" lon="-5.538217">
        <ele>70.936</ele>
        <time>2019-10-22T11:09:50Z</time>
      </trkpt>
      <trkpt lat="34.588051" lon="-5.538184">
        <ele>70.093</ele>
        <time>2019-10-22T11:10:40Z</time>
      </trkpt>
      <trkpt lat="34.590019" lon="-5.539069">
        <ele>76.465</ele>
        <time>2019-10-22T11:11:21Z</time>
      </trkpt>
      <trkpt lat="34.594411" lon="-5.542924">
        <ele>98.721</ele>
        <time>2019-10-22T11:14:39Z</time>
      </trkpt>
      <trkpt lat="34.595272" lon="-5.544111">
        <ele>105.008</ele>
        <time>2019-10-22T11:15:44Z</time>
      </trkpt>
      <trkpt lat="34.595660" lon="-5.545284">
        <ele>110.423</ele>
        <time>2019-10-22T11:16:38Z</time>
      </trkpt>
      <trkpt lat="34.596052" lon="-5.547887">
        <ele>125.051</ele>
        <time>2019-10-22T11:18:22Z</time>
      </trkpt>
      <trkpt lat="34.595854" lon="-5.548385">
        <ele>126.436</ele>
        <time>2019-10-22T11:18:45Z</time>
      </trkpt>
      <trkpt lat="34.596126" lon="-5.548594">
        <ele>128.873</ele>
        <time>2019-10-22T11:20:37Z</time>
      </trkpt>
      <trkpt lat="34.596752" lon="-5.552491">
        <ele>141.082</ele>
        <time>2019-10-22T11:23:15Z</time>
      </trkpt>
      <trkpt lat="34.597388" lon="-5.553594">
        <ele>139.491</ele>
        <time>2019-10-22T11:24:04Z</time>
      </trkpt>
      <trkpt lat="34.597682" lon="-5.553816">
        <ele>138.335</ele>
        <time>2019-10-22T11:24:34Z</time>
      </trkpt>
      <trkpt lat="34.598429" lon="-5.553922">
        <ele>134.960</ele>
        <time>2019-10-22T11:25:00Z</time>
      </trkpt>
      <trkpt lat="34.597341" lon="-5.553790">
        <ele>138.915</ele>
        <time>2019-10-22T11:27:05Z</time>
      </trkpt>
      <trkpt lat="34.597645" lon="-5.553768">
        <ele>138.465</ele>
        <time>2019-10-22T12:05:55Z</time>
      </trkpt>
      <trkpt lat="34.596974" lon="-5.553379">
        <ele>140.011</ele>
        <time>2019-10-22T12:06:43Z</time>
      </trkpt>
      <trkpt lat="34.596802" lon="-5.552370">
        <ele>140.808</ele>
        <time>2019-10-22T12:16:23Z</time>
      </trkpt>
      <trkpt lat="34.597051" lon="-5.553114">
        <ele>140.855</ele>
        <time>2019-10-22T12:19:23Z</time>
      </trkpt>
      <trkpt lat="34.597690" lon="-5.553722">
        <ele>138.613</ele>
        <time>2019-10-22T12:19:39Z</time>
      </trkpt>
      <trkpt lat="34.600156" lon="-5.554042">
        <ele>131.228</ele>
        <time>2019-10-22T12:20:36Z</time>
      </trkpt>
      <trkpt lat="34.600704" lon="-5.553812">
        <ele>127.225</ele>
        <time>2019-10-22T12:20:46Z</time>
      </trkpt>
      <trkpt lat="34.601202" lon="-5.553320">
        <ele>125.044</ele>
        <time>2019-10-22T12:20:55Z</time>
      </trkpt>
      <trkpt lat="34.601487" lon="-5.552788">
        <ele>124.033</ele>
        <time>2019-10-22T12:21:02Z</time>
      </trkpt>
      <trkpt lat="34.601919" lon="-5.547985">
        <ele>116.747</ele>
        <time>2019-10-22T12:21:56Z</time>
      </trkpt>
      <trkpt lat="34.601896" lon="-5.540255">
        <ele>102.992</ele>
        <time>2019-10-22T12:23:32Z</time>
      </trkpt>
      <trkpt lat="34.602005" lon="-5.539009">
        <ele>105.079</ele>
        <time>2019-10-22T12:23:48Z</time>
      </trkpt>
      <trkpt lat="34.602397" lon="-5.537701">
        <ele>102.705</ele>
        <time>2019-10-22T12:24:05Z</time>
      </trkpt>
      <trkpt lat="34.602861" lon="-5.536802">
        <ele>102.425</ele>
        <time>2019-10-22T12:24:19Z</time>
      </trkpt>
      <trkpt lat="34.603605" lon="-5.535902">
        <ele>104.408</ele>
        <time>2019-10-22T12:24:34Z</time>
      </trkpt>
      <trkpt lat="34.604596" lon="-5.535169">
        <ele>102.181</ele>
        <time>2019-10-22T12:24:49Z</time>
      </trkpt>
      <trkpt lat="34.610068" lon="-5.532862">
        <ele>108.069</ele>
        <time>2019-10-22T12:26:36Z</time>
      </trkpt>
      <trkpt lat="34.613107" lon="-5.532430">
        <ele>109.054</ele>
        <time>2019-10-22T12:27:43Z</time>
      </trkpt>
      <trkpt lat="34.614459" lon="-5.532410">
        <ele>108.951</ele>
        <time>2019-10-22T12:28:08Z</time>
      </trkpt>
      <trkpt lat="34.615203" lon="-5.532574">
        <ele>103.180</ele>
        <time>2019-10-22T12:28:52Z</time>
      </trkpt>
      <trkpt lat="34.616278" lon="-5.533159">
        <ele>104.419</ele>
        <time>2019-10-22T12:29:14Z</time>
      </trkpt>
      <trkpt lat="34.618232" lon="-5.535080">
        <ele>97.723</ele>
        <time>2019-10-22T12:29:53Z</time>
      </trkpt>
      <trkpt lat="34.618970" lon="-5.535567">
        <ele>88.378</ele>
        <time>2019-10-22T12:30:03Z</time>
      </trkpt>
      <trkpt lat="34.627216" lon="-5.539110">
        <ele>87.075</ele>
        <time>2019-10-22T12:34:38Z</time>
      </trkpt>
      <trkpt lat="34.628183" lon="-5.539244">
        <ele>87.728</ele>
        <time>2019-10-22T12:34:57Z</time>
      </trkpt>
      <trkpt lat="34.629093" lon="-5.538909">
        <ele>88.020</ele>
        <time>2019-10-22T12:35:15Z</time>
      </trkpt>
      <trkpt lat="34.629767" lon="-5.538174">
        <ele>93.808</ele>
        <time>2019-10-22T12:35:36Z</time>
      </trkpt>
      <trkpt lat="34.631896" lon="-5.533110">
        <ele>99.241</ele>
        <time>2019-10-22T12:41:32Z</time>
      </trkpt>
      <trkpt lat="34.632375" lon="-5.532592">
        <ele>100.899</ele>
        <time>2019-10-22T12:41:58Z</time>
      </trkpt>
      <trkpt lat="34.632964" lon="-5.532257">
        <ele>104.234</ele>
        <time>2019-10-22T12:42:22Z</time>
      </trkpt>
      <trkpt lat="34.633807" lon="-5.532117">
        <ele>106.781</ele>
        <time>2019-10-22T12:42:48Z</time>
      </trkpt>
      <trkpt lat="34.636013" lon="-5.532564">
        <ele>112.790</ele>
        <time>2019-10-22T12:43:50Z</time>
      </trkpt>
      <trkpt lat="34.636837" lon="-5.533219">
        <ele>114.419</ele>
        <time>2019-10-22T12:44:22Z</time>
      </trkpt>
      <trkpt lat="34.637357" lon="-5.534188">
        <ele>112.773</ele>
        <time>2019-10-22T12:44:53Z</time>
      </trkpt>
      <trkpt lat="34.638095" lon="-5.538441">
        <ele>101.668</ele>
        <time>2019-10-22T12:45:55Z</time>
      </trkpt>
      <trkpt lat="34.638540" lon="-5.539835">
        <ele>99.555</ele>
        <time>2019-10-22T12:46:16Z</time>
      </trkpt>
      <trkpt lat="34.641637" lon="-5.543324">
        <ele>98.107</ele>
        <time>2019-10-22T12:48:02Z</time>
      </trkpt>
      <trkpt lat="34.642289" lon="-5.543626">
        <ele>101.617</ele>
        <time>2019-10-22T12:48:18Z</time>
      </trkpt>
      <trkpt lat="34.642902" lon="-5.543663">
        <ele>99.008</ele>
        <time>2019-10-22T12:48:31Z</time>
      </trkpt>
      <trkpt lat="34.644679" lon="-5.543080">
        <ele>100.959</ele>
        <time>2019-10-22T12:49:08Z</time>
      </trkpt>
      <trkpt lat="34.647609" lon="-5.542741">
        <ele>104.147</ele>
        <time>2019-10-22T12:49:57Z</time>
      </trkpt>
      <trkpt lat="34.648793" lon="-5.542974">
        <ele>102.652</ele>
        <time>2019-10-22T12:50:22Z</time>
      </trkpt>
      <trkpt lat="34.649893" lon="-5.543473">
        <ele>101.679</ele>
        <time>2019-10-22T12:50:48Z</time>
      </trkpt>
      <trkpt lat="34.652933" lon="-5.545633">
        <ele>105.088</ele>
        <time>2019-10-22T12:52:08Z</time>
      </trkpt>
      <trkpt lat="34.657435" lon="-5.548097">
        <ele>102.267</ele>
        <time>2019-10-22T12:53:53Z</time>
      </trkpt>
      <trkpt lat="34.657732" lon="-5.547804">
        <ele>101.321</ele>
        <time>2019-10-22T12:54:12Z</time>
      </trkpt>
      <trkpt lat="34.658503" lon="-5.548710">
        <ele>106.626</ele>
        <time>2019-10-22T12:54:56Z</time>
      </trkpt>
      <trkpt lat="34.667327" lon="-5.553570">
        <ele>104.886</ele>
        <time>2019-10-22T12:59:31Z</time>
      </trkpt>
      <trkpt lat="34.668471" lon="-5.553700">
        <ele>102.560</ele>
        <time>2019-10-22T12:59:51Z</time>
      </trkpt>
      <trkpt lat="34.671227" lon="-5.553040">
        <ele>102.026</ele>
        <time>2019-10-22T13:00:49Z</time>
      </trkpt>
      <trkpt lat="34.673542" lon="-5.552706">
        <ele>109.308</ele>
        <time>2019-10-22T13:01:49Z</time>
      </trkpt>
      <trkpt lat="34.674376" lon="-5.552916">
        <ele>111.182</ele>
        <time>2019-10-22T13:02:11Z</time>
      </trkpt>
      <trkpt lat="34.675398" lon="-5.553563">
        <ele>111.290</ele>
        <time>2019-10-22T13:02:41Z</time>
      </trkpt>
      <trkpt lat="34.677167" lon="-5.555841">
        <ele>114.815</ele>
        <time>2019-10-22T13:03:49Z</time>
      </trkpt>
      <trkpt lat="34.678528" lon="-5.557935">
        <ele>118.492</ele>
        <time>2019-10-22T13:04:52Z</time>
      </trkpt>
      <trkpt lat="34.679886" lon="-5.558989">
        <ele>123.221</ele>
        <time>2019-10-22T13:05:39Z</time>
      </trkpt>
      <trkpt lat="34.680558" lon="-5.559760">
        <ele>116.040</ele>
        <time>2019-10-22T13:05:58Z</time>
      </trkpt>
      <trkpt lat="34.682178" lon="-5.564290">
        <ele>119.334</ele>
        <time>2019-10-22T13:07:29Z</time>
      </trkpt>
      <trkpt lat="34.684396" lon="-5.567517">
        <ele>112.989</ele>
        <time>2019-10-22T13:09:09Z</time>
      </trkpt>
      <trkpt lat="34.685220" lon="-5.568173">
        <ele>121.467</ele>
        <time>2019-10-22T13:09:43Z</time>
      </trkpt>
      <trkpt lat="34.686966" lon="-5.568814">
        <ele>124.481</ele>
        <time>2019-10-22T13:10:51Z</time>
      </trkpt>
      <trkpt lat="34.688823" lon="-5.570079">
        <ele>123.619</ele>
        <time>2019-10-22T13:11:44Z</time>
      </trkpt>
      <trkpt lat="34.689452" lon="-5.570873">
        <ele>122.608</ele>
        <time>2019-10-22T13:12:01Z</time>
      </trkpt>
      <trkpt lat="34.691424" lon="-5.574250">
        <ele>124.720</ele>
        <time>2019-10-22T13:13:11Z</time>
      </trkpt>
      <trkpt lat="34.692189" lon="-5.574872">
        <ele>119.428</ele>
        <time>2019-10-22T13:13:28Z</time>
      </trkpt>
      <trkpt lat="34.692978" lon="-5.575131">
        <ele>118.593</ele>
        <time>2019-10-22T13:13:43Z</time>
      </trkpt>
      <trkpt lat="34.695549" lon="-5.574608">
        <ele>118.090</ele>
        <time>2019-10-22T13:14:36Z</time>
      </trkpt>
      <trkpt lat="34.696434" lon="-5.573845">
        <ele>120.249</ele>
        <time>2019-10-22T13:14:58Z</time>
      </trkpt>
      <trkpt lat="34.697323" lon="-5.571901">
        <ele>122.238</ele>
        <time>2019-10-22T13:15:36Z</time>
      </trkpt>
      <trkpt lat="34.699087" lon="-5.569247">
        <ele>124.752</ele>
        <time>2019-10-22T13:16:33Z</time>
      </trkpt>
      <trkpt lat="34.701717" lon="-5.563924">
        <ele>127.677</ele>
        <time>2019-10-22T13:18:12Z</time>
      </trkpt>
      <trkpt lat="34.705259" lon="-5.558360">
        <ele>142.679</ele>
        <time>2019-10-22T13:20:54Z</time>
      </trkpt>
      <trkpt lat="34.705651" lon="-5.557074">
        <ele>148.205</ele>
        <time>2019-10-22T13:21:27Z</time>
      </trkpt>
      <trkpt lat="34.706107" lon="-5.554612">
        <ele>151.425</ele>
        <time>2019-10-22T13:22:21Z</time>
      </trkpt>
      <trkpt lat="34.706579" lon="-5.553787">
        <ele>151.308</ele>
        <time>2019-10-22T13:22:39Z</time>
      </trkpt>
      <trkpt lat="34.707177" lon="-5.553199">
        <ele>151.331</ele>
        <time>2019-10-22T13:22:53Z</time>
      </trkpt>
      <trkpt lat="34.711840" lon="-5.551601">
        <ele>139.979</ele>
        <time>2019-10-22T13:24:05Z</time>
      </trkpt>
      <trkpt lat="34.727099" lon="-5.549050">
        <ele>148.724</ele>
        <time>2019-10-22T13:30:55Z</time>
      </trkpt>
      <trkpt lat="34.727838" lon="-5.548643">
        <ele>150.791</ele>
        <time>2019-10-22T13:31:17Z</time>
      </trkpt>
      <trkpt lat="34.732636" lon="-5.544331">
        <ele>154.930</ele>
        <time>2019-10-22T13:34:17Z</time>
      </trkpt>
      <trkpt lat="34.733643" lon="-5.544015">
        <ele>162.989</ele>
        <time>2019-10-22T13:34:53Z</time>
      </trkpt>
      <trkpt lat="34.736383" lon="-5.543958">
        <ele>173.553</ele>
        <time>2019-10-22T13:36:23Z</time>
      </trkpt>
      <trkpt lat="34.737151" lon="-5.543740">
        <ele>169.228</ele>
        <time>2019-10-22T13:36:44Z</time>
      </trkpt>
      <trkpt lat="34.737815" lon="-5.543325">
        <ele>171.397</ele>
        <time>2019-10-22T13:37:01Z</time>
      </trkpt>
      <trkpt lat="34.742108" lon="-5.539641">
        <ele>174.923</ele>
        <time>2019-10-22T13:39:04Z</time>
      </trkpt>
      <trkpt lat="34.744502" lon="-5.538811">
        <ele>165.725</ele>
        <time>2019-10-22T13:39:38Z</time>
      </trkpt>
      <trkpt lat="34.745492" lon="-5.538893">
        <ele>163.008</ele>
        <time>2019-10-22T13:39:52Z</time>
      </trkpt>
      <trkpt lat="34.752230" lon="-5.541644">
        <ele>175.093</ele>
        <time>2019-10-22T13:42:41Z</time>
      </trkpt>
      <trkpt lat="34.752892" lon="-5.541635">
        <ele>176.541</ele>
        <time>2019-10-22T13:42:54Z</time>
      </trkpt>
      <trkpt lat="34.754493" lon="-5.541169">
        <ele>174.146</ele>
        <time>2019-10-22T13:43:36Z</time>
      </trkpt>
      <trkpt lat="34.757411" lon="-5.541833">
        <ele>180.023</ele>
        <time>2019-10-22T13:44:38Z</time>
      </trkpt>
      <trkpt lat="34.760846" lon="-5.541639">
        <ele>182.952</ele>
        <time>2019-10-22T13:45:57Z</time>
      </trkpt>
      <trkpt lat="34.764701" lon="-5.541985">
        <ele>190.111</ele>
        <time>2019-10-22T13:47:20Z</time>
      </trkpt>
      <trkpt lat="34.768872" lon="-5.544484">
        <ele>191.215</ele>
        <time>2019-10-22T13:49:05Z</time>
      </trkpt>
      <trkpt lat="34.773953" lon="-5.545637">
        <ele>195.540</ele>
        <time>2019-10-22T13:52:35Z</time>
      </trkpt>
      <trkpt lat="34.776025" lon="-5.546501">
        <ele>192.196</ele>
        <time>2019-10-22T13:53:28Z</time>
      </trkpt>
      <trkpt lat="34.776974" lon="-5.546468">
        <ele>194.331</ele>
        <time>2019-10-22T13:53:48Z</time>
      </trkpt>
      <trkpt lat="34.779109" lon="-5.545669">
        <ele>197.824</ele>
        <time>2019-10-22T13:54:37Z</time>
      </trkpt>
      <trkpt lat="34.782385" lon="-5.545330">
        <ele>198.908</ele>
        <time>2019-10-22T13:55:52Z</time>
      </trkpt>
      <trkpt lat="34.783421" lon="-5.544811">
        <ele>215.813</ele>
        <time>2019-10-22T13:56:29Z</time>
      </trkpt>
      <trkpt lat="34.784035" lon="-5.545088">
        <ele>221.921</ele>
        <time>2019-10-22T13:56:53Z</time>
      </trkpt>
      <trkpt lat="34.785141" lon="-5.546447">
        <ele>219.536</ele>
        <time>2019-10-22T13:58:17Z</time>
      </trkpt>
      <trkpt lat="34.785987" lon="-5.546801">
        <ele>219.043</ele>
        <time>2019-10-22T13:58:44Z</time>
      </trkpt>
      <trkpt lat="34.786619" lon="-5.546669">
        <ele>216.542</ele>
        <time>2019-10-22T13:59:00Z</time>
      </trkpt>
      <trkpt lat="34.787727" lon="-5.545973">
        <ele>220.551</ele>
        <time>2019-10-22T13:59:27Z</time>
      </trkpt>
      <trkpt lat="34.790038" lon="-5.546201">
        <ele>224.935</ele>
        <time>2019-10-22T14:00:12Z</time>
      </trkpt>
      <trkpt lat="34.793074" lon="-5.545404">
        <ele>216.630</ele>
        <time>2019-10-22T14:01:15Z</time>
      </trkpt>
      <trkpt lat="34.793805" lon="-5.545352">
        <ele>216.048</ele>
        <time>2019-10-22T14:01:29Z</time>
      </trkpt>
      <trkpt lat="34.797210" lon="-5.546229">
        <ele>226.361</ele>
        <time>2019-10-22T14:02:58Z</time>
      </trkpt>
      <trkpt lat="34.801556" lon="-5.548123">
        <ele>254.417</ele>
        <time>2019-10-22T14:06:24Z</time>
      </trkpt>
      <trkpt lat="34.806010" lon="-5.548777">
        <ele>246.308</ele>
        <time>2019-10-22T14:08:45Z</time>
      </trkpt>
      <trkpt lat="34.812148" lon="-5.549129">
        <ele>255.788</ele>
        <time>2019-10-22T14:10:59Z</time>
      </trkpt>
      <trkpt lat="34.815555" lon="-5.549898">
        <ele>264.036</ele>
        <time>2019-10-22T14:12:24Z</time>
      </trkpt>
      <trkpt lat="34.818431" lon="-5.550282">
        <ele>272.961</ele>
        <time>2019-10-22T14:13:47Z</time>
      </trkpt>
      <trkpt lat="34.818947" lon="-5.550162">
        <ele>269.028</ele>
        <time>2019-10-22T14:14:00Z</time>
      </trkpt>
      <trkpt lat="34.819153" lon="-5.549713">
        <ele>269.297</ele>
        <time>2019-10-22T14:16:36Z</time>
      </trkpt>
      <trkpt lat="34.819113" lon="-5.549821">
        <ele>269.016</ele>
        <time>2019-10-22T14:38:47Z</time>
      </trkpt>
      <trkpt lat="34.819558" lon="-5.550166">
        <ele>266.660</ele>
        <time>2019-10-22T14:39:36Z</time>
      </trkpt>
      <trkpt lat="34.824226" lon="-5.549941">
        <ele>251.285</ele>
        <time>2019-10-22T14:40:50Z</time>
      </trkpt>
      <trkpt lat="34.826142" lon="-5.549372">
        <ele>248.622</ele>
        <time>2019-10-22T14:41:17Z</time>
      </trkpt>
      <trkpt lat="34.826757" lon="-5.548917">
        <ele>241.562</ele>
        <time>2019-10-22T14:41:25Z</time>
      </trkpt>
      <trkpt lat="34.828092" lon="-5.547257">
        <ele>245.708</ele>
        <time>2019-10-22T14:41:53Z</time>
      </trkpt>
      <trkpt lat="34.831844" lon="-5.544710">
        <ele>232.608</ele>
        <time>2019-10-22T14:42:56Z</time>
      </trkpt>
      <trkpt lat="34.833243" lon="-5.543492">
        <ele>227.956</ele>
        <time>2019-10-22T14:43:14Z</time>
      </trkpt>
      <trkpt lat="34.837576" lon="-5.541350">
        <ele>218.184</ele>
        <time>2019-10-22T14:44:24Z</time>
      </trkpt>
      <trkpt lat="34.841581" lon="-5.539870">
        <ele>216.149</ele>
        <time>2019-10-22T14:45:37Z</time>
      </trkpt>
      <trkpt lat="34.844072" lon="-5.540057">
        <ele>205.196</ele>
        <time>2019-10-22T14:46:09Z</time>
      </trkpt>
      <trkpt lat="34.846638" lon="-5.539318">
        <ele>203.665</ele>
        <time>2019-10-22T14:46:44Z</time>
      </trkpt>
      <trkpt lat="34.848113" lon="-5.539124">
        <ele>203.524</ele>
        <time>2019-10-22T14:47:05Z</time>
      </trkpt>
      <trkpt lat="34.849562" lon="-5.539206">
        <ele>200.028</ele>
        <time>2019-10-22T14:47:24Z</time>
      </trkpt>
      <trkpt lat="34.850670" lon="-5.538656">
        <ele>197.953</ele>
        <time>2019-10-22T14:47:48Z</time>
      </trkpt>
      <trkpt lat="34.852509" lon="-5.538867">
        <ele>198.862</ele>
        <time>2019-10-22T14:48:45Z</time>
      </trkpt>
      <trkpt lat="34.859808" lon="-5.537420">
        <ele>190.583</ele>
        <time>2019-10-22T14:50:57Z</time>
      </trkpt>
      <trkpt lat="34.863979" lon="-5.537364">
        <ele>194.011</ele>
        <time>2019-10-22T14:52:05Z</time>
      </trkpt>
      <trkpt lat="34.868473" lon="-5.537605">
        <ele>182.508</ele>
        <time>2019-10-22T14:53:09Z</time>
      </trkpt>
      <trkpt lat="34.876207" lon="-5.539056">
        <ele>200.680</ele>
        <time>2019-10-22T14:56:06Z</time>
      </trkpt>
      <trkpt lat="34.881108" lon="-5.541150">
        <ele>184.658</ele>
        <time>2019-10-22T14:57:38Z</time>
      </trkpt>
      <trkpt lat="34.882161" lon="-5.541217">
        <ele>177.083</ele>
        <time>2019-10-22T14:57:48Z</time>
      </trkpt>
      <trkpt lat="34.885904" lon="-5.540138">
        <ele>172.460</ele>
        <time>2019-10-22T14:58:26Z</time>
      </trkpt>
      <trkpt lat="34.886898" lon="-5.539214">
        <ele>165.289</ele>
        <time>2019-10-22T14:58:47Z</time>
      </trkpt>
      <trkpt lat="34.888546" lon="-5.538120">
        <ele>161.048</ele>
        <time>2019-10-22T14:59:12Z</time>
      </trkpt>
      <trkpt lat="34.889533" lon="-5.536377">
        <ele>168.792</ele>
        <time>2019-10-22T14:59:49Z</time>
      </trkpt>
      <trkpt lat="34.890830" lon="-5.535306">
        <ele>163.327</ele>
        <time>2019-10-22T15:00:15Z</time>
      </trkpt>
      <trkpt lat="34.900375" lon="-5.531221">
        <ele>157.157</ele>
        <time>2019-10-22T15:03:14Z</time>
      </trkpt>
      <trkpt lat="34.901373" lon="-5.531303">
        <ele>160.500</ele>
        <time>2019-10-22T15:03:37Z</time>
      </trkpt>
      <trkpt lat="34.901917" lon="-5.531527">
        <ele>160.420</ele>
        <time>2019-10-22T15:03:49Z</time>
      </trkpt>
      <trkpt lat="34.904356" lon="-5.533679">
        <ele>167.908</ele>
        <time>2019-10-22T15:04:56Z</time>
      </trkpt>
      <trkpt lat="34.906908" lon="-5.535601">
        <ele>156.029</ele>
        <time>2019-10-22T15:06:30Z</time>
      </trkpt>
      <trkpt lat="34.908318" lon="-5.535813">
        <ele>148.837</ele>
        <time>2019-10-22T15:06:46Z</time>
      </trkpt>
      <trkpt lat="34.909413" lon="-5.536513">
        <ele>146.062</ele>
        <time>2019-10-22T15:07:02Z</time>
      </trkpt>
      <trkpt lat="34.910189" lon="-5.536793">
        <ele>151.639</ele>
        <time>2019-10-22T15:07:14Z</time>
      </trkpt>
      <trkpt lat="34.911988" lon="-5.536546">
        <ele>146.788</ele>
        <time>2019-10-22T15:07:46Z</time>
      </trkpt>
      <trkpt lat="34.913254" lon="-5.536855">
        <ele>151.457</ele>
        <time>2019-10-22T15:08:06Z</time>
      </trkpt>
      <trkpt lat="34.914691" lon="-5.536846">
        <ele>144.961</ele>
        <time>2019-10-22T15:08:28Z</time>
      </trkpt>
      <trkpt lat="34.915159" lon="-5.537327">
        <ele>138.996</ele>
        <time>2019-10-22T15:08:38Z</time>
      </trkpt>
      <trkpt lat="34.916727" lon="-5.540088">
        <ele>140.232</ele>
        <time>2019-10-22T15:09:24Z</time>
      </trkpt>
      <trkpt lat="34.917637" lon="-5.540618">
        <ele>136.492</ele>
        <time>2019-10-22T15:09:39Z</time>
      </trkpt>
      <trkpt lat="34.918924" lon="-5.540966">
        <ele>135.711</ele>
        <time>2019-10-22T15:10:02Z</time>
      </trkpt>
      <trkpt lat="34.920242" lon="-5.540584">
        <ele>132.908</ele>
        <time>2019-10-22T15:10:26Z</time>
      </trkpt>
      <trkpt lat="34.920815" lon="-5.540110">
        <ele>137.237</ele>
        <time>2019-10-22T15:10:39Z</time>
      </trkpt>
      <trkpt lat="34.921392" lon="-5.539041">
        <ele>137.765</ele>
        <time>2019-10-22T15:10:57Z</time>
      </trkpt>
      <trkpt lat="34.922395" lon="-5.537719">
        <ele>132.780</ele>
        <time>2019-10-22T15:11:20Z</time>
      </trkpt>
      <trkpt lat="34.923048" lon="-5.535554">
        <ele>131.117</ele>
        <time>2019-10-22T15:11:50Z</time>
      </trkpt>
      <trkpt lat="34.923594" lon="-5.534709">
        <ele>132.416</ele>
        <time>2019-10-22T15:12:06Z</time>
      </trkpt>
      <trkpt lat="34.924029" lon="-5.534371">
        <ele>134.865</ele>
        <time>2019-10-22T15:12:15Z</time>
      </trkpt>
      <trkpt lat="34.927544" lon="-5.532706">
        <ele>132.979</ele>
        <time>2019-10-22T15:13:14Z</time>
      </trkpt>
      <trkpt lat="34.929760" lon="-5.532162">
        <ele>136.424</ele>
        <time>2019-10-22T15:13:57Z</time>
      </trkpt>
      <trkpt lat="34.933175" lon="-5.533239">
        <ele>144.621</ele>
        <time>2019-10-22T15:15:29Z</time>
      </trkpt>
      <trkpt lat="34.936700" lon="-5.533276">
        <ele>144.441</ele>
        <time>2019-10-22T15:21:33Z</time>
      </trkpt>
      <trkpt lat="34.937035" lon="-5.533480">
        <ele>143.405</ele>
        <time>2019-10-22T15:21:41Z</time>
      </trkpt>
      <trkpt lat="34.937844" lon="-5.534579">
        <ele>144.708</ele>
        <time>2019-10-22T15:22:08Z</time>
      </trkpt>
      <trkpt lat="34.938733" lon="-5.534847">
        <ele>147.916</ele>
        <time>2019-10-22T15:22:42Z</time>
      </trkpt>
      <trkpt lat="34.939317" lon="-5.534807">
        <ele>144.694</ele>
        <time>2019-10-22T15:23:05Z</time>
      </trkpt>
      <trkpt lat="34.940036" lon="-5.534350">
        <ele>154.099</ele>
        <time>2019-10-22T15:23:42Z</time>
      </trkpt>
      <trkpt lat="34.941321" lon="-5.532779">
        <ele>148.646</ele>
        <time>2019-10-22T15:24:40Z</time>
      </trkpt>
      <trkpt lat="34.941866" lon="-5.532451">
        <ele>151.495</ele>
        <time>2019-10-22T15:24:52Z</time>
      </trkpt>
      <trkpt lat="34.942570" lon="-5.532308">
        <ele>162.774</ele>
        <time>2019-10-22T15:25:04Z</time>
      </trkpt>
      <trkpt lat="34.944570" lon="-5.530443">
        <ele>136.438</ele>
        <time>2019-10-22T15:25:34Z</time>
      </trkpt>
      <trkpt lat="34.945461" lon="-5.530240">
        <ele>132.413</ele>
        <time>2019-10-22T15:25:42Z</time>
      </trkpt>
      <trkpt lat="34.946635" lon="-5.530568">
        <ele>135.333</ele>
        <time>2019-10-22T15:25:59Z</time>
      </trkpt>
      <trkpt lat="34.947208" lon="-5.530548">
        <ele>136.823</ele>
        <time>2019-10-22T15:26:19Z</time>
      </trkpt>
      <trkpt lat="34.950651" lon="-5.528426">
        <ele>157.515</ele>
        <time>2019-10-22T15:29:00Z</time>
      </trkpt>
      <trkpt lat="34.952259" lon="-5.527989">
        <ele>147.308</ele>
        <time>2019-10-22T15:29:27Z</time>
      </trkpt>
      <trkpt lat="34.954573" lon="-5.528001">
        <ele>134.277</ele>
        <time>2019-10-22T15:29:55Z</time>
      </trkpt>
      <trkpt lat="34.957859" lon="-5.530275">
        <ele>112.035</ele>
        <time>2019-10-22T15:30:34Z</time>
      </trkpt>
      <trkpt lat="34.958465" lon="-5.530989">
        <ele>112.480</ele>
        <time>2019-10-22T15:30:45Z</time>
      </trkpt>
      <trkpt lat="34.958826" lon="-5.532199">
        <ele>108.087</ele>
        <time>2019-10-22T15:31:01Z</time>
      </trkpt>
      <trkpt lat="34.958783" lon="-5.534582">
        <ele>105.556</ele>
        <time>2019-10-22T15:31:35Z</time>
      </trkpt>
      <trkpt lat="34.958617" lon="-5.535007">
        <ele>105.025</ele>
        <time>2019-10-22T15:34:50Z</time>
      </trkpt>
      <trkpt lat="34.958681" lon="-5.534921">
        <ele>105.029</ele>
        <time>2019-10-22T15:34:57Z</time>
      </trkpt>
      <trkpt lat="34.958802" lon="-5.536133">
        <ele>103.454</ele>
        <time>2019-10-22T15:35:21Z</time>
      </trkpt>
      <trkpt lat="34.959109" lon="-5.537127">
        <ele>103.296</ele>
        <time>2019-10-22T15:35:35Z</time>
      </trkpt>
      <trkpt lat="34.959895" lon="-5.538173">
        <ele>99.631</ele>
        <time>2019-10-22T15:35:54Z</time>
      </trkpt>
      <trkpt lat="34.962746" lon="-5.540352">
        <ele>103.424</ele>
        <time>2019-10-22T15:36:54Z</time>
      </trkpt>
      <trkpt lat="34.963605" lon="-5.540781">
        <ele>103.008</ele>
        <time>2019-10-22T15:37:11Z</time>
      </trkpt>
      <trkpt lat="34.964610" lon="-5.540995">
        <ele>98.483</ele>
        <time>2019-10-22T15:37:30Z</time>
      </trkpt>
      <trkpt lat="34.968603" lon="-5.540915">
        <ele>96.021</ele>
        <time>2019-10-22T15:38:41Z</time>
      </trkpt>
      <trkpt lat="34.971665" lon="-5.542030">
        <ele>100.026</ele>
        <time>2019-10-22T15:39:38Z</time>
      </trkpt>
      <trkpt lat="34.972651" lon="-5.542956">
        <ele>105.543</ele>
        <time>2019-10-22T15:40:15Z</time>
      </trkpt>
      <trkpt lat="34.972947" lon="-5.543617">
        <ele>108.062</ele>
        <time>2019-10-22T15:40:28Z</time>
      </trkpt>
      <trkpt lat="34.973273" lon="-5.545000">
        <ele>100.671</ele>
        <time>2019-10-22T15:40:50Z</time>
      </trkpt>
      <trkpt lat="34.973924" lon="-5.546060">
        <ele>96.825</ele>
        <time>2019-10-22T15:41:07Z</time>
      </trkpt>
      <trkpt lat="34.974846" lon="-5.546933">
        <ele>99.530</ele>
        <time>2019-10-22T15:41:29Z</time>
      </trkpt>
      <trkpt lat="34.975336" lon="-5.547057">
        <ele>104.881</ele>
        <time>2019-10-22T15:41:39Z</time>
      </trkpt>
      <trkpt lat="34.975723" lon="-5.546959">
        <ele>105.461</ele>
        <time>2019-10-22T15:41:47Z</time>
      </trkpt>
      <trkpt lat="34.978415" lon="-5.545245">
        <ele>106.817</ele>
        <time>2019-10-22T15:43:05Z</time>
      </trkpt>
      <trkpt lat="34.980059" lon="-5.545153">
        <ele>109.908</ele>
        <time>2019-10-22T15:46:13Z</time>
      </trkpt>
      <trkpt lat="34.979707" lon="-5.545134">
        <ele>110.672</ele>
        <time>2019-10-22T15:46:38Z</time>
      </trkpt>
      <trkpt lat="34.980421" lon="-5.545015">
        <ele>109.950</ele>
        <time>2019-10-22T15:48:24Z</time>
      </trkpt>
      <trkpt lat="34.986282" lon="-5.541323">
        <ele>98.685</ele>
        <time>2019-10-22T15:50:19Z</time>
      </trkpt>
      <trkpt lat="34.987304" lon="-5.540224">
        <ele>97.822</ele>
        <time>2019-10-22T15:50:36Z</time>
      </trkpt>
      <trkpt lat="34.987913" lon="-5.539141">
        <ele>93.171</ele>
        <time>2019-10-22T15:50:53Z</time>
      </trkpt>
      <trkpt lat="34.988121" lon="-5.538239">
        <ele>95.160</ele>
        <time>2019-10-22T15:51:06Z</time>
      </trkpt>
      <trkpt lat="34.988126" lon="-5.537098">
        <ele>94.324</ele>
        <time>2019-10-22T15:51:21Z</time>
      </trkpt>
      <trkpt lat="34.986865" lon="-5.531143">
        <ele>98.359</ele>
        <time>2019-10-22T15:53:00Z</time>
      </trkpt>
      <trkpt lat="34.986701" lon="-5.529716">
        <ele>96.361</ele>
        <time>2019-10-22T15:53:30Z</time>
      </trkpt>
      <trkpt lat="34.986786" lon="-5.529096">
        <ele>100.521</ele>
        <time>2019-10-22T15:53:41Z</time>
      </trkpt>
      <trkpt lat="34.987555" lon="-5.527112">
        <ele>97.213</ele>
        <time>2019-10-22T15:54:21Z</time>
      </trkpt>
      <trkpt lat="34.987797" lon="-5.526013">
        <ele>96.308</ele>
        <time>2019-10-22T15:54:40Z</time>
      </trkpt>
      <trkpt lat="34.987169" lon="-5.522505">
        <ele>111.240</ele>
        <time>2019-10-22T15:56:20Z</time>
      </trkpt>
      <trkpt lat="34.987033" lon="-5.520971">
        <ele>123.088</ele>
        <time>2019-10-22T15:57:24Z</time>
      </trkpt>
      <trkpt lat="34.987638" lon="-5.515041">
        <ele>112.623</ele>
        <time>2019-10-22T15:59:26Z</time>
      </trkpt>
      <trkpt lat="34.987994" lon="-5.514106">
        <ele>105.970</ele>
        <time>2019-10-22T15:59:36Z</time>
      </trkpt>
      <trkpt lat="34.988958" lon="-5.512561">
        <ele>97.089</ele>
        <time>2019-10-22T15:59:56Z</time>
      </trkpt>
      <trkpt lat="34.989529" lon="-5.511980">
        <ele>100.618</ele>
        <time>2019-10-22T16:00:08Z</time>
      </trkpt>
      <trkpt lat="34.989996" lon="-5.511777">
        <ele>99.252</ele>
        <time>2019-10-22T16:00:16Z</time>
      </trkpt>
      <trkpt lat="34.992998" lon="-5.511557">
        <ele>102.627</ele>
        <time>2019-10-22T16:01:10Z</time>
      </trkpt>
      <trkpt lat="34.993683" lon="-5.511287">
        <ele>101.185</ele>
        <time>2019-10-22T16:01:24Z</time>
      </trkpt>
      <trkpt lat="34.999360" lon="-5.504639">
        <ele>105.089</ele>
        <time>2019-10-22T16:04:54Z</time>
      </trkpt>
      <trkpt lat="35.000359" lon="-5.503929">
        <ele>106.617</ele>
        <time>2019-10-22T16:05:16Z</time>
      </trkpt>
      <trkpt lat="35.002450" lon="-5.502897">
        <ele>116.808</ele>
        <time>2019-10-22T16:06:20Z</time>
      </trkpt>
      <trkpt lat="35.002823" lon="-5.502550">
        <ele>120.182</ele>
        <time>2019-10-22T16:06:41Z</time>
      </trkpt>
      <trkpt lat="35.003344" lon="-5.501391">
        <ele>120.960</ele>
        <time>2019-10-22T16:07:22Z</time>
      </trkpt>
      <trkpt lat="35.004466" lon="-5.495501">
        <ele>122.295</ele>
        <time>2019-10-22T16:09:01Z</time>
      </trkpt>
      <trkpt lat="35.004958" lon="-5.494395">
        <ele>116.072</ele>
        <time>2019-10-22T16:09:18Z</time>
      </trkpt>
      <trkpt lat="35.006965" lon="-5.490970">
        <ele>147.011</ele>
        <time>2019-10-22T16:11:41Z</time>
      </trkpt>
      <trkpt lat="35.007385" lon="-5.489534">
        <ele>157.390</ele>
        <time>2019-10-22T16:12:44Z</time>
      </trkpt>
      <trkpt lat="35.007739" lon="-5.489133">
        <ele>152.694</ele>
        <time>2019-10-22T16:13:04Z</time>
      </trkpt>
      <trkpt lat="35.014755" lon="-5.485864">
        <ele>161.529</ele>
        <time>2019-10-22T16:17:40Z</time>
      </trkpt>
      <trkpt lat="35.015515" lon="-5.485280">
        <ele>169.624</ele>
        <time>2019-10-22T16:18:31Z</time>
      </trkpt>
      <trkpt lat="35.016069" lon="-5.484061">
        <ele>178.404</ele>
        <time>2019-10-22T16:19:51Z</time>
      </trkpt>
      <trkpt lat="35.017185" lon="-5.480657">
        <ele>207.114</ele>
        <time>2019-10-22T16:22:56Z</time>
      </trkpt>
      <trkpt lat="35.018036" lon="-5.479426">
        <ele>219.608</ele>
        <time>2019-10-22T16:24:22Z</time>
      </trkpt>
      <trkpt lat="35.017940" lon="-5.477227">
        <ele>236.326</ele>
        <time>2019-10-22T16:26:21Z</time>
      </trkpt>
      <trkpt lat="35.018079" lon="-5.476703">
        <ele>237.354</ele>
        <time>2019-10-22T16:26:49Z</time>
      </trkpt>
      <trkpt lat="35.018401" lon="-5.476223">
        <ele>242.479</ele>
        <time>2019-10-22T16:27:22Z</time>
      </trkpt>
      <trkpt lat="35.018847" lon="-5.475942">
        <ele>246.576</ele>
        <time>2019-10-22T16:27:48Z</time>
      </trkpt>
      <trkpt lat="35.019526" lon="-5.475823">
        <ele>253.025</ele>
        <time>2019-10-22T16:28:18Z</time>
      </trkpt>
      <trkpt lat="35.021692" lon="-5.476075">
        <ele>248.324</ele>
        <time>2019-10-22T16:29:21Z</time>
      </trkpt>
      <trkpt lat="35.021747" lon="-5.476246">
        <ele>246.028</ele>
        <time>2019-10-22T16:31:02Z</time>
      </trkpt>
      <trkpt lat="35.022498" lon="-5.476466">
        <ele>235.313</ele>
        <time>2019-10-22T16:31:17Z</time>
      </trkpt>
      <trkpt lat="35.024998" lon="-5.478115">
        <ele>208.145</ele>
        <time>2019-10-22T16:31:46Z</time>
      </trkpt>
      <trkpt lat="35.026301" lon="-5.478466">
        <ele>197.947</ele>
        <time>2019-10-22T16:32:00Z</time>
      </trkpt>
      <trkpt lat="35.026370" lon="-5.478269">
        <ele>201.211</ele>
        <time>2019-10-22T16:32:50Z</time>
      </trkpt>
      <trkpt lat="35.026307" lon="-5.478359">
        <ele>199.808</ele>
        <time>2019-10-22T17:00:41Z</time>
      </trkpt>
      <trkpt lat="35.027787" lon="-5.478915">
        <ele>191.478</ele>
        <time>2019-10-22T17:01:27Z</time>
      </trkpt>
      <trkpt lat="35.028647" lon="-5.478865">
        <ele>180.646</ele>
        <time>2019-10-22T17:01:39Z</time>
      </trkpt>
      <trkpt lat="35.029636" lon="-5.478180">
        <ele>172.281</ele>
        <time>2019-10-22T17:01:54Z</time>
      </trkpt>
      <trkpt lat="35.030645" lon="-5.476541">
        <ele>159.368</ele>
        <time>2019-10-22T17:02:24Z</time>
      </trkpt>
      <trkpt lat="35.031991" lon="-5.475840">
        <ele>145.377</ele>
        <time>2019-10-22T17:02:38Z</time>
      </trkpt>
      <trkpt lat="35.033713" lon="-5.475475">
        <ele>128.916</ele>
        <time>2019-10-22T17:02:56Z</time>
      </trkpt>
      <trkpt lat="35.034265" lon="-5.475083">
        <ele>124.680</ele>
        <time>2019-10-22T17:03:03Z</time>
      </trkpt>
      <trkpt lat="35.034790" lon="-5.473321">
        <ele>137.365</ele>
        <time>2019-10-22T17:03:19Z</time>
      </trkpt>
      <trkpt lat="35.034651" lon="-5.469706">
        <ele>138.094</ele>
        <time>2019-10-22T17:04:05Z</time>
      </trkpt>
      <trkpt lat="35.034855" lon="-5.468751">
        <ele>138.157</ele>
        <time>2019-10-22T17:04:19Z</time>
      </trkpt>
      <trkpt lat="35.035469" lon="-5.468052">
        <ele>132.822</ele>
        <time>2019-10-22T17:04:33Z</time>
      </trkpt>
      <trkpt lat="35.038872" lon="-5.465859">
        <ele>130.608</ele>
        <time>2019-10-22T17:05:39Z</time>
      </trkpt>
      <trkpt lat="35.039342" lon="-5.465013">
        <ele>129.293</ele>
        <time>2019-10-22T17:05:56Z</time>
      </trkpt>
      <trkpt lat="35.039480" lon="-5.463075">
        <ele>131.771</ele>
        <time>2019-10-22T17:06:29Z</time>
      </trkpt>
      <trkpt lat="35.039361" lon="-5.461884">
        <ele>135.126</ele>
        <time>2019-10-22T17:06:51Z</time>
      </trkpt>
      <trkpt lat="35.037461" lon="-5.455985">
        <ele>137.513</ele>
        <time>2019-10-22T17:08:27Z</time>
      </trkpt>
      <trkpt lat="35.036970" lon="-5.455331">
        <ele>132.912</ele>
        <time>2019-10-22T17:08:44Z</time>
      </trkpt>
      <trkpt lat="35.034268" lon="-5.452992">
        <ele>140.291</ele>
        <time>2019-10-22T17:09:49Z</time>
      </trkpt>
      <trkpt lat="35.033749" lon="-5.452298">
        <ele>142.565</ele>
        <time>2019-10-22T17:10:13Z</time>
      </trkpt>
      <trkpt lat="35.033082" lon="-5.450417">
        <ele>152.690</ele>
        <time>2019-10-22T17:11:11Z</time>
      </trkpt>
      <trkpt lat="35.033327" lon="-5.449229">
        <ele>147.648</ele>
        <time>2019-10-22T17:11:46Z</time>
      </trkpt>
      <trkpt lat="35.033286" lon="-5.448367">
        <ele>153.661</ele>
        <time>2019-10-22T17:12:09Z</time>
      </trkpt>
      <trkpt lat="35.032332" lon="-5.446216">
        <ele>163.817</ele>
        <time>2019-10-22T17:13:03Z</time>
      </trkpt>
      <trkpt lat="35.032038" lon="-5.443970">
        <ele>152.308</ele>
        <time>2019-10-22T17:13:31Z</time>
      </trkpt>
      <trkpt lat="35.031263" lon="-5.442539">
        <ele>149.068</ele>
        <time>2019-10-22T17:13:48Z</time>
      </trkpt>
      <trkpt lat="35.030533" lon="-5.440293">
        <ele>138.256</ele>
        <time>2019-10-22T17:14:15Z</time>
      </trkpt>
      <trkpt lat="35.030183" lon="-5.439920">
        <ele>139.031</ele>
        <time>2019-10-22T17:14:26Z</time>
      </trkpt>
      <trkpt lat="35.029066" lon="-5.439351">
        <ele>159.068</ele>
        <time>2019-10-22T17:15:19Z</time>
      </trkpt>
      <trkpt lat="35.028230" lon="-5.437855">
        <ele>154.227</ele>
        <time>2019-10-22T17:15:57Z</time>
      </trkpt>
      <trkpt lat="35.027526" lon="-5.432853">
        <ele>149.416</ele>
        <time>2019-10-22T17:17:16Z</time>
      </trkpt>
      <trkpt lat="35.027232" lon="-5.431731">
        <ele>147.530</ele>
        <time>2019-10-22T17:17:36Z</time>
      </trkpt>
      <trkpt lat="35.024716" lon="-5.427319">
        <ele>144.175</ele>
        <time>2019-10-22T17:18:59Z</time>
      </trkpt>
      <trkpt lat="35.024178" lon="-5.425620">
        <ele>142.033</ele>
        <time>2019-10-22T17:19:26Z</time>
      </trkpt>
      <trkpt lat="35.023087" lon="-5.423549">
        <ele>141.423</ele>
        <time>2019-10-22T17:20:02Z</time>
      </trkpt>
      <trkpt lat="35.021886" lon="-5.422289">
        <ele>144.615</ele>
        <time>2019-10-22T17:20:34Z</time>
      </trkpt>
      <trkpt lat="35.021684" lon="-5.421748">
        <ele>142.308</ele>
        <time>2019-10-22T17:20:43Z</time>
      </trkpt>
      <trkpt lat="35.021786" lon="-5.420579">
        <ele>150.567</ele>
        <time>2019-10-22T17:21:01Z</time>
      </trkpt>
      <trkpt lat="35.022535" lon="-5.417825">
        <ele>151.885</ele>
        <time>2019-10-22T17:21:58Z</time>
      </trkpt>
      <trkpt lat="35.022104" lon="-5.414903">
        <ele>167.780</ele>
        <time>2019-10-22T17:23:43Z</time>
      </trkpt>
      <trkpt lat="35.022659" lon="-5.413036">
        <ele>180.097</ele>
        <time>2019-10-22T17:25:22Z</time>
      </trkpt>
      <trkpt lat="35.022378" lon="-5.411680">
        <ele>196.556</ele>
        <time>2019-10-22T17:26:28Z</time>
      </trkpt>
      <trkpt lat="35.022438" lon="-5.411378">
        <ele>194.945</ele>
        <time>2019-10-22T17:27:02Z</time>
      </trkpt>
      <trkpt lat="35.022930" lon="-5.410827">
        <ele>187.999</ele>
        <time>2019-10-22T17:27:14Z</time>
      </trkpt>
      <trkpt lat="35.023803" lon="-5.410248">
        <ele>180.624</ele>
        <time>2019-10-22T17:27:26Z</time>
      </trkpt>
      <trkpt lat="35.025913" lon="-5.409932">
        <ele>168.249</ele>
        <time>2019-10-22T17:27:48Z</time>
      </trkpt>
      <trkpt lat="35.026737" lon="-5.409346">
        <ele>160.602</ele>
        <time>2019-10-22T17:27:59Z</time>
      </trkpt>
      <trkpt lat="35.027545" lon="-5.407614">
        <ele>154.222</ele>
        <time>2019-10-22T17:28:19Z</time>
      </trkpt>
      <trkpt lat="35.028038" lon="-5.407145">
        <ele>150.108</ele>
        <time>2019-10-22T17:28:30Z</time>
      </trkpt>
      <trkpt lat="35.029317" lon="-5.405348">
        <ele>157.748</ele>
        <time>2019-10-22T17:29:13Z</time>
      </trkpt>
      <trkpt lat="35.029975" lon="-5.403681">
        <ele>151.266</ele>
        <time>2019-10-22T17:29:44Z</time>
      </trkpt>
      <trkpt lat="35.031192" lon="-5.402771">
        <ele>159.251</ele>
        <time>2019-10-22T17:30:16Z</time>
      </trkpt>
      <trkpt lat="35.032289" lon="-5.400954">
        <ele>171.648</ele>
        <time>2019-10-22T17:31:31Z</time>
      </trkpt>
      <trkpt lat="35.032395" lon="-5.400535">
        <ele>174.267</ele>
        <time>2019-10-22T17:31:50Z</time>
      </trkpt>
      <trkpt lat="35.032251" lon="-5.400024">
        <ele>178.076</ele>
        <time>2019-10-22T17:32:14Z</time>
      </trkpt>
      <trkpt lat="35.031519" lon="-5.398732">
        <ele>186.950</ele>
        <time>2019-10-22T17:33:19Z</time>
      </trkpt>
      <trkpt lat="35.028065" lon="-5.394649">
        <ele>180.945</ele>
        <time>2019-10-22T17:35:22Z</time>
      </trkpt>
      <trkpt lat="35.027161" lon="-5.393918">
        <ele>175.244</ele>
        <time>2019-10-22T17:35:35Z</time>
      </trkpt>
      <trkpt lat="35.026868" lon="-5.393469">
        <ele>173.805</ele>
        <time>2019-10-22T17:35:40Z</time>
      </trkpt>
      <trkpt lat="35.026099" lon="-5.391394">
        <ele>167.815</ele>
        <time>2019-10-22T17:36:02Z</time>
      </trkpt>
      <trkpt lat="35.026410" lon="-5.390070">
        <ele>171.608</ele>
        <time>2019-10-22T17:36:21Z</time>
      </trkpt>
      <trkpt lat="35.026455" lon="-5.388871">
        <ele>166.498</ele>
        <time>2019-10-22T17:36:34Z</time>
      </trkpt>
      <trkpt lat="35.025009" lon="-5.385779">
        <ele>168.066</ele>
        <time>2019-10-22T17:37:29Z</time>
      </trkpt>
      <trkpt lat="35.024739" lon="-5.384015">
        <ele>172.521</ele>
        <time>2019-10-22T17:37:54Z</time>
      </trkpt>
      <trkpt lat="35.024932" lon="-5.383057">
        <ele>167.028</ele>
        <time>2019-10-22T17:38:10Z</time>
      </trkpt>
      <trkpt lat="35.025650" lon="-5.381803">
        <ele>171.457</ele>
        <time>2019-10-22T17:38:47Z</time>
      </trkpt>
      <trkpt lat="35.025864" lon="-5.378040">
        <ele>167.346</ele>
        <time>2019-10-22T17:39:56Z</time>
      </trkpt>
      <trkpt lat="35.026658" lon="-5.376902">
        <ele>178.030</ele>
        <time>2019-10-22T17:40:34Z</time>
      </trkpt>
      <trkpt lat="35.027051" lon="-5.372162">
        <ele>194.515</ele>
        <time>2019-10-22T17:42:34Z</time>
      </trkpt>
      <trkpt lat="35.027272" lon="-5.371290">
        <ele>193.261</ele>
        <time>2019-10-22T17:42:51Z</time>
      </trkpt>
      <trkpt lat="35.030273" lon="-5.368371">
        <ele>177.721</ele>
        <time>2019-10-22T17:43:52Z</time>
      </trkpt>
      <trkpt lat="35.031068" lon="-5.367409">
        <ele>185.813</ele>
        <time>2019-10-22T17:44:11Z</time>
      </trkpt>
      <trkpt lat="35.032184" lon="-5.366635">
        <ele>182.308</ele>
        <time>2019-10-22T17:44:32Z</time>
      </trkpt>
      <trkpt lat="35.034233" lon="-5.363196">
        <ele>187.850</ele>
        <time>2019-10-22T17:45:43Z</time>
      </trkpt>
      <trkpt lat="35.037372" lon="-5.360501">
        <ele>199.968</ele>
        <time>2019-10-22T17:47:28Z</time>
      </trkpt>
      <trkpt lat="35.037855" lon="-5.360349">
        <ele>193.353</ele>
        <time>2019-10-22T17:47:35Z</time>
      </trkpt>
      <trkpt lat="35.040371" lon="-5.360256">
        <ele>192.180</ele>
        <time>2019-10-22T17:48:15Z</time>
      </trkpt>
      <trkpt lat="35.040836" lon="-5.360038">
        <ele>192.329</ele>
        <time>2019-10-22T17:48:25Z</time>
      </trkpt>
      <trkpt lat="35.041092" lon="-5.359335">
        <ele>195.568</ele>
        <time>2019-10-22T17:48:36Z</time>
      </trkpt>
      <trkpt lat="35.041176" lon="-5.357996">
        <ele>189.872</ele>
        <time>2019-10-22T17:48:54Z</time>
      </trkpt>
      <trkpt lat="35.041856" lon="-5.356822">
        <ele>194.867</ele>
        <time>2019-10-22T17:49:26Z</time>
      </trkpt>
      <trkpt lat="35.043087" lon="-5.353422">
        <ele>194.765</ele>
        <time>2019-10-22T17:50:32Z</time>
      </trkpt>
      <trkpt lat="35.044385" lon="-5.352865">
        <ele>201.468</ele>
        <time>2019-10-22T17:51:00Z</time>
      </trkpt>
      <trkpt lat="35.046683" lon="-5.353531">
        <ele>204.014</ele>
        <time>2019-10-22T17:51:53Z</time>
      </trkpt>
      <trkpt lat="35.047130" lon="-5.353472">
        <ele>204.308</ele>
        <time>2019-10-22T17:52:01Z</time>
      </trkpt>
      <trkpt lat="35.051268" lon="-5.349910">
        <ele>204.440</ele>
        <time>2019-10-22T17:53:40Z</time>
      </trkpt>
      <trkpt lat="35.052624" lon="-5.347987">
        <ele>208.658</ele>
        <time>2019-10-22T17:54:25Z</time>
      </trkpt>
      <trkpt lat="35.054295" lon="-5.343506">
        <ele>214.333</ele>
        <time>2019-10-22T17:55:59Z</time>
      </trkpt>
      <trkpt lat="35.055442" lon="-5.342037">
        <ele>223.760</ele>
        <time>2019-10-22T17:56:55Z</time>
      </trkpt>
      <trkpt lat="35.056099" lon="-5.340645">
        <ele>222.479</ele>
        <time>2019-10-22T17:57:36Z</time>
      </trkpt>
      <trkpt lat="35.059193" lon="-5.335561">
        <ele>223.328</ele>
        <time>2019-10-22T17:59:07Z</time>
      </trkpt>
      <trkpt lat="35.060111" lon="-5.334931">
        <ele>226.422</ele>
        <time>2019-10-22T17:59:26Z</time>
      </trkpt>
      <trkpt lat="35.061258" lon="-5.334772">
        <ele>227.267</ele>
        <time>2019-10-22T17:59:48Z</time>
      </trkpt>
      <trkpt lat="35.062410" lon="-5.334113">
        <ele>232.267</ele>
        <time>2019-10-22T18:00:12Z</time>
      </trkpt>
      <trkpt lat="35.063384" lon="-5.333054">
        <ele>235.281</ele>
        <time>2019-10-22T18:00:51Z</time>
      </trkpt>
      <trkpt lat="35.065179" lon="-5.332109">
        <ele>230.419</ele>
        <time>2019-10-22T18:01:31Z</time>
      </trkpt>
      <trkpt lat="35.066290" lon="-5.330777">
        <ele>236.908</ele>
        <time>2019-10-22T18:02:05Z</time>
      </trkpt>
      <trkpt lat="35.067627" lon="-5.330227">
        <ele>252.220</ele>
        <time>2019-10-22T18:02:57Z</time>
      </trkpt>
      <trkpt lat="35.068181" lon="-5.329762">
        <ele>257.538</ele>
        <time>2019-10-22T18:03:25Z</time>
      </trkpt>
      <trkpt lat="35.068873" lon="-5.328583">
        <ele>254.233</ele>
        <time>2019-10-22T18:04:11Z</time>
      </trkpt>
      <trkpt lat="35.069102" lon="-5.327108">
        <ele>257.560</ele>
        <time>2019-10-22T18:04:55Z</time>
      </trkpt>
      <trkpt lat="35.069662" lon="-5.326065">
        <ele>256.369</ele>
        <time>2019-10-22T18:05:27Z</time>
      </trkpt>
      <trkpt lat="35.071089" lon="-5.325155">
        <ele>253.688</ele>
        <time>2019-10-22T18:05:54Z</time>
      </trkpt>
      <trkpt lat="35.071948" lon="-5.324389">
        <ele>251.192</ele>
        <time>2019-10-22T18:06:06Z</time>
      </trkpt>
      <trkpt lat="35.072595" lon="-5.323038">
        <ele>250.967</ele>
        <time>2019-10-22T18:06:27Z</time>
      </trkpt>
      <trkpt lat="35.074108" lon="-5.321492">
        <ele>261.759</ele>
        <time>2019-10-22T18:07:05Z</time>
      </trkpt>
      <trkpt lat="35.074119" lon="-5.320566">
        <ele>261.203</ele>
        <time>2019-10-22T18:07:21Z</time>
      </trkpt>
      <trkpt lat="35.073673" lon="-5.318154">
        <ele>263.523</ele>
        <time>2019-10-22T18:08:07Z</time>
      </trkpt>
      <trkpt lat="35.073921" lon="-5.317095">
        <ele>270.608</ele>
        <time>2019-10-22T18:08:27Z</time>
      </trkpt>
      <trkpt lat="35.073955" lon="-5.315783">
        <ele>269.169</ele>
        <time>2019-10-22T18:08:50Z</time>
      </trkpt>
      <trkpt lat="35.074571" lon="-5.314309">
        <ele>271.557</ele>
        <time>2019-10-22T18:09:32Z</time>
      </trkpt>
      <trkpt lat="35.075818" lon="-5.313590">
        <ele>283.492</ele>
        <time>2019-10-22T18:11:01Z</time>
      </trkpt>
      <trkpt lat="35.076918" lon="-5.313615">
        <ele>286.199</ele>
        <time>2019-10-22T18:12:01Z</time>
      </trkpt>
      <trkpt lat="35.077297" lon="-5.313474">
        <ele>291.288</ele>
        <time>2019-10-22T18:12:22Z</time>
      </trkpt>
      <trkpt lat="35.077815" lon="-5.311934">
        <ele>304.057</ele>
        <time>2019-10-22T18:13:45Z</time>
      </trkpt>
      <trkpt lat="35.078596" lon="-5.311467">
        <ele>314.161</ele>
        <time>2019-10-22T18:14:36Z</time>
      </trkpt>
      <trkpt lat="35.078946" lon="-5.310838">
        <ele>317.536</ele>
        <time>2019-10-22T18:15:13Z</time>
      </trkpt>
      <trkpt lat="35.079692" lon="-5.310336">
        <ele>326.036</ele>
        <time>2019-10-22T18:16:03Z</time>
      </trkpt>
      <trkpt lat="35.080149" lon="-5.309821">
        <ele>331.317</ele>
        <time>2019-10-22T18:16:39Z</time>
      </trkpt>
      <trkpt lat="35.081068" lon="-5.309455">
        <ele>339.218</ele>
        <time>2019-10-22T18:17:35Z</time>
      </trkpt>
      <trkpt lat="35.081955" lon="-5.308431">
        <ele>340.308</ele>
        <time>2019-10-22T18:18:47Z</time>
      </trkpt>
      <trkpt lat="35.082451" lon="-5.308307">
        <ele>342.297</ele>
        <time>2019-10-22T18:19:17Z</time>
      </trkpt>
      <trkpt lat="35.083698" lon="-5.308692">
        <ele>361.615</ele>
        <time>2019-10-22T18:20:30Z</time>
      </trkpt>
      <trkpt lat="35.084036" lon="-5.308652">
        <ele>363.770</ele>
        <time>2019-10-22T18:20:48Z</time>
      </trkpt>
      <trkpt lat="35.084653" lon="-5.308234">
        <ele>368.597</ele>
        <time>2019-10-22T18:21:29Z</time>
      </trkpt>
      <trkpt lat="35.085074" lon="-5.307535">
        <ele>372.936</ele>
        <time>2019-10-22T18:22:44Z</time>
      </trkpt>
      <trkpt lat="35.086265" lon="-5.306630">
        <ele>378.835</ele>
        <time>2019-10-22T18:23:57Z</time>
      </trkpt>
      <trkpt lat="35.087217" lon="-5.306779">
        <ele>387.039</ele>
        <time>2019-10-22T18:24:37Z</time>
      </trkpt>
      <trkpt lat="35.088528" lon="-5.307592">
        <ele>388.324</ele>
        <time>2019-10-22T18:25:28Z</time>
      </trkpt>
      <trkpt lat="35.089227" lon="-5.307294">
        <ele>391.256</ele>
        <time>2019-10-22T18:25:49Z</time>
      </trkpt>
      <trkpt lat="35.090208" lon="-5.307619">
        <ele>396.659</ele>
        <time>2019-10-22T18:26:19Z</time>
      </trkpt>
      <trkpt lat="35.090663" lon="-5.306975">
        <ele>396.114</ele>
        <time>2019-10-22T18:26:47Z</time>
      </trkpt>
      <trkpt lat="35.091101" lon="-5.306814">
        <ele>400.008</ele>
        <time>2019-10-22T18:27:08Z</time>
      </trkpt>
      <trkpt lat="35.093441" lon="-5.307961">
        <ele>413.259</ele>
        <time>2019-10-22T18:29:14Z</time>
      </trkpt>
      <trkpt lat="35.093872" lon="-5.309494">
        <ele>426.387</ele>
        <time>2019-10-22T18:30:25Z</time>
      </trkpt>
      <trkpt lat="35.094114" lon="-5.309789">
        <ele>429.612</ele>
        <time>2019-10-22T18:30:43Z</time>
      </trkpt>
      <trkpt lat="35.095508" lon="-5.309624">
        <ele>433.119</ele>
        <time>2019-10-22T18:31:37Z</time>
      </trkpt>
      <trkpt lat="35.095920" lon="-5.309360">
        <ele>434.698</ele>
        <time>2019-10-22T18:32:00Z</time>
      </trkpt>
      <trkpt lat="35.097767" lon="-5.306390">
        <ele>453.837</ele>
        <time>2019-10-22T18:34:39Z</time>
      </trkpt>
      <trkpt lat="35.097722" lon="-5.305857">
        <ele>462.031</ele>
        <time>2019-10-22T18:34:59Z</time>
      </trkpt>
      <trkpt lat="35.096918" lon="-5.303964">
        <ele>467.496</ele>
        <time>2019-10-22T18:40:02Z</time>
      </trkpt>
      <trkpt lat="35.097019" lon="-5.302510">
        <ele>464.315</ele>
        <time>2019-10-22T18:40:25Z</time>
      </trkpt>
      <trkpt lat="35.097627" lon="-5.300988">
        <ele>451.965</ele>
        <time>2019-10-22T18:40:41Z</time>
      </trkpt>
      <trkpt lat="35.098630" lon="-5.299907">
        <ele>443.211</ele>
        <time>2019-10-22T18:40:55Z</time>
      </trkpt>
      <trkpt lat="35.100307" lon="-5.298690">
        <ele>431.108</ele>
        <time>2019-10-22T18:41:12Z</time>
      </trkpt>
      <trkpt lat="35.100943" lon="-5.296705">
        <ele>420.955</ele>
        <time>2019-10-22T18:41:29Z</time>
      </trkpt>
      <trkpt lat="35.102304" lon="-5.294815">
        <ele>412.223</ele>
        <time>2019-10-22T18:41:48Z</time>
      </trkpt>
      <trkpt lat="35.104232" lon="-5.292978">
        <ele>407.198</ele>
        <time>2019-10-22T18:42:11Z</time>
      </trkpt>
      <trkpt lat="35.104980" lon="-5.291395">
        <ele>396.925</ele>
        <time>2019-10-22T18:42:29Z</time>
      </trkpt>
      <trkpt lat="35.106311" lon="-5.289655">
        <ele>393.334</ele>
        <time>2019-10-22T18:42:52Z</time>
      </trkpt>
      <trkpt lat="35.109108" lon="-5.288804">
        <ele>388.023</ele>
        <time>2019-10-22T18:43:28Z</time>
      </trkpt>
      <trkpt lat="35.110792" lon="-5.286935">
        <ele>379.857</ele>
        <time>2019-10-22T18:44:09Z</time>
      </trkpt>
      <trkpt lat="35.111720" lon="-5.287267">
        <ele>381.072</ele>
        <time>2019-10-22T18:44:30Z</time>
      </trkpt>
      <trkpt lat="35.114590" lon="-5.287846">
        <ele>375.619</ele>
        <time>2019-10-22T18:45:23Z</time>
      </trkpt>
      <trkpt lat="35.115875" lon="-5.288520">
        <ele>373.009</ele>
        <time>2019-10-22T18:45:50Z</time>
      </trkpt>
      <trkpt lat="35.116560" lon="-5.289176">
        <ele>371.119</ele>
        <time>2019-10-22T18:46:05Z</time>
      </trkpt>
      <trkpt lat="35.117033" lon="-5.289127">
        <ele>366.908</ele>
        <time>2019-10-22T18:46:27Z</time>
      </trkpt>
      <trkpt lat="35.117267" lon="-5.289508">
        <ele>369.725</ele>
        <time>2019-10-22T18:46:49Z</time>
      </trkpt>
      <trkpt lat="35.117747" lon="-5.289206">
        <ele>365.083</ele>
        <time>2019-10-22T18:46:59Z</time>
      </trkpt>
      <trkpt lat="35.120139" lon="-5.288875">
        <ele>368.728</ele>
        <time>2019-10-22T18:47:34Z</time>
      </trkpt>
      <trkpt lat="35.121842" lon="-5.288987">
        <ele>380.415</ele>
        <time>2019-10-22T18:48:27Z</time>
      </trkpt>
      <trkpt lat="35.123171" lon="-5.289772">
        <ele>383.614</ele>
        <time>2019-10-22T18:49:29Z</time>
      </trkpt>
      <trkpt lat="35.125153" lon="-5.288085">
        <ele>398.413</ele>
        <time>2019-10-22T18:51:07Z</time>
      </trkpt>
      <trkpt lat="35.126679" lon="-5.287440">
        <ele>407.337</ele>
        <time>2019-10-22T18:52:15Z</time>
      </trkpt>
      <trkpt lat="35.128053" lon="-5.288038">
        <ele>419.322</ele>
        <time>2019-10-22T18:53:13Z</time>
      </trkpt>
      <trkpt lat="35.128841" lon="-5.288073">
        <ele>425.815</ele>
        <time>2019-10-22T18:53:51Z</time>
      </trkpt>
      <trkpt lat="35.129568" lon="-5.288455">
        <ele>428.965</ele>
        <time>2019-10-22T18:54:33Z</time>
      </trkpt>
      <trkpt lat="35.131205" lon="-5.287540">
        <ele>442.711</ele>
        <time>2019-10-22T18:56:17Z</time>
      </trkpt>
      <trkpt lat="35.131578" lon="-5.287033">
        <ele>447.808</ele>
        <time>2019-10-22T18:56:37Z</time>
      </trkpt>
      <trkpt lat="35.132164" lon="-5.286696">
        <ele>445.245</ele>
        <time>2019-10-22T18:57:04Z</time>
      </trkpt>
      <trkpt lat="35.133783" lon="-5.284970">
        <ele>462.963</ele>
        <time>2019-10-22T18:59:00Z</time>
      </trkpt>
      <trkpt lat="35.134091" lon="-5.283623">
        <ele>475.538</ele>
        <time>2019-10-22T18:59:59Z</time>
      </trkpt>
      <trkpt lat="35.135160" lon="-5.282299">
        <ele>485.935</ele>
        <time>2019-10-22T19:01:23Z</time>
      </trkpt>
      <trkpt lat="35.135820" lon="-5.282264">
        <ele>488.474</ele>
        <time>2019-10-22T19:01:59Z</time>
      </trkpt>
      <trkpt lat="35.136231" lon="-5.281924">
        <ele>491.323</ele>
        <time>2019-10-22T19:02:25Z</time>
      </trkpt>
      <trkpt lat="35.136723" lon="-5.280181">
        <ele>499.197</ele>
        <time>2019-10-22T19:03:35Z</time>
      </trkpt>
      <trkpt lat="35.136474" lon="-5.278170">
        <ele>507.922</ele>
        <time>2019-10-22T19:04:58Z</time>
      </trkpt>
      <trkpt lat="35.137290" lon="-5.275561">
        <ele>522.766</ele>
        <time>2019-10-22T19:09:50Z</time>
      </trkpt>
      <trkpt lat="35.137740" lon="-5.274655">
        <ele>528.429</ele>
        <time>2019-10-22T19:10:39Z</time>
      </trkpt>
      <trkpt lat="35.139399" lon="-5.273688">
        <ele>531.321</ele>
        <time>2019-10-22T19:12:25Z</time>
      </trkpt>
      <trkpt lat="35.140375" lon="-5.272500">
        <ele>539.708</ele>
        <time>2019-10-22T19:13:24Z</time>
      </trkpt>
      <trkpt lat="35.140665" lon="-5.272534">
        <ele>543.160</ele>
        <time>2019-10-22T19:13:36Z</time>
      </trkpt>
      <trkpt lat="35.140839" lon="-5.273247">
        <ele>543.478</ele>
        <time>2019-10-22T19:13:56Z</time>
      </trkpt>
      <trkpt lat="35.141108" lon="-5.273562">
        <ele>540.783</ele>
        <time>2019-10-22T19:14:59Z</time>
      </trkpt>
      <trkpt lat="35.142477" lon="-5.273177">
        <ele>546.660</ele>
        <time>2019-10-22T19:15:52Z</time>
      </trkpt>
      <trkpt lat="35.143123" lon="-5.272168">
        <ele>559.889</ele>
        <time>2019-10-22T19:16:41Z</time>
      </trkpt>
      <trkpt lat="35.143772" lon="-5.272443">
        <ele>558.528</ele>
        <time>2019-10-22T19:17:07Z</time>
      </trkpt>
      <trkpt lat="35.144764" lon="-5.272547">
        <ele>557.382</ele>
        <time>2019-10-22T19:17:48Z</time>
      </trkpt>
      <trkpt lat="35.146005" lon="-5.272206">
        <ele>561.437</ele>
        <time>2019-10-22T19:18:24Z</time>
      </trkpt>
      <trkpt lat="35.147219" lon="-5.272828">
        <ele>557.047</ele>
        <time>2019-10-22T19:18:54Z</time>
      </trkpt>
      <trkpt lat="35.147580" lon="-5.272657">
        <ele>555.229</ele>
        <time>2019-10-22T19:19:02Z</time>
      </trkpt>
      <trkpt lat="35.147895" lon="-5.271950">
        <ele>560.521</ele>
        <time>2019-10-22T19:19:16Z</time>
      </trkpt>
      <trkpt lat="35.148208" lon="-5.271804">
        <ele>562.608</ele>
        <time>2019-10-22T19:19:24Z</time>
      </trkpt>
      <trkpt lat="35.148572" lon="-5.272040">
        <ele>566.588</ele>
        <time>2019-10-22T19:19:37Z</time>
      </trkpt>
      <trkpt lat="35.149069" lon="-5.273100">
        <ele>572.466</ele>
        <time>2019-10-22T19:20:24Z</time>
      </trkpt>
      <trkpt lat="35.149345" lon="-5.273187">
        <ele>574.721</ele>
        <time>2019-10-22T19:20:39Z</time>
      </trkpt>
      <trkpt lat="35.150820" lon="-5.271800">
        <ele>589.628</ele>
        <time>2019-10-22T19:22:30Z</time>
      </trkpt>
      <trkpt lat="35.152030" lon="-5.270192">
        <ele>597.487</ele>
        <time>2019-10-22T19:24:12Z</time>
      </trkpt>
      <trkpt lat="35.152690" lon="-5.267945">
        <ele>613.956</ele>
        <time>2019-10-22T19:26:56Z</time>
      </trkpt>
      <trkpt lat="35.153257" lon="-5.268076">
        <ele>617.180</ele>
        <time>2019-10-22T19:27:30Z</time>
      </trkpt>
      <trkpt lat="35.153345" lon="-5.268318">
        <ele>614.045</ele>
        <time>2019-10-22T19:27:46Z</time>
      </trkpt>
      <trkpt lat="35.153549" lon="-5.268195">
        <ele>612.521</ele>
        <time>2019-10-22T19:30:42Z</time>
      </trkpt>
      <trkpt lat="35.153514" lon="-5.268411">
        <ele>610.841</ele>
        <time>2019-10-22T19:31:17Z</time>
      </trkpt>
      <trkpt lat="35.153317" lon="-5.268325">
        <ele>613.905</ele>
        <time>2019-10-22T19:32:19Z</time>
      </trkpt>
      <trkpt lat="35.153634" lon="-5.268372">
        <ele>608.908</ele>
        <time>2019-10-22T19:34:40Z</time>
      </trkpt>
      <trkpt lat="35.153277" lon="-5.268374">
        <ele>612.916</ele>
        <time>2019-10-22T19:35:19Z</time>
      </trkpt>
      <trkpt lat="35.153427" lon="-5.268098">
        <ele>615.824</ele>
        <time>2019-10-22T19:36:03Z</time>
      </trkpt>
      <trkpt lat="35.153452" lon="-5.268247">
        <ele>613.449</ele>
        <time>2019-10-22T19:41:13Z</time>
      </trkpt>
      <trkpt lat="35.166477" lon="-5.264777">
        <ele>576.716</ele>
        <time>2019-10-22T20:19:50Z</time>
      </trkpt>
      <trkpt lat="35.166653" lon="-5.264751">
        <ele>578.032</ele>
        <time>2019-10-24T10:43:38Z</time>
      </trkpt>
      <trkpt lat="35.166669" lon="-5.265120">
        <ele>578.092</ele>
        <time>2019-10-24T10:43:48Z</time>
      </trkpt>
      <trkpt lat="35.166502" lon="-5.264684">
        <ele>578.011</ele>
        <time>2019-10-24T10:44:57Z</time>
      </trkpt>
      <trkpt lat="35.166401" lon="-5.265321">
        <ele>580.208</ele>
        <time>2019-10-24T10:45:45Z</time>
      </trkpt>
      <trkpt lat="35.167121" lon="-5.265934">
        <ele>572.977</ele>
        <time>2019-10-24T10:47:26Z</time>
      </trkpt>
      <trkpt lat="35.167913" lon="-5.268650">
        <ele>576.215</ele>
        <time>2019-10-24T10:48:47Z</time>
      </trkpt>
      <trkpt lat="35.168376" lon="-5.268633">
        <ele>572.090</ele>
        <time>2019-10-24T10:49:09Z</time>
      </trkpt>
      <trkpt lat="35.168488" lon="-5.268125">
        <ele>573.022</ele>
        <time>2019-10-24T10:49:23Z</time>
      </trkpt>
      <trkpt lat="35.168811" lon="-5.267915">
        <ele>575.569</ele>
        <time>2019-10-24T10:49:38Z</time>
      </trkpt>
      <trkpt lat="35.168537" lon="-5.267933">
        <ele>573.737</ele>
        <time>2019-10-24T10:50:09Z</time>
      </trkpt>
      <trkpt lat="35.168266" lon="-5.265493">
        <ele>575.988</ele>
        <time>2019-10-24T11:03:13Z</time>
      </trkpt>
      <trkpt lat="35.168340" lon="-5.265645">
        <ele>579.591</ele>
        <time>2019-10-24T11:08:13Z</time>
      </trkpt>
      <trkpt lat="35.168127" lon="-5.265265">
        <ele>582.854</ele>
        <time>2019-10-24T11:09:07Z</time>
      </trkpt>
      <trkpt lat="35.168232" lon="-5.264930">
        <ele>581.156</ele>
        <time>2019-10-24T11:09:24Z</time>
      </trkpt>
      <trkpt lat="35.168704" lon="-5.264897">
        <ele>587.411</ele>
        <time>2019-10-24T11:10:36Z</time>
      </trkpt>
      <trkpt lat="35.168299" lon="-5.264780">
        <ele>593.108</ele>
        <time>2019-10-24T11:13:51Z</time>
      </trkpt>
      <trkpt lat="35.168240" lon="-5.263775">
        <ele>597.699</ele>
        <time>2019-10-24T11:16:27Z</time>
      </trkpt>
      <trkpt lat="35.168335" lon="-5.264440">
        <ele>595.957</ele>
        <time>2019-10-24T11:22:14Z</time>
      </trkpt>
      <trkpt lat="35.168168" lon="-5.265277">
        <ele>590.872</ele>
        <time>2019-10-24T11:23:01Z</time>
      </trkpt>
      <trkpt lat="35.168729" lon="-5.267879">
        <ele>575.434</ele>
        <time>2019-10-24T11:23:56Z</time>
      </trkpt>
      <trkpt lat="35.169163" lon="-5.268375">
        <ele>574.321</ele>
        <time>2019-10-24T11:24:13Z</time>
      </trkpt>
      <trkpt lat="35.169989" lon="-5.268528">
        <ele>573.839</ele>
        <time>2019-10-24T11:24:34Z</time>
      </trkpt>
      <trkpt lat="35.170665" lon="-5.269768">
        <ele>574.940</ele>
        <time>2019-10-24T11:25:00Z</time>
      </trkpt>
      <trkpt lat="35.170471" lon="-5.272831">
        <ele>558.853</ele>
        <time>2019-10-24T11:26:49Z</time>
      </trkpt>
      <trkpt lat="35.171242" lon="-5.273201">
        <ele>558.572</ele>
        <time>2019-10-24T11:27:42Z</time>
      </trkpt>
      <trkpt lat="35.172603" lon="-5.272999">
        <ele>559.713</ele>
        <time>2019-10-24T11:29:34Z</time>
      </trkpt>
      <trkpt lat="35.173346" lon="-5.273304">
        <ele>556.714</ele>
        <time>2019-10-24T11:29:55Z</time>
      </trkpt>
      <trkpt lat="35.172655" lon="-5.274424">
        <ele>555.608</ele>
        <time>2019-10-24T11:30:31Z</time>
      </trkpt>
      <trkpt lat="35.172566" lon="-5.276609">
        <ele>553.131</ele>
        <time>2019-10-24T11:31:18Z</time>
      </trkpt>
      <trkpt lat="35.175347" lon="-5.280052">
        <ele>544.339</ele>
        <time>2019-10-24T11:32:25Z</time>
      </trkpt>
      <trkpt lat="35.175220" lon="-5.282725">
        <ele>536.654</ele>
        <time>2019-10-24T11:33:02Z</time>
      </trkpt>
      <trkpt lat="35.176347" lon="-5.283512">
        <ele>529.766</ele>
        <time>2019-10-24T11:38:15Z</time>
      </trkpt>
      <trkpt lat="35.179230" lon="-5.283619">
        <ele>522.243</ele>
        <time>2019-10-24T11:39:02Z</time>
      </trkpt>
      <trkpt lat="35.180775" lon="-5.282976">
        <ele>523.331</ele>
        <time>2019-10-24T11:39:34Z</time>
      </trkpt>
      <trkpt lat="35.182028" lon="-5.283943">
        <ele>521.322</ele>
        <time>2019-10-24T11:39:58Z</time>
      </trkpt>
      <trkpt lat="35.182184" lon="-5.284764">
        <ele>521.455</ele>
        <time>2019-10-24T11:40:15Z</time>
      </trkpt>
      <trkpt lat="35.182029" lon="-5.284979">
        <ele>521.356</ele>
        <time>2019-10-24T11:40:24Z</time>
      </trkpt>
      <trkpt lat="35.181872" lon="-5.284723">
        <ele>520.359</ele>
        <time>2019-10-24T11:40:36Z</time>
      </trkpt>
      <trkpt lat="35.182140" lon="-5.284542">
        <ele>521.614</ele>
        <time>2019-10-24T11:40:48Z</time>
      </trkpt>
      <trkpt lat="35.182624" lon="-5.285029">
        <ele>519.608</ele>
        <time>2019-10-24T11:40:58Z</time>
      </trkpt>
      <trkpt lat="35.184000" lon="-5.284262">
        <ele>509.329</ele>
        <time>2019-10-24T11:41:21Z</time>
      </trkpt>
      <trkpt lat="35.185140" lon="-5.285557">
        <ele>498.167</ele>
        <time>2019-10-24T11:41:49Z</time>
      </trkpt>
      <trkpt lat="35.186805" lon="-5.285122">
        <ele>491.222</ele>
        <time>2019-10-24T11:46:05Z</time>
      </trkpt>
      <trkpt lat="35.188992" lon="-5.285873">
        <ele>479.824</ele>
        <time>2019-10-24T11:46:29Z</time>
      </trkpt>
      <trkpt lat="35.190738" lon="-5.287483">
        <ele>464.081</ele>
        <time>2019-10-24T11:46:51Z</time>
      </trkpt>
      <trkpt lat="35.191023" lon="-5.288974">
        <ele>450.489</ele>
        <time>2019-10-24T11:47:10Z</time>
      </trkpt>
      <trkpt lat="35.191508" lon="-5.289430">
        <ele>448.790</ele>
        <time>2019-10-24T11:51:10Z</time>
      </trkpt>
      <trkpt lat="35.192021" lon="-5.291128">
        <ele>438.953</ele>
        <time>2019-10-24T11:51:25Z</time>
      </trkpt>
      <trkpt lat="35.191750" lon="-5.292026">
        <ele>427.354</ele>
        <time>2019-10-24T11:51:35Z</time>
      </trkpt>
      <trkpt lat="35.192105" lon="-5.293264">
        <ele>413.756</ele>
        <time>2019-10-24T11:51:47Z</time>
      </trkpt>
      <trkpt lat="35.192492" lon="-5.293750">
        <ele>408.411</ele>
        <time>2019-10-24T11:51:53Z</time>
      </trkpt>
      <trkpt lat="35.192220" lon="-5.295110">
        <ele>394.708</ele>
        <time>2019-10-24T11:52:06Z</time>
      </trkpt>
      <trkpt lat="35.192798" lon="-5.296351">
        <ele>379.859</ele>
        <time>2019-10-24T11:52:19Z</time>
      </trkpt>
      <trkpt lat="35.191993" lon="-5.299200">
        <ele>355.087</ele>
        <time>2019-10-24T11:52:41Z</time>
      </trkpt>
      <trkpt lat="35.191358" lon="-5.299695">
        <ele>346.162</ele>
        <time>2019-10-24T11:53:29Z</time>
      </trkpt>
      <trkpt lat="35.190606" lon="-5.302951">
        <ele>326.584</ele>
        <time>2019-10-24T11:54:03Z</time>
      </trkpt>
      <trkpt lat="35.191364" lon="-5.303899">
        <ele>317.231</ele>
        <time>2019-10-24T11:54:16Z</time>
      </trkpt>
      <trkpt lat="35.192369" lon="-5.303687">
        <ele>308.479</ele>
        <time>2019-10-24T11:54:27Z</time>
      </trkpt>
      <trkpt lat="35.193458" lon="-5.305264">
        <ele>293.950</ele>
        <time>2019-10-24T11:54:41Z</time>
      </trkpt>
      <trkpt lat="35.194126" lon="-5.306969">
        <ele>276.323</ele>
        <time>2019-10-24T11:54:56Z</time>
      </trkpt>
      <trkpt lat="35.193521" lon="-5.308146">
        <ele>270.925</ele>
        <time>2019-10-24T11:55:11Z</time>
      </trkpt>
      <trkpt lat="35.193469" lon="-5.308683">
        <ele>269.126</ele>
        <time>2019-10-24T11:55:18Z</time>
      </trkpt>
      <trkpt lat="35.194684" lon="-5.310314">
        <ele>267.908</ele>
        <time>2019-10-24T11:55:46Z</time>
      </trkpt>
      <trkpt lat="35.197455" lon="-5.311466">
        <ele>277.808</ele>
        <time>2019-10-24T11:56:50Z</time>
      </trkpt>
      <trkpt lat="35.199641" lon="-5.311956">
        <ele>277.316</ele>
        <time>2019-10-24T11:57:38Z</time>
      </trkpt>
      <trkpt lat="35.201561" lon="-5.312970">
        <ele>274.254</ele>
        <time>2019-10-24T11:58:16Z</time>
      </trkpt>
      <trkpt lat="35.206859" lon="-5.317532">
        <ele>272.559</ele>
        <time>2019-10-24T12:00:13Z</time>
      </trkpt>
      <trkpt lat="35.207830" lon="-5.317967">
        <ele>275.741</ele>
        <time>2019-10-24T12:00:34Z</time>
      </trkpt>
      <trkpt lat="35.210688" lon="-5.316881">
        <ele>267.838</ele>
        <time>2019-10-24T12:01:25Z</time>
      </trkpt>
      <trkpt lat="35.218039" lon="-5.315549">
        <ele>267.326</ele>
        <time>2019-10-24T12:03:50Z</time>
      </trkpt>
      <trkpt lat="35.219648" lon="-5.314992">
        <ele>270.817</ele>
        <time>2019-10-24T12:04:31Z</time>
      </trkpt>
      <trkpt lat="35.220511" lon="-5.315033">
        <ele>273.560</ele>
        <time>2019-10-24T12:05:20Z</time>
      </trkpt>
      <trkpt lat="35.223703" lon="-5.321179">
        <ele>325.467</ele>
        <time>2019-10-24T12:14:33Z</time>
      </trkpt>
      <trkpt lat="35.224453" lon="-5.322035">
        <ele>327.181</ele>
        <time>2019-10-24T12:14:59Z</time>
      </trkpt>
      <trkpt lat="35.229384" lon="-5.322391">
        <ele>331.619</ele>
        <time>2019-10-24T12:16:46Z</time>
      </trkpt>
      <trkpt lat="35.232833" lon="-5.324563">
        <ele>338.208</ele>
        <time>2019-10-24T12:18:23Z</time>
      </trkpt>
      <trkpt lat="35.234607" lon="-5.324032">
        <ele>338.440</ele>
        <time>2019-10-24T12:19:16Z</time>
      </trkpt>
      <trkpt lat="35.235982" lon="-5.323956">
        <ele>338.918</ele>
        <time>2019-10-24T12:19:46Z</time>
      </trkpt>
      <trkpt lat="35.238923" lon="-5.324604">
        <ele>345.043</ele>
        <time>2019-10-24T12:20:56Z</time>
      </trkpt>
      <trkpt lat="35.240088" lon="-5.325180">
        <ele>347.245</ele>
        <time>2019-10-24T12:21:25Z</time>
      </trkpt>
      <trkpt lat="35.241347" lon="-5.325364">
        <ele>346.952</ele>
        <time>2019-10-24T12:21:58Z</time>
      </trkpt>
      <trkpt lat="35.242944" lon="-5.326472">
        <ele>348.330</ele>
        <time>2019-10-24T12:22:49Z</time>
      </trkpt>
      <trkpt lat="35.244592" lon="-5.330196">
        <ele>353.911</ele>
        <time>2019-10-24T12:24:25Z</time>
      </trkpt>
      <trkpt lat="35.246201" lon="-5.330847">
        <ele>357.044</ele>
        <time>2019-10-24T12:25:14Z</time>
      </trkpt>
      <trkpt lat="35.247119" lon="-5.332264">
        <ele>357.334</ele>
        <time>2019-10-24T12:25:54Z</time>
      </trkpt>
      <trkpt lat="35.249283" lon="-5.333803">
        <ele>360.955</ele>
        <time>2019-10-24T12:27:04Z</time>
      </trkpt>
      <trkpt lat="35.257044" lon="-5.342546">
        <ele>374.710</ele>
        <time>2019-10-24T12:32:04Z</time>
      </trkpt>
      <trkpt lat="35.256865" lon="-5.343458">
        <ele>371.608</ele>
        <time>2019-10-24T12:37:39Z</time>
      </trkpt>
      <trkpt lat="35.257044" lon="-5.342519">
        <ele>372.427</ele>
        <time>2019-10-24T12:38:06Z</time>
      </trkpt>
      <trkpt lat="35.255857" lon="-5.341071">
        <ele>370.645</ele>
        <time>2019-10-24T12:38:47Z</time>
      </trkpt>
      <trkpt lat="35.255979" lon="-5.340874">
        <ele>371.460</ele>
        <time>2019-10-24T12:38:53Z</time>
      </trkpt>
      <trkpt lat="35.257573" lon="-5.341140">
        <ele>383.472</ele>
        <time>2019-10-24T12:40:00Z</time>
      </trkpt>
      <trkpt lat="35.259590" lon="-5.342199">
        <ele>401.789</ele>
        <time>2019-10-24T12:42:12Z</time>
      </trkpt>
      <trkpt lat="35.259912" lon="-5.342712">
        <ele>401.147</ele>
        <time>2019-10-24T12:42:42Z</time>
      </trkpt>
      <trkpt lat="35.260113" lon="-5.344464">
        <ele>409.818</ele>
        <time>2019-10-24T12:44:14Z</time>
      </trkpt>
      <trkpt lat="35.260477" lon="-5.345192">
        <ele>420.421</ele>
        <time>2019-10-24T12:45:00Z</time>
      </trkpt>
      <trkpt lat="35.261982" lon="-5.346477">
        <ele>431.352</ele>
        <time>2019-10-24T12:46:45Z</time>
      </trkpt>
      <trkpt lat="35.263477" lon="-5.346449">
        <ele>432.953</ele>
        <time>2019-10-24T12:47:35Z</time>
      </trkpt>
      <trkpt lat="35.264017" lon="-5.346654">
        <ele>431.608</ele>
        <time>2019-10-24T12:47:53Z</time>
      </trkpt>
      <trkpt lat="35.264543" lon="-5.347218">
        <ele>430.408</ele>
        <time>2019-10-24T12:48:15Z</time>
      </trkpt>
      <trkpt lat="35.264914" lon="-5.348148">
        <ele>428.999</ele>
        <time>2019-10-24T12:49:12Z</time>
      </trkpt>
      <trkpt lat="35.265578" lon="-5.348879">
        <ele>428.787</ele>
        <time>2019-10-24T12:49:40Z</time>
      </trkpt>
      <trkpt lat="35.267381" lon="-5.348774">
        <ele>436.522</ele>
        <time>2019-10-24T12:50:52Z</time>
      </trkpt>
      <trkpt lat="35.269004" lon="-5.350570">
        <ele>443.254</ele>
        <time>2019-10-24T12:52:19Z</time>
      </trkpt>
      <trkpt lat="35.269322" lon="-5.350670">
        <ele>446.031</ele>
        <time>2019-10-24T12:52:33Z</time>
      </trkpt>
      <trkpt lat="35.270661" lon="-5.350054">
        <ele>448.689</ele>
        <time>2019-10-24T12:53:33Z</time>
      </trkpt>
      <trkpt lat="35.271670" lon="-5.350418">
        <ele>455.530</ele>
        <time>2019-10-24T12:54:30Z</time>
      </trkpt>
      <trkpt lat="35.272163" lon="-5.350356">
        <ele>459.783</ele>
        <time>2019-10-24T12:54:56Z</time>
      </trkpt>
      <trkpt lat="35.273816" lon="-5.348117">
        <ele>474.412</ele>
        <time>2019-10-24T12:57:23Z</time>
      </trkpt>
      <trkpt lat="35.275606" lon="-5.348115">
        <ele>489.232</ele>
        <time>2019-10-24T12:59:09Z</time>
      </trkpt>
      <trkpt lat="35.275962" lon="-5.348473">
        <ele>495.305</ele>
        <time>2019-10-24T12:59:36Z</time>
      </trkpt>
      <trkpt lat="35.275956" lon="-5.349308">
        <ele>504.008</ele>
        <time>2019-10-24T13:00:14Z</time>
      </trkpt>
      <trkpt lat="35.276207" lon="-5.349782">
        <ele>503.325</ele>
        <time>2019-10-24T13:00:48Z</time>
      </trkpt>
      <trkpt lat="35.278095" lon="-5.351194">
        <ele>515.173</ele>
        <time>2019-10-24T13:02:50Z</time>
      </trkpt>
      <trkpt lat="35.277716" lon="-5.351501">
        <ele>509.538</ele>
        <time>2019-10-24T13:05:15Z</time>
      </trkpt>
      <trkpt lat="35.278021" lon="-5.351191">
        <ele>513.090</ele>
        <time>2019-10-24T13:09:17Z</time>
      </trkpt>
      <trkpt lat="35.279413" lon="-5.352300">
        <ele>519.567</ele>
        <time>2019-10-24T13:10:46Z</time>
      </trkpt>
      <trkpt lat="35.280800" lon="-5.352097">
        <ele>528.995</ele>
        <time>2019-10-24T13:11:47Z</time>
      </trkpt>
      <trkpt lat="35.283385" lon="-5.349627">
        <ele>533.126</ele>
        <time>2019-10-24T13:14:33Z</time>
      </trkpt>
      <trkpt lat="35.284459" lon="-5.349496">
        <ele>544.089</ele>
        <time>2019-10-24T13:15:22Z</time>
      </trkpt>
      <trkpt lat="35.285471" lon="-5.348673">
        <ele>549.599</ele>
        <time>2019-10-24T13:16:27Z</time>
      </trkpt>
      <trkpt lat="35.287535" lon="-5.348636">
        <ele>566.407</ele>
        <time>2019-10-24T13:18:10Z</time>
      </trkpt>
      <trkpt lat="35.289049" lon="-5.349697">
        <ele>571.127</ele>
        <time>2019-10-24T13:19:39Z</time>
      </trkpt>
      <trkpt lat="35.291823" lon="-5.348985">
        <ele>592.908</ele>
        <time>2019-10-24T13:22:12Z</time>
      </trkpt>
      <trkpt lat="35.293211" lon="-5.349289">
        <ele>599.013</ele>
        <time>2019-10-24T13:23:27Z</time>
      </trkpt>
      <trkpt lat="35.294084" lon="-5.350260">
        <ele>595.821</ele>
        <time>2019-10-24T13:24:29Z</time>
      </trkpt>
      <trkpt lat="35.294978" lon="-5.350837">
        <ele>603.116</ele>
        <time>2019-10-24T13:25:17Z</time>
      </trkpt>
      <trkpt lat="35.296830" lon="-5.350670">
        <ele>617.668</ele>
        <time>2019-10-24T13:26:45Z</time>
      </trkpt>
      <trkpt lat="35.297766" lon="-5.351093">
        <ele>617.235</ele>
        <time>2019-10-24T13:27:32Z</time>
      </trkpt>
      <trkpt lat="35.301554" lon="-5.348864">
        <ele>616.143</ele>
        <time>2019-10-24T13:37:27Z</time>
      </trkpt>
      <trkpt lat="35.302038" lon="-5.348797">
        <ele>614.084</ele>
        <time>2019-10-24T13:37:38Z</time>
      </trkpt>
      <trkpt lat="35.304804" lon="-5.349782">
        <ele>610.567</ele>
        <time>2019-10-24T13:38:36Z</time>
      </trkpt>
      <trkpt lat="35.305882" lon="-5.350618">
        <ele>607.466</ele>
        <time>2019-10-24T13:39:03Z</time>
      </trkpt>
      <trkpt lat="35.307093" lon="-5.351152">
        <ele>608.129</ele>
        <time>2019-10-24T13:39:31Z</time>
      </trkpt>
      <trkpt lat="35.307952" lon="-5.352020">
        <ele>604.321</ele>
        <time>2019-10-24T13:39:56Z</time>
      </trkpt>
      <trkpt lat="35.309909" lon="-5.351639">
        <ele>612.408</ele>
        <time>2019-10-24T13:40:50Z</time>
      </trkpt>
      <trkpt lat="35.311453" lon="-5.353546">
        <ele>619.920</ele>
        <time>2019-10-24T13:42:12Z</time>
      </trkpt>
      <trkpt lat="35.313291" lon="-5.354508">
        <ele>636.578</ele>
        <time>2019-10-24T13:43:56Z</time>
      </trkpt>
      <trkpt lat="35.318696" lon="-5.356621">
        <ele>645.073</ele>
        <time>2019-10-24T13:47:34Z</time>
      </trkpt>
      <trkpt lat="35.318636" lon="-5.356956">
        <ele>645.015</ele>
        <time>2019-10-24T13:47:50Z</time>
      </trkpt>
      <trkpt lat="35.318782" lon="-5.356723">
        <ele>648.532</ele>
        <time>2019-10-24T13:54:18Z</time>
      </trkpt>
      <trkpt lat="35.324362" lon="-5.358796">
        <ele>645.160</ele>
        <time>2019-10-24T13:56:26Z</time>
      </trkpt>
      <trkpt lat="35.336334" lon="-5.361024">
        <ele>673.411</ele>
        <time>2019-10-24T14:04:42Z</time>
      </trkpt>
      <trkpt lat="35.337727" lon="-5.362753">
        <ele>683.834</ele>
        <time>2019-10-24T14:06:14Z</time>
      </trkpt>
      <trkpt lat="35.338357" lon="-5.363174">
        <ele>686.989</ele>
        <time>2019-10-24T14:06:43Z</time>
      </trkpt>
      <trkpt lat="35.338243" lon="-5.362650">
        <ele>695.306</ele>
        <time>2019-10-24T14:07:10Z</time>
      </trkpt>
      <trkpt lat="35.338440" lon="-5.362470">
        <ele>694.826</ele>
        <time>2019-10-24T14:13:17Z</time>
      </trkpt>
      <trkpt lat="35.338246" lon="-5.362673">
        <ele>697.908</ele>
        <time>2019-10-24T14:14:56Z</time>
      </trkpt>
      <trkpt lat="35.338480" lon="-5.363254">
        <ele>695.962</ele>
        <time>2019-10-24T14:15:12Z</time>
      </trkpt>
      <trkpt lat="35.340462" lon="-5.364974">
        <ele>683.460</ele>
        <time>2019-10-24T14:15:53Z</time>
      </trkpt>
      <trkpt lat="35.341862" lon="-5.365645">
        <ele>674.475</ele>
        <time>2019-10-24T14:16:07Z</time>
      </trkpt>
      <trkpt lat="35.342002" lon="-5.366068">
        <ele>672.867</ele>
        <time>2019-10-24T14:16:11Z</time>
      </trkpt>
      <trkpt lat="35.341859" lon="-5.368478">
        <ele>661.274</ele>
        <time>2019-10-24T14:16:30Z</time>
      </trkpt>
      <trkpt lat="35.342024" lon="-5.368921">
        <ele>658.962</ele>
        <time>2019-10-24T14:16:35Z</time>
      </trkpt>
      <trkpt lat="35.342936" lon="-5.369326">
        <ele>650.763</ele>
        <time>2019-10-24T14:16:49Z</time>
      </trkpt>
      <trkpt lat="35.346226" lon="-5.367304">
        <ele>636.786</ele>
        <time>2019-10-24T14:17:32Z</time>
      </trkpt>
      <trkpt lat="35.347538" lon="-5.367663">
        <ele>632.291</ele>
        <time>2019-10-24T14:17:48Z</time>
      </trkpt>
      <trkpt lat="35.348291" lon="-5.366806">
        <ele>631.781</ele>
        <time>2019-10-24T14:18:05Z</time>
      </trkpt>
      <trkpt lat="35.350121" lon="-5.366513">
        <ele>630.919</ele>
        <time>2019-10-24T14:21:54Z</time>
      </trkpt>
      <trkpt lat="35.350517" lon="-5.366963">
        <ele>629.008</ele>
        <time>2019-10-24T14:22:06Z</time>
      </trkpt>
      <trkpt lat="35.350264" lon="-5.368300">
        <ele>624.943</ele>
        <time>2019-10-24T14:22:21Z</time>
      </trkpt>
      <trkpt lat="35.350491" lon="-5.368882">
        <ele>620.461</ele>
        <time>2019-10-24T14:22:27Z</time>
      </trkpt>
      <trkpt lat="35.352249" lon="-5.369923">
        <ele>606.636</ele>
        <time>2019-10-24T14:22:46Z</time>
      </trkpt>
      <trkpt lat="35.354071" lon="-5.370139">
        <ele>591.628</ele>
        <time>2019-10-24T14:23:03Z</time>
      </trkpt>
      <trkpt lat="35.355114" lon="-5.370786">
        <ele>584.075</ele>
        <time>2019-10-24T14:23:14Z</time>
      </trkpt>
      <trkpt lat="35.356348" lon="-5.370933">
        <ele>577.033</ele>
        <time>2019-10-24T14:23:26Z</time>
      </trkpt>
      <trkpt lat="35.357970" lon="-5.372423">
        <ele>569.774</ele>
        <time>2019-10-24T14:23:51Z</time>
      </trkpt>
      <trkpt lat="35.359327" lon="-5.372979">
        <ele>565.727</ele>
        <time>2019-10-24T14:24:09Z</time>
      </trkpt>
      <trkpt lat="35.361088" lon="-5.372393">
        <ele>559.868</ele>
        <time>2019-10-24T14:24:33Z</time>
      </trkpt>
      <trkpt lat="35.364034" lon="-5.370357">
        <ele>551.242</ele>
        <time>2019-10-24T14:25:22Z</time>
      </trkpt>
      <trkpt lat="35.366455" lon="-5.371510">
        <ele>544.526</ele>
        <time>2019-10-24T14:31:23Z</time>
      </trkpt>
      <trkpt lat="35.366881" lon="-5.373080">
        <ele>542.508</ele>
        <time>2019-10-24T14:31:43Z</time>
      </trkpt>
      <trkpt lat="35.367242" lon="-5.373406">
        <ele>540.990</ele>
        <time>2019-10-24T14:31:49Z</time>
      </trkpt>
      <trkpt lat="35.368301" lon="-5.373451">
        <ele>537.128</ele>
        <time>2019-10-24T14:32:04Z</time>
      </trkpt>
      <trkpt lat="35.369202" lon="-5.372824">
        <ele>531.343</ele>
        <time>2019-10-24T14:32:16Z</time>
      </trkpt>
      <trkpt lat="35.369674" lon="-5.372921">
        <ele>529.375</ele>
        <time>2019-10-24T14:32:21Z</time>
      </trkpt>
      <trkpt lat="35.370294" lon="-5.374381">
        <ele>524.042</ele>
        <time>2019-10-24T14:32:35Z</time>
      </trkpt>
      <trkpt lat="35.370584" lon="-5.374629">
        <ele>521.630</ele>
        <time>2019-10-24T14:32:39Z</time>
      </trkpt>
      <trkpt lat="35.371011" lon="-5.374342">
        <ele>519.581</ele>
        <time>2019-10-24T14:32:44Z</time>
      </trkpt>
      <trkpt lat="35.371414" lon="-5.373131">
        <ele>518.674</ele>
        <time>2019-10-24T14:32:59Z</time>
      </trkpt>
      <trkpt lat="35.373130" lon="-5.372292">
        <ele>518.743</ele>
        <time>2019-10-24T14:33:27Z</time>
      </trkpt>
      <trkpt lat="35.374254" lon="-5.372439">
        <ele>519.864</ele>
        <time>2019-10-24T14:33:46Z</time>
      </trkpt>
      <trkpt lat="35.376148" lon="-5.374139">
        <ele>514.810</ele>
        <time>2019-10-24T14:34:20Z</time>
      </trkpt>
      <trkpt lat="35.377198" lon="-5.374599">
        <ele>514.108</ele>
        <time>2019-10-24T14:34:38Z</time>
      </trkpt>
      <trkpt lat="35.377658" lon="-5.374421">
        <ele>513.978</ele>
        <time>2019-10-24T14:34:45Z</time>
      </trkpt>
      <trkpt lat="35.379129" lon="-5.373058">
        <ele>507.176</ele>
        <time>2019-10-24T14:35:06Z</time>
      </trkpt>
      <trkpt lat="35.380683" lon="-5.372053">
        <ele>497.541</ele>
        <time>2019-10-24T14:35:24Z</time>
      </trkpt>
      <trkpt lat="35.381075" lon="-5.372250">
        <ele>495.193</ele>
        <time>2019-10-24T14:35:29Z</time>
      </trkpt>
      <trkpt lat="35.381902" lon="-5.373500">
        <ele>489.810</ele>
        <time>2019-10-24T14:35:47Z</time>
      </trkpt>
      <trkpt lat="35.383379" lon="-5.373206">
        <ele>488.658</ele>
        <time>2019-10-24T14:36:12Z</time>
      </trkpt>
      <trkpt lat="35.386175" lon="-5.375038">
        <ele>479.919</ele>
        <time>2019-10-24T14:36:51Z</time>
      </trkpt>
      <trkpt lat="35.388652" lon="-5.373103">
        <ele>471.442</ele>
        <time>2019-10-24T14:38:07Z</time>
      </trkpt>
      <trkpt lat="35.395263" lon="-5.371888">
        <ele>427.315</ele>
        <time>2019-10-24T14:39:24Z</time>
      </trkpt>
      <trkpt lat="35.398070" lon="-5.370518">
        <ele>410.465</ele>
        <time>2019-10-24T14:39:54Z</time>
      </trkpt>
      <trkpt lat="35.398548" lon="-5.370878">
        <ele>405.711</ele>
        <time>2019-10-24T14:39:59Z</time>
      </trkpt>
      <trkpt lat="35.400645" lon="-5.374148">
        <ele>380.108</ele>
        <time>2019-10-24T14:40:28Z</time>
      </trkpt>
      <trkpt lat="35.402601" lon="-5.374850">
        <ele>363.395</ele>
        <time>2019-10-24T14:40:47Z</time>
      </trkpt>
      <trkpt lat="35.403514" lon="-5.375709">
        <ele>356.373</ele>
        <time>2019-10-24T14:40:58Z</time>
      </trkpt>
      <trkpt lat="35.405001" lon="-5.376145">
        <ele>347.878</ele>
        <time>2019-10-24T14:41:12Z</time>
      </trkpt>
      <trkpt lat="35.406825" lon="-5.376145">
        <ele>337.140</ele>
        <time>2019-10-24T14:41:28Z</time>
      </trkpt>
      <trkpt lat="35.407313" lon="-5.376353">
        <ele>332.847</ele>
        <time>2019-10-24T14:41:33Z</time>
      </trkpt>
      <trkpt lat="35.408949" lon="-5.378524">
        <ele>316.855</ele>
        <time>2019-10-24T14:41:56Z</time>
      </trkpt>
      <trkpt lat="35.409034" lon="-5.379025">
        <ele>313.546</ele>
        <time>2019-10-24T14:42:00Z</time>
      </trkpt>
      <trkpt lat="35.408768" lon="-5.380207">
        <ele>307.779</ele>
        <time>2019-10-24T14:42:09Z</time>
      </trkpt>
      <trkpt lat="35.408933" lon="-5.380654">
        <ele>306.054</ele>
        <time>2019-10-24T14:42:13Z</time>
      </trkpt>
      <trkpt lat="35.411089" lon="-5.381227">
        <ele>298.656</ele>
        <time>2019-10-24T14:42:41Z</time>
      </trkpt>
      <trkpt lat="35.412833" lon="-5.383302">
        <ele>292.511</ele>
        <time>2019-10-24T14:43:12Z</time>
      </trkpt>
      <trkpt lat="35.418384" lon="-5.387750">
        <ele>272.808</ele>
        <time>2019-10-24T14:44:45Z</time>
      </trkpt>
      <trkpt lat="35.419260" lon="-5.388682">
        <ele>271.979</ele>
        <time>2019-10-24T14:45:02Z</time>
      </trkpt>
      <trkpt lat="35.420341" lon="-5.391280">
        <ele>274.317</ele>
        <time>2019-10-24T14:45:43Z</time>
      </trkpt>
      <trkpt lat="35.420948" lon="-5.391748">
        <ele>275.892</ele>
        <time>2019-10-24T14:46:00Z</time>
      </trkpt>
      <trkpt lat="35.426932" lon="-5.392784">
        <ele>264.684</ele>
        <time>2019-10-24T14:47:44Z</time>
      </trkpt>
      <trkpt lat="35.428632" lon="-5.393302">
        <ele>256.881</ele>
        <time>2019-10-24T14:48:09Z</time>
      </trkpt>
      <trkpt lat="35.433264" lon="-5.390802">
        <ele>256.789</ele>
        <time>2019-10-24T14:49:56Z</time>
      </trkpt>
      <trkpt lat="35.434175" lon="-5.390763">
        <ele>255.660</ele>
        <time>2019-10-24T14:50:20Z</time>
      </trkpt>
      <trkpt lat="35.435014" lon="-5.391147">
        <ele>253.153</ele>
        <time>2019-10-24T14:50:39Z</time>
      </trkpt>
      <trkpt lat="35.436047" lon="-5.390633">
        <ele>251.859</ele>
        <time>2019-10-24T14:50:58Z</time>
      </trkpt>
      <trkpt lat="35.436354" lon="-5.390860">
        <ele>252.103</ele>
        <time>2019-10-24T14:51:04Z</time>
      </trkpt>
      <trkpt lat="35.436589" lon="-5.391545">
        <ele>255.523</ele>
        <time>2019-10-24T14:51:21Z</time>
      </trkpt>
      <trkpt lat="35.436892" lon="-5.391781">
        <ele>257.308</ele>
        <time>2019-10-24T14:51:37Z</time>
      </trkpt>
      <trkpt lat="35.438144" lon="-5.391188">
        <ele>272.619</ele>
        <time>2019-10-24T14:52:48Z</time>
      </trkpt>
      <trkpt lat="35.438941" lon="-5.391242">
        <ele>273.697</ele>
        <time>2019-10-24T14:53:16Z</time>
      </trkpt>
      <trkpt lat="35.440081" lon="-5.390849">
        <ele>281.232</ele>
        <time>2019-10-24T14:54:04Z</time>
      </trkpt>
      <trkpt lat="35.440792" lon="-5.391092">
        <ele>280.794</ele>
        <time>2019-10-24T14:54:32Z</time>
      </trkpt>
      <trkpt lat="35.441363" lon="-5.392045">
        <ele>284.431</ele>
        <time>2019-10-24T14:55:06Z</time>
      </trkpt>
      <trkpt lat="35.442451" lon="-5.392568">
        <ele>286.519</ele>
        <time>2019-10-24T14:55:39Z</time>
      </trkpt>
      <trkpt lat="35.443349" lon="-5.392098">
        <ele>290.350</ele>
        <time>2019-10-24T14:56:12Z</time>
      </trkpt>
      <trkpt lat="35.445847" lon="-5.392936">
        <ele>295.133</ele>
        <time>2019-10-24T14:57:32Z</time>
      </trkpt>
      <trkpt lat="35.446440" lon="-5.393381">
        <ele>297.171</ele>
        <time>2019-10-24T14:57:56Z</time>
      </trkpt>
      <trkpt lat="35.446414" lon="-5.393718">
        <ele>298.741</ele>
        <time>2019-10-24T14:58:32Z</time>
      </trkpt>
      <trkpt lat="35.446241" lon="-5.393405">
        <ele>299.615</ele>
        <time>2019-10-24T14:59:40Z</time>
      </trkpt>
      <trkpt lat="35.446246" lon="-5.393582">
        <ele>293.708</ele>
        <time>2019-10-24T15:02:03Z</time>
      </trkpt>
      <trkpt lat="35.446254" lon="-5.393300">
        <ele>294.561</ele>
        <time>2019-10-24T16:08:40Z</time>
      </trkpt>
      <trkpt lat="35.447094" lon="-5.393778">
        <ele>297.149</ele>
        <time>2019-10-24T16:11:33Z</time>
      </trkpt>
      <trkpt lat="35.448018" lon="-5.393779">
        <ele>293.174</ele>
        <time>2019-10-24T16:11:48Z</time>
      </trkpt>
      <trkpt lat="35.448236" lon="-5.394119">
        <ele>291.066</ele>
        <time>2019-10-24T16:11:53Z</time>
      </trkpt>
      <trkpt lat="35.448218" lon="-5.395468">
        <ele>286.713</ele>
        <time>2019-10-24T16:12:06Z</time>
      </trkpt>
      <trkpt lat="35.449613" lon="-5.396152">
        <ele>279.541</ele>
        <time>2019-10-24T16:12:23Z</time>
      </trkpt>
      <trkpt lat="35.450285" lon="-5.397093">
        <ele>272.612</ele>
        <time>2019-10-24T16:12:36Z</time>
      </trkpt>
      <trkpt lat="35.452517" lon="-5.395449">
        <ele>258.375</ele>
        <time>2019-10-24T16:13:06Z</time>
      </trkpt>
      <trkpt lat="35.452924" lon="-5.395478">
        <ele>256.633</ele>
        <time>2019-10-24T16:13:13Z</time>
      </trkpt>
      <trkpt lat="35.453158" lon="-5.395920">
        <ele>255.123</ele>
        <time>2019-10-24T16:13:20Z</time>
      </trkpt>
      <trkpt lat="35.453163" lon="-5.397205">
        <ele>257.615</ele>
        <time>2019-10-24T16:13:47Z</time>
      </trkpt>
      <trkpt lat="35.453739" lon="-5.398567">
        <ele>271.708</ele>
        <time>2019-10-24T16:14:39Z</time>
      </trkpt>
      <trkpt lat="35.455704" lon="-5.399564">
        <ele>273.327</ele>
        <time>2019-10-24T16:15:53Z</time>
      </trkpt>
      <trkpt lat="35.457436" lon="-5.399650">
        <ele>285.475</ele>
        <time>2019-10-24T16:16:57Z</time>
      </trkpt>
      <trkpt lat="35.458697" lon="-5.400852">
        <ele>287.090</ele>
        <time>2019-10-24T16:17:47Z</time>
      </trkpt>
      <trkpt lat="35.459121" lon="-5.403292">
        <ele>282.442</ele>
        <time>2019-10-24T16:18:11Z</time>
      </trkpt>
      <trkpt lat="35.458508" lon="-5.404660">
        <ele>272.749</ele>
        <time>2019-10-24T16:18:24Z</time>
      </trkpt>
      <trkpt lat="35.458986" lon="-5.405229">
        <ele>266.687</ele>
        <time>2019-10-24T16:18:31Z</time>
      </trkpt>
      <trkpt lat="35.460160" lon="-5.404487">
        <ele>257.998</ele>
        <time>2019-10-24T16:18:45Z</time>
      </trkpt>
      <trkpt lat="35.461050" lon="-5.404784">
        <ele>252.431</ele>
        <time>2019-10-24T16:18:55Z</time>
      </trkpt>
      <trkpt lat="35.461930" lon="-5.404437">
        <ele>248.488</ele>
        <time>2019-10-24T16:19:04Z</time>
      </trkpt>
      <trkpt lat="35.464306" lon="-5.404365">
        <ele>232.924</ele>
        <time>2019-10-24T16:19:27Z</time>
      </trkpt>
      <trkpt lat="35.465195" lon="-5.403708">
        <ele>226.026</ele>
        <time>2019-10-24T16:19:39Z</time>
      </trkpt>
      <trkpt lat="35.465656" lon="-5.402545">
        <ele>223.208</ele>
        <time>2019-10-24T16:19:55Z</time>
      </trkpt>
      <trkpt lat="35.466445" lon="-5.402940">
        <ele>222.982</ele>
        <time>2019-10-24T16:20:11Z</time>
      </trkpt>
      <trkpt lat="35.467089" lon="-5.403659">
        <ele>226.110</ele>
        <time>2019-10-24T16:20:33Z</time>
      </trkpt>
      <trkpt lat="35.467508" lon="-5.403767">
        <ele>231.865</ele>
        <time>2019-10-24T16:20:52Z</time>
      </trkpt>
      <trkpt lat="35.471343" lon="-5.402635">
        <ele>245.067</ele>
        <time>2019-10-24T16:22:37Z</time>
      </trkpt>
      <trkpt lat="35.472043" lon="-5.403065">
        <ele>238.384</ele>
        <time>2019-10-24T16:22:53Z</time>
      </trkpt>
      <trkpt lat="35.472467" lon="-5.404373">
        <ele>233.932</ele>
        <time>2019-10-24T16:23:12Z</time>
      </trkpt>
      <trkpt lat="35.473745" lon="-5.405131">
        <ele>231.073</ele>
        <time>2019-10-24T16:23:34Z</time>
      </trkpt>
      <trkpt lat="35.474803" lon="-5.406564">
        <ele>228.776</ele>
        <time>2019-10-24T16:23:52Z</time>
      </trkpt>
      <trkpt lat="35.475547" lon="-5.406862">
        <ele>227.197</ele>
        <time>2019-10-24T16:24:01Z</time>
      </trkpt>
      <trkpt lat="35.476753" lon="-5.406846">
        <ele>222.123</ele>
        <time>2019-10-24T16:24:17Z</time>
      </trkpt>
      <trkpt lat="35.477887" lon="-5.407427">
        <ele>217.425</ele>
        <time>2019-10-24T16:24:34Z</time>
      </trkpt>
      <trkpt lat="35.478723" lon="-5.408312">
        <ele>216.308</ele>
        <time>2019-10-24T16:24:48Z</time>
      </trkpt>
      <trkpt lat="35.480090" lon="-5.408632">
        <ele>213.443</ele>
        <time>2019-10-24T16:25:06Z</time>
      </trkpt>
      <trkpt lat="35.480965" lon="-5.409794">
        <ele>211.421</ele>
        <time>2019-10-24T16:25:22Z</time>
      </trkpt>
      <trkpt lat="35.482206" lon="-5.410275">
        <ele>205.596</ele>
        <time>2019-10-24T16:25:41Z</time>
      </trkpt>
      <trkpt lat="35.482837" lon="-5.411768">
        <ele>203.368</ele>
        <time>2019-10-24T16:26:36Z</time>
      </trkpt>
      <trkpt lat="35.484143" lon="-5.412542">
        <ele>202.085</ele>
        <time>2019-10-24T16:27:19Z</time>
      </trkpt>
      <trkpt lat="35.484923" lon="-5.414542">
        <ele>193.823</ele>
        <time>2019-10-24T16:27:52Z</time>
      </trkpt>
      <trkpt lat="35.485573" lon="-5.416989">
        <ele>190.884</ele>
        <time>2019-10-24T16:28:23Z</time>
      </trkpt>
      <trkpt lat="35.487470" lon="-5.420826">
        <ele>182.937</ele>
        <time>2019-10-24T16:29:13Z</time>
      </trkpt>
      <trkpt lat="35.487949" lon="-5.421182">
        <ele>184.633</ele>
        <time>2019-10-24T16:29:21Z</time>
      </trkpt>
      <trkpt lat="35.489169" lon="-5.421316">
        <ele>182.223</ele>
        <time>2019-10-24T16:29:38Z</time>
      </trkpt>
      <trkpt lat="35.489988" lon="-5.422002">
        <ele>180.915</ele>
        <time>2019-10-24T16:29:52Z</time>
      </trkpt>
      <trkpt lat="35.490933" lon="-5.422273">
        <ele>178.008</ele>
        <time>2019-10-24T16:30:06Z</time>
      </trkpt>
      <trkpt lat="35.491326" lon="-5.422636">
        <ele>177.027</ele>
        <time>2019-10-24T16:30:12Z</time>
      </trkpt>
      <trkpt lat="35.491915" lon="-5.424206">
        <ele>173.755</ele>
        <time>2019-10-24T16:30:30Z</time>
      </trkpt>
      <trkpt lat="35.492602" lon="-5.425301">
        <ele>169.830</ele>
        <time>2019-10-24T16:30:46Z</time>
      </trkpt>
      <trkpt lat="35.493219" lon="-5.427463">
        <ele>163.642</ele>
        <time>2019-10-24T16:31:11Z</time>
      </trkpt>
      <trkpt lat="35.494783" lon="-5.428111">
        <ele>161.639</ele>
        <time>2019-10-24T16:31:34Z</time>
      </trkpt>
      <trkpt lat="35.495473" lon="-5.429116">
        <ele>158.847</ele>
        <time>2019-10-24T16:31:48Z</time>
      </trkpt>
      <trkpt lat="35.496557" lon="-5.430002">
        <ele>158.728</ele>
        <time>2019-10-24T16:32:07Z</time>
      </trkpt>
      <trkpt lat="35.497106" lon="-5.433674">
        <ele>150.811</ele>
        <time>2019-10-24T16:32:49Z</time>
      </trkpt>
      <trkpt lat="35.498287" lon="-5.435440">
        <ele>148.085</ele>
        <time>2019-10-24T16:33:17Z</time>
      </trkpt>
      <trkpt lat="35.498896" lon="-5.435548">
        <ele>148.689</ele>
        <time>2019-10-24T16:33:26Z</time>
      </trkpt>
      <trkpt lat="35.500305" lon="-5.434523">
        <ele>143.717</ele>
        <time>2019-10-24T16:33:48Z</time>
      </trkpt>
      <trkpt lat="35.502672" lon="-5.435624">
        <ele>142.208</ele>
        <time>2019-10-24T16:34:23Z</time>
      </trkpt>
      <trkpt lat="35.504689" lon="-5.435959">
        <ele>139.122</ele>
        <time>2019-10-24T16:34:56Z</time>
      </trkpt>
      <trkpt lat="35.505164" lon="-5.436459">
        <ele>137.230</ele>
        <time>2019-10-24T16:35:06Z</time>
      </trkpt>
      <trkpt lat="35.505982" lon="-5.438569">
        <ele>130.775</ele>
        <time>2019-10-24T16:35:35Z</time>
      </trkpt>
      <trkpt lat="35.508890" lon="-5.440280">
        <ele>130.237</ele>
        <time>2019-10-24T16:36:25Z</time>
      </trkpt>
      <trkpt lat="35.509814" lon="-5.440283">
        <ele>128.524</ele>
        <time>2019-10-24T16:36:39Z</time>
      </trkpt>
      <trkpt lat="35.511240" lon="-5.439404">
        <ele>123.362</ele>
        <time>2019-10-24T16:37:02Z</time>
      </trkpt>
      <trkpt lat="35.511936" lon="-5.438373">
        <ele>119.313</ele>
        <time>2019-10-24T16:37:18Z</time>
      </trkpt>
      <trkpt lat="35.512350" lon="-5.438106">
        <ele>119.986</ele>
        <time>2019-10-24T16:37:25Z</time>
      </trkpt>
      <trkpt lat="35.515257" lon="-5.437922">
        <ele>117.899</ele>
        <time>2019-10-24T16:38:02Z</time>
      </trkpt>
      <trkpt lat="35.517287" lon="-5.436808">
        <ele>113.507</ele>
        <time>2019-10-24T16:38:31Z</time>
      </trkpt>
      <trkpt lat="35.518491" lon="-5.436707">
        <ele>112.727</ele>
        <time>2019-10-24T16:38:48Z</time>
      </trkpt>
      <trkpt lat="35.519880" lon="-5.435315">
        <ele>111.808</ele>
        <time>2019-10-24T16:39:15Z</time>
      </trkpt>
      <trkpt lat="35.520799" lon="-5.435541">
        <ele>110.663</ele>
        <time>2019-10-24T16:39:29Z</time>
      </trkpt>
      <trkpt lat="35.522261" lon="-5.436369">
        <ele>110.211</ele>
        <time>2019-10-24T16:39:52Z</time>
      </trkpt>
      <trkpt lat="35.523300" lon="-5.436446">
        <ele>109.296</ele>
        <time>2019-10-24T16:40:08Z</time>
      </trkpt>
      <trkpt lat="35.524192" lon="-5.436930">
        <ele>109.668</ele>
        <time>2019-10-24T16:40:22Z</time>
      </trkpt>
      <trkpt lat="35.524674" lon="-5.436912">
        <ele>108.295</ele>
        <time>2019-10-24T16:40:29Z</time>
      </trkpt>
      <trkpt lat="35.525845" lon="-5.436165">
        <ele>103.223</ele>
        <time>2019-10-24T16:40:48Z</time>
      </trkpt>
      <trkpt lat="35.527025" lon="-5.434925">
        <ele>98.844</ele>
        <time>2019-10-24T16:41:11Z</time>
      </trkpt>
      <trkpt lat="35.527819" lon="-5.433164">
        <ele>98.097</ele>
        <time>2019-10-24T16:41:33Z</time>
      </trkpt>
      <trkpt lat="35.533763" lon="-5.426646">
        <ele>90.055</ele>
        <time>2019-10-24T16:43:25Z</time>
      </trkpt>
      <trkpt lat="35.534130" lon="-5.425487">
        <ele>88.107</ele>
        <time>2019-10-24T16:43:37Z</time>
      </trkpt>
      <trkpt lat="35.534593" lon="-5.424975">
        <ele>86.117</ele>
        <time>2019-10-24T16:43:46Z</time>
      </trkpt>
      <trkpt lat="35.535877" lon="-5.424721">
        <ele>84.008</ele>
        <time>2019-10-24T16:44:03Z</time>
      </trkpt>
      <trkpt lat="35.537124" lon="-5.423891">
        <ele>83.339</ele>
        <time>2019-10-24T16:44:23Z</time>
      </trkpt>
      <trkpt lat="35.538572" lon="-5.424081">
        <ele>82.737</ele>
        <time>2019-10-24T16:44:44Z</time>
      </trkpt>
      <trkpt lat="35.540006" lon="-5.423636">
        <ele>82.472</ele>
        <time>2019-10-24T16:45:05Z</time>
      </trkpt>
      <trkpt lat="35.541581" lon="-5.424308">
        <ele>86.024</ele>
        <time>2019-10-24T16:45:27Z</time>
      </trkpt>
      <trkpt lat="35.542789" lon="-5.424266">
        <ele>84.691</ele>
        <time>2019-10-24T16:45:45Z</time>
      </trkpt>
      <trkpt lat="35.545050" lon="-5.424697">
        <ele>78.649</ele>
        <time>2019-10-24T16:46:18Z</time>
      </trkpt>
      <trkpt lat="35.546269" lon="-5.424471">
        <ele>78.130</ele>
        <time>2019-10-24T16:46:36Z</time>
      </trkpt>
      <trkpt lat="35.547331" lon="-5.423815">
        <ele>72.383</ele>
        <time>2019-10-24T16:46:51Z</time>
      </trkpt>
      <trkpt lat="35.552753" lon="-5.418622">
        <ele>66.348</ele>
        <time>2019-10-24T16:49:22Z</time>
      </trkpt>
      <trkpt lat="35.555405" lon="-5.413679">
        <ele>60.061</ele>
        <time>2019-10-24T16:50:29Z</time>
      </trkpt>
      <trkpt lat="35.555936" lon="-5.413229">
        <ele>58.717</ele>
        <time>2019-10-24T16:50:40Z</time>
      </trkpt>
      <trkpt lat="35.557677" lon="-5.412573">
        <ele>52.008</ele>
        <time>2019-10-24T16:51:11Z</time>
      </trkpt>
      <trkpt lat="35.561952" lon="-5.412172">
        <ele>49.678</ele>
        <time>2019-10-24T16:52:28Z</time>
      </trkpt>
      <trkpt lat="35.565170" lon="-5.412337">
        <ele>54.746</ele>
        <time>2019-10-24T16:53:26Z</time>
      </trkpt>
      <trkpt lat="35.565629" lon="-5.410715">
        <ele>59.961</ele>
        <time>2019-10-24T16:53:53Z</time>
      </trkpt>
      <trkpt lat="35.566795" lon="-5.408427">
        <ele>52.053</ele>
        <time>2019-10-24T16:54:28Z</time>
      </trkpt>
      <trkpt lat="35.567221" lon="-5.405443">
        <ele>51.580</ele>
        <time>2019-10-24T16:55:09Z</time>
      </trkpt>
      <trkpt lat="35.566874" lon="-5.403920">
        <ele>52.858</ele>
        <time>2019-10-24T16:55:32Z</time>
      </trkpt>
      <trkpt lat="35.565454" lon="-5.402104">
        <ele>53.239</ele>
        <time>2019-10-24T16:56:04Z</time>
      </trkpt>
      <trkpt lat="35.565123" lon="-5.401151">
        <ele>52.382</ele>
        <time>2019-10-24T16:56:19Z</time>
      </trkpt>
      <trkpt lat="35.565467" lon="-5.398903">
        <ele>57.479</ele>
        <time>2019-10-24T16:56:46Z</time>
      </trkpt>
      <trkpt lat="35.564794" lon="-5.396656">
        <ele>56.305</ele>
        <time>2019-10-24T16:57:19Z</time>
      </trkpt>
      <trkpt lat="35.564952" lon="-5.393287">
        <ele>56.725</ele>
        <time>2019-10-24T16:58:06Z</time>
      </trkpt>
      <trkpt lat="35.564819" lon="-5.392533">
        <ele>59.808</ele>
        <time>2019-10-24T16:59:11Z</time>
      </trkpt>
      <trkpt lat="35.564860" lon="-5.392761">
        <ele>57.911</ele>
        <time>2019-10-24T16:59:29Z</time>
      </trkpt>
      <trkpt lat="35.565247" lon="-5.392694">
        <ele>57.619</ele>
        <time>2019-10-24T16:59:47Z</time>
      </trkpt>
      <trkpt lat="35.566427" lon="-5.390816">
        <ele>57.924</ele>
        <time>2019-10-24T17:00:37Z</time>
      </trkpt>
      <trkpt lat="35.569223" lon="-5.388103">
        <ele>82.776</ele>
        <time>2019-10-24T17:04:51Z</time>
      </trkpt>
      <trkpt lat="35.570028" lon="-5.386452">
        <ele>97.123</ele>
        <time>2019-10-24T17:05:45Z</time>
      </trkpt>
      <trkpt lat="35.569991" lon="-5.385511">
        <ele>100.821</ele>
        <time>2019-10-24T17:06:11Z</time>
      </trkpt>
      <trkpt lat="35.570270" lon="-5.385560">
        <ele>96.862</ele>
        <time>2019-10-24T17:06:21Z</time>
      </trkpt>
      <trkpt lat="35.570357" lon="-5.385953">
        <ele>93.275</ele>
        <time>2019-10-24T17:06:34Z</time>
      </trkpt>
      <trkpt lat="35.571203" lon="-5.386226">
        <ele>97.826</ele>
        <time>2019-10-24T17:07:28Z</time>
      </trkpt>
      <trkpt lat="35.571694" lon="-5.385905">
        <ele>96.747</ele>
        <time>2019-10-24T17:07:46Z</time>
      </trkpt>
      <trkpt lat="35.572183" lon="-5.384886">
        <ele>107.911</ele>
        <time>2019-10-24T17:08:20Z</time>
      </trkpt>
      <trkpt lat="35.572956" lon="-5.380404">
        <ele>111.708</ele>
        <time>2019-10-24T17:10:18Z</time>
      </trkpt>
      <trkpt lat="35.572766" lon="-5.378202">
        <ele>138.196</ele>
        <time>2019-10-24T17:11:33Z</time>
      </trkpt>
      <trkpt lat="35.570322" lon="-5.374623">
        <ele>135.944</ele>
        <time>2019-10-24T17:15:24Z</time>
      </trkpt>
      <trkpt lat="35.569927" lon="-5.374326">
        <ele>123.129</ele>
        <time>2019-10-24T17:16:58Z</time>
      </trkpt>
      <trkpt lat="35.570119" lon="-5.373898">
        <ele>122.921</ele>
        <time>2019-10-24T17:17:18Z</time>
      </trkpt>
      <trkpt lat="35.570051" lon="-5.370731">
        <ele>137.798</ele>
        <time>2019-10-24T17:19:48Z</time>
      </trkpt>
      <trkpt lat="35.569439" lon="-5.370395">
        <ele>124.976</ele>
        <time>2019-10-24T17:21:50Z</time>
      </trkpt>
      <trkpt lat="35.569933" lon="-5.370417">
        <ele>119.777</ele>
        <time>2019-10-24T17:22:27Z</time>
      </trkpt>
      <trkpt lat="35.570062" lon="-5.369460">
        <ele>120.960</ele>
        <time>2019-10-24T17:22:57Z</time>
      </trkpt>
      <trkpt lat="35.570051" lon="-5.370296">
        <ele>117.948</ele>
        <time>2019-10-24T17:26:44Z</time>
      </trkpt>
      <trkpt lat="35.570702" lon="-5.370813">
        <ele>131.661</ele>
        <time>2019-10-24T17:27:51Z</time>
      </trkpt>
      <trkpt lat="35.571354" lon="-5.371919">
        <ele>137.617</ele>
        <time>2019-10-24T17:28:37Z</time>
      </trkpt>
      <trkpt lat="35.571467" lon="-5.373424">
        <ele>87.408</ele>
        <time>2019-10-24T17:32:21Z</time>
      </trkpt>
      <trkpt lat="35.570495" lon="-5.374069">
        <ele>86.188</ele>
        <time>2019-10-24T17:33:00Z</time>
      </trkpt>
      <trkpt lat="35.570278" lon="-5.374495">
        <ele>85.456</ele>
        <time>2019-10-24T17:33:33Z</time>
      </trkpt>
      <trkpt lat="35.569880" lon="-5.374373">
        <ele>81.641</ele>
        <time>2019-10-24T17:33:46Z</time>
      </trkpt>
      <trkpt lat="35.569938" lon="-5.373981">
        <ele>74.533</ele>
        <time>2019-10-24T17:33:59Z</time>
      </trkpt>
      <trkpt lat="35.569508" lon="-5.373358">
        <ele>73.940</ele>
        <time>2019-10-24T17:34:24Z</time>
      </trkpt>
      <trkpt lat="35.569462" lon="-5.370684">
        <ele>89.078</ele>
        <time>2019-10-24T17:36:01Z</time>
      </trkpt>
      <trkpt lat="35.568538" lon="-5.370301">
        <ele>97.849</ele>
        <time>2019-10-24T17:37:58Z</time>
      </trkpt>
      <trkpt lat="35.568715" lon="-5.369410">
        <ele>127.632</ele>
        <time>2019-10-24T17:38:39Z</time>
      </trkpt>
      <trkpt lat="35.568117" lon="-5.369095">
        <ele>126.029</ele>
        <time>2019-10-24T17:39:00Z</time>
      </trkpt>
      <trkpt lat="35.568372" lon="-5.368425">
        <ele>120.800</ele>
        <time>2019-10-24T17:39:24Z</time>
      </trkpt>
      <trkpt lat="35.568074" lon="-5.368288">
        <ele>122.920</ele>
        <time>2019-10-24T17:40:14Z</time>
      </trkpt>
      <trkpt lat="35.568244" lon="-5.367691">
        <ele>121.708</ele>
        <time>2019-10-24T17:40:33Z</time>
      </trkpt>
      <trkpt lat="35.568494" lon="-5.367870">
        <ele>121.786</ele>
        <time>2019-10-24T17:40:48Z</time>
      </trkpt>
      <trkpt lat="35.568678" lon="-5.367711">
        <ele>121.214</ele>
        <time>2019-10-24T17:41:02Z</time>
      </trkpt>
      <trkpt lat="35.569761" lon="-5.369402">
        <ele>131.519</ele>
        <time>2019-10-24T17:42:53Z</time>
      </trkpt>
      <trkpt lat="35.569468" lon="-5.369988">
        <ele>128.261</ele>
        <time>2019-10-24T17:43:48Z</time>
      </trkpt>
      <trkpt lat="35.569596" lon="-5.371183">
        <ele>124.978</ele>
        <time>2019-10-24T17:44:49Z</time>
      </trkpt>
      <trkpt lat="35.569099" lon="-5.371175">
        <ele>124.336</ele>
        <time>2019-10-24T17:45:34Z</time>
      </trkpt>
      <trkpt lat="35.569044" lon="-5.372165">
        <ele>121.597</ele>
        <time>2019-10-24T17:46:10Z</time>
      </trkpt>
      <trkpt lat="35.568296" lon="-5.372664">
        <ele>123.070</ele>
        <time>2019-10-24T17:46:32Z</time>
      </trkpt>
      <trkpt lat="35.568044" lon="-5.372507">
        <ele>120.475</ele>
        <time>2019-10-24T17:46:38Z</time>
      </trkpt>
      <trkpt lat="35.567400" lon="-5.371018">
        <ele>109.828</ele>
        <time>2019-10-24T17:47:04Z</time>
      </trkpt>
      <trkpt lat="35.566732" lon="-5.367079">
        <ele>92.720</ele>
        <time>2019-10-24T17:49:29Z</time>
      </trkpt>
      <trkpt lat="35.568709" lon="-5.361128">
        <ele>85.008</ele>
        <time>2019-10-24T17:50:56Z</time>
      </trkpt>
      <trkpt lat="35.569166" lon="-5.360315">
        <ele>85.381</ele>
        <time>2019-10-24T17:51:09Z</time>
      </trkpt>
      <trkpt lat="35.569927" lon="-5.359723">
        <ele>89.689</ele>
        <time>2019-10-24T17:51:27Z</time>
      </trkpt>
      <trkpt lat="35.571585" lon="-5.359438">
        <ele>93.244</ele>
        <time>2019-10-24T17:52:02Z</time>
      </trkpt>
      <trkpt lat="35.572658" lon="-5.359946">
        <ele>93.326</ele>
        <time>2019-10-24T17:52:25Z</time>
      </trkpt>
      <trkpt lat="35.573815" lon="-5.360091">
        <ele>91.273</ele>
        <time>2019-10-24T17:52:46Z</time>
      </trkpt>
      <trkpt lat="35.575095" lon="-5.359553">
        <ele>86.671</ele>
        <time>2019-10-24T17:53:06Z</time>
      </trkpt>
      <trkpt lat="35.576947" lon="-5.357634">
        <ele>87.542</ele>
        <time>2019-10-24T17:53:46Z</time>
      </trkpt>
      <trkpt lat="35.577405" lon="-5.356871">
        <ele>82.685</ele>
        <time>2019-10-24T17:54:15Z</time>
      </trkpt>
      <trkpt lat="35.585700" lon="-5.347796">
        <ele>83.426</ele>
        <time>2019-10-24T17:57:33Z</time>
      </trkpt>
      <trkpt lat="35.589260" lon="-5.344995">
        <ele>70.947</ele>
        <time>2019-10-24T17:58:42Z</time>
      </trkpt>
      <trkpt lat="35.589840" lon="-5.345037">
        <ele>70.411</ele>
        <time>2019-10-24T17:58:51Z</time>
      </trkpt>
      <trkpt lat="35.591267" lon="-5.344382">
        <ele>69.808</ele>
        <time>2019-10-24T17:59:12Z</time>
      </trkpt>
      <trkpt lat="35.592350" lon="-5.342691">
        <ele>64.796</ele>
        <time>2019-10-24T17:59:39Z</time>
      </trkpt>
      <trkpt lat="35.596805" lon="-5.339641">
        <ele>62.664</ele>
        <time>2019-10-24T18:00:49Z</time>
      </trkpt>
      <trkpt lat="35.598363" lon="-5.337622">
        <ele>60.239</ele>
        <time>2019-10-24T18:01:28Z</time>
      </trkpt>
      <trkpt lat="35.600333" lon="-5.336404">
        <ele>61.551</ele>
        <time>2019-10-24T18:02:06Z</time>
      </trkpt>
      <trkpt lat="35.600812" lon="-5.336569">
        <ele>61.928</ele>
        <time>2019-10-24T18:02:35Z</time>
      </trkpt>
      <trkpt lat="35.602162" lon="-5.336438">
        <ele>60.016</ele>
        <time>2019-10-24T18:02:57Z</time>
      </trkpt>
      <trkpt lat="35.604027" lon="-5.335328">
        <ele>58.047</ele>
        <time>2019-10-24T18:03:29Z</time>
      </trkpt>
      <trkpt lat="35.604396" lon="-5.335414">
        <ele>56.940</ele>
        <time>2019-10-24T18:03:35Z</time>
      </trkpt>
      <trkpt lat="35.607498" lon="-5.334508">
        <ele>57.078</ele>
        <time>2019-10-24T18:04:21Z</time>
      </trkpt>
      <trkpt lat="35.609508" lon="-5.334302">
        <ele>60.133</ele>
        <time>2019-10-24T18:04:53Z</time>
      </trkpt>
      <trkpt lat="35.611401" lon="-5.333181">
        <ele>63.526</ele>
        <time>2019-10-24T18:05:32Z</time>
      </trkpt>
      <trkpt lat="35.615003" lon="-5.332231">
        <ele>64.408</ele>
        <time>2019-10-24T18:06:42Z</time>
      </trkpt>
      <trkpt lat="35.617331" lon="-5.330619">
        <ele>66.431</ele>
        <time>2019-10-24T18:07:31Z</time>
      </trkpt>
      <trkpt lat="35.625268" lon="-5.327031">
        <ele>62.429</ele>
        <time>2019-10-24T18:13:17Z</time>
      </trkpt>
      <trkpt lat="35.625673" lon="-5.327127">
        <ele>60.794</ele>
        <time>2019-10-24T18:13:23Z</time>
      </trkpt>
      <trkpt lat="35.654929" lon="-5.319151">
        <ele>52.586</ele>
        <time>2019-10-24T18:21:41Z</time>
      </trkpt>
      <trkpt lat="35.658051" lon="-5.318968">
        <ele>66.673</ele>
        <time>2019-10-24T18:22:40Z</time>
      </trkpt>
      <trkpt lat="35.664659" lon="-5.317772">
        <ele>73.941</ele>
        <time>2019-10-24T18:24:59Z</time>
      </trkpt>
      <trkpt lat="35.666123" lon="-5.317814">
        <ele>74.282</ele>
        <time>2019-10-24T18:25:36Z</time>
      </trkpt>
      <trkpt lat="35.670613" lon="-5.320666">
        <ele>90.715</ele>
        <time>2019-10-24T18:27:55Z</time>
      </trkpt>
      <trkpt lat="35.672519" lon="-5.321509">
        <ele>99.742</ele>
        <time>2019-10-24T18:29:03Z</time>
      </trkpt>
      <trkpt lat="35.679051" lon="-5.321368">
        <ele>81.822</ele>
        <time>2019-10-24T18:30:24Z</time>
      </trkpt>
      <trkpt lat="35.682105" lon="-5.320837">
        <ele>62.414</ele>
        <time>2019-10-24T18:30:55Z</time>
      </trkpt>
      <trkpt lat="35.683333" lon="-5.320897">
        <ele>54.008</ele>
        <time>2019-10-24T18:31:11Z</time>
      </trkpt>
      <trkpt lat="35.688790" lon="-5.325646">
        <ele>45.538</ele>
        <time>2019-10-24T18:33:01Z</time>
      </trkpt>
      <trkpt lat="35.696285" lon="-5.330253">
        <ele>50.036</ele>
        <time>2019-10-24T18:35:47Z</time>
      </trkpt>
      <trkpt lat="35.703967" lon="-5.333392">
        <ele>53.841</ele>
        <time>2019-10-24T18:41:10Z</time>
      </trkpt>
      <trkpt lat="35.708344" lon="-5.334388">
        <ele>52.233</ele>
        <time>2019-10-24T18:42:27Z</time>
      </trkpt>
      <trkpt lat="35.713462" lon="-5.336594">
        <ele>54.860</ele>
        <time>2019-10-24T18:44:08Z</time>
      </trkpt>
      <trkpt lat="35.718216" lon="-5.336770">
        <ele>53.628</ele>
        <time>2019-10-24T18:45:33Z</time>
      </trkpt>
      <trkpt lat="35.722224" lon="-5.339194">
        <ele>49.099</ele>
        <time>2019-10-24T18:48:01Z</time>
      </trkpt>
      <trkpt lat="35.737612" lon="-5.342340">
        <ele>53.912</ele>
        <time>2019-10-24T18:52:34Z</time>
      </trkpt>
      <trkpt lat="35.743609" lon="-5.344297">
        <ele>50.328</ele>
        <time>2019-10-24T18:54:21Z</time>
      </trkpt>
      <trkpt lat="35.745081" lon="-5.345407">
        <ele>50.789</ele>
        <time>2019-10-24T18:54:55Z</time>
      </trkpt>
      <trkpt lat="35.748761" lon="-5.346533">
        <ele>61.817</ele>
        <time>2019-10-24T18:57:32Z</time>
      </trkpt>
      <trkpt lat="35.752411" lon="-5.345439">
        <ele>58.508</ele>
        <time>2019-10-24T18:58:37Z</time>
      </trkpt>
      <trkpt lat="35.755782" lon="-5.347982">
        <ele>49.786</ele>
        <time>2019-10-24T18:59:45Z</time>
      </trkpt>
      <trkpt lat="35.757046" lon="-5.347793">
        <ele>59.884</ele>
        <time>2019-10-24T19:00:28Z</time>
      </trkpt>
      <trkpt lat="35.759595" lon="-5.347986">
        <ele>62.319</ele>
        <time>2019-10-24T19:01:34Z</time>
      </trkpt>
      <trkpt lat="35.760303" lon="-5.348359">
        <ele>65.941</ele>
        <time>2019-10-24T19:01:58Z</time>
      </trkpt>
      <trkpt lat="35.762085" lon="-5.348689">
        <ele>62.568</ele>
        <time>2019-10-24T19:02:34Z</time>
      </trkpt>
      <trkpt lat="35.763643" lon="-5.348397">
        <ele>55.226</ele>
        <time>2019-10-24T19:02:59Z</time>
      </trkpt>
      <trkpt lat="35.766285" lon="-5.348649">
        <ele>60.977</ele>
        <time>2019-10-24T19:04:00Z</time>
      </trkpt>
      <trkpt lat="35.770947" lon="-5.350055">
        <ele>49.010</ele>
        <time>2019-10-24T19:05:24Z</time>
      </trkpt>
      <trkpt lat="35.771723" lon="-5.349860">
        <ele>51.577</ele>
        <time>2019-10-24T19:05:40Z</time>
      </trkpt>
      <trkpt lat="35.773423" lon="-5.348505">
        <ele>53.561</ele>
        <time>2019-10-24T19:06:21Z</time>
      </trkpt>
      <trkpt lat="35.775248" lon="-5.348819">
        <ele>63.027</ele>
        <time>2019-10-24T19:07:09Z</time>
      </trkpt>
      <trkpt lat="35.777216" lon="-5.348410">
        <ele>67.908</ele>
        <time>2019-10-24T19:08:02Z</time>
      </trkpt>
      <trkpt lat="35.780071" lon="-5.348679">
        <ele>53.221</ele>
        <time>2019-10-24T19:08:55Z</time>
      </trkpt>
      <trkpt lat="35.781968" lon="-5.349462">
        <ele>61.979</ele>
        <time>2019-10-24T19:09:59Z</time>
      </trkpt>
      <trkpt lat="35.783217" lon="-5.350683">
        <ele>59.544</ele>
        <time>2019-10-24T19:10:35Z</time>
      </trkpt>
      <trkpt lat="35.785191" lon="-5.351506">
        <ele>57.696</ele>
        <time>2019-10-24T19:11:10Z</time>
      </trkpt>
      <trkpt lat="35.787526" lon="-5.353447">
        <ele>53.453</ele>
        <time>2019-10-24T19:11:59Z</time>
      </trkpt>
      <trkpt lat="35.791477" lon="-5.355681">
        <ele>51.581</ele>
        <time>2019-10-24T19:16:15Z</time>
      </trkpt>
      <trkpt lat="35.800822" lon="-5.356621">
        <ele>43.852</ele>
        <time>2019-10-24T19:18:53Z</time>
      </trkpt>
      <trkpt lat="35.801829" lon="-5.356535">
        <ele>43.965</ele>
        <time>2019-10-24T19:19:08Z</time>
      </trkpt>
      <trkpt lat="35.802688" lon="-5.356139">
        <ele>45.776</ele>
        <time>2019-10-24T19:19:23Z</time>
      </trkpt>
      <trkpt lat="35.805101" lon="-5.353625">
        <ele>53.690</ele>
        <time>2019-10-24T19:20:23Z</time>
      </trkpt>
      <trkpt lat="35.806637" lon="-5.352731">
        <ele>55.219</ele>
        <time>2019-10-24T19:20:58Z</time>
      </trkpt>
      <trkpt lat="35.807937" lon="-5.352586">
        <ele>57.208</ele>
        <time>2019-10-24T19:21:25Z</time>
      </trkpt>
      <trkpt lat="35.812046" lon="-5.352835">
        <ele>54.851</ele>
        <time>2019-10-24T19:22:40Z</time>
      </trkpt>
      <trkpt lat="35.818699" lon="-5.354157">
        <ele>61.519</ele>
        <time>2019-10-24T19:24:56Z</time>
      </trkpt>
      <trkpt lat="35.820345" lon="-5.354054">
        <ele>58.624</ele>
        <time>2019-10-24T19:25:22Z</time>
      </trkpt>
      <trkpt lat="35.823357" lon="-5.353228">
        <ele>51.016</ele>
        <time>2019-10-24T19:26:05Z</time>
      </trkpt>
      <trkpt lat="35.824649" lon="-5.353125">
        <ele>52.383</ele>
        <time>2019-10-24T19:26:26Z</time>
      </trkpt>
      <trkpt lat="35.827933" lon="-5.354014">
        <ele>49.711</ele>
        <time>2019-10-24T19:27:21Z</time>
      </trkpt>
      <trkpt lat="35.832005" lon="-5.354753">
        <ele>62.372</ele>
        <time>2019-10-24T19:29:22Z</time>
      </trkpt>
      <trkpt lat="35.833426" lon="-5.354652">
        <ele>69.515</ele>
        <time>2019-10-24T19:30:20Z</time>
      </trkpt>
      <trkpt lat="35.836868" lon="-5.355173">
        <ele>75.961</ele>
        <time>2019-10-24T19:32:06Z</time>
      </trkpt>
      <trkpt lat="35.839472" lon="-5.355951">
        <ele>72.721</ele>
        <time>2019-10-24T19:32:49Z</time>
      </trkpt>
      <trkpt lat="35.843729" lon="-5.353753">
        <ele>44.213</ele>
        <time>2019-10-24T19:33:49Z</time>
      </trkpt>
      <trkpt lat="35.845580" lon="-5.354022">
        <ele>48.308</ele>
        <time>2019-10-24T19:34:27Z</time>
      </trkpt>
      <trkpt lat="35.847062" lon="-5.353398">
        <ele>56.470</ele>
        <time>2019-10-24T19:35:33Z</time>
      </trkpt>
      <trkpt lat="35.849222" lon="-5.352944">
        <ele>56.468</ele>
        <time>2019-10-24T19:36:16Z</time>
      </trkpt>
      <trkpt lat="35.851156" lon="-5.351505">
        <ele>54.983</ele>
        <time>2019-10-24T19:36:54Z</time>
      </trkpt>
      <trkpt lat="35.852400" lon="-5.349655">
        <ele>50.935</ele>
        <time>2019-10-24T19:37:25Z</time>
      </trkpt>
      <trkpt lat="35.854205" lon="-5.347674">
        <ele>48.512</ele>
        <time>2019-10-24T19:38:01Z</time>
      </trkpt>
      <trkpt lat="35.854724" lon="-5.347398">
        <ele>51.640</ele>
        <time>2019-10-24T19:38:09Z</time>
      </trkpt>
      <trkpt lat="35.857556" lon="-5.347212">
        <ele>51.691</ele>
        <time>2019-10-24T19:38:56Z</time>
      </trkpt>
      <trkpt lat="35.859108" lon="-5.346600">
        <ele>51.454</ele>
        <time>2019-10-24T19:39:21Z</time>
      </trkpt>
      <trkpt lat="35.861828" lon="-5.345959">
        <ele>50.781</ele>
        <time>2019-10-24T19:40:03Z</time>
      </trkpt>
      <trkpt lat="35.863772" lon="-5.345778">
        <ele>49.161</ele>
        <time>2019-10-24T19:41:14Z</time>
      </trkpt>
      <trkpt lat="35.865548" lon="-5.344959">
        <ele>51.217</ele>
        <time>2019-10-24T19:41:49Z</time>
      </trkpt>
      <trkpt lat="35.866894" lon="-5.345022">
        <ele>49.008</ele>
        <time>2019-10-24T19:43:50Z</time>
      </trkpt>
      <trkpt lat="35.866596" lon="-5.345361">
        <ele>52.772</ele>
        <time>2019-10-24T19:44:09Z</time>
      </trkpt>
      <trkpt lat="35.866728" lon="-5.344904">
        <ele>53.850</ele>
        <time>2019-10-24T19:45:25Z</time>
      </trkpt>
      <trkpt lat="35.867959" lon="-5.345109">
        <ele>51.945</ele>
        <time>2019-10-24T19:46:38Z</time>
      </trkpt>
      <trkpt lat="35.869171" lon="-5.344726">
        <ele>46.287</ele>
        <time>2019-10-24T19:49:42Z</time>
      </trkpt>
      <trkpt lat="35.869979" lon="-5.344748">
        <ele>49.964</ele>
        <time>2019-10-24T19:50:21Z</time>
      </trkpt>
      <trkpt lat="35.871420" lon="-5.344358">
        <ele>50.722</ele>
        <time>2019-10-24T19:54:55Z</time>
      </trkpt>
      <trkpt lat="35.876096" lon="-5.340841">
        <ele>40.693</ele>
        <time>2019-10-24T19:57:59Z</time>
      </trkpt>
      <trkpt lat="35.876650" lon="-5.340663">
        <ele>42.426</ele>
        <time>2019-10-24T19:58:13Z</time>
      </trkpt>
      <trkpt lat="35.876771" lon="-5.340112">
        <ele>42.659</ele>
        <time>2019-10-24T19:58:23Z</time>
      </trkpt>
      <trkpt lat="35.878643" lon="-5.337885">
        <ele>43.003</ele>
        <time>2019-10-24T19:59:09Z</time>
      </trkpt>
      <trkpt lat="35.879598" lon="-5.336145">
        <ele>45.323</ele>
        <time>2019-10-24T20:01:30Z</time>
      </trkpt>
      <trkpt lat="35.878495" lon="-5.338129">
        <ele>44.808</ele>
        <time>2019-10-24T20:04:51Z</time>
      </trkpt>
      <trkpt lat="35.878541" lon="-5.338450">
        <ele>38.359</ele>
        <time>2019-10-24T20:08:02Z</time>
      </trkpt>
      <trkpt lat="35.878323" lon="-5.338565">
        <ele>45.027</ele>
        <time>2019-10-24T20:12:15Z</time>
      </trkpt>
      <trkpt lat="35.879550" lon="-5.336069">
        <ele>37.092</ele>
        <time>2019-10-24T20:20:02Z</time>
      </trkpt>
      <trkpt lat="35.879466" lon="-5.336287">
        <ele>41.424</ele>
        <time>2019-10-24T20:29:28Z</time>
      </trkpt>
    </trkseg>
  </trk>
</gpx>
